<?xml version="1.0" encoding="UTF-8" standalone="no" ?>
<gpx xmlns="http://www.topografix.com/GPX/1/1" xmlns:xsi="http://www.w3.org/2001/XMLSchema-instance" xsi:schemaLocation="http://www.topografix.com/GPX/1/1 http://www.topografix.com/GPX/1/1/gpx.xsd" version="1.1" creator="VisuGPX - https://www.visugpx.com">
  <metadata>
    <name>JUT</name>
  </metadata>
  <trk>
    <name><![CDATA[JUT_1]]></name>
    <trkseg>
      <trkpt lat="46.86367" lon="-1.00603">
        <ele>167.6</ele>
        <time>2021-12-19T07:56:55Z</time>
      </trkpt>
      <trkpt lat="46.86366" lon="-1.00603">
        <ele>167.6</ele>
        <time>2021-12-19T07:56:57Z</time>
      </trkpt>
      <trkpt lat="46.86366" lon="-1.00603">
        <ele>167.6</ele>
        <time>2021-12-19T07:56:58Z</time>
      </trkpt>
      <trkpt lat="46.86366" lon="-1.00603">
        <ele>167.6</ele>
        <time>2021-12-19T07:56:59Z</time>
      </trkpt>
      <trkpt lat="46.86366" lon="-1.00603">
        <ele>167.6</ele>
        <time>2021-12-19T07:57:00Z</time>
      </trkpt>
      <trkpt lat="46.86366" lon="-1.00604">
        <ele>167.6</ele>
        <time>2021-12-19T07:57:02Z</time>
      </trkpt>
      <trkpt lat="46.86366" lon="-1.00604">
        <ele>167.6</ele>
        <time>2021-12-19T07:57:03Z</time>
      </trkpt>
      <trkpt lat="46.86366" lon="-1.00604">
        <ele>167.6</ele>
        <time>2021-12-19T07:57:05Z</time>
      </trkpt>
      <trkpt lat="46.86366" lon="-1.00604">
        <ele>167.6</ele>
        <time>2021-12-19T07:57:07Z</time>
      </trkpt>
      <trkpt lat="46.86366" lon="-1.00604">
        <ele>167.6</ele>
        <time>2021-12-19T07:57:09Z</time>
      </trkpt>
      <trkpt lat="46.86366" lon="-1.00604">
        <ele>167.6</ele>
        <time>2021-12-19T07:57:10Z</time>
      </trkpt>
      <trkpt lat="46.86366" lon="-1.00604">
        <ele>167.6</ele>
        <time>2021-12-19T07:57:12Z</time>
      </trkpt>
      <trkpt lat="46.86366" lon="-1.00604">
        <ele>167.6</ele>
        <time>2021-12-19T07:57:13Z</time>
      </trkpt>
      <trkpt lat="46.86366" lon="-1.00605">
        <ele>167.6</ele>
        <time>2021-12-19T07:57:14Z</time>
      </trkpt>
      <trkpt lat="46.86366" lon="-1.00604">
        <ele>167.6</ele>
        <time>2021-12-19T07:57:16Z</time>
      </trkpt>
      <trkpt lat="46.86366" lon="-1.00604">
        <ele>167.6</ele>
        <time>2021-12-19T07:57:18Z</time>
      </trkpt>
      <trkpt lat="46.86366" lon="-1.00604">
        <ele>167.6</ele>
        <time>2021-12-19T07:57:20Z</time>
      </trkpt>
      <trkpt lat="46.86366" lon="-1.00604">
        <ele>167.6</ele>
        <time>2021-12-19T07:57:22Z</time>
      </trkpt>
      <trkpt lat="46.86366" lon="-1.00604">
        <ele>167.6</ele>
        <time>2021-12-19T07:57:23Z</time>
      </trkpt>
      <trkpt lat="46.86367" lon="-1.00604">
        <ele>167.6</ele>
        <time>2021-12-19T07:57:25Z</time>
      </trkpt>
      <trkpt lat="46.86367" lon="-1.00603">
        <ele>167.6</ele>
        <time>2021-12-19T07:57:27Z</time>
      </trkpt>
      <trkpt lat="46.86366" lon="-1.00604">
        <ele>167.6</ele>
        <time>2021-12-19T07:57:29Z</time>
      </trkpt>
      <trkpt lat="46.86366" lon="-1.00604">
        <ele>167.6</ele>
        <time>2021-12-19T07:57:30Z</time>
      </trkpt>
      <trkpt lat="46.86366" lon="-1.00604">
        <ele>167.6</ele>
        <time>2021-12-19T07:57:31Z</time>
      </trkpt>
      <trkpt lat="46.86366" lon="-1.00604">
        <ele>167.6</ele>
        <time>2021-12-19T07:57:32Z</time>
      </trkpt>
      <trkpt lat="46.86366" lon="-1.00604">
        <ele>167.6</ele>
        <time>2021-12-19T07:57:34Z</time>
      </trkpt>
      <trkpt lat="46.86366" lon="-1.00604">
        <ele>167.6</ele>
        <time>2021-12-19T07:57:36Z</time>
      </trkpt>
      <trkpt lat="46.86366" lon="-1.00604">
        <ele>167.6</ele>
        <time>2021-12-19T07:57:37Z</time>
      </trkpt>
      <trkpt lat="46.86366" lon="-1.00604">
        <ele>167.6</ele>
        <time>2021-12-19T07:57:39Z</time>
      </trkpt>
      <trkpt lat="46.86366" lon="-1.00604">
        <ele>167.6</ele>
        <time>2021-12-19T07:57:40Z</time>
      </trkpt>
      <trkpt lat="46.86366" lon="-1.00604">
        <ele>167.6</ele>
        <time>2021-12-19T07:57:42Z</time>
      </trkpt>
      <trkpt lat="46.86366" lon="-1.00604">
        <ele>167.6</ele>
        <time>2021-12-19T07:57:43Z</time>
      </trkpt>
      <trkpt lat="46.86366" lon="-1.00604">
        <ele>167.6</ele>
        <time>2021-12-19T07:57:45Z</time>
      </trkpt>
      <trkpt lat="46.86366" lon="-1.00604">
        <ele>167.6</ele>
        <time>2021-12-19T07:57:46Z</time>
      </trkpt>
      <trkpt lat="46.86366" lon="-1.00604">
        <ele>167.6</ele>
        <time>2021-12-19T07:57:48Z</time>
      </trkpt>
      <trkpt lat="46.86365" lon="-1.00604">
        <ele>167.6</ele>
        <time>2021-12-19T07:57:50Z</time>
      </trkpt>
      <trkpt lat="46.86365" lon="-1.00605">
        <ele>167.6</ele>
        <time>2021-12-19T07:57:51Z</time>
      </trkpt>
      <trkpt lat="46.86365" lon="-1.00605">
        <ele>167.6</ele>
        <time>2021-12-19T07:57:52Z</time>
      </trkpt>
      <trkpt lat="46.86365" lon="-1.00605">
        <ele>167.6</ele>
        <time>2021-12-19T07:57:53Z</time>
      </trkpt>
      <trkpt lat="46.86365" lon="-1.00605">
        <ele>167.6</ele>
        <time>2021-12-19T07:57:55Z</time>
      </trkpt>
      <trkpt lat="46.86365" lon="-1.00605">
        <ele>167.6</ele>
        <time>2021-12-19T07:57:57Z</time>
      </trkpt>
      <trkpt lat="46.86365" lon="-1.00605">
        <ele>167.6</ele>
        <time>2021-12-19T07:57:59Z</time>
      </trkpt>
      <trkpt lat="46.86365" lon="-1.00605">
        <ele>167.6</ele>
        <time>2021-12-19T07:58:01Z</time>
      </trkpt>
      <trkpt lat="46.86365" lon="-1.00605">
        <ele>167.6</ele>
        <time>2021-12-19T07:58:02Z</time>
      </trkpt>
      <trkpt lat="46.86365" lon="-1.00605">
        <ele>167.6</ele>
        <time>2021-12-19T07:58:03Z</time>
      </trkpt>
      <trkpt lat="46.86365" lon="-1.00605">
        <ele>167.6</ele>
        <time>2021-12-19T07:58:05Z</time>
      </trkpt>
      <trkpt lat="46.86365" lon="-1.00605">
        <ele>167.6</ele>
        <time>2021-12-19T07:58:06Z</time>
      </trkpt>
      <trkpt lat="46.86365" lon="-1.00605">
        <ele>167.6</ele>
        <time>2021-12-19T07:58:07Z</time>
      </trkpt>
      <trkpt lat="46.86365" lon="-1.00605">
        <ele>167.6</ele>
        <time>2021-12-19T07:58:09Z</time>
      </trkpt>
      <trkpt lat="46.86365" lon="-1.00605">
        <ele>167.6</ele>
        <time>2021-12-19T07:58:10Z</time>
      </trkpt>
      <trkpt lat="46.86365" lon="-1.00605">
        <ele>167.6</ele>
        <time>2021-12-19T07:58:11Z</time>
      </trkpt>
      <trkpt lat="46.86365" lon="-1.00605">
        <ele>167.6</ele>
        <time>2021-12-19T07:58:12Z</time>
      </trkpt>
      <trkpt lat="46.86365" lon="-1.00605">
        <ele>167.6</ele>
        <time>2021-12-19T07:58:14Z</time>
      </trkpt>
      <trkpt lat="46.86365" lon="-1.00605">
        <ele>172</ele>
        <time>2021-12-19T07:58:16Z</time>
      </trkpt>
      <trkpt lat="46.86365" lon="-1.00605">
        <ele>172</ele>
        <time>2021-12-19T07:58:18Z</time>
      </trkpt>
      <trkpt lat="46.86365" lon="-1.00605">
        <ele>172</ele>
        <time>2021-12-19T07:58:20Z</time>
      </trkpt>
      <trkpt lat="46.86365" lon="-1.00605">
        <ele>172</ele>
        <time>2021-12-19T07:58:21Z</time>
      </trkpt>
      <trkpt lat="46.86365" lon="-1.00605">
        <ele>172</ele>
        <time>2021-12-19T07:58:23Z</time>
      </trkpt>
      <trkpt lat="46.86364" lon="-1.00604">
        <ele>172</ele>
        <time>2021-12-19T07:58:25Z</time>
      </trkpt>
      <trkpt lat="46.86363" lon="-1.00604">
        <ele>172</ele>
        <time>2021-12-19T07:58:27Z</time>
      </trkpt>
      <trkpt lat="46.86363" lon="-1.00604">
        <ele>172</ele>
        <time>2021-12-19T07:58:29Z</time>
      </trkpt>
      <trkpt lat="46.86363" lon="-1.00604">
        <ele>172</ele>
        <time>2021-12-19T07:58:31Z</time>
      </trkpt>
      <trkpt lat="46.86363" lon="-1.00604">
        <ele>172</ele>
        <time>2021-12-19T07:58:33Z</time>
      </trkpt>
      <trkpt lat="46.86363" lon="-1.00604">
        <ele>172</ele>
        <time>2021-12-19T07:58:34Z</time>
      </trkpt>
      <trkpt lat="46.86363" lon="-1.00604">
        <ele>172</ele>
        <time>2021-12-19T07:58:36Z</time>
      </trkpt>
      <trkpt lat="46.86363" lon="-1.00604">
        <ele>172</ele>
        <time>2021-12-19T07:58:37Z</time>
      </trkpt>
      <trkpt lat="46.86363" lon="-1.00604">
        <ele>172</ele>
        <time>2021-12-19T07:58:39Z</time>
      </trkpt>
      <trkpt lat="46.86363" lon="-1.00604">
        <ele>172</ele>
        <time>2021-12-19T07:58:40Z</time>
      </trkpt>
      <trkpt lat="46.86363" lon="-1.00604">
        <ele>172</ele>
        <time>2021-12-19T07:58:41Z</time>
      </trkpt>
      <trkpt lat="46.86363" lon="-1.00604">
        <ele>172</ele>
        <time>2021-12-19T07:58:43Z</time>
      </trkpt>
      <trkpt lat="46.86363" lon="-1.00604">
        <ele>172</ele>
        <time>2021-12-19T07:58:45Z</time>
      </trkpt>
      <trkpt lat="46.86362" lon="-1.00603">
        <ele>173</ele>
        <time>2021-12-19T07:58:47Z</time>
      </trkpt>
      <trkpt lat="46.86362" lon="-1.00602">
        <ele>172</ele>
        <time>2021-12-19T07:58:48Z</time>
      </trkpt>
      <trkpt lat="46.86362" lon="-1.00602">
        <ele>172</ele>
        <time>2021-12-19T07:58:49Z</time>
      </trkpt>
      <trkpt lat="46.86362" lon="-1.00601">
        <ele>171</ele>
        <time>2021-12-19T07:58:51Z</time>
      </trkpt>
      <trkpt lat="46.86362" lon="-1.00601">
        <ele>171</ele>
        <time>2021-12-19T07:58:53Z</time>
      </trkpt>
      <trkpt lat="46.86362" lon="-1.00601">
        <ele>171</ele>
        <time>2021-12-19T07:58:54Z</time>
      </trkpt>
      <trkpt lat="46.86362" lon="-1.00601">
        <ele>171</ele>
        <time>2021-12-19T07:58:55Z</time>
      </trkpt>
      <trkpt lat="46.86362" lon="-1.00601">
        <ele>171</ele>
        <time>2021-12-19T07:58:56Z</time>
      </trkpt>
      <trkpt lat="46.86362" lon="-1.00601">
        <ele>171</ele>
        <time>2021-12-19T07:58:58Z</time>
      </trkpt>
      <trkpt lat="46.86362" lon="-1.00601">
        <ele>171</ele>
        <time>2021-12-19T07:58:59Z</time>
      </trkpt>
      <trkpt lat="46.86362" lon="-1.00602">
        <ele>170</ele>
        <time>2021-12-19T07:59:01Z</time>
      </trkpt>
      <trkpt lat="46.86362" lon="-1.00602">
        <ele>170</ele>
        <time>2021-12-19T07:59:03Z</time>
      </trkpt>
      <trkpt lat="46.86362" lon="-1.00602">
        <ele>170</ele>
        <time>2021-12-19T07:59:04Z</time>
      </trkpt>
      <trkpt lat="46.86362" lon="-1.00602">
        <ele>170</ele>
        <time>2021-12-19T07:59:06Z</time>
      </trkpt>
      <trkpt lat="46.86362" lon="-1.00602">
        <ele>170</ele>
        <time>2021-12-19T07:59:08Z</time>
      </trkpt>
      <trkpt lat="46.86362" lon="-1.00602">
        <ele>170</ele>
        <time>2021-12-19T07:59:09Z</time>
      </trkpt>
      <trkpt lat="46.86362" lon="-1.00602">
        <ele>170</ele>
        <time>2021-12-19T07:59:10Z</time>
      </trkpt>
      <trkpt lat="46.86362" lon="-1.00602">
        <ele>170</ele>
        <time>2021-12-19T07:59:12Z</time>
      </trkpt>
      <trkpt lat="46.86362" lon="-1.00602">
        <ele>170</ele>
        <time>2021-12-19T07:59:13Z</time>
      </trkpt>
      <trkpt lat="46.86362" lon="-1.00602">
        <ele>170</ele>
        <time>2021-12-19T07:59:15Z</time>
      </trkpt>
      <trkpt lat="46.86362" lon="-1.00602">
        <ele>170</ele>
        <time>2021-12-19T07:59:16Z</time>
      </trkpt>
      <trkpt lat="46.86362" lon="-1.00602">
        <ele>170</ele>
        <time>2021-12-19T07:59:18Z</time>
      </trkpt>
      <trkpt lat="46.86362" lon="-1.00602">
        <ele>170</ele>
        <time>2021-12-19T07:59:20Z</time>
      </trkpt>
      <trkpt lat="46.86362" lon="-1.00602">
        <ele>170</ele>
        <time>2021-12-19T07:59:21Z</time>
      </trkpt>
      <trkpt lat="46.86362" lon="-1.00602">
        <ele>170</ele>
        <time>2021-12-19T07:59:22Z</time>
      </trkpt>
      <trkpt lat="46.86362" lon="-1.00602">
        <ele>170</ele>
        <time>2021-12-19T07:59:24Z</time>
      </trkpt>
      <trkpt lat="46.86362" lon="-1.00602">
        <ele>170</ele>
        <time>2021-12-19T07:59:25Z</time>
      </trkpt>
      <trkpt lat="46.86362" lon="-1.00602">
        <ele>170</ele>
        <time>2021-12-19T07:59:27Z</time>
      </trkpt>
      <trkpt lat="46.86362" lon="-1.00602">
        <ele>170</ele>
        <time>2021-12-19T07:59:29Z</time>
      </trkpt>
      <trkpt lat="46.86362" lon="-1.00602">
        <ele>170</ele>
        <time>2021-12-19T07:59:31Z</time>
      </trkpt>
      <trkpt lat="46.86362" lon="-1.00602">
        <ele>170</ele>
        <time>2021-12-19T07:59:32Z</time>
      </trkpt>
      <trkpt lat="46.86362" lon="-1.00602">
        <ele>170</ele>
        <time>2021-12-19T07:59:33Z</time>
      </trkpt>
      <trkpt lat="46.86362" lon="-1.00602">
        <ele>170</ele>
        <time>2021-12-19T07:59:34Z</time>
      </trkpt>
      <trkpt lat="46.86362" lon="-1.00602">
        <ele>170</ele>
        <time>2021-12-19T07:59:36Z</time>
      </trkpt>
      <trkpt lat="46.86362" lon="-1.00602">
        <ele>170</ele>
        <time>2021-12-19T07:59:37Z</time>
      </trkpt>
      <trkpt lat="46.86362" lon="-1.00602">
        <ele>170</ele>
        <time>2021-12-19T07:59:39Z</time>
      </trkpt>
      <trkpt lat="46.86362" lon="-1.00602">
        <ele>170</ele>
        <time>2021-12-19T07:59:41Z</time>
      </trkpt>
      <trkpt lat="46.86362" lon="-1.00602">
        <ele>170</ele>
        <time>2021-12-19T07:59:42Z</time>
      </trkpt>
      <trkpt lat="46.86362" lon="-1.00602">
        <ele>170</ele>
        <time>2021-12-19T07:59:44Z</time>
      </trkpt>
      <trkpt lat="46.86362" lon="-1.00602">
        <ele>170</ele>
        <time>2021-12-19T07:59:45Z</time>
      </trkpt>
      <trkpt lat="46.86362" lon="-1.00602">
        <ele>170</ele>
        <time>2021-12-19T07:59:46Z</time>
      </trkpt>
      <trkpt lat="46.86362" lon="-1.00602">
        <ele>170</ele>
        <time>2021-12-19T07:59:48Z</time>
      </trkpt>
      <trkpt lat="46.86362" lon="-1.00602">
        <ele>170</ele>
        <time>2021-12-19T07:59:49Z</time>
      </trkpt>
      <trkpt lat="46.86362" lon="-1.00602">
        <ele>170</ele>
        <time>2021-12-19T07:59:50Z</time>
      </trkpt>
      <trkpt lat="46.86362" lon="-1.00602">
        <ele>170</ele>
        <time>2021-12-19T07:59:52Z</time>
      </trkpt>
      <trkpt lat="46.86362" lon="-1.00602">
        <ele>170</ele>
        <time>2021-12-19T07:59:54Z</time>
      </trkpt>
      <trkpt lat="46.86362" lon="-1.00602">
        <ele>170</ele>
        <time>2021-12-19T07:59:55Z</time>
      </trkpt>
      <trkpt lat="46.86362" lon="-1.00602">
        <ele>170</ele>
        <time>2021-12-19T07:59:57Z</time>
      </trkpt>
      <trkpt lat="46.86362" lon="-1.00602">
        <ele>170</ele>
        <time>2021-12-19T07:59:58Z</time>
      </trkpt>
      <trkpt lat="46.86362" lon="-1.00602">
        <ele>170</ele>
        <time>2021-12-19T08:00:00Z</time>
      </trkpt>
      <trkpt lat="46.86362" lon="-1.00602">
        <ele>170</ele>
        <time>2021-12-19T08:00:02Z</time>
      </trkpt>
      <trkpt lat="46.86362" lon="-1.00602">
        <ele>170</ele>
        <time>2021-12-19T08:00:03Z</time>
      </trkpt>
      <trkpt lat="46.86362" lon="-1.00602">
        <ele>170</ele>
        <time>2021-12-19T08:00:05Z</time>
      </trkpt>
      <trkpt lat="46.86362" lon="-1.00602">
        <ele>170</ele>
        <time>2021-12-19T08:00:07Z</time>
      </trkpt>
      <trkpt lat="46.86362" lon="-1.00602">
        <ele>170</ele>
        <time>2021-12-19T08:00:09Z</time>
      </trkpt>
      <trkpt lat="46.86362" lon="-1.00602">
        <ele>170</ele>
        <time>2021-12-19T08:00:10Z</time>
      </trkpt>
      <trkpt lat="46.86362" lon="-1.00602">
        <ele>169</ele>
        <time>2021-12-19T08:00:12Z</time>
      </trkpt>
      <trkpt lat="46.86362" lon="-1.00602">
        <ele>168</ele>
        <time>2021-12-19T08:00:13Z</time>
      </trkpt>
      <trkpt lat="46.86362" lon="-1.00602">
        <ele>168</ele>
        <time>2021-12-19T08:00:14Z</time>
      </trkpt>
      <trkpt lat="46.86362" lon="-1.00602">
        <ele>168</ele>
        <time>2021-12-19T08:00:16Z</time>
      </trkpt>
      <trkpt lat="46.86362" lon="-1.00602">
        <ele>168</ele>
        <time>2021-12-19T08:00:17Z</time>
      </trkpt>
      <trkpt lat="46.86362" lon="-1.00602">
        <ele>168</ele>
        <time>2021-12-19T08:00:18Z</time>
      </trkpt>
      <trkpt lat="46.86362" lon="-1.00602">
        <ele>168</ele>
        <time>2021-12-19T08:00:20Z</time>
      </trkpt>
      <trkpt lat="46.86362" lon="-1.00602">
        <ele>168</ele>
        <time>2021-12-19T08:00:22Z</time>
      </trkpt>
      <trkpt lat="46.86362" lon="-1.00602">
        <ele>168</ele>
        <time>2021-12-19T08:00:24Z</time>
      </trkpt>
      <trkpt lat="46.86362" lon="-1.00602">
        <ele>168</ele>
        <time>2021-12-19T08:00:25Z</time>
      </trkpt>
      <trkpt lat="46.86362" lon="-1.00602">
        <ele>168</ele>
        <time>2021-12-19T08:00:26Z</time>
      </trkpt>
      <trkpt lat="46.86362" lon="-1.00602">
        <ele>168</ele>
        <time>2021-12-19T08:00:28Z</time>
      </trkpt>
      <trkpt lat="46.86362" lon="-1.00602">
        <ele>168</ele>
        <time>2021-12-19T08:00:29Z</time>
      </trkpt>
      <trkpt lat="46.86362" lon="-1.00602">
        <ele>168</ele>
        <time>2021-12-19T08:00:30Z</time>
      </trkpt>
      <trkpt lat="46.86362" lon="-1.00602">
        <ele>168</ele>
        <time>2021-12-19T08:00:31Z</time>
      </trkpt>
      <trkpt lat="46.86362" lon="-1.00602">
        <ele>168</ele>
        <time>2021-12-19T08:00:32Z</time>
      </trkpt>
      <trkpt lat="46.86362" lon="-1.00602">
        <ele>168</ele>
        <time>2021-12-19T08:00:34Z</time>
      </trkpt>
      <trkpt lat="46.86362" lon="-1.00602">
        <ele>168</ele>
        <time>2021-12-19T08:00:36Z</time>
      </trkpt>
      <trkpt lat="46.86362" lon="-1.00603">
        <ele>169</ele>
        <time>2021-12-19T08:00:38Z</time>
      </trkpt>
      <trkpt lat="46.86362" lon="-1.00604">
        <ele>169</ele>
        <time>2021-12-19T08:00:39Z</time>
      </trkpt>
      <trkpt lat="46.86362" lon="-1.00604">
        <ele>169</ele>
        <time>2021-12-19T08:00:40Z</time>
      </trkpt>
      <trkpt lat="46.86362" lon="-1.00604">
        <ele>169</ele>
        <time>2021-12-19T08:00:42Z</time>
      </trkpt>
      <trkpt lat="46.86362" lon="-1.00604">
        <ele>169</ele>
        <time>2021-12-19T08:00:44Z</time>
      </trkpt>
      <trkpt lat="46.86362" lon="-1.00604">
        <ele>169</ele>
        <time>2021-12-19T08:00:45Z</time>
      </trkpt>
      <trkpt lat="46.86362" lon="-1.00604">
        <ele>169</ele>
        <time>2021-12-19T08:00:46Z</time>
      </trkpt>
      <trkpt lat="46.86362" lon="-1.00604">
        <ele>169</ele>
        <time>2021-12-19T08:00:47Z</time>
      </trkpt>
      <trkpt lat="46.86362" lon="-1.00604">
        <ele>169</ele>
        <time>2021-12-19T08:00:49Z</time>
      </trkpt>
      <trkpt lat="46.86362" lon="-1.00604">
        <ele>169</ele>
        <time>2021-12-19T08:00:50Z</time>
      </trkpt>
      <trkpt lat="46.86362" lon="-1.00604">
        <ele>169</ele>
        <time>2021-12-19T08:00:52Z</time>
      </trkpt>
      <trkpt lat="46.86362" lon="-1.00604">
        <ele>169</ele>
        <time>2021-12-19T08:00:54Z</time>
      </trkpt>
      <trkpt lat="46.86362" lon="-1.00604">
        <ele>169</ele>
        <time>2021-12-19T08:00:56Z</time>
      </trkpt>
      <trkpt lat="46.86362" lon="-1.00604">
        <ele>169</ele>
        <time>2021-12-19T08:00:57Z</time>
      </trkpt>
      <trkpt lat="46.86362" lon="-1.00604">
        <ele>169</ele>
        <time>2021-12-19T08:00:59Z</time>
      </trkpt>
      <trkpt lat="46.86362" lon="-1.00604">
        <ele>169</ele>
        <time>2021-12-19T08:01:00Z</time>
      </trkpt>
      <trkpt lat="46.86362" lon="-1.00604">
        <ele>169</ele>
        <time>2021-12-19T08:01:01Z</time>
      </trkpt>
      <trkpt lat="46.86362" lon="-1.00604">
        <ele>169</ele>
        <time>2021-12-19T08:01:03Z</time>
      </trkpt>
      <trkpt lat="46.86362" lon="-1.00604">
        <ele>169</ele>
        <time>2021-12-19T08:01:04Z</time>
      </trkpt>
      <trkpt lat="46.86362" lon="-1.00604">
        <ele>169</ele>
        <time>2021-12-19T08:01:06Z</time>
      </trkpt>
      <trkpt lat="46.86362" lon="-1.00604">
        <ele>169</ele>
        <time>2021-12-19T08:01:08Z</time>
      </trkpt>
      <trkpt lat="46.86362" lon="-1.00604">
        <ele>169</ele>
        <time>2021-12-19T08:01:09Z</time>
      </trkpt>
      <trkpt lat="46.86362" lon="-1.00604">
        <ele>169</ele>
        <time>2021-12-19T08:01:11Z</time>
      </trkpt>
      <trkpt lat="46.86362" lon="-1.00604">
        <ele>169</ele>
        <time>2021-12-19T08:01:13Z</time>
      </trkpt>
      <trkpt lat="46.86362" lon="-1.00604">
        <ele>169</ele>
        <time>2021-12-19T08:01:15Z</time>
      </trkpt>
      <trkpt lat="46.86362" lon="-1.00604">
        <ele>169</ele>
        <time>2021-12-19T08:01:16Z</time>
      </trkpt>
      <trkpt lat="46.86362" lon="-1.00604">
        <ele>169</ele>
        <time>2021-12-19T08:01:18Z</time>
      </trkpt>
      <trkpt lat="46.86362" lon="-1.00604">
        <ele>169</ele>
        <time>2021-12-19T08:01:19Z</time>
      </trkpt>
      <trkpt lat="46.86362" lon="-1.00604">
        <ele>169</ele>
        <time>2021-12-19T08:01:20Z</time>
      </trkpt>
      <trkpt lat="46.86362" lon="-1.00604">
        <ele>169</ele>
        <time>2021-12-19T08:01:22Z</time>
      </trkpt>
      <trkpt lat="46.86362" lon="-1.00604">
        <ele>169</ele>
        <time>2021-12-19T08:01:23Z</time>
      </trkpt>
      <trkpt lat="46.86362" lon="-1.00604">
        <ele>169</ele>
        <time>2021-12-19T08:01:24Z</time>
      </trkpt>
      <trkpt lat="46.86362" lon="-1.00604">
        <ele>169</ele>
        <time>2021-12-19T08:01:25Z</time>
      </trkpt>
      <trkpt lat="46.86362" lon="-1.00604">
        <ele>169</ele>
        <time>2021-12-19T08:01:27Z</time>
      </trkpt>
      <trkpt lat="46.86362" lon="-1.00604">
        <ele>169</ele>
        <time>2021-12-19T08:01:28Z</time>
      </trkpt>
      <trkpt lat="46.86362" lon="-1.00604">
        <ele>169</ele>
        <time>2021-12-19T08:01:29Z</time>
      </trkpt>
      <trkpt lat="46.86362" lon="-1.00604">
        <ele>169</ele>
        <time>2021-12-19T08:01:31Z</time>
      </trkpt>
      <trkpt lat="46.86362" lon="-1.00604">
        <ele>169</ele>
        <time>2021-12-19T08:01:32Z</time>
      </trkpt>
      <trkpt lat="46.86362" lon="-1.00604">
        <ele>169</ele>
        <time>2021-12-19T08:01:33Z</time>
      </trkpt>
      <trkpt lat="46.86362" lon="-1.00604">
        <ele>169</ele>
        <time>2021-12-19T08:01:34Z</time>
      </trkpt>
      <trkpt lat="46.86362" lon="-1.00604">
        <ele>169</ele>
        <time>2021-12-19T08:01:35Z</time>
      </trkpt>
      <trkpt lat="46.86362" lon="-1.00604">
        <ele>169</ele>
        <time>2021-12-19T08:01:37Z</time>
      </trkpt>
      <trkpt lat="46.86362" lon="-1.00604">
        <ele>169</ele>
        <time>2021-12-19T08:01:39Z</time>
      </trkpt>
      <trkpt lat="46.86362" lon="-1.00604">
        <ele>169</ele>
        <time>2021-12-19T08:01:40Z</time>
      </trkpt>
      <trkpt lat="46.86362" lon="-1.00604">
        <ele>169</ele>
        <time>2021-12-19T08:01:41Z</time>
      </trkpt>
      <trkpt lat="46.86362" lon="-1.00604">
        <ele>169</ele>
        <time>2021-12-19T08:01:42Z</time>
      </trkpt>
      <trkpt lat="46.86362" lon="-1.00604">
        <ele>169</ele>
        <time>2021-12-19T08:01:44Z</time>
      </trkpt>
      <trkpt lat="46.86362" lon="-1.00604">
        <ele>169</ele>
        <time>2021-12-19T08:01:45Z</time>
      </trkpt>
      <trkpt lat="46.86362" lon="-1.00604">
        <ele>169</ele>
        <time>2021-12-19T08:01:47Z</time>
      </trkpt>
      <trkpt lat="46.86362" lon="-1.00604">
        <ele>169</ele>
        <time>2021-12-19T08:01:49Z</time>
      </trkpt>
      <trkpt lat="46.86362" lon="-1.00604">
        <ele>169</ele>
        <time>2021-12-19T08:01:50Z</time>
      </trkpt>
      <trkpt lat="46.86361" lon="-1.00605">
        <ele>168</ele>
        <time>2021-12-19T08:01:51Z</time>
      </trkpt>
      <trkpt lat="46.8636" lon="-1.00607">
        <ele>168</ele>
        <time>2021-12-19T08:01:52Z</time>
      </trkpt>
      <trkpt lat="46.8636" lon="-1.00608">
        <ele>167</ele>
        <time>2021-12-19T08:01:53Z</time>
      </trkpt>
      <trkpt lat="46.86359" lon="-1.00609">
        <ele>167</ele>
        <time>2021-12-19T08:01:54Z</time>
      </trkpt>
      <trkpt lat="46.86357" lon="-1.00611">
        <ele>167</ele>
        <time>2021-12-19T08:01:56Z</time>
      </trkpt>
      <trkpt lat="46.86356" lon="-1.00614">
        <ele>167</ele>
        <time>2021-12-19T08:01:58Z</time>
      </trkpt>
      <trkpt lat="46.86356" lon="-1.00616">
        <ele>167</ele>
        <time>2021-12-19T08:01:59Z</time>
      </trkpt>
      <trkpt lat="46.86356" lon="-1.00619">
        <ele>167</ele>
        <time>2021-12-19T08:02:00Z</time>
      </trkpt>
      <trkpt lat="46.86355" lon="-1.00624">
        <ele>167</ele>
        <time>2021-12-19T08:02:02Z</time>
      </trkpt>
      <trkpt lat="46.86354" lon="-1.00627">
        <ele>167</ele>
        <time>2021-12-19T08:02:03Z</time>
      </trkpt>
      <trkpt lat="46.86352" lon="-1.00629">
        <ele>167</ele>
        <time>2021-12-19T08:02:04Z</time>
      </trkpt>
      <trkpt lat="46.86348" lon="-1.00632">
        <ele>167</ele>
        <time>2021-12-19T08:02:06Z</time>
      </trkpt>
      <trkpt lat="46.86345" lon="-1.00634">
        <ele>167</ele>
        <time>2021-12-19T08:02:07Z</time>
      </trkpt>
      <trkpt lat="46.86341" lon="-1.00638">
        <ele>167</ele>
        <time>2021-12-19T08:02:09Z</time>
      </trkpt>
      <trkpt lat="46.86338" lon="-1.0064">
        <ele>167</ele>
        <time>2021-12-19T08:02:10Z</time>
      </trkpt>
      <trkpt lat="46.86333" lon="-1.00642">
        <ele>168</ele>
        <time>2021-12-19T08:02:12Z</time>
      </trkpt>
      <trkpt lat="46.86327" lon="-1.00637">
        <ele>167</ele>
        <time>2021-12-19T08:02:14Z</time>
      </trkpt>
      <trkpt lat="46.86317" lon="-1.00634">
        <ele>167</ele>
        <time>2021-12-19T08:02:16Z</time>
      </trkpt>
      <trkpt lat="46.86312" lon="-1.00635">
        <ele>166</ele>
        <time>2021-12-19T08:02:17Z</time>
      </trkpt>
      <trkpt lat="46.86304" lon="-1.00641">
        <ele>166</ele>
        <time>2021-12-19T08:02:19Z</time>
      </trkpt>
      <trkpt lat="46.86299" lon="-1.00645">
        <ele>166</ele>
        <time>2021-12-19T08:02:20Z</time>
      </trkpt>
      <trkpt lat="46.86289" lon="-1.00653">
        <ele>166</ele>
        <time>2021-12-19T08:02:22Z</time>
      </trkpt>
      <trkpt lat="46.86279" lon="-1.00659">
        <ele>166</ele>
        <time>2021-12-19T08:02:24Z</time>
      </trkpt>
      <trkpt lat="46.8627" lon="-1.00666">
        <ele>165</ele>
        <time>2021-12-19T08:02:26Z</time>
      </trkpt>
      <trkpt lat="46.8626" lon="-1.00671">
        <ele>166</ele>
        <time>2021-12-19T08:02:28Z</time>
      </trkpt>
      <trkpt lat="46.8625" lon="-1.00675">
        <ele>166</ele>
        <time>2021-12-19T08:02:30Z</time>
      </trkpt>
      <trkpt lat="46.8624" lon="-1.0068">
        <ele>165</ele>
        <time>2021-12-19T08:02:32Z</time>
      </trkpt>
      <trkpt lat="46.86235" lon="-1.00682">
        <ele>165</ele>
        <time>2021-12-19T08:02:33Z</time>
      </trkpt>
      <trkpt lat="46.86229" lon="-1.00685">
        <ele>165</ele>
        <time>2021-12-19T08:02:34Z</time>
      </trkpt>
      <trkpt lat="46.86219" lon="-1.0069">
        <ele>165</ele>
        <time>2021-12-19T08:02:36Z</time>
      </trkpt>
      <trkpt lat="46.86208" lon="-1.00696">
        <ele>165</ele>
        <time>2021-12-19T08:02:38Z</time>
      </trkpt>
      <trkpt lat="46.86202" lon="-1.00698">
        <ele>165</ele>
        <time>2021-12-19T08:02:39Z</time>
      </trkpt>
      <trkpt lat="46.8619" lon="-1.00704">
        <ele>165</ele>
        <time>2021-12-19T08:02:41Z</time>
      </trkpt>
      <trkpt lat="46.86178" lon="-1.0071">
        <ele>165</ele>
        <time>2021-12-19T08:02:43Z</time>
      </trkpt>
      <trkpt lat="46.86165" lon="-1.00715">
        <ele>165</ele>
        <time>2021-12-19T08:02:45Z</time>
      </trkpt>
      <trkpt lat="46.86159" lon="-1.00718">
        <ele>165</ele>
        <time>2021-12-19T08:02:46Z</time>
      </trkpt>
      <trkpt lat="46.86153" lon="-1.00721">
        <ele>165</ele>
        <time>2021-12-19T08:02:47Z</time>
      </trkpt>
      <trkpt lat="46.86148" lon="-1.00725">
        <ele>165</ele>
        <time>2021-12-19T08:02:48Z</time>
      </trkpt>
      <trkpt lat="46.86137" lon="-1.00732">
        <ele>166</ele>
        <time>2021-12-19T08:02:50Z</time>
      </trkpt>
      <trkpt lat="46.86133" lon="-1.00735">
        <ele>166</ele>
        <time>2021-12-19T08:02:51Z</time>
      </trkpt>
      <trkpt lat="46.86124" lon="-1.00744">
        <ele>166</ele>
        <time>2021-12-19T08:02:53Z</time>
      </trkpt>
      <trkpt lat="46.86119" lon="-1.00749">
        <ele>166</ele>
        <time>2021-12-19T08:02:54Z</time>
      </trkpt>
      <trkpt lat="46.86108" lon="-1.00758">
        <ele>166</ele>
        <time>2021-12-19T08:02:56Z</time>
      </trkpt>
      <trkpt lat="46.86103" lon="-1.00763">
        <ele>166</ele>
        <time>2021-12-19T08:02:57Z</time>
      </trkpt>
      <trkpt lat="46.86093" lon="-1.00773">
        <ele>166</ele>
        <time>2021-12-19T08:02:59Z</time>
      </trkpt>
      <trkpt lat="46.86089" lon="-1.00778">
        <ele>166</ele>
        <time>2021-12-19T08:03:00Z</time>
      </trkpt>
      <trkpt lat="46.86079" lon="-1.00788">
        <ele>166</ele>
        <time>2021-12-19T08:03:02Z</time>
      </trkpt>
      <trkpt lat="46.86075" lon="-1.00794">
        <ele>166</ele>
        <time>2021-12-19T08:03:03Z</time>
      </trkpt>
      <trkpt lat="46.8607" lon="-1.00799">
        <ele>166</ele>
        <time>2021-12-19T08:03:04Z</time>
      </trkpt>
      <trkpt lat="46.86066" lon="-1.00804">
        <ele>166</ele>
        <time>2021-12-19T08:03:05Z</time>
      </trkpt>
      <trkpt lat="46.86057" lon="-1.00815">
        <ele>165</ele>
        <time>2021-12-19T08:03:07Z</time>
      </trkpt>
      <trkpt lat="46.86049" lon="-1.00827">
        <ele>165</ele>
        <time>2021-12-19T08:03:09Z</time>
      </trkpt>
      <trkpt lat="46.86045" lon="-1.00832">
        <ele>165</ele>
        <time>2021-12-19T08:03:10Z</time>
      </trkpt>
      <trkpt lat="46.86036" lon="-1.00844">
        <ele>165</ele>
        <time>2021-12-19T08:03:12Z</time>
      </trkpt>
      <trkpt lat="46.86032" lon="-1.0085">
        <ele>165</ele>
        <time>2021-12-19T08:03:13Z</time>
      </trkpt>
      <trkpt lat="46.86027" lon="-1.00856">
        <ele>165</ele>
        <time>2021-12-19T08:03:14Z</time>
      </trkpt>
      <trkpt lat="46.86018" lon="-1.00868">
        <ele>165</ele>
        <time>2021-12-19T08:03:16Z</time>
      </trkpt>
      <trkpt lat="46.86014" lon="-1.00874">
        <ele>165</ele>
        <time>2021-12-19T08:03:17Z</time>
      </trkpt>
      <trkpt lat="46.86005" lon="-1.00885">
        <ele>164</ele>
        <time>2021-12-19T08:03:19Z</time>
      </trkpt>
      <trkpt lat="46.86001" lon="-1.00891">
        <ele>164</ele>
        <time>2021-12-19T08:03:20Z</time>
      </trkpt>
      <trkpt lat="46.85992" lon="-1.00903">
        <ele>164</ele>
        <time>2021-12-19T08:03:22Z</time>
      </trkpt>
      <trkpt lat="46.85988" lon="-1.00909">
        <ele>164</ele>
        <time>2021-12-19T08:03:23Z</time>
      </trkpt>
      <trkpt lat="46.85981" lon="-1.00922">
        <ele>163</ele>
        <time>2021-12-19T08:03:25Z</time>
      </trkpt>
      <trkpt lat="46.85977" lon="-1.00928">
        <ele>163</ele>
        <time>2021-12-19T08:03:26Z</time>
      </trkpt>
      <trkpt lat="46.8597" lon="-1.0094">
        <ele>163</ele>
        <time>2021-12-19T08:03:28Z</time>
      </trkpt>
      <trkpt lat="46.85964" lon="-1.00954">
        <ele>162</ele>
        <time>2021-12-19T08:03:30Z</time>
      </trkpt>
      <trkpt lat="46.8596" lon="-1.00967">
        <ele>162</ele>
        <time>2021-12-19T08:03:32Z</time>
      </trkpt>
      <trkpt lat="46.85959" lon="-1.00973">
        <ele>162</ele>
        <time>2021-12-19T08:03:33Z</time>
      </trkpt>
      <trkpt lat="46.85958" lon="-1.00978">
        <ele>163</ele>
        <time>2021-12-19T08:03:34Z</time>
      </trkpt>
      <trkpt lat="46.85952" lon="-1.00982">
        <ele>163</ele>
        <time>2021-12-19T08:03:36Z</time>
      </trkpt>
      <trkpt lat="46.85943" lon="-1.0098">
        <ele>163</ele>
        <time>2021-12-19T08:03:38Z</time>
      </trkpt>
      <trkpt lat="46.85939" lon="-1.00978">
        <ele>163</ele>
        <time>2021-12-19T08:03:39Z</time>
      </trkpt>
      <trkpt lat="46.85929" lon="-1.00972">
        <ele>163</ele>
        <time>2021-12-19T08:03:41Z</time>
      </trkpt>
      <trkpt lat="46.85919" lon="-1.00967">
        <ele>163</ele>
        <time>2021-12-19T08:03:43Z</time>
      </trkpt>
      <trkpt lat="46.85909" lon="-1.00963">
        <ele>163</ele>
        <time>2021-12-19T08:03:45Z</time>
      </trkpt>
      <trkpt lat="46.85904" lon="-1.0096">
        <ele>162</ele>
        <time>2021-12-19T08:03:46Z</time>
      </trkpt>
      <trkpt lat="46.85894" lon="-1.00955">
        <ele>162</ele>
        <time>2021-12-19T08:03:48Z</time>
      </trkpt>
      <trkpt lat="46.85884" lon="-1.0095">
        <ele>162</ele>
        <time>2021-12-19T08:03:50Z</time>
      </trkpt>
      <trkpt lat="46.85879" lon="-1.00948">
        <ele>162</ele>
        <time>2021-12-19T08:03:51Z</time>
      </trkpt>
      <trkpt lat="46.85873" lon="-1.00946">
        <ele>162</ele>
        <time>2021-12-19T08:03:52Z</time>
      </trkpt>
      <trkpt lat="46.85867" lon="-1.00944">
        <ele>161</ele>
        <time>2021-12-19T08:03:53Z</time>
      </trkpt>
      <trkpt lat="46.85855" lon="-1.00941">
        <ele>162</ele>
        <time>2021-12-19T08:03:55Z</time>
      </trkpt>
      <trkpt lat="46.85849" lon="-1.0094">
        <ele>162</ele>
        <time>2021-12-19T08:03:56Z</time>
      </trkpt>
      <trkpt lat="46.85838" lon="-1.00931">
        <ele>161</ele>
        <time>2021-12-19T08:03:58Z</time>
      </trkpt>
      <trkpt lat="46.85834" lon="-1.00925">
        <ele>161</ele>
        <time>2021-12-19T08:03:59Z</time>
      </trkpt>
      <trkpt lat="46.8583" lon="-1.00919">
        <ele>161</ele>
        <time>2021-12-19T08:04:00Z</time>
      </trkpt>
      <trkpt lat="46.8582" lon="-1.0091">
        <ele>161</ele>
        <time>2021-12-19T08:04:02Z</time>
      </trkpt>
      <trkpt lat="46.85814" lon="-1.00907">
        <ele>161</ele>
        <time>2021-12-19T08:04:03Z</time>
      </trkpt>
      <trkpt lat="46.85803" lon="-1.00899">
        <ele>161</ele>
        <time>2021-12-19T08:04:05Z</time>
      </trkpt>
      <trkpt lat="46.85797" lon="-1.00896">
        <ele>161</ele>
        <time>2021-12-19T08:04:06Z</time>
      </trkpt>
      <trkpt lat="46.85786" lon="-1.00889">
        <ele>161</ele>
        <time>2021-12-19T08:04:08Z</time>
      </trkpt>
      <trkpt lat="46.85774" lon="-1.00881">
        <ele>161</ele>
        <time>2021-12-19T08:04:10Z</time>
      </trkpt>
      <trkpt lat="46.85763" lon="-1.00874">
        <ele>162</ele>
        <time>2021-12-19T08:04:12Z</time>
      </trkpt>
      <trkpt lat="46.85751" lon="-1.00867">
        <ele>162</ele>
        <time>2021-12-19T08:04:14Z</time>
      </trkpt>
      <trkpt lat="46.85745" lon="-1.00864">
        <ele>162</ele>
        <time>2021-12-19T08:04:15Z</time>
      </trkpt>
      <trkpt lat="46.8574" lon="-1.00861">
        <ele>162</ele>
        <time>2021-12-19T08:04:16Z</time>
      </trkpt>
      <trkpt lat="46.85728" lon="-1.00854">
        <ele>162</ele>
        <time>2021-12-19T08:04:18Z</time>
      </trkpt>
      <trkpt lat="46.85717" lon="-1.00847">
        <ele>162</ele>
        <time>2021-12-19T08:04:20Z</time>
      </trkpt>
      <trkpt lat="46.85711" lon="-1.00844">
        <ele>161</ele>
        <time>2021-12-19T08:04:21Z</time>
      </trkpt>
      <trkpt lat="46.857" lon="-1.00837">
        <ele>161</ele>
        <time>2021-12-19T08:04:23Z</time>
      </trkpt>
      <trkpt lat="46.85689" lon="-1.00829">
        <ele>161</ele>
        <time>2021-12-19T08:04:25Z</time>
      </trkpt>
      <trkpt lat="46.85682" lon="-1.00825">
        <ele>161</ele>
        <time>2021-12-19T08:04:26Z</time>
      </trkpt>
      <trkpt lat="46.85671" lon="-1.00814">
        <ele>160</ele>
        <time>2021-12-19T08:04:28Z</time>
      </trkpt>
      <trkpt lat="46.8566" lon="-1.00803">
        <ele>160</ele>
        <time>2021-12-19T08:04:30Z</time>
      </trkpt>
      <trkpt lat="46.85649" lon="-1.00793">
        <ele>160</ele>
        <time>2021-12-19T08:04:32Z</time>
      </trkpt>
      <trkpt lat="46.85638" lon="-1.00782">
        <ele>160</ele>
        <time>2021-12-19T08:04:34Z</time>
      </trkpt>
      <trkpt lat="46.85626" lon="-1.00771">
        <ele>160</ele>
        <time>2021-12-19T08:04:36Z</time>
      </trkpt>
      <trkpt lat="46.85615" lon="-1.0076">
        <ele>160</ele>
        <time>2021-12-19T08:04:38Z</time>
      </trkpt>
      <trkpt lat="46.85604" lon="-1.00749">
        <ele>160</ele>
        <time>2021-12-19T08:04:40Z</time>
      </trkpt>
      <trkpt lat="46.85598" lon="-1.00744">
        <ele>160</ele>
        <time>2021-12-19T08:04:41Z</time>
      </trkpt>
      <trkpt lat="46.85586" lon="-1.00734">
        <ele>160</ele>
        <time>2021-12-19T08:04:43Z</time>
      </trkpt>
      <trkpt lat="46.85579" lon="-1.00729">
        <ele>159</ele>
        <time>2021-12-19T08:04:44Z</time>
      </trkpt>
      <trkpt lat="46.85574" lon="-1.00724">
        <ele>159</ele>
        <time>2021-12-19T08:04:45Z</time>
      </trkpt>
      <trkpt lat="46.85568" lon="-1.00719">
        <ele>159</ele>
        <time>2021-12-19T08:04:46Z</time>
      </trkpt>
      <trkpt lat="46.85556" lon="-1.00709">
        <ele>158</ele>
        <time>2021-12-19T08:04:48Z</time>
      </trkpt>
      <trkpt lat="46.85552" lon="-1.00705">
        <ele>158</ele>
        <time>2021-12-19T08:04:49Z</time>
      </trkpt>
      <trkpt lat="46.85542" lon="-1.00697">
        <ele>158</ele>
        <time>2021-12-19T08:04:51Z</time>
      </trkpt>
      <trkpt lat="46.85537" lon="-1.00693">
        <ele>157</ele>
        <time>2021-12-19T08:04:52Z</time>
      </trkpt>
      <trkpt lat="46.85532" lon="-1.00689">
        <ele>157</ele>
        <time>2021-12-19T08:04:53Z</time>
      </trkpt>
      <trkpt lat="46.8552" lon="-1.00681">
        <ele>157</ele>
        <time>2021-12-19T08:04:55Z</time>
      </trkpt>
      <trkpt lat="46.85514" lon="-1.00677">
        <ele>157</ele>
        <time>2021-12-19T08:04:56Z</time>
      </trkpt>
      <trkpt lat="46.85507" lon="-1.00673">
        <ele>156</ele>
        <time>2021-12-19T08:04:57Z</time>
      </trkpt>
      <trkpt lat="46.85494" lon="-1.00663">
        <ele>156</ele>
        <time>2021-12-19T08:04:59Z</time>
      </trkpt>
      <trkpt lat="46.85488" lon="-1.00659">
        <ele>156</ele>
        <time>2021-12-19T08:05:00Z</time>
      </trkpt>
      <trkpt lat="46.85475" lon="-1.00651">
        <ele>156</ele>
        <time>2021-12-19T08:05:02Z</time>
      </trkpt>
      <trkpt lat="46.85468" lon="-1.00647">
        <ele>156</ele>
        <time>2021-12-19T08:05:03Z</time>
      </trkpt>
      <trkpt lat="46.85456" lon="-1.0064">
        <ele>156</ele>
        <time>2021-12-19T08:05:05Z</time>
      </trkpt>
      <trkpt lat="46.85449" lon="-1.00637">
        <ele>156</ele>
        <time>2021-12-19T08:05:06Z</time>
      </trkpt>
      <trkpt lat="46.85437" lon="-1.0063">
        <ele>156</ele>
        <time>2021-12-19T08:05:08Z</time>
      </trkpt>
      <trkpt lat="46.85423" lon="-1.00625">
        <ele>156</ele>
        <time>2021-12-19T08:05:10Z</time>
      </trkpt>
      <trkpt lat="46.85417" lon="-1.00622">
        <ele>156</ele>
        <time>2021-12-19T08:05:11Z</time>
      </trkpt>
      <trkpt lat="46.8541" lon="-1.00619">
        <ele>156</ele>
        <time>2021-12-19T08:05:12Z</time>
      </trkpt>
      <trkpt lat="46.85403" lon="-1.00616">
        <ele>156</ele>
        <time>2021-12-19T08:05:13Z</time>
      </trkpt>
      <trkpt lat="46.85396" lon="-1.00613">
        <ele>156</ele>
        <time>2021-12-19T08:05:14Z</time>
      </trkpt>
      <trkpt lat="46.85389" lon="-1.0061">
        <ele>156</ele>
        <time>2021-12-19T08:05:15Z</time>
      </trkpt>
      <trkpt lat="46.85375" lon="-1.00603">
        <ele>156</ele>
        <time>2021-12-19T08:05:17Z</time>
      </trkpt>
      <trkpt lat="46.85368" lon="-1.006">
        <ele>156</ele>
        <time>2021-12-19T08:05:18Z</time>
      </trkpt>
      <trkpt lat="46.85355" lon="-1.00595">
        <ele>156</ele>
        <time>2021-12-19T08:05:20Z</time>
      </trkpt>
      <trkpt lat="46.85341" lon="-1.0059">
        <ele>156</ele>
        <time>2021-12-19T08:05:22Z</time>
      </trkpt>
      <trkpt lat="46.85328" lon="-1.00587">
        <ele>156</ele>
        <time>2021-12-19T08:05:24Z</time>
      </trkpt>
      <trkpt lat="46.85314" lon="-1.00583">
        <ele>156</ele>
        <time>2021-12-19T08:05:26Z</time>
      </trkpt>
      <trkpt lat="46.85302" lon="-1.00579">
        <ele>156</ele>
        <time>2021-12-19T08:05:28Z</time>
      </trkpt>
      <trkpt lat="46.85295" lon="-1.00577">
        <ele>156</ele>
        <time>2021-12-19T08:05:29Z</time>
      </trkpt>
      <trkpt lat="46.85288" lon="-1.00575">
        <ele>156</ele>
        <time>2021-12-19T08:05:30Z</time>
      </trkpt>
      <trkpt lat="46.85275" lon="-1.00569">
        <ele>156</ele>
        <time>2021-12-19T08:05:32Z</time>
      </trkpt>
      <trkpt lat="46.85269" lon="-1.00564">
        <ele>156</ele>
        <time>2021-12-19T08:05:33Z</time>
      </trkpt>
      <trkpt lat="46.85256" lon="-1.00555">
        <ele>156</ele>
        <time>2021-12-19T08:05:35Z</time>
      </trkpt>
      <trkpt lat="46.85249" lon="-1.00551">
        <ele>156</ele>
        <time>2021-12-19T08:05:36Z</time>
      </trkpt>
      <trkpt lat="46.85236" lon="-1.00542">
        <ele>155</ele>
        <time>2021-12-19T08:05:38Z</time>
      </trkpt>
      <trkpt lat="46.85222" lon="-1.00532">
        <ele>154</ele>
        <time>2021-12-19T08:05:40Z</time>
      </trkpt>
      <trkpt lat="46.85216" lon="-1.00526">
        <ele>154</ele>
        <time>2021-12-19T08:05:41Z</time>
      </trkpt>
      <trkpt lat="46.8521" lon="-1.00519">
        <ele>154</ele>
        <time>2021-12-19T08:05:42Z</time>
      </trkpt>
      <trkpt lat="46.85198" lon="-1.00507">
        <ele>155</ele>
        <time>2021-12-19T08:05:44Z</time>
      </trkpt>
      <trkpt lat="46.85191" lon="-1.00503">
        <ele>155</ele>
        <time>2021-12-19T08:05:45Z</time>
      </trkpt>
      <trkpt lat="46.85179" lon="-1.00495">
        <ele>155</ele>
        <time>2021-12-19T08:05:47Z</time>
      </trkpt>
      <trkpt lat="46.85173" lon="-1.00491">
        <ele>155</ele>
        <time>2021-12-19T08:05:48Z</time>
      </trkpt>
      <trkpt lat="46.85162" lon="-1.00483">
        <ele>155</ele>
        <time>2021-12-19T08:05:50Z</time>
      </trkpt>
      <trkpt lat="46.85151" lon="-1.00475">
        <ele>156</ele>
        <time>2021-12-19T08:05:52Z</time>
      </trkpt>
      <trkpt lat="46.8514" lon="-1.00469">
        <ele>156</ele>
        <time>2021-12-19T08:05:54Z</time>
      </trkpt>
      <trkpt lat="46.85128" lon="-1.00461">
        <ele>156</ele>
        <time>2021-12-19T08:05:56Z</time>
      </trkpt>
      <trkpt lat="46.85123" lon="-1.00456">
        <ele>156</ele>
        <time>2021-12-19T08:05:57Z</time>
      </trkpt>
      <trkpt lat="46.85112" lon="-1.00447">
        <ele>157</ele>
        <time>2021-12-19T08:05:59Z</time>
      </trkpt>
      <trkpt lat="46.85106" lon="-1.00443">
        <ele>157</ele>
        <time>2021-12-19T08:06:00Z</time>
      </trkpt>
      <trkpt lat="46.85101" lon="-1.00439">
        <ele>158</ele>
        <time>2021-12-19T08:06:01Z</time>
      </trkpt>
      <trkpt lat="46.85089" lon="-1.00431">
        <ele>158</ele>
        <time>2021-12-19T08:06:03Z</time>
      </trkpt>
      <trkpt lat="46.85077" lon="-1.00424">
        <ele>158</ele>
        <time>2021-12-19T08:06:05Z</time>
      </trkpt>
      <trkpt lat="46.85064" lon="-1.00418">
        <ele>158</ele>
        <time>2021-12-19T08:06:07Z</time>
      </trkpt>
      <trkpt lat="46.85053" lon="-1.0041">
        <ele>159</ele>
        <time>2021-12-19T08:06:09Z</time>
      </trkpt>
      <trkpt lat="46.85046" lon="-1.00406">
        <ele>158</ele>
        <time>2021-12-19T08:06:10Z</time>
      </trkpt>
      <trkpt lat="46.8504" lon="-1.00402">
        <ele>158</ele>
        <time>2021-12-19T08:06:11Z</time>
      </trkpt>
      <trkpt lat="46.85027" lon="-1.00399">
        <ele>159</ele>
        <time>2021-12-19T08:06:13Z</time>
      </trkpt>
      <trkpt lat="46.85015" lon="-1.00397">
        <ele>160</ele>
        <time>2021-12-19T08:06:15Z</time>
      </trkpt>
      <trkpt lat="46.85004" lon="-1.00393">
        <ele>160</ele>
        <time>2021-12-19T08:06:17Z</time>
      </trkpt>
      <trkpt lat="46.84998" lon="-1.00392">
        <ele>160</ele>
        <time>2021-12-19T08:06:18Z</time>
      </trkpt>
      <trkpt lat="46.84986" lon="-1.00389">
        <ele>160</ele>
        <time>2021-12-19T08:06:20Z</time>
      </trkpt>
      <trkpt lat="46.84981" lon="-1.00387">
        <ele>160</ele>
        <time>2021-12-19T08:06:21Z</time>
      </trkpt>
      <trkpt lat="46.84975" lon="-1.00385">
        <ele>160</ele>
        <time>2021-12-19T08:06:22Z</time>
      </trkpt>
      <trkpt lat="46.84964" lon="-1.00383">
        <ele>160</ele>
        <time>2021-12-19T08:06:24Z</time>
      </trkpt>
      <trkpt lat="46.84959" lon="-1.00383">
        <ele>160</ele>
        <time>2021-12-19T08:06:25Z</time>
      </trkpt>
      <trkpt lat="46.84954" lon="-1.00382">
        <ele>160</ele>
        <time>2021-12-19T08:06:26Z</time>
      </trkpt>
      <trkpt lat="46.84943" lon="-1.00379">
        <ele>161</ele>
        <time>2021-12-19T08:06:28Z</time>
      </trkpt>
      <trkpt lat="46.84933" lon="-1.00378">
        <ele>161</ele>
        <time>2021-12-19T08:06:30Z</time>
      </trkpt>
      <trkpt lat="46.84922" lon="-1.00379">
        <ele>162</ele>
        <time>2021-12-19T08:06:32Z</time>
      </trkpt>
      <trkpt lat="46.84916" lon="-1.0038">
        <ele>162</ele>
        <time>2021-12-19T08:06:33Z</time>
      </trkpt>
      <trkpt lat="46.84903" lon="-1.00381">
        <ele>162</ele>
        <time>2021-12-19T08:06:35Z</time>
      </trkpt>
      <trkpt lat="46.84897" lon="-1.00381">
        <ele>162</ele>
        <time>2021-12-19T08:06:36Z</time>
      </trkpt>
      <trkpt lat="46.84891" lon="-1.0038">
        <ele>162</ele>
        <time>2021-12-19T08:06:37Z</time>
      </trkpt>
      <trkpt lat="46.84879" lon="-1.00381">
        <ele>163</ele>
        <time>2021-12-19T08:06:39Z</time>
      </trkpt>
      <trkpt lat="46.84867" lon="-1.00383">
        <ele>163</ele>
        <time>2021-12-19T08:06:41Z</time>
      </trkpt>
      <trkpt lat="46.84861" lon="-1.00384">
        <ele>163</ele>
        <time>2021-12-19T08:06:42Z</time>
      </trkpt>
      <trkpt lat="46.84849" lon="-1.00387">
        <ele>163</ele>
        <time>2021-12-19T08:06:44Z</time>
      </trkpt>
      <trkpt lat="46.84837" lon="-1.00389">
        <ele>163</ele>
        <time>2021-12-19T08:06:46Z</time>
      </trkpt>
      <trkpt lat="46.84826" lon="-1.00392">
        <ele>163</ele>
        <time>2021-12-19T08:06:48Z</time>
      </trkpt>
      <trkpt lat="46.8482" lon="-1.00394">
        <ele>163</ele>
        <time>2021-12-19T08:06:49Z</time>
      </trkpt>
      <trkpt lat="46.84809" lon="-1.00397">
        <ele>164</ele>
        <time>2021-12-19T08:06:51Z</time>
      </trkpt>
      <trkpt lat="46.84797" lon="-1.004">
        <ele>164</ele>
        <time>2021-12-19T08:06:53Z</time>
      </trkpt>
      <trkpt lat="46.84791" lon="-1.00401">
        <ele>164</ele>
        <time>2021-12-19T08:06:54Z</time>
      </trkpt>
      <trkpt lat="46.84779" lon="-1.00405">
        <ele>164</ele>
        <time>2021-12-19T08:06:56Z</time>
      </trkpt>
      <trkpt lat="46.84768" lon="-1.00412">
        <ele>164</ele>
        <time>2021-12-19T08:06:58Z</time>
      </trkpt>
      <trkpt lat="46.84762" lon="-1.00413">
        <ele>163</ele>
        <time>2021-12-19T08:06:59Z</time>
      </trkpt>
      <trkpt lat="46.84749" lon="-1.00415">
        <ele>163</ele>
        <time>2021-12-19T08:07:01Z</time>
      </trkpt>
      <trkpt lat="46.84736" lon="-1.00422">
        <ele>163</ele>
        <time>2021-12-19T08:07:03Z</time>
      </trkpt>
      <trkpt lat="46.8473" lon="-1.00424">
        <ele>163</ele>
        <time>2021-12-19T08:07:04Z</time>
      </trkpt>
      <trkpt lat="46.84717" lon="-1.00429">
        <ele>163</ele>
        <time>2021-12-19T08:07:06Z</time>
      </trkpt>
      <trkpt lat="46.8471" lon="-1.00432">
        <ele>163</ele>
        <time>2021-12-19T08:07:07Z</time>
      </trkpt>
      <trkpt lat="46.84704" lon="-1.00434">
        <ele>163</ele>
        <time>2021-12-19T08:07:08Z</time>
      </trkpt>
      <trkpt lat="46.84697" lon="-1.00436">
        <ele>163</ele>
        <time>2021-12-19T08:07:09Z</time>
      </trkpt>
      <trkpt lat="46.84683" lon="-1.0044">
        <ele>163</ele>
        <time>2021-12-19T08:07:11Z</time>
      </trkpt>
      <trkpt lat="46.84677" lon="-1.00442">
        <ele>163</ele>
        <time>2021-12-19T08:07:12Z</time>
      </trkpt>
      <trkpt lat="46.84663" lon="-1.00447">
        <ele>162</ele>
        <time>2021-12-19T08:07:14Z</time>
      </trkpt>
      <trkpt lat="46.84656" lon="-1.00449">
        <ele>162</ele>
        <time>2021-12-19T08:07:15Z</time>
      </trkpt>
      <trkpt lat="46.84642" lon="-1.00453">
        <ele>162</ele>
        <time>2021-12-19T08:07:17Z</time>
      </trkpt>
      <trkpt lat="46.84635" lon="-1.00455">
        <ele>161</ele>
        <time>2021-12-19T08:07:18Z</time>
      </trkpt>
      <trkpt lat="46.84621" lon="-1.0046">
        <ele>160</ele>
        <time>2021-12-19T08:07:20Z</time>
      </trkpt>
      <trkpt lat="46.84606" lon="-1.00463">
        <ele>160</ele>
        <time>2021-12-19T08:07:22Z</time>
      </trkpt>
      <trkpt lat="46.84591" lon="-1.00466">
        <ele>160</ele>
        <time>2021-12-19T08:07:24Z</time>
      </trkpt>
      <trkpt lat="46.84577" lon="-1.00468">
        <ele>159</ele>
        <time>2021-12-19T08:07:26Z</time>
      </trkpt>
      <trkpt lat="46.8457" lon="-1.00469">
        <ele>160</ele>
        <time>2021-12-19T08:07:27Z</time>
      </trkpt>
      <trkpt lat="46.84564" lon="-1.0047">
        <ele>160</ele>
        <time>2021-12-19T08:07:28Z</time>
      </trkpt>
      <trkpt lat="46.84557" lon="-1.0047">
        <ele>160</ele>
        <time>2021-12-19T08:07:29Z</time>
      </trkpt>
      <trkpt lat="46.84551" lon="-1.00471">
        <ele>160</ele>
        <time>2021-12-19T08:07:30Z</time>
      </trkpt>
      <trkpt lat="46.84545" lon="-1.00472">
        <ele>160</ele>
        <time>2021-12-19T08:07:31Z</time>
      </trkpt>
      <trkpt lat="46.84532" lon="-1.00472">
        <ele>160</ele>
        <time>2021-12-19T08:07:33Z</time>
      </trkpt>
      <trkpt lat="46.84525" lon="-1.00473">
        <ele>160</ele>
        <time>2021-12-19T08:07:34Z</time>
      </trkpt>
      <trkpt lat="46.84519" lon="-1.00474">
        <ele>160</ele>
        <time>2021-12-19T08:07:35Z</time>
      </trkpt>
      <trkpt lat="46.84507" lon="-1.0048">
        <ele>160</ele>
        <time>2021-12-19T08:07:37Z</time>
      </trkpt>
      <trkpt lat="46.84497" lon="-1.00489">
        <ele>160</ele>
        <time>2021-12-19T08:07:39Z</time>
      </trkpt>
      <trkpt lat="46.84491" lon="-1.00493">
        <ele>160</ele>
        <time>2021-12-19T08:07:40Z</time>
      </trkpt>
      <trkpt lat="46.8448" lon="-1.00491">
        <ele>160</ele>
        <time>2021-12-19T08:07:42Z</time>
      </trkpt>
      <trkpt lat="46.84475" lon="-1.00487">
        <ele>160</ele>
        <time>2021-12-19T08:07:43Z</time>
      </trkpt>
      <trkpt lat="46.84465" lon="-1.00477">
        <ele>160</ele>
        <time>2021-12-19T08:07:45Z</time>
      </trkpt>
      <trkpt lat="46.8446" lon="-1.00473">
        <ele>159</ele>
        <time>2021-12-19T08:07:46Z</time>
      </trkpt>
      <trkpt lat="46.84449" lon="-1.00469">
        <ele>160</ele>
        <time>2021-12-19T08:07:48Z</time>
      </trkpt>
      <trkpt lat="46.84437" lon="-1.00467">
        <ele>160</ele>
        <time>2021-12-19T08:07:50Z</time>
      </trkpt>
      <trkpt lat="46.84425" lon="-1.00466">
        <ele>159</ele>
        <time>2021-12-19T08:07:52Z</time>
      </trkpt>
      <trkpt lat="46.84419" lon="-1.00466">
        <ele>159</ele>
        <time>2021-12-19T08:07:53Z</time>
      </trkpt>
      <trkpt lat="46.84406" lon="-1.00465">
        <ele>159</ele>
        <time>2021-12-19T08:07:55Z</time>
      </trkpt>
      <trkpt lat="46.844" lon="-1.00465">
        <ele>160</ele>
        <time>2021-12-19T08:07:56Z</time>
      </trkpt>
      <trkpt lat="46.84388" lon="-1.00464">
        <ele>160</ele>
        <time>2021-12-19T08:07:58Z</time>
      </trkpt>
      <trkpt lat="46.84375" lon="-1.00463">
        <ele>160</ele>
        <time>2021-12-19T08:08:00Z</time>
      </trkpt>
      <trkpt lat="46.84362" lon="-1.00462">
        <ele>161</ele>
        <time>2021-12-19T08:08:02Z</time>
      </trkpt>
      <trkpt lat="46.84349" lon="-1.00461">
        <ele>161</ele>
        <time>2021-12-19T08:08:04Z</time>
      </trkpt>
      <trkpt lat="46.84336" lon="-1.00459">
        <ele>161</ele>
        <time>2021-12-19T08:08:06Z</time>
      </trkpt>
      <trkpt lat="46.8433" lon="-1.00458">
        <ele>161</ele>
        <time>2021-12-19T08:08:07Z</time>
      </trkpt>
      <trkpt lat="46.84323" lon="-1.00458">
        <ele>162</ele>
        <time>2021-12-19T08:08:08Z</time>
      </trkpt>
      <trkpt lat="46.84311" lon="-1.00457">
        <ele>162</ele>
        <time>2021-12-19T08:08:10Z</time>
      </trkpt>
      <trkpt lat="46.84298" lon="-1.00456">
        <ele>163</ele>
        <time>2021-12-19T08:08:12Z</time>
      </trkpt>
      <trkpt lat="46.84286" lon="-1.00456">
        <ele>163</ele>
        <time>2021-12-19T08:08:14Z</time>
      </trkpt>
      <trkpt lat="46.84279" lon="-1.00455">
        <ele>163</ele>
        <time>2021-12-19T08:08:15Z</time>
      </trkpt>
      <trkpt lat="46.84267" lon="-1.00454">
        <ele>163</ele>
        <time>2021-12-19T08:08:17Z</time>
      </trkpt>
      <trkpt lat="46.84261" lon="-1.00453">
        <ele>163</ele>
        <time>2021-12-19T08:08:18Z</time>
      </trkpt>
      <trkpt lat="46.84248" lon="-1.00453">
        <ele>164</ele>
        <time>2021-12-19T08:08:20Z</time>
      </trkpt>
      <trkpt lat="46.84235" lon="-1.00452">
        <ele>164</ele>
        <time>2021-12-19T08:08:22Z</time>
      </trkpt>
      <trkpt lat="46.84223" lon="-1.00451">
        <ele>164</ele>
        <time>2021-12-19T08:08:24Z</time>
      </trkpt>
      <trkpt lat="46.84211" lon="-1.0045">
        <ele>164</ele>
        <time>2021-12-19T08:08:26Z</time>
      </trkpt>
      <trkpt lat="46.84205" lon="-1.00449">
        <ele>164</ele>
        <time>2021-12-19T08:08:27Z</time>
      </trkpt>
      <trkpt lat="46.84198" lon="-1.00449">
        <ele>164</ele>
        <time>2021-12-19T08:08:28Z</time>
      </trkpt>
      <trkpt lat="46.84186" lon="-1.00448">
        <ele>165</ele>
        <time>2021-12-19T08:08:30Z</time>
      </trkpt>
      <trkpt lat="46.84173" lon="-1.00447">
        <ele>165</ele>
        <time>2021-12-19T08:08:32Z</time>
      </trkpt>
      <trkpt lat="46.84161" lon="-1.00446">
        <ele>165</ele>
        <time>2021-12-19T08:08:34Z</time>
      </trkpt>
      <trkpt lat="46.84154" lon="-1.00446">
        <ele>165</ele>
        <time>2021-12-19T08:08:35Z</time>
      </trkpt>
      <trkpt lat="46.84142" lon="-1.00445">
        <ele>165</ele>
        <time>2021-12-19T08:08:37Z</time>
      </trkpt>
      <trkpt lat="46.84129" lon="-1.00444">
        <ele>166</ele>
        <time>2021-12-19T08:08:39Z</time>
      </trkpt>
      <trkpt lat="46.84122" lon="-1.00443">
        <ele>166</ele>
        <time>2021-12-19T08:08:40Z</time>
      </trkpt>
      <trkpt lat="46.84115" lon="-1.00443">
        <ele>166</ele>
        <time>2021-12-19T08:08:41Z</time>
      </trkpt>
      <trkpt lat="46.84102" lon="-1.00442">
        <ele>166</ele>
        <time>2021-12-19T08:08:43Z</time>
      </trkpt>
      <trkpt lat="46.84096" lon="-1.00442">
        <ele>166</ele>
        <time>2021-12-19T08:08:44Z</time>
      </trkpt>
      <trkpt lat="46.84083" lon="-1.00441">
        <ele>166</ele>
        <time>2021-12-19T08:08:46Z</time>
      </trkpt>
      <trkpt lat="46.8407" lon="-1.0044">
        <ele>166</ele>
        <time>2021-12-19T08:08:48Z</time>
      </trkpt>
      <trkpt lat="46.84057" lon="-1.00438">
        <ele>167</ele>
        <time>2021-12-19T08:08:50Z</time>
      </trkpt>
      <trkpt lat="46.84051" lon="-1.00438">
        <ele>167</ele>
        <time>2021-12-19T08:08:51Z</time>
      </trkpt>
      <trkpt lat="46.84044" lon="-1.00437">
        <ele>167</ele>
        <time>2021-12-19T08:08:52Z</time>
      </trkpt>
      <trkpt lat="46.84031" lon="-1.00436">
        <ele>168</ele>
        <time>2021-12-19T08:08:54Z</time>
      </trkpt>
      <trkpt lat="46.84024" lon="-1.00436">
        <ele>168</ele>
        <time>2021-12-19T08:08:55Z</time>
      </trkpt>
      <trkpt lat="46.84012" lon="-1.00435">
        <ele>168</ele>
        <time>2021-12-19T08:08:57Z</time>
      </trkpt>
      <trkpt lat="46.84005" lon="-1.00434">
        <ele>168</ele>
        <time>2021-12-19T08:08:58Z</time>
      </trkpt>
      <trkpt lat="46.83992" lon="-1.00433">
        <ele>168</ele>
        <time>2021-12-19T08:09:00Z</time>
      </trkpt>
      <trkpt lat="46.83979" lon="-1.00432">
        <ele>168</ele>
        <time>2021-12-19T08:09:02Z</time>
      </trkpt>
      <trkpt lat="46.83966" lon="-1.00431">
        <ele>169</ele>
        <time>2021-12-19T08:09:04Z</time>
      </trkpt>
      <trkpt lat="46.8396" lon="-1.00431">
        <ele>169</ele>
        <time>2021-12-19T08:09:05Z</time>
      </trkpt>
      <trkpt lat="46.83953" lon="-1.00431">
        <ele>169</ele>
        <time>2021-12-19T08:09:06Z</time>
      </trkpt>
      <trkpt lat="46.8394" lon="-1.00429">
        <ele>169</ele>
        <time>2021-12-19T08:09:08Z</time>
      </trkpt>
      <trkpt lat="46.83928" lon="-1.00429">
        <ele>170</ele>
        <time>2021-12-19T08:09:10Z</time>
      </trkpt>
      <trkpt lat="46.83915" lon="-1.00428">
        <ele>170</ele>
        <time>2021-12-19T08:09:12Z</time>
      </trkpt>
      <trkpt lat="46.83902" lon="-1.00427">
        <ele>170</ele>
        <time>2021-12-19T08:09:14Z</time>
      </trkpt>
      <trkpt lat="46.8389" lon="-1.00426">
        <ele>170</ele>
        <time>2021-12-19T08:09:16Z</time>
      </trkpt>
      <trkpt lat="46.83876" lon="-1.00425">
        <ele>170</ele>
        <time>2021-12-19T08:09:18Z</time>
      </trkpt>
      <trkpt lat="46.83869" lon="-1.00424">
        <ele>170</ele>
        <time>2021-12-19T08:09:19Z</time>
      </trkpt>
      <trkpt lat="46.83863" lon="-1.00424">
        <ele>171</ele>
        <time>2021-12-19T08:09:20Z</time>
      </trkpt>
      <trkpt lat="46.83849" lon="-1.00423">
        <ele>171</ele>
        <time>2021-12-19T08:09:22Z</time>
      </trkpt>
      <trkpt lat="46.83835" lon="-1.00421">
        <ele>171</ele>
        <time>2021-12-19T08:09:24Z</time>
      </trkpt>
      <trkpt lat="46.83828" lon="-1.00421">
        <ele>171</ele>
        <time>2021-12-19T08:09:25Z</time>
      </trkpt>
      <trkpt lat="46.83822" lon="-1.00421">
        <ele>171</ele>
        <time>2021-12-19T08:09:26Z</time>
      </trkpt>
      <trkpt lat="46.83808" lon="-1.00419">
        <ele>171</ele>
        <time>2021-12-19T08:09:28Z</time>
      </trkpt>
      <trkpt lat="46.83795" lon="-1.00418">
        <ele>171</ele>
        <time>2021-12-19T08:09:30Z</time>
      </trkpt>
      <trkpt lat="46.83789" lon="-1.00418">
        <ele>171</ele>
        <time>2021-12-19T08:09:31Z</time>
      </trkpt>
      <trkpt lat="46.83782" lon="-1.00417">
        <ele>172</ele>
        <time>2021-12-19T08:09:32Z</time>
      </trkpt>
      <trkpt lat="46.83768" lon="-1.00417">
        <ele>171</ele>
        <time>2021-12-19T08:09:34Z</time>
      </trkpt>
      <trkpt lat="46.83761" lon="-1.00416">
        <ele>171</ele>
        <time>2021-12-19T08:09:35Z</time>
      </trkpt>
      <trkpt lat="46.83755" lon="-1.00416">
        <ele>171</ele>
        <time>2021-12-19T08:09:36Z</time>
      </trkpt>
      <trkpt lat="46.83741" lon="-1.00414">
        <ele>171</ele>
        <time>2021-12-19T08:09:38Z</time>
      </trkpt>
      <trkpt lat="46.83727" lon="-1.00413">
        <ele>170</ele>
        <time>2021-12-19T08:09:40Z</time>
      </trkpt>
      <trkpt lat="46.83714" lon="-1.00412">
        <ele>170</ele>
        <time>2021-12-19T08:09:42Z</time>
      </trkpt>
      <trkpt lat="46.83707" lon="-1.00411">
        <ele>171</ele>
        <time>2021-12-19T08:09:43Z</time>
      </trkpt>
      <trkpt lat="46.83693" lon="-1.0041">
        <ele>171</ele>
        <time>2021-12-19T08:09:45Z</time>
      </trkpt>
      <trkpt lat="46.83686" lon="-1.0041">
        <ele>171</ele>
        <time>2021-12-19T08:09:46Z</time>
      </trkpt>
      <trkpt lat="46.8368" lon="-1.00409">
        <ele>171</ele>
        <time>2021-12-19T08:09:47Z</time>
      </trkpt>
      <trkpt lat="46.83673" lon="-1.00409">
        <ele>171</ele>
        <time>2021-12-19T08:09:48Z</time>
      </trkpt>
      <trkpt lat="46.8366" lon="-1.00408">
        <ele>171</ele>
        <time>2021-12-19T08:09:50Z</time>
      </trkpt>
      <trkpt lat="46.83653" lon="-1.00407">
        <ele>171</ele>
        <time>2021-12-19T08:09:51Z</time>
      </trkpt>
      <trkpt lat="46.83646" lon="-1.00407">
        <ele>171</ele>
        <time>2021-12-19T08:09:52Z</time>
      </trkpt>
      <trkpt lat="46.83633" lon="-1.00405">
        <ele>171</ele>
        <time>2021-12-19T08:09:54Z</time>
      </trkpt>
      <trkpt lat="46.8362" lon="-1.00404">
        <ele>171</ele>
        <time>2021-12-19T08:09:56Z</time>
      </trkpt>
      <trkpt lat="46.83613" lon="-1.00403">
        <ele>171</ele>
        <time>2021-12-19T08:09:57Z</time>
      </trkpt>
      <trkpt lat="46.836" lon="-1.00402">
        <ele>170</ele>
        <time>2021-12-19T08:09:59Z</time>
      </trkpt>
      <trkpt lat="46.83594" lon="-1.00401">
        <ele>170</ele>
        <time>2021-12-19T08:10:00Z</time>
      </trkpt>
      <trkpt lat="46.83581" lon="-1.00401">
        <ele>171</ele>
        <time>2021-12-19T08:10:02Z</time>
      </trkpt>
      <trkpt lat="46.83567" lon="-1.00402">
        <ele>171</ele>
        <time>2021-12-19T08:10:04Z</time>
      </trkpt>
      <trkpt lat="46.8356" lon="-1.00403">
        <ele>171</ele>
        <time>2021-12-19T08:10:05Z</time>
      </trkpt>
      <trkpt lat="46.83546" lon="-1.00404">
        <ele>171</ele>
        <time>2021-12-19T08:10:07Z</time>
      </trkpt>
      <trkpt lat="46.8354" lon="-1.00404">
        <ele>171</ele>
        <time>2021-12-19T08:10:08Z</time>
      </trkpt>
      <trkpt lat="46.83527" lon="-1.00404">
        <ele>171</ele>
        <time>2021-12-19T08:10:10Z</time>
      </trkpt>
      <trkpt lat="46.8352" lon="-1.00404">
        <ele>171</ele>
        <time>2021-12-19T08:10:11Z</time>
      </trkpt>
      <trkpt lat="46.83514" lon="-1.00403">
        <ele>171</ele>
        <time>2021-12-19T08:10:12Z</time>
      </trkpt>
      <trkpt lat="46.835" lon="-1.00402">
        <ele>171</ele>
        <time>2021-12-19T08:10:14Z</time>
      </trkpt>
      <trkpt lat="46.83493" lon="-1.00401">
        <ele>171</ele>
        <time>2021-12-19T08:10:15Z</time>
      </trkpt>
      <trkpt lat="46.83479" lon="-1.00399">
        <ele>171</ele>
        <time>2021-12-19T08:10:17Z</time>
      </trkpt>
      <trkpt lat="46.83472" lon="-1.00398">
        <ele>171</ele>
        <time>2021-12-19T08:10:18Z</time>
      </trkpt>
      <trkpt lat="46.83458" lon="-1.00395">
        <ele>171</ele>
        <time>2021-12-19T08:10:20Z</time>
      </trkpt>
      <trkpt lat="46.8345" lon="-1.00394">
        <ele>171</ele>
        <time>2021-12-19T08:10:21Z</time>
      </trkpt>
      <trkpt lat="46.83436" lon="-1.00392">
        <ele>172</ele>
        <time>2021-12-19T08:10:23Z</time>
      </trkpt>
      <trkpt lat="46.83422" lon="-1.0039">
        <ele>172</ele>
        <time>2021-12-19T08:10:25Z</time>
      </trkpt>
      <trkpt lat="46.83408" lon="-1.00389">
        <ele>172</ele>
        <time>2021-12-19T08:10:27Z</time>
      </trkpt>
      <trkpt lat="46.83394" lon="-1.00388">
        <ele>172</ele>
        <time>2021-12-19T08:10:29Z</time>
      </trkpt>
      <trkpt lat="46.83387" lon="-1.00387">
        <ele>172</ele>
        <time>2021-12-19T08:10:30Z</time>
      </trkpt>
      <trkpt lat="46.83373" lon="-1.00385">
        <ele>172</ele>
        <time>2021-12-19T08:10:32Z</time>
      </trkpt>
      <trkpt lat="46.83359" lon="-1.00384">
        <ele>172</ele>
        <time>2021-12-19T08:10:34Z</time>
      </trkpt>
      <trkpt lat="46.83353" lon="-1.00383">
        <ele>172</ele>
        <time>2021-12-19T08:10:35Z</time>
      </trkpt>
      <trkpt lat="46.83339" lon="-1.00382">
        <ele>172</ele>
        <time>2021-12-19T08:10:37Z</time>
      </trkpt>
      <trkpt lat="46.83333" lon="-1.00381">
        <ele>172</ele>
        <time>2021-12-19T08:10:38Z</time>
      </trkpt>
      <trkpt lat="46.83319" lon="-1.0038">
        <ele>172</ele>
        <time>2021-12-19T08:10:40Z</time>
      </trkpt>
      <trkpt lat="46.83304" lon="-1.00379">
        <ele>172</ele>
        <time>2021-12-19T08:10:42Z</time>
      </trkpt>
      <trkpt lat="46.83289" lon="-1.00378">
        <ele>172</ele>
        <time>2021-12-19T08:10:44Z</time>
      </trkpt>
      <trkpt lat="46.83282" lon="-1.00377">
        <ele>171</ele>
        <time>2021-12-19T08:10:45Z</time>
      </trkpt>
      <trkpt lat="46.83267" lon="-1.00377">
        <ele>171</ele>
        <time>2021-12-19T08:10:47Z</time>
      </trkpt>
      <trkpt lat="46.83252" lon="-1.00376">
        <ele>171</ele>
        <time>2021-12-19T08:10:49Z</time>
      </trkpt>
      <trkpt lat="46.83244" lon="-1.00375">
        <ele>170</ele>
        <time>2021-12-19T08:10:50Z</time>
      </trkpt>
      <trkpt lat="46.83228" lon="-1.00373">
        <ele>170</ele>
        <time>2021-12-19T08:10:52Z</time>
      </trkpt>
      <trkpt lat="46.83219" lon="-1.00372">
        <ele>170</ele>
        <time>2021-12-19T08:10:53Z</time>
      </trkpt>
      <trkpt lat="46.83203" lon="-1.00372">
        <ele>169</ele>
        <time>2021-12-19T08:10:55Z</time>
      </trkpt>
      <trkpt lat="46.83186" lon="-1.00371">
        <ele>168</ele>
        <time>2021-12-19T08:10:57Z</time>
      </trkpt>
      <trkpt lat="46.83177" lon="-1.0037">
        <ele>168</ele>
        <time>2021-12-19T08:10:58Z</time>
      </trkpt>
      <trkpt lat="46.8316" lon="-1.00369">
        <ele>167</ele>
        <time>2021-12-19T08:11:00Z</time>
      </trkpt>
      <trkpt lat="46.83151" lon="-1.00368">
        <ele>167</ele>
        <time>2021-12-19T08:11:01Z</time>
      </trkpt>
      <trkpt lat="46.83142" lon="-1.00367">
        <ele>167</ele>
        <time>2021-12-19T08:11:02Z</time>
      </trkpt>
      <trkpt lat="46.83133" lon="-1.00365">
        <ele>166</ele>
        <time>2021-12-19T08:11:03Z</time>
      </trkpt>
      <trkpt lat="46.83115" lon="-1.00364">
        <ele>166</ele>
        <time>2021-12-19T08:11:05Z</time>
      </trkpt>
      <trkpt lat="46.83097" lon="-1.00363">
        <ele>166</ele>
        <time>2021-12-19T08:11:07Z</time>
      </trkpt>
      <trkpt lat="46.83078" lon="-1.00362">
        <ele>165</ele>
        <time>2021-12-19T08:11:09Z</time>
      </trkpt>
      <trkpt lat="46.83069" lon="-1.00361">
        <ele>165</ele>
        <time>2021-12-19T08:11:10Z</time>
      </trkpt>
      <trkpt lat="46.8305" lon="-1.0036">
        <ele>164</ele>
        <time>2021-12-19T08:11:12Z</time>
      </trkpt>
      <trkpt lat="46.8304" lon="-1.00359">
        <ele>163</ele>
        <time>2021-12-19T08:11:13Z</time>
      </trkpt>
      <trkpt lat="46.8303" lon="-1.00358">
        <ele>163</ele>
        <time>2021-12-19T08:11:14Z</time>
      </trkpt>
      <trkpt lat="46.8301" lon="-1.00357">
        <ele>161</ele>
        <time>2021-12-19T08:11:16Z</time>
      </trkpt>
      <trkpt lat="46.83001" lon="-1.00356">
        <ele>161</ele>
        <time>2021-12-19T08:11:17Z</time>
      </trkpt>
      <trkpt lat="46.82991" lon="-1.00355">
        <ele>161</ele>
        <time>2021-12-19T08:11:18Z</time>
      </trkpt>
      <trkpt lat="46.82971" lon="-1.00353">
        <ele>160</ele>
        <time>2021-12-19T08:11:20Z</time>
      </trkpt>
      <trkpt lat="46.8296" lon="-1.00352">
        <ele>160</ele>
        <time>2021-12-19T08:11:21Z</time>
      </trkpt>
      <trkpt lat="46.82941" lon="-1.00348">
        <ele>159</ele>
        <time>2021-12-19T08:11:23Z</time>
      </trkpt>
      <trkpt lat="46.82931" lon="-1.00345">
        <ele>159</ele>
        <time>2021-12-19T08:11:24Z</time>
      </trkpt>
      <trkpt lat="46.82913" lon="-1.00338">
        <ele>157</ele>
        <time>2021-12-19T08:11:26Z</time>
      </trkpt>
      <trkpt lat="46.82904" lon="-1.00333">
        <ele>157</ele>
        <time>2021-12-19T08:11:27Z</time>
      </trkpt>
      <trkpt lat="46.82895" lon="-1.00328">
        <ele>156</ele>
        <time>2021-12-19T08:11:28Z</time>
      </trkpt>
      <trkpt lat="46.82878" lon="-1.00316">
        <ele>155</ele>
        <time>2021-12-19T08:11:30Z</time>
      </trkpt>
      <trkpt lat="46.82861" lon="-1.00301">
        <ele>154</ele>
        <time>2021-12-19T08:11:32Z</time>
      </trkpt>
      <trkpt lat="46.82854" lon="-1.00292">
        <ele>154</ele>
        <time>2021-12-19T08:11:33Z</time>
      </trkpt>
      <trkpt lat="46.82839" lon="-1.00273">
        <ele>154</ele>
        <time>2021-12-19T08:11:35Z</time>
      </trkpt>
      <trkpt lat="46.82832" lon="-1.00264">
        <ele>154</ele>
        <time>2021-12-19T08:11:36Z</time>
      </trkpt>
      <trkpt lat="46.8282" lon="-1.00244">
        <ele>153</ele>
        <time>2021-12-19T08:11:38Z</time>
      </trkpt>
      <trkpt lat="46.82809" lon="-1.00223">
        <ele>152</ele>
        <time>2021-12-19T08:11:40Z</time>
      </trkpt>
      <trkpt lat="46.82803" lon="-1.00212">
        <ele>153</ele>
        <time>2021-12-19T08:11:41Z</time>
      </trkpt>
      <trkpt lat="46.82793" lon="-1.0019">
        <ele>152</ele>
        <time>2021-12-19T08:11:43Z</time>
      </trkpt>
      <trkpt lat="46.82789" lon="-1.00179">
        <ele>152</ele>
        <time>2021-12-19T08:11:44Z</time>
      </trkpt>
      <trkpt lat="46.82785" lon="-1.00168">
        <ele>152</ele>
        <time>2021-12-19T08:11:45Z</time>
      </trkpt>
      <trkpt lat="46.82776" lon="-1.00146">
        <ele>151</ele>
        <time>2021-12-19T08:11:47Z</time>
      </trkpt>
      <trkpt lat="46.82769" lon="-1.00122">
        <ele>151</ele>
        <time>2021-12-19T08:11:49Z</time>
      </trkpt>
      <trkpt lat="46.82761" lon="-1.00099">
        <ele>151</ele>
        <time>2021-12-19T08:11:51Z</time>
      </trkpt>
      <trkpt lat="46.82753" lon="-1.00075">
        <ele>150</ele>
        <time>2021-12-19T08:11:53Z</time>
      </trkpt>
      <trkpt lat="46.82749" lon="-1.00063">
        <ele>150</ele>
        <time>2021-12-19T08:11:54Z</time>
      </trkpt>
      <trkpt lat="46.82745" lon="-1.00051">
        <ele>150</ele>
        <time>2021-12-19T08:11:55Z</time>
      </trkpt>
      <trkpt lat="46.82742" lon="-1.00039">
        <ele>150</ele>
        <time>2021-12-19T08:11:56Z</time>
      </trkpt>
      <trkpt lat="46.82734" lon="-1.00016">
        <ele>149</ele>
        <time>2021-12-19T08:11:58Z</time>
      </trkpt>
      <trkpt lat="46.82726" lon="-0.99992">
        <ele>149</ele>
        <time>2021-12-19T08:12:00Z</time>
      </trkpt>
      <trkpt lat="46.82719" lon="-0.9997">
        <ele>148</ele>
        <time>2021-12-19T08:12:02Z</time>
      </trkpt>
      <trkpt lat="46.82715" lon="-0.99959">
        <ele>148</ele>
        <time>2021-12-19T08:12:03Z</time>
      </trkpt>
      <trkpt lat="46.82708" lon="-0.99938">
        <ele>148</ele>
        <time>2021-12-19T08:12:05Z</time>
      </trkpt>
      <trkpt lat="46.82704" lon="-0.99927">
        <ele>147</ele>
        <time>2021-12-19T08:12:06Z</time>
      </trkpt>
      <trkpt lat="46.82698" lon="-0.99906">
        <ele>146</ele>
        <time>2021-12-19T08:12:08Z</time>
      </trkpt>
      <trkpt lat="46.8269" lon="-0.99883">
        <ele>145</ele>
        <time>2021-12-19T08:12:10Z</time>
      </trkpt>
      <trkpt lat="46.82682" lon="-0.99859">
        <ele>144</ele>
        <time>2021-12-19T08:12:12Z</time>
      </trkpt>
      <trkpt lat="46.82674" lon="-0.99835">
        <ele>143</ele>
        <time>2021-12-19T08:12:14Z</time>
      </trkpt>
      <trkpt lat="46.8267" lon="-0.99823">
        <ele>143</ele>
        <time>2021-12-19T08:12:15Z</time>
      </trkpt>
      <trkpt lat="46.82662" lon="-0.99798">
        <ele>142</ele>
        <time>2021-12-19T08:12:17Z</time>
      </trkpt>
      <trkpt lat="46.82653" lon="-0.99773">
        <ele>140</ele>
        <time>2021-12-19T08:12:19Z</time>
      </trkpt>
      <trkpt lat="46.82645" lon="-0.9975">
        <ele>139</ele>
        <time>2021-12-19T08:12:21Z</time>
      </trkpt>
      <trkpt lat="46.82636" lon="-0.99726">
        <ele>138</ele>
        <time>2021-12-19T08:12:23Z</time>
      </trkpt>
      <trkpt lat="46.82631" lon="-0.99714">
        <ele>138</ele>
        <time>2021-12-19T08:12:24Z</time>
      </trkpt>
      <trkpt lat="46.82625" lon="-0.99703">
        <ele>138</ele>
        <time>2021-12-19T08:12:25Z</time>
      </trkpt>
      <trkpt lat="46.82619" lon="-0.99692">
        <ele>137</ele>
        <time>2021-12-19T08:12:26Z</time>
      </trkpt>
      <trkpt lat="46.82605" lon="-0.99673">
        <ele>137</ele>
        <time>2021-12-19T08:12:28Z</time>
      </trkpt>
      <trkpt lat="46.82597" lon="-0.99665">
        <ele>137</ele>
        <time>2021-12-19T08:12:29Z</time>
      </trkpt>
      <trkpt lat="46.82589" lon="-0.99659">
        <ele>137</ele>
        <time>2021-12-19T08:12:30Z</time>
      </trkpt>
      <trkpt lat="46.82573" lon="-0.99651">
        <ele>138</ele>
        <time>2021-12-19T08:12:32Z</time>
      </trkpt>
      <trkpt lat="46.82564" lon="-0.99647">
        <ele>138</ele>
        <time>2021-12-19T08:12:33Z</time>
      </trkpt>
      <trkpt lat="46.82548" lon="-0.99643">
        <ele>138</ele>
        <time>2021-12-19T08:12:35Z</time>
      </trkpt>
      <trkpt lat="46.82534" lon="-0.99641">
        <ele>139</ele>
        <time>2021-12-19T08:12:37Z</time>
      </trkpt>
      <trkpt lat="46.82526" lon="-0.99639">
        <ele>139</ele>
        <time>2021-12-19T08:12:38Z</time>
      </trkpt>
      <trkpt lat="46.82519" lon="-0.99638">
        <ele>140</ele>
        <time>2021-12-19T08:12:39Z</time>
      </trkpt>
      <trkpt lat="46.82506" lon="-0.99636">
        <ele>140</ele>
        <time>2021-12-19T08:12:41Z</time>
      </trkpt>
      <trkpt lat="46.82499" lon="-0.99635">
        <ele>141</ele>
        <time>2021-12-19T08:12:42Z</time>
      </trkpt>
      <trkpt lat="46.82493" lon="-0.99634">
        <ele>141</ele>
        <time>2021-12-19T08:12:43Z</time>
      </trkpt>
      <trkpt lat="46.82479" lon="-0.99633">
        <ele>142</ele>
        <time>2021-12-19T08:12:45Z</time>
      </trkpt>
      <trkpt lat="46.82473" lon="-0.99632">
        <ele>142</ele>
        <time>2021-12-19T08:12:46Z</time>
      </trkpt>
      <trkpt lat="46.8246" lon="-0.9963">
        <ele>143</ele>
        <time>2021-12-19T08:12:48Z</time>
      </trkpt>
      <trkpt lat="46.82448" lon="-0.99628">
        <ele>144</ele>
        <time>2021-12-19T08:12:50Z</time>
      </trkpt>
      <trkpt lat="46.82442" lon="-0.99627">
        <ele>144</ele>
        <time>2021-12-19T08:12:51Z</time>
      </trkpt>
      <trkpt lat="46.82435" lon="-0.99626">
        <ele>144</ele>
        <time>2021-12-19T08:12:52Z</time>
      </trkpt>
      <trkpt lat="46.82429" lon="-0.99626">
        <ele>144</ele>
        <time>2021-12-19T08:12:53Z</time>
      </trkpt>
      <trkpt lat="46.82416" lon="-0.99624">
        <ele>145</ele>
        <time>2021-12-19T08:12:55Z</time>
      </trkpt>
      <trkpt lat="46.82403" lon="-0.99621">
        <ele>145</ele>
        <time>2021-12-19T08:12:57Z</time>
      </trkpt>
      <trkpt lat="46.82391" lon="-0.99617">
        <ele>146</ele>
        <time>2021-12-19T08:12:59Z</time>
      </trkpt>
      <trkpt lat="46.82379" lon="-0.9961">
        <ele>146</ele>
        <time>2021-12-19T08:13:01Z</time>
      </trkpt>
      <trkpt lat="46.82373" lon="-0.99606">
        <ele>146</ele>
        <time>2021-12-19T08:13:02Z</time>
      </trkpt>
      <trkpt lat="46.82363" lon="-0.99596">
        <ele>147</ele>
        <time>2021-12-19T08:13:04Z</time>
      </trkpt>
      <trkpt lat="46.82358" lon="-0.9959">
        <ele>147</ele>
        <time>2021-12-19T08:13:05Z</time>
      </trkpt>
      <trkpt lat="46.8235" lon="-0.99578">
        <ele>148</ele>
        <time>2021-12-19T08:13:07Z</time>
      </trkpt>
      <trkpt lat="46.82346" lon="-0.99571">
        <ele>148</ele>
        <time>2021-12-19T08:13:08Z</time>
      </trkpt>
      <trkpt lat="46.82342" lon="-0.99564">
        <ele>148</ele>
        <time>2021-12-19T08:13:09Z</time>
      </trkpt>
      <trkpt lat="46.82336" lon="-0.9955">
        <ele>149</ele>
        <time>2021-12-19T08:13:11Z</time>
      </trkpt>
      <trkpt lat="46.82331" lon="-0.99537">
        <ele>150</ele>
        <time>2021-12-19T08:13:13Z</time>
      </trkpt>
      <trkpt lat="46.82329" lon="-0.9953">
        <ele>150</ele>
        <time>2021-12-19T08:13:14Z</time>
      </trkpt>
      <trkpt lat="46.82327" lon="-0.99524">
        <ele>150</ele>
        <time>2021-12-19T08:13:15Z</time>
      </trkpt>
      <trkpt lat="46.82322" lon="-0.99511">
        <ele>150</ele>
        <time>2021-12-19T08:13:17Z</time>
      </trkpt>
      <trkpt lat="46.82316" lon="-0.99499">
        <ele>150</ele>
        <time>2021-12-19T08:13:19Z</time>
      </trkpt>
      <trkpt lat="46.82313" lon="-0.99493">
        <ele>151</ele>
        <time>2021-12-19T08:13:20Z</time>
      </trkpt>
      <trkpt lat="46.82307" lon="-0.99483">
        <ele>151</ele>
        <time>2021-12-19T08:13:22Z</time>
      </trkpt>
      <trkpt lat="46.82299" lon="-0.99476">
        <ele>151</ele>
        <time>2021-12-19T08:13:24Z</time>
      </trkpt>
      <trkpt lat="46.82291" lon="-0.9947">
        <ele>151</ele>
        <time>2021-12-19T08:13:26Z</time>
      </trkpt>
      <trkpt lat="46.82288" lon="-0.99469">
        <ele>151</ele>
        <time>2021-12-19T08:13:27Z</time>
      </trkpt>
      <trkpt lat="46.82284" lon="-0.99467">
        <ele>151</ele>
        <time>2021-12-19T08:13:28Z</time>
      </trkpt>
      <trkpt lat="46.82278" lon="-0.99464">
        <ele>152</ele>
        <time>2021-12-19T08:13:30Z</time>
      </trkpt>
      <trkpt lat="46.82272" lon="-0.99461">
        <ele>152</ele>
        <time>2021-12-19T08:13:32Z</time>
      </trkpt>
      <trkpt lat="46.82266" lon="-0.99459">
        <ele>152</ele>
        <time>2021-12-19T08:13:34Z</time>
      </trkpt>
      <trkpt lat="46.82263" lon="-0.99457">
        <ele>152</ele>
        <time>2021-12-19T08:13:35Z</time>
      </trkpt>
      <trkpt lat="46.82257" lon="-0.99448">
        <ele>152</ele>
        <time>2021-12-19T08:13:37Z</time>
      </trkpt>
      <trkpt lat="46.82252" lon="-0.99437">
        <ele>153</ele>
        <time>2021-12-19T08:13:39Z</time>
      </trkpt>
      <trkpt lat="46.82252" lon="-0.99424">
        <ele>153</ele>
        <time>2021-12-19T08:13:41Z</time>
      </trkpt>
      <trkpt lat="46.82253" lon="-0.99418">
        <ele>153</ele>
        <time>2021-12-19T08:13:42Z</time>
      </trkpt>
      <trkpt lat="46.82255" lon="-0.99408">
        <ele>154</ele>
        <time>2021-12-19T08:13:44Z</time>
      </trkpt>
      <trkpt lat="46.82255" lon="-0.99403">
        <ele>155</ele>
        <time>2021-12-19T08:13:45Z</time>
      </trkpt>
      <trkpt lat="46.82255" lon="-0.99392">
        <ele>156</ele>
        <time>2021-12-19T08:13:47Z</time>
      </trkpt>
      <trkpt lat="46.82254" lon="-0.9938">
        <ele>156</ele>
        <time>2021-12-19T08:13:49Z</time>
      </trkpt>
      <trkpt lat="46.82253" lon="-0.99367">
        <ele>157</ele>
        <time>2021-12-19T08:13:51Z</time>
      </trkpt>
      <trkpt lat="46.82252" lon="-0.99353">
        <ele>157</ele>
        <time>2021-12-19T08:13:53Z</time>
      </trkpt>
      <trkpt lat="46.82251" lon="-0.99346">
        <ele>157</ele>
        <time>2021-12-19T08:13:54Z</time>
      </trkpt>
      <trkpt lat="46.8225" lon="-0.99339">
        <ele>157</ele>
        <time>2021-12-19T08:13:55Z</time>
      </trkpt>
      <trkpt lat="46.82248" lon="-0.99327">
        <ele>158</ele>
        <time>2021-12-19T08:13:57Z</time>
      </trkpt>
      <trkpt lat="46.82247" lon="-0.9932">
        <ele>158</ele>
        <time>2021-12-19T08:13:58Z</time>
      </trkpt>
      <trkpt lat="46.82245" lon="-0.99308">
        <ele>158</ele>
        <time>2021-12-19T08:14:00Z</time>
      </trkpt>
      <trkpt lat="46.82243" lon="-0.99302">
        <ele>159</ele>
        <time>2021-12-19T08:14:01Z</time>
      </trkpt>
      <trkpt lat="46.8224" lon="-0.99291">
        <ele>159</ele>
        <time>2021-12-19T08:14:03Z</time>
      </trkpt>
      <trkpt lat="46.82238" lon="-0.99279">
        <ele>160</ele>
        <time>2021-12-19T08:14:05Z</time>
      </trkpt>
      <trkpt lat="46.82236" lon="-0.99273">
        <ele>160</ele>
        <time>2021-12-19T08:14:06Z</time>
      </trkpt>
      <trkpt lat="46.82234" lon="-0.99261">
        <ele>161</ele>
        <time>2021-12-19T08:14:08Z</time>
      </trkpt>
      <trkpt lat="46.82232" lon="-0.99249">
        <ele>161</ele>
        <time>2021-12-19T08:14:10Z</time>
      </trkpt>
      <trkpt lat="46.8223" lon="-0.99237">
        <ele>161</ele>
        <time>2021-12-19T08:14:12Z</time>
      </trkpt>
      <trkpt lat="46.82228" lon="-0.99225">
        <ele>161</ele>
        <time>2021-12-19T08:14:14Z</time>
      </trkpt>
      <trkpt lat="46.82227" lon="-0.99218">
        <ele>161</ele>
        <time>2021-12-19T08:14:15Z</time>
      </trkpt>
      <trkpt lat="46.82225" lon="-0.99212">
        <ele>161</ele>
        <time>2021-12-19T08:14:16Z</time>
      </trkpt>
      <trkpt lat="46.82223" lon="-0.99199">
        <ele>162</ele>
        <time>2021-12-19T08:14:18Z</time>
      </trkpt>
      <trkpt lat="46.82221" lon="-0.99185">
        <ele>162</ele>
        <time>2021-12-19T08:14:20Z</time>
      </trkpt>
      <trkpt lat="46.82218" lon="-0.99171">
        <ele>162</ele>
        <time>2021-12-19T08:14:22Z</time>
      </trkpt>
      <trkpt lat="46.82215" lon="-0.99156">
        <ele>162</ele>
        <time>2021-12-19T08:14:24Z</time>
      </trkpt>
      <trkpt lat="46.82212" lon="-0.99141">
        <ele>162</ele>
        <time>2021-12-19T08:14:26Z</time>
      </trkpt>
      <trkpt lat="46.82211" lon="-0.99134">
        <ele>162</ele>
        <time>2021-12-19T08:14:27Z</time>
      </trkpt>
      <trkpt lat="46.82208" lon="-0.99119">
        <ele>163</ele>
        <time>2021-12-19T08:14:29Z</time>
      </trkpt>
      <trkpt lat="46.82206" lon="-0.99112">
        <ele>163</ele>
        <time>2021-12-19T08:14:30Z</time>
      </trkpt>
      <trkpt lat="46.82204" lon="-0.99104">
        <ele>163</ele>
        <time>2021-12-19T08:14:31Z</time>
      </trkpt>
      <trkpt lat="46.82202" lon="-0.99096">
        <ele>162</ele>
        <time>2021-12-19T08:14:32Z</time>
      </trkpt>
      <trkpt lat="46.82197" lon="-0.99081">
        <ele>162</ele>
        <time>2021-12-19T08:14:34Z</time>
      </trkpt>
      <trkpt lat="46.82194" lon="-0.99074">
        <ele>162</ele>
        <time>2021-12-19T08:14:35Z</time>
      </trkpt>
      <trkpt lat="46.82187" lon="-0.9906">
        <ele>162</ele>
        <time>2021-12-19T08:14:37Z</time>
      </trkpt>
      <trkpt lat="46.82182" lon="-0.99054">
        <ele>162</ele>
        <time>2021-12-19T08:14:38Z</time>
      </trkpt>
      <trkpt lat="46.82173" lon="-0.99043">
        <ele>161</ele>
        <time>2021-12-19T08:14:40Z</time>
      </trkpt>
      <trkpt lat="46.82162" lon="-0.99032">
        <ele>161</ele>
        <time>2021-12-19T08:14:42Z</time>
      </trkpt>
      <trkpt lat="46.82149" lon="-0.99023">
        <ele>159</ele>
        <time>2021-12-19T08:14:44Z</time>
      </trkpt>
      <trkpt lat="46.82135" lon="-0.99014">
        <ele>159</ele>
        <time>2021-12-19T08:14:46Z</time>
      </trkpt>
      <trkpt lat="46.82127" lon="-0.99008">
        <ele>158</ele>
        <time>2021-12-19T08:14:47Z</time>
      </trkpt>
      <trkpt lat="46.82112" lon="-0.98996">
        <ele>157</ele>
        <time>2021-12-19T08:14:49Z</time>
      </trkpt>
      <trkpt lat="46.82104" lon="-0.9899">
        <ele>156</ele>
        <time>2021-12-19T08:14:50Z</time>
      </trkpt>
      <trkpt lat="46.82088" lon="-0.9898">
        <ele>156</ele>
        <time>2021-12-19T08:14:52Z</time>
      </trkpt>
      <trkpt lat="46.8207" lon="-0.9897">
        <ele>155</ele>
        <time>2021-12-19T08:14:54Z</time>
      </trkpt>
      <trkpt lat="46.82052" lon="-0.98958">
        <ele>154</ele>
        <time>2021-12-19T08:14:56Z</time>
      </trkpt>
      <trkpt lat="46.82044" lon="-0.98952">
        <ele>154</ele>
        <time>2021-12-19T08:14:57Z</time>
      </trkpt>
      <trkpt lat="46.82027" lon="-0.98939">
        <ele>152</ele>
        <time>2021-12-19T08:14:59Z</time>
      </trkpt>
      <trkpt lat="46.82018" lon="-0.98932">
        <ele>152</ele>
        <time>2021-12-19T08:15:00Z</time>
      </trkpt>
      <trkpt lat="46.82001" lon="-0.9892">
        <ele>151</ele>
        <time>2021-12-19T08:15:02Z</time>
      </trkpt>
      <trkpt lat="46.81992" lon="-0.98916">
        <ele>150</ele>
        <time>2021-12-19T08:15:03Z</time>
      </trkpt>
      <trkpt lat="46.81983" lon="-0.98911">
        <ele>150</ele>
        <time>2021-12-19T08:15:04Z</time>
      </trkpt>
      <trkpt lat="46.81965" lon="-0.98901">
        <ele>150</ele>
        <time>2021-12-19T08:15:06Z</time>
      </trkpt>
      <trkpt lat="46.8195" lon="-0.98891">
        <ele>151</ele>
        <time>2021-12-19T08:15:08Z</time>
      </trkpt>
      <trkpt lat="46.81936" lon="-0.98882">
        <ele>152</ele>
        <time>2021-12-19T08:15:10Z</time>
      </trkpt>
      <trkpt lat="46.81923" lon="-0.98874">
        <ele>152</ele>
        <time>2021-12-19T08:15:12Z</time>
      </trkpt>
      <trkpt lat="46.8191" lon="-0.98866">
        <ele>153</ele>
        <time>2021-12-19T08:15:14Z</time>
      </trkpt>
      <trkpt lat="46.81903" lon="-0.98862">
        <ele>153</ele>
        <time>2021-12-19T08:15:15Z</time>
      </trkpt>
      <trkpt lat="46.81897" lon="-0.98858">
        <ele>153</ele>
        <time>2021-12-19T08:15:16Z</time>
      </trkpt>
      <trkpt lat="46.81885" lon="-0.98851">
        <ele>154</ele>
        <time>2021-12-19T08:15:18Z</time>
      </trkpt>
      <trkpt lat="46.81879" lon="-0.98847">
        <ele>154</ele>
        <time>2021-12-19T08:15:19Z</time>
      </trkpt>
      <trkpt lat="46.81868" lon="-0.9884">
        <ele>154</ele>
        <time>2021-12-19T08:15:21Z</time>
      </trkpt>
      <trkpt lat="46.81858" lon="-0.98833">
        <ele>155</ele>
        <time>2021-12-19T08:15:23Z</time>
      </trkpt>
      <trkpt lat="46.81848" lon="-0.98827">
        <ele>155</ele>
        <time>2021-12-19T08:15:25Z</time>
      </trkpt>
      <trkpt lat="46.81838" lon="-0.98821">
        <ele>156</ele>
        <time>2021-12-19T08:15:27Z</time>
      </trkpt>
      <trkpt lat="46.81833" lon="-0.98818">
        <ele>156</ele>
        <time>2021-12-19T08:15:28Z</time>
      </trkpt>
      <trkpt lat="46.81823" lon="-0.98811">
        <ele>156</ele>
        <time>2021-12-19T08:15:30Z</time>
      </trkpt>
      <trkpt lat="46.81819" lon="-0.98808">
        <ele>157</ele>
        <time>2021-12-19T08:15:31Z</time>
      </trkpt>
      <trkpt lat="46.81814" lon="-0.98805">
        <ele>157</ele>
        <time>2021-12-19T08:15:32Z</time>
      </trkpt>
      <trkpt lat="46.81803" lon="-0.98797">
        <ele>157</ele>
        <time>2021-12-19T08:15:34Z</time>
      </trkpt>
      <trkpt lat="46.81798" lon="-0.98794">
        <ele>157</ele>
        <time>2021-12-19T08:15:35Z</time>
      </trkpt>
      <trkpt lat="46.81793" lon="-0.98791">
        <ele>157</ele>
        <time>2021-12-19T08:15:36Z</time>
      </trkpt>
      <trkpt lat="46.81788" lon="-0.98787">
        <ele>158</ele>
        <time>2021-12-19T08:15:37Z</time>
      </trkpt>
      <trkpt lat="46.81778" lon="-0.98781">
        <ele>158</ele>
        <time>2021-12-19T08:15:39Z</time>
      </trkpt>
      <trkpt lat="46.81768" lon="-0.98774">
        <ele>158</ele>
        <time>2021-12-19T08:15:41Z</time>
      </trkpt>
      <trkpt lat="46.81763" lon="-0.9877">
        <ele>159</ele>
        <time>2021-12-19T08:15:42Z</time>
      </trkpt>
      <trkpt lat="46.81751" lon="-0.98764">
        <ele>159</ele>
        <time>2021-12-19T08:15:44Z</time>
      </trkpt>
      <trkpt lat="46.81745" lon="-0.98761">
        <ele>159</ele>
        <time>2021-12-19T08:15:45Z</time>
      </trkpt>
      <trkpt lat="46.81733" lon="-0.98755">
        <ele>159</ele>
        <time>2021-12-19T08:15:47Z</time>
      </trkpt>
      <trkpt lat="46.81721" lon="-0.9875">
        <ele>160</ele>
        <time>2021-12-19T08:15:49Z</time>
      </trkpt>
      <trkpt lat="46.81715" lon="-0.98748">
        <ele>160</ele>
        <time>2021-12-19T08:15:50Z</time>
      </trkpt>
      <trkpt lat="46.81703" lon="-0.98745">
        <ele>161</ele>
        <time>2021-12-19T08:15:52Z</time>
      </trkpt>
      <trkpt lat="46.81696" lon="-0.98742">
        <ele>161</ele>
        <time>2021-12-19T08:15:53Z</time>
      </trkpt>
      <trkpt lat="46.81684" lon="-0.98738">
        <ele>161</ele>
        <time>2021-12-19T08:15:55Z</time>
      </trkpt>
      <trkpt lat="46.81671" lon="-0.98733">
        <ele>161</ele>
        <time>2021-12-19T08:15:57Z</time>
      </trkpt>
      <trkpt lat="46.81665" lon="-0.98731">
        <ele>161</ele>
        <time>2021-12-19T08:15:58Z</time>
      </trkpt>
      <trkpt lat="46.81651" lon="-0.98726">
        <ele>160</ele>
        <time>2021-12-19T08:16:00Z</time>
      </trkpt>
      <trkpt lat="46.81637" lon="-0.98722">
        <ele>160</ele>
        <time>2021-12-19T08:16:02Z</time>
      </trkpt>
      <trkpt lat="46.8163" lon="-0.9872">
        <ele>160</ele>
        <time>2021-12-19T08:16:03Z</time>
      </trkpt>
      <trkpt lat="46.81622" lon="-0.98717">
        <ele>159</ele>
        <time>2021-12-19T08:16:04Z</time>
      </trkpt>
      <trkpt lat="46.81615" lon="-0.98715">
        <ele>159</ele>
        <time>2021-12-19T08:16:05Z</time>
      </trkpt>
      <trkpt lat="46.816" lon="-0.9871">
        <ele>158</ele>
        <time>2021-12-19T08:16:07Z</time>
      </trkpt>
      <trkpt lat="46.81592" lon="-0.98708">
        <ele>158</ele>
        <time>2021-12-19T08:16:08Z</time>
      </trkpt>
      <trkpt lat="46.81576" lon="-0.98703">
        <ele>157</ele>
        <time>2021-12-19T08:16:10Z</time>
      </trkpt>
      <trkpt lat="46.81568" lon="-0.98701">
        <ele>157</ele>
        <time>2021-12-19T08:16:11Z</time>
      </trkpt>
      <trkpt lat="46.81552" lon="-0.98695">
        <ele>157</ele>
        <time>2021-12-19T08:16:13Z</time>
      </trkpt>
      <trkpt lat="46.81543" lon="-0.98692">
        <ele>156</ele>
        <time>2021-12-19T08:16:14Z</time>
      </trkpt>
      <trkpt lat="46.81535" lon="-0.98689">
        <ele>156</ele>
        <time>2021-12-19T08:16:15Z</time>
      </trkpt>
      <trkpt lat="46.81518" lon="-0.98683">
        <ele>155</ele>
        <time>2021-12-19T08:16:17Z</time>
      </trkpt>
      <trkpt lat="46.815" lon="-0.98677">
        <ele>154</ele>
        <time>2021-12-19T08:16:19Z</time>
      </trkpt>
      <trkpt lat="46.81481" lon="-0.98671">
        <ele>153</ele>
        <time>2021-12-19T08:16:21Z</time>
      </trkpt>
      <trkpt lat="46.81463" lon="-0.98664">
        <ele>151</ele>
        <time>2021-12-19T08:16:23Z</time>
      </trkpt>
      <trkpt lat="46.81444" lon="-0.98658">
        <ele>150</ele>
        <time>2021-12-19T08:16:25Z</time>
      </trkpt>
      <trkpt lat="46.81434" lon="-0.98655">
        <ele>149</ele>
        <time>2021-12-19T08:16:26Z</time>
      </trkpt>
      <trkpt lat="46.81425" lon="-0.98652">
        <ele>149</ele>
        <time>2021-12-19T08:16:27Z</time>
      </trkpt>
      <trkpt lat="46.81405" lon="-0.98646">
        <ele>147</ele>
        <time>2021-12-19T08:16:29Z</time>
      </trkpt>
      <trkpt lat="46.81385" lon="-0.9864">
        <ele>146</ele>
        <time>2021-12-19T08:16:31Z</time>
      </trkpt>
      <trkpt lat="46.81375" lon="-0.98636">
        <ele>145</ele>
        <time>2021-12-19T08:16:32Z</time>
      </trkpt>
      <trkpt lat="46.81355" lon="-0.98629">
        <ele>145</ele>
        <time>2021-12-19T08:16:34Z</time>
      </trkpt>
      <trkpt lat="46.81335" lon="-0.98623">
        <ele>144</ele>
        <time>2021-12-19T08:16:36Z</time>
      </trkpt>
      <trkpt lat="46.81315" lon="-0.98616">
        <ele>142</ele>
        <time>2021-12-19T08:16:38Z</time>
      </trkpt>
      <trkpt lat="46.81305" lon="-0.98612">
        <ele>142</ele>
        <time>2021-12-19T08:16:39Z</time>
      </trkpt>
      <trkpt lat="46.81285" lon="-0.98605">
        <ele>141</ele>
        <time>2021-12-19T08:16:41Z</time>
      </trkpt>
      <trkpt lat="46.81275" lon="-0.98602">
        <ele>140</ele>
        <time>2021-12-19T08:16:42Z</time>
      </trkpt>
      <trkpt lat="46.81255" lon="-0.98596">
        <ele>140</ele>
        <time>2021-12-19T08:16:44Z</time>
      </trkpt>
      <trkpt lat="46.81245" lon="-0.98592">
        <ele>140</ele>
        <time>2021-12-19T08:16:45Z</time>
      </trkpt>
      <trkpt lat="46.81225" lon="-0.98586">
        <ele>139</ele>
        <time>2021-12-19T08:16:47Z</time>
      </trkpt>
      <trkpt lat="46.81207" lon="-0.98579">
        <ele>140</ele>
        <time>2021-12-19T08:16:49Z</time>
      </trkpt>
      <trkpt lat="46.81199" lon="-0.98576">
        <ele>140</ele>
        <time>2021-12-19T08:16:50Z</time>
      </trkpt>
      <trkpt lat="46.81183" lon="-0.98571">
        <ele>140</ele>
        <time>2021-12-19T08:16:52Z</time>
      </trkpt>
      <trkpt lat="46.81176" lon="-0.98569">
        <ele>141</ele>
        <time>2021-12-19T08:16:53Z</time>
      </trkpt>
      <trkpt lat="46.81163" lon="-0.98563">
        <ele>141</ele>
        <time>2021-12-19T08:16:55Z</time>
      </trkpt>
      <trkpt lat="46.8115" lon="-0.98559">
        <ele>141</ele>
        <time>2021-12-19T08:16:57Z</time>
      </trkpt>
      <trkpt lat="46.81137" lon="-0.98553">
        <ele>141</ele>
        <time>2021-12-19T08:16:59Z</time>
      </trkpt>
      <trkpt lat="46.81125" lon="-0.98544">
        <ele>142</ele>
        <time>2021-12-19T08:17:01Z</time>
      </trkpt>
      <trkpt lat="46.81119" lon="-0.98527">
        <ele>143</ele>
        <time>2021-12-19T08:17:03Z</time>
      </trkpt>
      <trkpt lat="46.81114" lon="-0.9851">
        <ele>144</ele>
        <time>2021-12-19T08:17:05Z</time>
      </trkpt>
      <trkpt lat="46.81111" lon="-0.98502">
        <ele>144</ele>
        <time>2021-12-19T08:17:06Z</time>
      </trkpt>
      <trkpt lat="46.81107" lon="-0.98488">
        <ele>145</ele>
        <time>2021-12-19T08:17:08Z</time>
      </trkpt>
      <trkpt lat="46.81102" lon="-0.98475">
        <ele>145</ele>
        <time>2021-12-19T08:17:10Z</time>
      </trkpt>
      <trkpt lat="46.81098" lon="-0.98462">
        <ele>146</ele>
        <time>2021-12-19T08:17:12Z</time>
      </trkpt>
      <trkpt lat="46.81096" lon="-0.98456">
        <ele>146</ele>
        <time>2021-12-19T08:17:13Z</time>
      </trkpt>
      <trkpt lat="46.81092" lon="-0.98445">
        <ele>146</ele>
        <time>2021-12-19T08:17:15Z</time>
      </trkpt>
      <trkpt lat="46.81087" lon="-0.98433">
        <ele>147</ele>
        <time>2021-12-19T08:17:17Z</time>
      </trkpt>
      <trkpt lat="46.81085" lon="-0.98427">
        <ele>147</ele>
        <time>2021-12-19T08:17:18Z</time>
      </trkpt>
      <trkpt lat="46.8108" lon="-0.98416">
        <ele>148</ele>
        <time>2021-12-19T08:17:20Z</time>
      </trkpt>
      <trkpt lat="46.81078" lon="-0.9841">
        <ele>148</ele>
        <time>2021-12-19T08:17:21Z</time>
      </trkpt>
      <trkpt lat="46.81073" lon="-0.98398">
        <ele>149</ele>
        <time>2021-12-19T08:17:23Z</time>
      </trkpt>
      <trkpt lat="46.81069" lon="-0.98386">
        <ele>149</ele>
        <time>2021-12-19T08:17:25Z</time>
      </trkpt>
      <trkpt lat="46.81066" lon="-0.9838">
        <ele>149</ele>
        <time>2021-12-19T08:17:26Z</time>
      </trkpt>
      <trkpt lat="46.81061" lon="-0.98368">
        <ele>150</ele>
        <time>2021-12-19T08:17:28Z</time>
      </trkpt>
      <trkpt lat="46.81059" lon="-0.98362">
        <ele>150</ele>
        <time>2021-12-19T08:17:29Z</time>
      </trkpt>
      <trkpt lat="46.81054" lon="-0.98348">
        <ele>150</ele>
        <time>2021-12-19T08:17:31Z</time>
      </trkpt>
      <trkpt lat="46.81048" lon="-0.98335">
        <ele>150</ele>
        <time>2021-12-19T08:17:33Z</time>
      </trkpt>
      <trkpt lat="46.81043" lon="-0.98321">
        <ele>150</ele>
        <time>2021-12-19T08:17:35Z</time>
      </trkpt>
      <trkpt lat="46.8104" lon="-0.98314">
        <ele>150</ele>
        <time>2021-12-19T08:17:36Z</time>
      </trkpt>
      <trkpt lat="46.81038" lon="-0.98307">
        <ele>150</ele>
        <time>2021-12-19T08:17:37Z</time>
      </trkpt>
      <trkpt lat="46.81035" lon="-0.98299">
        <ele>150</ele>
        <time>2021-12-19T08:17:38Z</time>
      </trkpt>
      <trkpt lat="46.81029" lon="-0.98284">
        <ele>150</ele>
        <time>2021-12-19T08:17:40Z</time>
      </trkpt>
      <trkpt lat="46.81026" lon="-0.98277">
        <ele>150</ele>
        <time>2021-12-19T08:17:41Z</time>
      </trkpt>
      <trkpt lat="46.81023" lon="-0.98269">
        <ele>150</ele>
        <time>2021-12-19T08:17:42Z</time>
      </trkpt>
      <trkpt lat="46.81017" lon="-0.98252">
        <ele>150</ele>
        <time>2021-12-19T08:17:44Z</time>
      </trkpt>
      <trkpt lat="46.81011" lon="-0.98234">
        <ele>150</ele>
        <time>2021-12-19T08:17:46Z</time>
      </trkpt>
      <trkpt lat="46.81005" lon="-0.98216">
        <ele>150</ele>
        <time>2021-12-19T08:17:48Z</time>
      </trkpt>
      <trkpt lat="46.81002" lon="-0.98208">
        <ele>150</ele>
        <time>2021-12-19T08:17:49Z</time>
      </trkpt>
      <trkpt lat="46.80995" lon="-0.98191">
        <ele>150</ele>
        <time>2021-12-19T08:17:51Z</time>
      </trkpt>
      <trkpt lat="46.80992" lon="-0.98182">
        <ele>150</ele>
        <time>2021-12-19T08:17:52Z</time>
      </trkpt>
      <trkpt lat="46.80989" lon="-0.98174">
        <ele>150</ele>
        <time>2021-12-19T08:17:53Z</time>
      </trkpt>
      <trkpt lat="46.80982" lon="-0.98158">
        <ele>150</ele>
        <time>2021-12-19T08:17:55Z</time>
      </trkpt>
      <trkpt lat="46.80976" lon="-0.98142">
        <ele>150</ele>
        <time>2021-12-19T08:17:57Z</time>
      </trkpt>
      <trkpt lat="46.80973" lon="-0.98134">
        <ele>150</ele>
        <time>2021-12-19T08:17:58Z</time>
      </trkpt>
      <trkpt lat="46.80967" lon="-0.9812">
        <ele>150</ele>
        <time>2021-12-19T08:18:00Z</time>
      </trkpt>
      <trkpt lat="46.80965" lon="-0.98112">
        <ele>150</ele>
        <time>2021-12-19T08:18:01Z</time>
      </trkpt>
      <trkpt lat="46.80959" lon="-0.98098">
        <ele>151</ele>
        <time>2021-12-19T08:18:03Z</time>
      </trkpt>
      <trkpt lat="46.80953" lon="-0.98084">
        <ele>151</ele>
        <time>2021-12-19T08:18:05Z</time>
      </trkpt>
      <trkpt lat="46.80951" lon="-0.98077">
        <ele>151</ele>
        <time>2021-12-19T08:18:06Z</time>
      </trkpt>
      <trkpt lat="46.80948" lon="-0.98071">
        <ele>151</ele>
        <time>2021-12-19T08:18:07Z</time>
      </trkpt>
      <trkpt lat="46.80942" lon="-0.98057">
        <ele>152</ele>
        <time>2021-12-19T08:18:09Z</time>
      </trkpt>
      <trkpt lat="46.80937" lon="-0.98044">
        <ele>152</ele>
        <time>2021-12-19T08:18:11Z</time>
      </trkpt>
      <trkpt lat="46.80935" lon="-0.98038">
        <ele>152</ele>
        <time>2021-12-19T08:18:12Z</time>
      </trkpt>
      <trkpt lat="46.80932" lon="-0.98031">
        <ele>152</ele>
        <time>2021-12-19T08:18:13Z</time>
      </trkpt>
      <trkpt lat="46.80927" lon="-0.98019">
        <ele>153</ele>
        <time>2021-12-19T08:18:15Z</time>
      </trkpt>
      <trkpt lat="46.80922" lon="-0.98005">
        <ele>153</ele>
        <time>2021-12-19T08:18:17Z</time>
      </trkpt>
      <trkpt lat="46.8092" lon="-0.97999">
        <ele>153</ele>
        <time>2021-12-19T08:18:18Z</time>
      </trkpt>
      <trkpt lat="46.80917" lon="-0.97992">
        <ele>153</ele>
        <time>2021-12-19T08:18:19Z</time>
      </trkpt>
      <trkpt lat="46.80913" lon="-0.97977">
        <ele>154</ele>
        <time>2021-12-19T08:18:21Z</time>
      </trkpt>
      <trkpt lat="46.80909" lon="-0.9796">
        <ele>154</ele>
        <time>2021-12-19T08:18:23Z</time>
      </trkpt>
      <trkpt lat="46.80906" lon="-0.97944">
        <ele>154</ele>
        <time>2021-12-19T08:18:25Z</time>
      </trkpt>
      <trkpt lat="46.80904" lon="-0.97928">
        <ele>154</ele>
        <time>2021-12-19T08:18:27Z</time>
      </trkpt>
      <trkpt lat="46.80902" lon="-0.9792">
        <ele>154</ele>
        <time>2021-12-19T08:18:28Z</time>
      </trkpt>
      <trkpt lat="46.809" lon="-0.97903">
        <ele>153</ele>
        <time>2021-12-19T08:18:30Z</time>
      </trkpt>
      <trkpt lat="46.80899" lon="-0.97895">
        <ele>153</ele>
        <time>2021-12-19T08:18:31Z</time>
      </trkpt>
      <trkpt lat="46.80896" lon="-0.97879">
        <ele>153</ele>
        <time>2021-12-19T08:18:33Z</time>
      </trkpt>
      <trkpt lat="46.80895" lon="-0.97871">
        <ele>153</ele>
        <time>2021-12-19T08:18:34Z</time>
      </trkpt>
      <trkpt lat="46.80893" lon="-0.97856">
        <ele>153</ele>
        <time>2021-12-19T08:18:36Z</time>
      </trkpt>
      <trkpt lat="46.80891" lon="-0.97841">
        <ele>153</ele>
        <time>2021-12-19T08:18:38Z</time>
      </trkpt>
      <trkpt lat="46.80889" lon="-0.97824">
        <ele>153</ele>
        <time>2021-12-19T08:18:40Z</time>
      </trkpt>
      <trkpt lat="46.80889" lon="-0.97807">
        <ele>153</ele>
        <time>2021-12-19T08:18:42Z</time>
      </trkpt>
      <trkpt lat="46.80889" lon="-0.97798">
        <ele>153</ele>
        <time>2021-12-19T08:18:43Z</time>
      </trkpt>
      <trkpt lat="46.8089" lon="-0.97789">
        <ele>153</ele>
        <time>2021-12-19T08:18:44Z</time>
      </trkpt>
      <trkpt lat="46.80891" lon="-0.97772">
        <ele>153</ele>
        <time>2021-12-19T08:18:46Z</time>
      </trkpt>
      <trkpt lat="46.80892" lon="-0.97755">
        <ele>153</ele>
        <time>2021-12-19T08:18:48Z</time>
      </trkpt>
      <trkpt lat="46.80893" lon="-0.97746">
        <ele>153</ele>
        <time>2021-12-19T08:18:49Z</time>
      </trkpt>
      <trkpt lat="46.80895" lon="-0.97728">
        <ele>153</ele>
        <time>2021-12-19T08:18:51Z</time>
      </trkpt>
      <trkpt lat="46.80895" lon="-0.9772">
        <ele>153</ele>
        <time>2021-12-19T08:18:52Z</time>
      </trkpt>
      <trkpt lat="46.80895" lon="-0.97703">
        <ele>152</ele>
        <time>2021-12-19T08:18:54Z</time>
      </trkpt>
      <trkpt lat="46.80896" lon="-0.97684">
        <ele>152</ele>
        <time>2021-12-19T08:18:56Z</time>
      </trkpt>
      <trkpt lat="46.80895" lon="-0.97675">
        <ele>152</ele>
        <time>2021-12-19T08:18:57Z</time>
      </trkpt>
      <trkpt lat="46.80895" lon="-0.97657">
        <ele>152</ele>
        <time>2021-12-19T08:18:59Z</time>
      </trkpt>
      <trkpt lat="46.80894" lon="-0.97648">
        <ele>152</ele>
        <time>2021-12-19T08:19:00Z</time>
      </trkpt>
      <trkpt lat="46.80893" lon="-0.97629">
        <ele>152</ele>
        <time>2021-12-19T08:19:02Z</time>
      </trkpt>
      <trkpt lat="46.80893" lon="-0.9762">
        <ele>152</ele>
        <time>2021-12-19T08:19:03Z</time>
      </trkpt>
      <trkpt lat="46.80892" lon="-0.97611">
        <ele>152</ele>
        <time>2021-12-19T08:19:04Z</time>
      </trkpt>
      <trkpt lat="46.8089" lon="-0.97592">
        <ele>152</ele>
        <time>2021-12-19T08:19:06Z</time>
      </trkpt>
      <trkpt lat="46.80887" lon="-0.97573">
        <ele>153</ele>
        <time>2021-12-19T08:19:08Z</time>
      </trkpt>
      <trkpt lat="46.80883" lon="-0.97555">
        <ele>153</ele>
        <time>2021-12-19T08:19:10Z</time>
      </trkpt>
      <trkpt lat="46.8088" lon="-0.97546">
        <ele>153</ele>
        <time>2021-12-19T08:19:11Z</time>
      </trkpt>
      <trkpt lat="46.80878" lon="-0.97537">
        <ele>154</ele>
        <time>2021-12-19T08:19:12Z</time>
      </trkpt>
      <trkpt lat="46.80872" lon="-0.97521">
        <ele>154</ele>
        <time>2021-12-19T08:19:14Z</time>
      </trkpt>
      <trkpt lat="46.80867" lon="-0.97504">
        <ele>154</ele>
        <time>2021-12-19T08:19:16Z</time>
      </trkpt>
      <trkpt lat="46.80864" lon="-0.97495">
        <ele>153</ele>
        <time>2021-12-19T08:19:17Z</time>
      </trkpt>
      <trkpt lat="46.80859" lon="-0.97478">
        <ele>153</ele>
        <time>2021-12-19T08:19:19Z</time>
      </trkpt>
      <trkpt lat="46.80853" lon="-0.97462">
        <ele>153</ele>
        <time>2021-12-19T08:19:21Z</time>
      </trkpt>
      <trkpt lat="46.8085" lon="-0.97454">
        <ele>153</ele>
        <time>2021-12-19T08:19:22Z</time>
      </trkpt>
      <trkpt lat="46.80845" lon="-0.97438">
        <ele>153</ele>
        <time>2021-12-19T08:19:24Z</time>
      </trkpt>
      <trkpt lat="46.8084" lon="-0.97421">
        <ele>152</ele>
        <time>2021-12-19T08:19:26Z</time>
      </trkpt>
      <trkpt lat="46.80837" lon="-0.97412">
        <ele>152</ele>
        <time>2021-12-19T08:19:27Z</time>
      </trkpt>
      <trkpt lat="46.80832" lon="-0.97396">
        <ele>152</ele>
        <time>2021-12-19T08:19:29Z</time>
      </trkpt>
      <trkpt lat="46.80826" lon="-0.97381">
        <ele>152</ele>
        <time>2021-12-19T08:19:31Z</time>
      </trkpt>
      <trkpt lat="46.80824" lon="-0.97373">
        <ele>152</ele>
        <time>2021-12-19T08:19:32Z</time>
      </trkpt>
      <trkpt lat="46.80821" lon="-0.97366">
        <ele>152</ele>
        <time>2021-12-19T08:19:33Z</time>
      </trkpt>
      <trkpt lat="46.80817" lon="-0.97352">
        <ele>152</ele>
        <time>2021-12-19T08:19:35Z</time>
      </trkpt>
      <trkpt lat="46.80812" lon="-0.97338">
        <ele>152</ele>
        <time>2021-12-19T08:19:37Z</time>
      </trkpt>
      <trkpt lat="46.80809" lon="-0.9733">
        <ele>152</ele>
        <time>2021-12-19T08:19:38Z</time>
      </trkpt>
      <trkpt lat="46.80806" lon="-0.97321">
        <ele>152</ele>
        <time>2021-12-19T08:19:39Z</time>
      </trkpt>
      <trkpt lat="46.80802" lon="-0.97303">
        <ele>153</ele>
        <time>2021-12-19T08:19:41Z</time>
      </trkpt>
      <trkpt lat="46.808" lon="-0.97294">
        <ele>153</ele>
        <time>2021-12-19T08:19:42Z</time>
      </trkpt>
      <trkpt lat="46.80796" lon="-0.97277">
        <ele>154</ele>
        <time>2021-12-19T08:19:44Z</time>
      </trkpt>
      <trkpt lat="46.80795" lon="-0.97268">
        <ele>154</ele>
        <time>2021-12-19T08:19:45Z</time>
      </trkpt>
      <trkpt lat="46.80793" lon="-0.97259">
        <ele>154</ele>
        <time>2021-12-19T08:19:46Z</time>
      </trkpt>
      <trkpt lat="46.8079" lon="-0.97241">
        <ele>154</ele>
        <time>2021-12-19T08:19:48Z</time>
      </trkpt>
      <trkpt lat="46.80788" lon="-0.97232">
        <ele>155</ele>
        <time>2021-12-19T08:19:49Z</time>
      </trkpt>
      <trkpt lat="46.80781" lon="-0.97213">
        <ele>154</ele>
        <time>2021-12-19T08:19:51Z</time>
      </trkpt>
      <trkpt lat="46.80773" lon="-0.97195">
        <ele>153</ele>
        <time>2021-12-19T08:19:53Z</time>
      </trkpt>
      <trkpt lat="46.80769" lon="-0.97186">
        <ele>153</ele>
        <time>2021-12-19T08:19:54Z</time>
      </trkpt>
      <trkpt lat="46.80759" lon="-0.97167">
        <ele>153</ele>
        <time>2021-12-19T08:19:56Z</time>
      </trkpt>
      <trkpt lat="46.8075" lon="-0.97148">
        <ele>152</ele>
        <time>2021-12-19T08:19:58Z</time>
      </trkpt>
      <trkpt lat="46.80745" lon="-0.97138">
        <ele>152</ele>
        <time>2021-12-19T08:19:59Z</time>
      </trkpt>
      <trkpt lat="46.80741" lon="-0.97128">
        <ele>152</ele>
        <time>2021-12-19T08:20:00Z</time>
      </trkpt>
      <trkpt lat="46.80734" lon="-0.97108">
        <ele>152</ele>
        <time>2021-12-19T08:20:02Z</time>
      </trkpt>
      <trkpt lat="46.80728" lon="-0.97088">
        <ele>151</ele>
        <time>2021-12-19T08:20:04Z</time>
      </trkpt>
      <trkpt lat="46.80722" lon="-0.97067">
        <ele>151</ele>
        <time>2021-12-19T08:20:06Z</time>
      </trkpt>
      <trkpt lat="46.80718" lon="-0.97056">
        <ele>150</ele>
        <time>2021-12-19T08:20:07Z</time>
      </trkpt>
      <trkpt lat="46.80714" lon="-0.97046">
        <ele>150</ele>
        <time>2021-12-19T08:20:08Z</time>
      </trkpt>
      <trkpt lat="46.80704" lon="-0.97026">
        <ele>150</ele>
        <time>2021-12-19T08:20:10Z</time>
      </trkpt>
      <trkpt lat="46.80698" lon="-0.97018">
        <ele>150</ele>
        <time>2021-12-19T08:20:11Z</time>
      </trkpt>
      <trkpt lat="46.80685" lon="-0.97004">
        <ele>149</ele>
        <time>2021-12-19T08:20:13Z</time>
      </trkpt>
      <trkpt lat="46.80678" lon="-0.96998">
        <ele>149</ele>
        <time>2021-12-19T08:20:14Z</time>
      </trkpt>
      <trkpt lat="46.80671" lon="-0.96991">
        <ele>149</ele>
        <time>2021-12-19T08:20:15Z</time>
      </trkpt>
      <trkpt lat="46.80664" lon="-0.96985">
        <ele>148</ele>
        <time>2021-12-19T08:20:16Z</time>
      </trkpt>
      <trkpt lat="46.8065" lon="-0.96971">
        <ele>148</ele>
        <time>2021-12-19T08:20:18Z</time>
      </trkpt>
      <trkpt lat="46.80643" lon="-0.96964">
        <ele>147</ele>
        <time>2021-12-19T08:20:19Z</time>
      </trkpt>
      <trkpt lat="46.80637" lon="-0.96956">
        <ele>147</ele>
        <time>2021-12-19T08:20:20Z</time>
      </trkpt>
      <trkpt lat="46.80624" lon="-0.9694">
        <ele>147</ele>
        <time>2021-12-19T08:20:22Z</time>
      </trkpt>
      <trkpt lat="46.80619" lon="-0.96931">
        <ele>147</ele>
        <time>2021-12-19T08:20:23Z</time>
      </trkpt>
      <trkpt lat="46.80609" lon="-0.96909">
        <ele>147</ele>
        <time>2021-12-19T08:20:25Z</time>
      </trkpt>
      <trkpt lat="46.80605" lon="-0.96899">
        <ele>146</ele>
        <time>2021-12-19T08:20:26Z</time>
      </trkpt>
      <trkpt lat="46.806" lon="-0.96889">
        <ele>146</ele>
        <time>2021-12-19T08:20:27Z</time>
      </trkpt>
      <trkpt lat="46.80592" lon="-0.96869">
        <ele>146</ele>
        <time>2021-12-19T08:20:29Z</time>
      </trkpt>
      <trkpt lat="46.80583" lon="-0.96849">
        <ele>146</ele>
        <time>2021-12-19T08:20:31Z</time>
      </trkpt>
      <trkpt lat="46.80579" lon="-0.96839">
        <ele>146</ele>
        <time>2021-12-19T08:20:32Z</time>
      </trkpt>
      <trkpt lat="46.80575" lon="-0.96829">
        <ele>146</ele>
        <time>2021-12-19T08:20:33Z</time>
      </trkpt>
      <trkpt lat="46.8057" lon="-0.96818">
        <ele>145</ele>
        <time>2021-12-19T08:20:34Z</time>
      </trkpt>
      <trkpt lat="46.80558" lon="-0.968">
        <ele>146</ele>
        <time>2021-12-19T08:20:36Z</time>
      </trkpt>
      <trkpt lat="46.80552" lon="-0.96792">
        <ele>146</ele>
        <time>2021-12-19T08:20:37Z</time>
      </trkpt>
      <trkpt lat="46.80545" lon="-0.96785">
        <ele>146</ele>
        <time>2021-12-19T08:20:38Z</time>
      </trkpt>
      <trkpt lat="46.8053" lon="-0.96775">
        <ele>146</ele>
        <time>2021-12-19T08:20:40Z</time>
      </trkpt>
      <trkpt lat="46.80516" lon="-0.96767">
        <ele>146</ele>
        <time>2021-12-19T08:20:42Z</time>
      </trkpt>
      <trkpt lat="46.80509" lon="-0.96763">
        <ele>146</ele>
        <time>2021-12-19T08:20:43Z</time>
      </trkpt>
      <trkpt lat="46.80495" lon="-0.96755">
        <ele>146</ele>
        <time>2021-12-19T08:20:45Z</time>
      </trkpt>
      <trkpt lat="46.80489" lon="-0.9675">
        <ele>146</ele>
        <time>2021-12-19T08:20:46Z</time>
      </trkpt>
      <trkpt lat="46.80477" lon="-0.96743">
        <ele>147</ele>
        <time>2021-12-19T08:20:48Z</time>
      </trkpt>
      <trkpt lat="46.80465" lon="-0.96734">
        <ele>147</ele>
        <time>2021-12-19T08:20:50Z</time>
      </trkpt>
      <trkpt lat="46.80459" lon="-0.96729">
        <ele>148</ele>
        <time>2021-12-19T08:20:51Z</time>
      </trkpt>
      <trkpt lat="46.80454" lon="-0.96723">
        <ele>148</ele>
        <time>2021-12-19T08:20:52Z</time>
      </trkpt>
      <trkpt lat="46.80443" lon="-0.96712">
        <ele>148</ele>
        <time>2021-12-19T08:20:54Z</time>
      </trkpt>
      <trkpt lat="46.80438" lon="-0.96706">
        <ele>148</ele>
        <time>2021-12-19T08:20:55Z</time>
      </trkpt>
      <trkpt lat="46.80428" lon="-0.96693">
        <ele>148</ele>
        <time>2021-12-19T08:20:57Z</time>
      </trkpt>
      <trkpt lat="46.80418" lon="-0.9668">
        <ele>148</ele>
        <time>2021-12-19T08:20:59Z</time>
      </trkpt>
      <trkpt lat="46.80408" lon="-0.96668">
        <ele>148</ele>
        <time>2021-12-19T08:21:01Z</time>
      </trkpt>
      <trkpt lat="46.80403" lon="-0.96663">
        <ele>148</ele>
        <time>2021-12-19T08:21:02Z</time>
      </trkpt>
      <trkpt lat="46.80394" lon="-0.96651">
        <ele>148</ele>
        <time>2021-12-19T08:21:04Z</time>
      </trkpt>
      <trkpt lat="46.80383" lon="-0.96637">
        <ele>148</ele>
        <time>2021-12-19T08:21:06Z</time>
      </trkpt>
      <trkpt lat="46.80373" lon="-0.96625">
        <ele>148</ele>
        <time>2021-12-19T08:21:08Z</time>
      </trkpt>
      <trkpt lat="46.80368" lon="-0.96618">
        <ele>148</ele>
        <time>2021-12-19T08:21:09Z</time>
      </trkpt>
      <trkpt lat="46.80363" lon="-0.96612">
        <ele>148</ele>
        <time>2021-12-19T08:21:10Z</time>
      </trkpt>
      <trkpt lat="46.80358" lon="-0.96605">
        <ele>148</ele>
        <time>2021-12-19T08:21:11Z</time>
      </trkpt>
      <trkpt lat="46.80353" lon="-0.96598">
        <ele>148</ele>
        <time>2021-12-19T08:21:12Z</time>
      </trkpt>
      <trkpt lat="46.80348" lon="-0.9659">
        <ele>148</ele>
        <time>2021-12-19T08:21:13Z</time>
      </trkpt>
      <trkpt lat="46.80344" lon="-0.96582">
        <ele>148</ele>
        <time>2021-12-19T08:21:14Z</time>
      </trkpt>
      <trkpt lat="46.80333" lon="-0.96566">
        <ele>148</ele>
        <time>2021-12-19T08:21:16Z</time>
      </trkpt>
      <trkpt lat="46.80329" lon="-0.96557">
        <ele>148</ele>
        <time>2021-12-19T08:21:17Z</time>
      </trkpt>
      <trkpt lat="46.80319" lon="-0.9654">
        <ele>148</ele>
        <time>2021-12-19T08:21:19Z</time>
      </trkpt>
      <trkpt lat="46.80314" lon="-0.96532">
        <ele>147</ele>
        <time>2021-12-19T08:21:20Z</time>
      </trkpt>
      <trkpt lat="46.80303" lon="-0.96514">
        <ele>147</ele>
        <time>2021-12-19T08:21:22Z</time>
      </trkpt>
      <trkpt lat="46.80298" lon="-0.96505">
        <ele>147</ele>
        <time>2021-12-19T08:21:23Z</time>
      </trkpt>
      <trkpt lat="46.80288" lon="-0.96488">
        <ele>147</ele>
        <time>2021-12-19T08:21:25Z</time>
      </trkpt>
      <trkpt lat="46.80282" lon="-0.96479">
        <ele>146</ele>
        <time>2021-12-19T08:21:26Z</time>
      </trkpt>
      <trkpt lat="46.80272" lon="-0.9646">
        <ele>146</ele>
        <time>2021-12-19T08:21:28Z</time>
      </trkpt>
      <trkpt lat="46.80265" lon="-0.96439">
        <ele>146</ele>
        <time>2021-12-19T08:21:30Z</time>
      </trkpt>
      <trkpt lat="46.80261" lon="-0.96416">
        <ele>145</ele>
        <time>2021-12-19T08:21:32Z</time>
      </trkpt>
      <trkpt lat="46.80257" lon="-0.96392">
        <ele>145</ele>
        <time>2021-12-19T08:21:34Z</time>
      </trkpt>
      <trkpt lat="46.80255" lon="-0.9638">
        <ele>145</ele>
        <time>2021-12-19T08:21:35Z</time>
      </trkpt>
      <trkpt lat="46.80252" lon="-0.96368">
        <ele>144</ele>
        <time>2021-12-19T08:21:36Z</time>
      </trkpt>
      <trkpt lat="46.8025" lon="-0.96357">
        <ele>144</ele>
        <time>2021-12-19T08:21:37Z</time>
      </trkpt>
      <trkpt lat="46.80246" lon="-0.96335">
        <ele>144</ele>
        <time>2021-12-19T08:21:39Z</time>
      </trkpt>
      <trkpt lat="46.80244" lon="-0.96324">
        <ele>143</ele>
        <time>2021-12-19T08:21:40Z</time>
      </trkpt>
      <trkpt lat="46.80238" lon="-0.96303">
        <ele>143</ele>
        <time>2021-12-19T08:21:42Z</time>
      </trkpt>
      <trkpt lat="46.80231" lon="-0.96282">
        <ele>143</ele>
        <time>2021-12-19T08:21:44Z</time>
      </trkpt>
      <trkpt lat="46.80226" lon="-0.96272">
        <ele>143</ele>
        <time>2021-12-19T08:21:45Z</time>
      </trkpt>
      <trkpt lat="46.80221" lon="-0.96263">
        <ele>142</ele>
        <time>2021-12-19T08:21:46Z</time>
      </trkpt>
      <trkpt lat="46.8021" lon="-0.96245">
        <ele>142</ele>
        <time>2021-12-19T08:21:48Z</time>
      </trkpt>
      <trkpt lat="46.802" lon="-0.96227">
        <ele>143</ele>
        <time>2021-12-19T08:21:50Z</time>
      </trkpt>
      <trkpt lat="46.80195" lon="-0.96219">
        <ele>143</ele>
        <time>2021-12-19T08:21:51Z</time>
      </trkpt>
      <trkpt lat="46.80186" lon="-0.96202">
        <ele>143</ele>
        <time>2021-12-19T08:21:53Z</time>
      </trkpt>
      <trkpt lat="46.80181" lon="-0.96194">
        <ele>143</ele>
        <time>2021-12-19T08:21:54Z</time>
      </trkpt>
      <trkpt lat="46.80174" lon="-0.96178">
        <ele>144</ele>
        <time>2021-12-19T08:21:56Z</time>
      </trkpt>
      <trkpt lat="46.80167" lon="-0.96163">
        <ele>144</ele>
        <time>2021-12-19T08:21:58Z</time>
      </trkpt>
      <trkpt lat="46.80163" lon="-0.96155">
        <ele>145</ele>
        <time>2021-12-19T08:21:59Z</time>
      </trkpt>
      <trkpt lat="46.80161" lon="-0.96147">
        <ele>145</ele>
        <time>2021-12-19T08:22:00Z</time>
      </trkpt>
      <trkpt lat="46.80158" lon="-0.96131">
        <ele>145</ele>
        <time>2021-12-19T08:22:02Z</time>
      </trkpt>
      <trkpt lat="46.80157" lon="-0.96122">
        <ele>145</ele>
        <time>2021-12-19T08:22:03Z</time>
      </trkpt>
      <trkpt lat="46.80156" lon="-0.96104">
        <ele>145</ele>
        <time>2021-12-19T08:22:05Z</time>
      </trkpt>
      <trkpt lat="46.80155" lon="-0.96087">
        <ele>145</ele>
        <time>2021-12-19T08:22:07Z</time>
      </trkpt>
      <trkpt lat="46.80154" lon="-0.96079">
        <ele>145</ele>
        <time>2021-12-19T08:22:08Z</time>
      </trkpt>
      <trkpt lat="46.80153" lon="-0.9607">
        <ele>145</ele>
        <time>2021-12-19T08:22:09Z</time>
      </trkpt>
      <trkpt lat="46.80153" lon="-0.96062">
        <ele>145</ele>
        <time>2021-12-19T08:22:10Z</time>
      </trkpt>
      <trkpt lat="46.80151" lon="-0.96044">
        <ele>145</ele>
        <time>2021-12-19T08:22:12Z</time>
      </trkpt>
      <trkpt lat="46.80149" lon="-0.96027">
        <ele>146</ele>
        <time>2021-12-19T08:22:14Z</time>
      </trkpt>
      <trkpt lat="46.80148" lon="-0.96018">
        <ele>146</ele>
        <time>2021-12-19T08:22:15Z</time>
      </trkpt>
      <trkpt lat="46.80146" lon="-0.96">
        <ele>146</ele>
        <time>2021-12-19T08:22:17Z</time>
      </trkpt>
      <trkpt lat="46.80146" lon="-0.95991">
        <ele>146</ele>
        <time>2021-12-19T08:22:18Z</time>
      </trkpt>
      <trkpt lat="46.80146" lon="-0.95982">
        <ele>146</ele>
        <time>2021-12-19T08:22:19Z</time>
      </trkpt>
      <trkpt lat="46.80146" lon="-0.95973">
        <ele>146</ele>
        <time>2021-12-19T08:22:20Z</time>
      </trkpt>
      <trkpt lat="46.80147" lon="-0.95964">
        <ele>147</ele>
        <time>2021-12-19T08:22:21Z</time>
      </trkpt>
      <trkpt lat="46.80149" lon="-0.95947">
        <ele>147</ele>
        <time>2021-12-19T08:22:23Z</time>
      </trkpt>
      <trkpt lat="46.80151" lon="-0.95938">
        <ele>148</ele>
        <time>2021-12-19T08:22:24Z</time>
      </trkpt>
      <trkpt lat="46.80154" lon="-0.95921">
        <ele>148</ele>
        <time>2021-12-19T08:22:26Z</time>
      </trkpt>
      <trkpt lat="46.80156" lon="-0.95913">
        <ele>148</ele>
        <time>2021-12-19T08:22:27Z</time>
      </trkpt>
      <trkpt lat="46.80159" lon="-0.95896">
        <ele>148</ele>
        <time>2021-12-19T08:22:29Z</time>
      </trkpt>
      <trkpt lat="46.80161" lon="-0.95887">
        <ele>148</ele>
        <time>2021-12-19T08:22:30Z</time>
      </trkpt>
      <trkpt lat="46.80162" lon="-0.95879">
        <ele>149</ele>
        <time>2021-12-19T08:22:31Z</time>
      </trkpt>
      <trkpt lat="46.80166" lon="-0.95862">
        <ele>149</ele>
        <time>2021-12-19T08:22:33Z</time>
      </trkpt>
      <trkpt lat="46.8017" lon="-0.95846">
        <ele>150</ele>
        <time>2021-12-19T08:22:35Z</time>
      </trkpt>
      <trkpt lat="46.80172" lon="-0.95838">
        <ele>150</ele>
        <time>2021-12-19T08:22:36Z</time>
      </trkpt>
      <trkpt lat="46.80174" lon="-0.9583">
        <ele>150</ele>
        <time>2021-12-19T08:22:37Z</time>
      </trkpt>
      <trkpt lat="46.80178" lon="-0.95816">
        <ele>150</ele>
        <time>2021-12-19T08:22:39Z</time>
      </trkpt>
      <trkpt lat="46.8018" lon="-0.95809">
        <ele>150</ele>
        <time>2021-12-19T08:22:40Z</time>
      </trkpt>
      <trkpt lat="46.80182" lon="-0.95801">
        <ele>151</ele>
        <time>2021-12-19T08:22:41Z</time>
      </trkpt>
      <trkpt lat="46.80184" lon="-0.95795">
        <ele>151</ele>
        <time>2021-12-19T08:22:42Z</time>
      </trkpt>
      <trkpt lat="46.80189" lon="-0.95783">
        <ele>151</ele>
        <time>2021-12-19T08:22:44Z</time>
      </trkpt>
      <trkpt lat="46.80192" lon="-0.95776">
        <ele>151</ele>
        <time>2021-12-19T08:22:45Z</time>
      </trkpt>
      <trkpt lat="46.80197" lon="-0.95764">
        <ele>151</ele>
        <time>2021-12-19T08:22:47Z</time>
      </trkpt>
      <trkpt lat="46.802" lon="-0.95757">
        <ele>151</ele>
        <time>2021-12-19T08:22:48Z</time>
      </trkpt>
      <trkpt lat="46.80205" lon="-0.95743">
        <ele>151</ele>
        <time>2021-12-19T08:22:50Z</time>
      </trkpt>
      <trkpt lat="46.80209" lon="-0.95729">
        <ele>151</ele>
        <time>2021-12-19T08:22:52Z</time>
      </trkpt>
      <trkpt lat="46.8021" lon="-0.95713">
        <ele>152</ele>
        <time>2021-12-19T08:22:54Z</time>
      </trkpt>
      <trkpt lat="46.8021" lon="-0.95706">
        <ele>152</ele>
        <time>2021-12-19T08:22:55Z</time>
      </trkpt>
      <trkpt lat="46.8021" lon="-0.95689">
        <ele>153</ele>
        <time>2021-12-19T08:22:57Z</time>
      </trkpt>
      <trkpt lat="46.80208" lon="-0.95672">
        <ele>153</ele>
        <time>2021-12-19T08:22:59Z</time>
      </trkpt>
      <trkpt lat="46.80207" lon="-0.95664">
        <ele>153</ele>
        <time>2021-12-19T08:23:00Z</time>
      </trkpt>
      <trkpt lat="46.80202" lon="-0.95649">
        <ele>153</ele>
        <time>2021-12-19T08:23:02Z</time>
      </trkpt>
      <trkpt lat="46.80199" lon="-0.95641">
        <ele>153</ele>
        <time>2021-12-19T08:23:03Z</time>
      </trkpt>
      <trkpt lat="46.80192" lon="-0.95628">
        <ele>154</ele>
        <time>2021-12-19T08:23:05Z</time>
      </trkpt>
      <trkpt lat="46.80187" lon="-0.95622">
        <ele>154</ele>
        <time>2021-12-19T08:23:06Z</time>
      </trkpt>
      <trkpt lat="46.80178" lon="-0.95611">
        <ele>154</ele>
        <time>2021-12-19T08:23:08Z</time>
      </trkpt>
      <trkpt lat="46.80173" lon="-0.95606">
        <ele>154</ele>
        <time>2021-12-19T08:23:09Z</time>
      </trkpt>
      <trkpt lat="46.80167" lon="-0.95601">
        <ele>154</ele>
        <time>2021-12-19T08:23:10Z</time>
      </trkpt>
      <trkpt lat="46.80158" lon="-0.9559">
        <ele>154</ele>
        <time>2021-12-19T08:23:12Z</time>
      </trkpt>
      <trkpt lat="46.80154" lon="-0.95583">
        <ele>154</ele>
        <time>2021-12-19T08:23:13Z</time>
      </trkpt>
      <trkpt lat="46.8015" lon="-0.95576">
        <ele>154</ele>
        <time>2021-12-19T08:23:14Z</time>
      </trkpt>
      <trkpt lat="46.80143" lon="-0.9556">
        <ele>154</ele>
        <time>2021-12-19T08:23:16Z</time>
      </trkpt>
      <trkpt lat="46.80137" lon="-0.95543">
        <ele>155</ele>
        <time>2021-12-19T08:23:18Z</time>
      </trkpt>
      <trkpt lat="46.80134" lon="-0.95535">
        <ele>155</ele>
        <time>2021-12-19T08:23:19Z</time>
      </trkpt>
      <trkpt lat="46.80132" lon="-0.95526">
        <ele>155</ele>
        <time>2021-12-19T08:23:20Z</time>
      </trkpt>
      <trkpt lat="46.8013" lon="-0.95518">
        <ele>155</ele>
        <time>2021-12-19T08:23:21Z</time>
      </trkpt>
      <trkpt lat="46.80125" lon="-0.95501">
        <ele>156</ele>
        <time>2021-12-19T08:23:23Z</time>
      </trkpt>
      <trkpt lat="46.80121" lon="-0.95483">
        <ele>155</ele>
        <time>2021-12-19T08:23:25Z</time>
      </trkpt>
      <trkpt lat="46.80119" lon="-0.95474">
        <ele>155</ele>
        <time>2021-12-19T08:23:26Z</time>
      </trkpt>
      <trkpt lat="46.80116" lon="-0.95456">
        <ele>155</ele>
        <time>2021-12-19T08:23:28Z</time>
      </trkpt>
      <trkpt lat="46.80115" lon="-0.95437">
        <ele>155</ele>
        <time>2021-12-19T08:23:30Z</time>
      </trkpt>
      <trkpt lat="46.80113" lon="-0.95419">
        <ele>155</ele>
        <time>2021-12-19T08:23:32Z</time>
      </trkpt>
      <trkpt lat="46.80112" lon="-0.9541">
        <ele>155</ele>
        <time>2021-12-19T08:23:33Z</time>
      </trkpt>
      <trkpt lat="46.80111" lon="-0.95401">
        <ele>155</ele>
        <time>2021-12-19T08:23:34Z</time>
      </trkpt>
      <trkpt lat="46.80108" lon="-0.95383">
        <ele>155</ele>
        <time>2021-12-19T08:23:36Z</time>
      </trkpt>
      <trkpt lat="46.80107" lon="-0.95373">
        <ele>155</ele>
        <time>2021-12-19T08:23:37Z</time>
      </trkpt>
      <trkpt lat="46.80105" lon="-0.95355">
        <ele>155</ele>
        <time>2021-12-19T08:23:39Z</time>
      </trkpt>
      <trkpt lat="46.80101" lon="-0.95337">
        <ele>154</ele>
        <time>2021-12-19T08:23:41Z</time>
      </trkpt>
      <trkpt lat="46.80097" lon="-0.95319">
        <ele>154</ele>
        <time>2021-12-19T08:23:43Z</time>
      </trkpt>
      <trkpt lat="46.80095" lon="-0.9531">
        <ele>154</ele>
        <time>2021-12-19T08:23:44Z</time>
      </trkpt>
      <trkpt lat="46.80092" lon="-0.95301">
        <ele>155</ele>
        <time>2021-12-19T08:23:45Z</time>
      </trkpt>
      <trkpt lat="46.80087" lon="-0.95284">
        <ele>155</ele>
        <time>2021-12-19T08:23:47Z</time>
      </trkpt>
      <trkpt lat="46.80082" lon="-0.95266">
        <ele>155</ele>
        <time>2021-12-19T08:23:49Z</time>
      </trkpt>
      <trkpt lat="46.8008" lon="-0.95258">
        <ele>155</ele>
        <time>2021-12-19T08:23:50Z</time>
      </trkpt>
      <trkpt lat="46.80078" lon="-0.95249">
        <ele>155</ele>
        <time>2021-12-19T08:23:51Z</time>
      </trkpt>
      <trkpt lat="46.80075" lon="-0.95232">
        <ele>156</ele>
        <time>2021-12-19T08:23:53Z</time>
      </trkpt>
      <trkpt lat="46.80072" lon="-0.95215">
        <ele>156</ele>
        <time>2021-12-19T08:23:55Z</time>
      </trkpt>
      <trkpt lat="46.80071" lon="-0.95207">
        <ele>156</ele>
        <time>2021-12-19T08:23:56Z</time>
      </trkpt>
      <trkpt lat="46.8007" lon="-0.95199">
        <ele>156</ele>
        <time>2021-12-19T08:23:57Z</time>
      </trkpt>
      <trkpt lat="46.80067" lon="-0.95183">
        <ele>157</ele>
        <time>2021-12-19T08:23:59Z</time>
      </trkpt>
      <trkpt lat="46.80066" lon="-0.95175">
        <ele>157</ele>
        <time>2021-12-19T08:24:00Z</time>
      </trkpt>
      <trkpt lat="46.80065" lon="-0.95166">
        <ele>157</ele>
        <time>2021-12-19T08:24:01Z</time>
      </trkpt>
      <trkpt lat="46.80063" lon="-0.9515">
        <ele>158</ele>
        <time>2021-12-19T08:24:03Z</time>
      </trkpt>
      <trkpt lat="46.8006" lon="-0.95134">
        <ele>158</ele>
        <time>2021-12-19T08:24:05Z</time>
      </trkpt>
      <trkpt lat="46.80059" lon="-0.95127">
        <ele>159</ele>
        <time>2021-12-19T08:24:06Z</time>
      </trkpt>
      <trkpt lat="46.80057" lon="-0.9512">
        <ele>159</ele>
        <time>2021-12-19T08:24:07Z</time>
      </trkpt>
      <trkpt lat="46.80054" lon="-0.95105">
        <ele>159</ele>
        <time>2021-12-19T08:24:09Z</time>
      </trkpt>
      <trkpt lat="46.80053" lon="-0.95098">
        <ele>160</ele>
        <time>2021-12-19T08:24:10Z</time>
      </trkpt>
      <trkpt lat="46.80051" lon="-0.95091">
        <ele>160</ele>
        <time>2021-12-19T08:24:11Z</time>
      </trkpt>
      <trkpt lat="46.80046" lon="-0.95078">
        <ele>161</ele>
        <time>2021-12-19T08:24:13Z</time>
      </trkpt>
      <trkpt lat="46.80041" lon="-0.95066">
        <ele>161</ele>
        <time>2021-12-19T08:24:15Z</time>
      </trkpt>
      <trkpt lat="46.80035" lon="-0.95053">
        <ele>161</ele>
        <time>2021-12-19T08:24:17Z</time>
      </trkpt>
      <trkpt lat="46.80029" lon="-0.95041">
        <ele>161</ele>
        <time>2021-12-19T08:24:19Z</time>
      </trkpt>
      <trkpt lat="46.80026" lon="-0.95034">
        <ele>162</ele>
        <time>2021-12-19T08:24:20Z</time>
      </trkpt>
      <trkpt lat="46.80023" lon="-0.95028">
        <ele>162</ele>
        <time>2021-12-19T08:24:21Z</time>
      </trkpt>
      <trkpt lat="46.80019" lon="-0.95022">
        <ele>162</ele>
        <time>2021-12-19T08:24:22Z</time>
      </trkpt>
      <trkpt lat="46.80014" lon="-0.95009">
        <ele>163</ele>
        <time>2021-12-19T08:24:24Z</time>
      </trkpt>
      <trkpt lat="46.80009" lon="-0.94995">
        <ele>163</ele>
        <time>2021-12-19T08:24:26Z</time>
      </trkpt>
      <trkpt lat="46.80007" lon="-0.94988">
        <ele>163</ele>
        <time>2021-12-19T08:24:27Z</time>
      </trkpt>
      <trkpt lat="46.80006" lon="-0.94981">
        <ele>163</ele>
        <time>2021-12-19T08:24:28Z</time>
      </trkpt>
      <trkpt lat="46.80004" lon="-0.94974">
        <ele>164</ele>
        <time>2021-12-19T08:24:29Z</time>
      </trkpt>
      <trkpt lat="46.80003" lon="-0.94967">
        <ele>164</ele>
        <time>2021-12-19T08:24:30Z</time>
      </trkpt>
      <trkpt lat="46.80001" lon="-0.94951">
        <ele>164</ele>
        <time>2021-12-19T08:24:32Z</time>
      </trkpt>
      <trkpt lat="46.8" lon="-0.94943">
        <ele>164</ele>
        <time>2021-12-19T08:24:33Z</time>
      </trkpt>
      <trkpt lat="46.79998" lon="-0.94927">
        <ele>164</ele>
        <time>2021-12-19T08:24:35Z</time>
      </trkpt>
      <trkpt lat="46.79997" lon="-0.94911">
        <ele>164</ele>
        <time>2021-12-19T08:24:37Z</time>
      </trkpt>
      <trkpt lat="46.79998" lon="-0.94894">
        <ele>165</ele>
        <time>2021-12-19T08:24:39Z</time>
      </trkpt>
      <trkpt lat="46.79998" lon="-0.94886">
        <ele>165</ele>
        <time>2021-12-19T08:24:40Z</time>
      </trkpt>
      <trkpt lat="46.79999" lon="-0.94869">
        <ele>165</ele>
        <time>2021-12-19T08:24:42Z</time>
      </trkpt>
      <trkpt lat="46.79999" lon="-0.9486">
        <ele>165</ele>
        <time>2021-12-19T08:24:43Z</time>
      </trkpt>
      <trkpt lat="46.79999" lon="-0.94852">
        <ele>165</ele>
        <time>2021-12-19T08:24:44Z</time>
      </trkpt>
      <trkpt lat="46.79999" lon="-0.94835">
        <ele>165</ele>
        <time>2021-12-19T08:24:46Z</time>
      </trkpt>
      <trkpt lat="46.79998" lon="-0.94818">
        <ele>166</ele>
        <time>2021-12-19T08:24:48Z</time>
      </trkpt>
      <trkpt lat="46.79994" lon="-0.948">
        <ele>166</ele>
        <time>2021-12-19T08:24:50Z</time>
      </trkpt>
      <trkpt lat="46.79987" lon="-0.94783">
        <ele>165</ele>
        <time>2021-12-19T08:24:52Z</time>
      </trkpt>
      <trkpt lat="46.79982" lon="-0.94775">
        <ele>165</ele>
        <time>2021-12-19T08:24:53Z</time>
      </trkpt>
      <trkpt lat="46.79978" lon="-0.94766">
        <ele>165</ele>
        <time>2021-12-19T08:24:54Z</time>
      </trkpt>
      <trkpt lat="46.7997" lon="-0.94749">
        <ele>165</ele>
        <time>2021-12-19T08:24:56Z</time>
      </trkpt>
      <trkpt lat="46.79961" lon="-0.94732">
        <ele>165</ele>
        <time>2021-12-19T08:24:58Z</time>
      </trkpt>
      <trkpt lat="46.79956" lon="-0.94723">
        <ele>165</ele>
        <time>2021-12-19T08:24:59Z</time>
      </trkpt>
      <trkpt lat="46.79952" lon="-0.94714">
        <ele>165</ele>
        <time>2021-12-19T08:25:00Z</time>
      </trkpt>
      <trkpt lat="46.79948" lon="-0.94706">
        <ele>165</ele>
        <time>2021-12-19T08:25:01Z</time>
      </trkpt>
      <trkpt lat="46.79939" lon="-0.94689">
        <ele>164</ele>
        <time>2021-12-19T08:25:03Z</time>
      </trkpt>
      <trkpt lat="46.7993" lon="-0.94672">
        <ele>164</ele>
        <time>2021-12-19T08:25:05Z</time>
      </trkpt>
      <trkpt lat="46.7992" lon="-0.94656">
        <ele>163</ele>
        <time>2021-12-19T08:25:07Z</time>
      </trkpt>
      <trkpt lat="46.79912" lon="-0.9464">
        <ele>163</ele>
        <time>2021-12-19T08:25:09Z</time>
      </trkpt>
      <trkpt lat="46.79907" lon="-0.94632">
        <ele>163</ele>
        <time>2021-12-19T08:25:10Z</time>
      </trkpt>
      <trkpt lat="46.79898" lon="-0.94616">
        <ele>162</ele>
        <time>2021-12-19T08:25:12Z</time>
      </trkpt>
      <trkpt lat="46.7989" lon="-0.94601">
        <ele>162</ele>
        <time>2021-12-19T08:25:14Z</time>
      </trkpt>
      <trkpt lat="46.79885" lon="-0.94593">
        <ele>162</ele>
        <time>2021-12-19T08:25:15Z</time>
      </trkpt>
      <trkpt lat="46.79875" lon="-0.94577">
        <ele>162</ele>
        <time>2021-12-19T08:25:17Z</time>
      </trkpt>
      <trkpt lat="46.79871" lon="-0.94568">
        <ele>162</ele>
        <time>2021-12-19T08:25:18Z</time>
      </trkpt>
      <trkpt lat="46.79863" lon="-0.94551">
        <ele>162</ele>
        <time>2021-12-19T08:25:20Z</time>
      </trkpt>
      <trkpt lat="46.7986" lon="-0.94542">
        <ele>162</ele>
        <time>2021-12-19T08:25:21Z</time>
      </trkpt>
      <trkpt lat="46.79853" lon="-0.94526">
        <ele>162</ele>
        <time>2021-12-19T08:25:23Z</time>
      </trkpt>
      <trkpt lat="46.79848" lon="-0.94511">
        <ele>162</ele>
        <time>2021-12-19T08:25:25Z</time>
      </trkpt>
      <trkpt lat="46.79843" lon="-0.94494">
        <ele>163</ele>
        <time>2021-12-19T08:25:27Z</time>
      </trkpt>
      <trkpt lat="46.7984" lon="-0.94485">
        <ele>163</ele>
        <time>2021-12-19T08:25:28Z</time>
      </trkpt>
      <trkpt lat="46.79838" lon="-0.94477">
        <ele>163</ele>
        <time>2021-12-19T08:25:29Z</time>
      </trkpt>
      <trkpt lat="46.79835" lon="-0.94459">
        <ele>163</ele>
        <time>2021-12-19T08:25:31Z</time>
      </trkpt>
      <trkpt lat="46.79834" lon="-0.9445">
        <ele>163</ele>
        <time>2021-12-19T08:25:32Z</time>
      </trkpt>
      <trkpt lat="46.79831" lon="-0.94432">
        <ele>163</ele>
        <time>2021-12-19T08:25:34Z</time>
      </trkpt>
      <trkpt lat="46.7983" lon="-0.94423">
        <ele>163</ele>
        <time>2021-12-19T08:25:35Z</time>
      </trkpt>
      <trkpt lat="46.79829" lon="-0.94415">
        <ele>163</ele>
        <time>2021-12-19T08:25:36Z</time>
      </trkpt>
      <trkpt lat="46.79827" lon="-0.94399">
        <ele>164</ele>
        <time>2021-12-19T08:25:38Z</time>
      </trkpt>
      <trkpt lat="46.79825" lon="-0.94382">
        <ele>164</ele>
        <time>2021-12-19T08:25:40Z</time>
      </trkpt>
      <trkpt lat="46.79822" lon="-0.94364">
        <ele>165</ele>
        <time>2021-12-19T08:25:42Z</time>
      </trkpt>
      <trkpt lat="46.7982" lon="-0.94356">
        <ele>165</ele>
        <time>2021-12-19T08:25:43Z</time>
      </trkpt>
      <trkpt lat="46.79818" lon="-0.94339">
        <ele>165</ele>
        <time>2021-12-19T08:25:45Z</time>
      </trkpt>
      <trkpt lat="46.79817" lon="-0.94323">
        <ele>165</ele>
        <time>2021-12-19T08:25:47Z</time>
      </trkpt>
      <trkpt lat="46.79816" lon="-0.94307">
        <ele>165</ele>
        <time>2021-12-19T08:25:49Z</time>
      </trkpt>
      <trkpt lat="46.79815" lon="-0.94299">
        <ele>165</ele>
        <time>2021-12-19T08:25:50Z</time>
      </trkpt>
      <trkpt lat="46.79814" lon="-0.9429">
        <ele>165</ele>
        <time>2021-12-19T08:25:51Z</time>
      </trkpt>
      <trkpt lat="46.79814" lon="-0.94281">
        <ele>165</ele>
        <time>2021-12-19T08:25:52Z</time>
      </trkpt>
      <trkpt lat="46.79813" lon="-0.94264">
        <ele>165</ele>
        <time>2021-12-19T08:25:54Z</time>
      </trkpt>
      <trkpt lat="46.79811" lon="-0.94255">
        <ele>165</ele>
        <time>2021-12-19T08:25:55Z</time>
      </trkpt>
      <trkpt lat="46.79808" lon="-0.94238">
        <ele>166</ele>
        <time>2021-12-19T08:25:57Z</time>
      </trkpt>
      <trkpt lat="46.79804" lon="-0.94221">
        <ele>166</ele>
        <time>2021-12-19T08:25:59Z</time>
      </trkpt>
      <trkpt lat="46.79802" lon="-0.94212">
        <ele>166</ele>
        <time>2021-12-19T08:26:00Z</time>
      </trkpt>
      <trkpt lat="46.79799" lon="-0.94193">
        <ele>167</ele>
        <time>2021-12-19T08:26:02Z</time>
      </trkpt>
      <trkpt lat="46.79797" lon="-0.94185">
        <ele>167</ele>
        <time>2021-12-19T08:26:03Z</time>
      </trkpt>
      <trkpt lat="46.79795" lon="-0.94176">
        <ele>167</ele>
        <time>2021-12-19T08:26:04Z</time>
      </trkpt>
      <trkpt lat="46.79792" lon="-0.94158">
        <ele>167</ele>
        <time>2021-12-19T08:26:06Z</time>
      </trkpt>
      <trkpt lat="46.7979" lon="-0.9415">
        <ele>167</ele>
        <time>2021-12-19T08:26:07Z</time>
      </trkpt>
      <trkpt lat="46.79786" lon="-0.94132">
        <ele>168</ele>
        <time>2021-12-19T08:26:09Z</time>
      </trkpt>
      <trkpt lat="46.79783" lon="-0.94115">
        <ele>168</ele>
        <time>2021-12-19T08:26:11Z</time>
      </trkpt>
      <trkpt lat="46.79781" lon="-0.94106">
        <ele>168</ele>
        <time>2021-12-19T08:26:12Z</time>
      </trkpt>
      <trkpt lat="46.79779" lon="-0.94097">
        <ele>169</ele>
        <time>2021-12-19T08:26:13Z</time>
      </trkpt>
      <trkpt lat="46.79775" lon="-0.94078">
        <ele>169</ele>
        <time>2021-12-19T08:26:15Z</time>
      </trkpt>
      <trkpt lat="46.79773" lon="-0.94069">
        <ele>169</ele>
        <time>2021-12-19T08:26:16Z</time>
      </trkpt>
      <trkpt lat="46.79771" lon="-0.9406">
        <ele>169</ele>
        <time>2021-12-19T08:26:17Z</time>
      </trkpt>
      <trkpt lat="46.79768" lon="-0.94043">
        <ele>170</ele>
        <time>2021-12-19T08:26:19Z</time>
      </trkpt>
      <trkpt lat="46.79765" lon="-0.94028">
        <ele>170</ele>
        <time>2021-12-19T08:26:21Z</time>
      </trkpt>
      <trkpt lat="46.79763" lon="-0.9402">
        <ele>170</ele>
        <time>2021-12-19T08:26:22Z</time>
      </trkpt>
      <trkpt lat="46.79762" lon="-0.94011">
        <ele>170</ele>
        <time>2021-12-19T08:26:23Z</time>
      </trkpt>
      <trkpt lat="46.79758" lon="-0.93994">
        <ele>171</ele>
        <time>2021-12-19T08:26:25Z</time>
      </trkpt>
      <trkpt lat="46.79755" lon="-0.93978">
        <ele>171</ele>
        <time>2021-12-19T08:26:27Z</time>
      </trkpt>
      <trkpt lat="46.79752" lon="-0.93962">
        <ele>170</ele>
        <time>2021-12-19T08:26:29Z</time>
      </trkpt>
      <trkpt lat="46.7975" lon="-0.93955">
        <ele>170</ele>
        <time>2021-12-19T08:26:30Z</time>
      </trkpt>
      <trkpt lat="46.79748" lon="-0.93947">
        <ele>170</ele>
        <time>2021-12-19T08:26:31Z</time>
      </trkpt>
      <trkpt lat="46.79745" lon="-0.93931">
        <ele>171</ele>
        <time>2021-12-19T08:26:33Z</time>
      </trkpt>
      <trkpt lat="46.79743" lon="-0.93924">
        <ele>171</ele>
        <time>2021-12-19T08:26:34Z</time>
      </trkpt>
      <trkpt lat="46.79742" lon="-0.93916">
        <ele>171</ele>
        <time>2021-12-19T08:26:35Z</time>
      </trkpt>
      <trkpt lat="46.7974" lon="-0.93908">
        <ele>171</ele>
        <time>2021-12-19T08:26:36Z</time>
      </trkpt>
      <trkpt lat="46.79739" lon="-0.93901">
        <ele>171</ele>
        <time>2021-12-19T08:26:37Z</time>
      </trkpt>
      <trkpt lat="46.79736" lon="-0.93887">
        <ele>171</ele>
        <time>2021-12-19T08:26:39Z</time>
      </trkpt>
      <trkpt lat="46.79733" lon="-0.93872">
        <ele>171</ele>
        <time>2021-12-19T08:26:41Z</time>
      </trkpt>
      <trkpt lat="46.79731" lon="-0.93864">
        <ele>171</ele>
        <time>2021-12-19T08:26:42Z</time>
      </trkpt>
      <trkpt lat="46.79729" lon="-0.93857">
        <ele>171</ele>
        <time>2021-12-19T08:26:43Z</time>
      </trkpt>
      <trkpt lat="46.79727" lon="-0.93849">
        <ele>171</ele>
        <time>2021-12-19T08:26:44Z</time>
      </trkpt>
      <trkpt lat="46.79724" lon="-0.93833">
        <ele>172</ele>
        <time>2021-12-19T08:26:46Z</time>
      </trkpt>
      <trkpt lat="46.79723" lon="-0.93825">
        <ele>172</ele>
        <time>2021-12-19T08:26:47Z</time>
      </trkpt>
      <trkpt lat="46.79721" lon="-0.93817">
        <ele>172</ele>
        <time>2021-12-19T08:26:48Z</time>
      </trkpt>
      <trkpt lat="46.79719" lon="-0.93809">
        <ele>172</ele>
        <time>2021-12-19T08:26:49Z</time>
      </trkpt>
      <trkpt lat="46.79717" lon="-0.938">
        <ele>172</ele>
        <time>2021-12-19T08:26:50Z</time>
      </trkpt>
      <trkpt lat="46.79716" lon="-0.93792">
        <ele>172</ele>
        <time>2021-12-19T08:26:51Z</time>
      </trkpt>
      <trkpt lat="46.79712" lon="-0.93776">
        <ele>172</ele>
        <time>2021-12-19T08:26:53Z</time>
      </trkpt>
      <trkpt lat="46.79711" lon="-0.93768">
        <ele>173</ele>
        <time>2021-12-19T08:26:54Z</time>
      </trkpt>
      <trkpt lat="46.79709" lon="-0.93759">
        <ele>173</ele>
        <time>2021-12-19T08:26:55Z</time>
      </trkpt>
      <trkpt lat="46.79705" lon="-0.93743">
        <ele>173</ele>
        <time>2021-12-19T08:26:57Z</time>
      </trkpt>
      <trkpt lat="46.79703" lon="-0.93734">
        <ele>173</ele>
        <time>2021-12-19T08:26:58Z</time>
      </trkpt>
      <trkpt lat="46.797" lon="-0.93718">
        <ele>173</ele>
        <time>2021-12-19T08:27:00Z</time>
      </trkpt>
      <trkpt lat="46.79699" lon="-0.9371">
        <ele>173</ele>
        <time>2021-12-19T08:27:01Z</time>
      </trkpt>
      <trkpt lat="46.79697" lon="-0.93702">
        <ele>173</ele>
        <time>2021-12-19T08:27:02Z</time>
      </trkpt>
      <trkpt lat="46.79694" lon="-0.93686">
        <ele>174</ele>
        <time>2021-12-19T08:27:04Z</time>
      </trkpt>
      <trkpt lat="46.79691" lon="-0.93671">
        <ele>174</ele>
        <time>2021-12-19T08:27:06Z</time>
      </trkpt>
      <trkpt lat="46.79689" lon="-0.93663">
        <ele>174</ele>
        <time>2021-12-19T08:27:07Z</time>
      </trkpt>
      <trkpt lat="46.79687" lon="-0.93648">
        <ele>175</ele>
        <time>2021-12-19T08:27:09Z</time>
      </trkpt>
      <trkpt lat="46.79684" lon="-0.93633">
        <ele>175</ele>
        <time>2021-12-19T08:27:11Z</time>
      </trkpt>
      <trkpt lat="46.79682" lon="-0.93618">
        <ele>175</ele>
        <time>2021-12-19T08:27:13Z</time>
      </trkpt>
      <trkpt lat="46.7968" lon="-0.93603">
        <ele>176</ele>
        <time>2021-12-19T08:27:15Z</time>
      </trkpt>
      <trkpt lat="46.79678" lon="-0.9359">
        <ele>176</ele>
        <time>2021-12-19T08:27:17Z</time>
      </trkpt>
      <trkpt lat="46.79677" lon="-0.93585">
        <ele>176</ele>
        <time>2021-12-19T08:27:18Z</time>
      </trkpt>
      <trkpt lat="46.79676" lon="-0.93579">
        <ele>176</ele>
        <time>2021-12-19T08:27:19Z</time>
      </trkpt>
      <trkpt lat="46.79673" lon="-0.93568">
        <ele>177</ele>
        <time>2021-12-19T08:27:21Z</time>
      </trkpt>
      <trkpt lat="46.79667" lon="-0.93559">
        <ele>176</ele>
        <time>2021-12-19T08:27:23Z</time>
      </trkpt>
      <trkpt lat="46.79663" lon="-0.9356">
        <ele>176</ele>
        <time>2021-12-19T08:27:24Z</time>
      </trkpt>
      <trkpt lat="46.79652" lon="-0.93567">
        <ele>176</ele>
        <time>2021-12-19T08:27:26Z</time>
      </trkpt>
      <trkpt lat="46.79647" lon="-0.93572">
        <ele>176</ele>
        <time>2021-12-19T08:27:27Z</time>
      </trkpt>
      <trkpt lat="46.79635" lon="-0.9358">
        <ele>177</ele>
        <time>2021-12-19T08:27:29Z</time>
      </trkpt>
      <trkpt lat="46.79624" lon="-0.93587">
        <ele>177</ele>
        <time>2021-12-19T08:27:31Z</time>
      </trkpt>
      <trkpt lat="46.79618" lon="-0.93591">
        <ele>177</ele>
        <time>2021-12-19T08:27:32Z</time>
      </trkpt>
      <trkpt lat="46.79607" lon="-0.93597">
        <ele>178</ele>
        <time>2021-12-19T08:27:34Z</time>
      </trkpt>
      <trkpt lat="46.79601" lon="-0.936">
        <ele>178</ele>
        <time>2021-12-19T08:27:35Z</time>
      </trkpt>
      <trkpt lat="46.7959" lon="-0.93606">
        <ele>178</ele>
        <time>2021-12-19T08:27:37Z</time>
      </trkpt>
      <trkpt lat="46.79584" lon="-0.93609">
        <ele>178</ele>
        <time>2021-12-19T08:27:38Z</time>
      </trkpt>
      <trkpt lat="46.79578" lon="-0.93612">
        <ele>178</ele>
        <time>2021-12-19T08:27:39Z</time>
      </trkpt>
      <trkpt lat="46.79566" lon="-0.93619">
        <ele>179</ele>
        <time>2021-12-19T08:27:41Z</time>
      </trkpt>
      <trkpt lat="46.7956" lon="-0.93622">
        <ele>179</ele>
        <time>2021-12-19T08:27:42Z</time>
      </trkpt>
      <trkpt lat="46.79547" lon="-0.93627">
        <ele>179</ele>
        <time>2021-12-19T08:27:44Z</time>
      </trkpt>
      <trkpt lat="46.79535" lon="-0.93632">
        <ele>179</ele>
        <time>2021-12-19T08:27:46Z</time>
      </trkpt>
      <trkpt lat="46.79522" lon="-0.93638">
        <ele>179</ele>
        <time>2021-12-19T08:27:48Z</time>
      </trkpt>
      <trkpt lat="46.79516" lon="-0.93641">
        <ele>179</ele>
        <time>2021-12-19T08:27:49Z</time>
      </trkpt>
      <trkpt lat="46.79503" lon="-0.93648">
        <ele>179</ele>
        <time>2021-12-19T08:27:51Z</time>
      </trkpt>
      <trkpt lat="46.79496" lon="-0.93651">
        <ele>179</ele>
        <time>2021-12-19T08:27:52Z</time>
      </trkpt>
      <trkpt lat="46.7949" lon="-0.93654">
        <ele>179</ele>
        <time>2021-12-19T08:27:53Z</time>
      </trkpt>
      <trkpt lat="46.79484" lon="-0.93656">
        <ele>179</ele>
        <time>2021-12-19T08:27:54Z</time>
      </trkpt>
      <trkpt lat="46.79471" lon="-0.93662">
        <ele>179</ele>
        <time>2021-12-19T08:27:56Z</time>
      </trkpt>
      <trkpt lat="46.79465" lon="-0.93666">
        <ele>179</ele>
        <time>2021-12-19T08:27:57Z</time>
      </trkpt>
      <trkpt lat="46.79453" lon="-0.93671">
        <ele>179</ele>
        <time>2021-12-19T08:27:59Z</time>
      </trkpt>
      <trkpt lat="46.79441" lon="-0.93678">
        <ele>179</ele>
        <time>2021-12-19T08:28:01Z</time>
      </trkpt>
      <trkpt lat="46.79431" lon="-0.93687">
        <ele>180</ele>
        <time>2021-12-19T08:28:03Z</time>
      </trkpt>
      <trkpt lat="46.79426" lon="-0.93691">
        <ele>180</ele>
        <time>2021-12-19T08:28:04Z</time>
      </trkpt>
      <trkpt lat="46.7942" lon="-0.93693">
        <ele>180</ele>
        <time>2021-12-19T08:28:05Z</time>
      </trkpt>
      <trkpt lat="46.79406" lon="-0.93693">
        <ele>180</ele>
        <time>2021-12-19T08:28:07Z</time>
      </trkpt>
      <trkpt lat="46.79392" lon="-0.93695">
        <ele>179</ele>
        <time>2021-12-19T08:28:09Z</time>
      </trkpt>
      <trkpt lat="46.79386" lon="-0.93699">
        <ele>179</ele>
        <time>2021-12-19T08:28:10Z</time>
      </trkpt>
      <trkpt lat="46.79372" lon="-0.93706">
        <ele>180</ele>
        <time>2021-12-19T08:28:12Z</time>
      </trkpt>
      <trkpt lat="46.79366" lon="-0.9371">
        <ele>180</ele>
        <time>2021-12-19T08:28:13Z</time>
      </trkpt>
      <trkpt lat="46.79359" lon="-0.93714">
        <ele>180</ele>
        <time>2021-12-19T08:28:14Z</time>
      </trkpt>
      <trkpt lat="46.79346" lon="-0.9372">
        <ele>180</ele>
        <time>2021-12-19T08:28:16Z</time>
      </trkpt>
      <trkpt lat="46.79339" lon="-0.93723">
        <ele>181</ele>
        <time>2021-12-19T08:28:17Z</time>
      </trkpt>
      <trkpt lat="46.79325" lon="-0.93729">
        <ele>182</ele>
        <time>2021-12-19T08:28:19Z</time>
      </trkpt>
      <trkpt lat="46.7931" lon="-0.93734">
        <ele>181</ele>
        <time>2021-12-19T08:28:21Z</time>
      </trkpt>
      <trkpt lat="46.79296" lon="-0.9374">
        <ele>182</ele>
        <time>2021-12-19T08:28:23Z</time>
      </trkpt>
      <trkpt lat="46.79289" lon="-0.93743">
        <ele>182</ele>
        <time>2021-12-19T08:28:24Z</time>
      </trkpt>
      <trkpt lat="46.79277" lon="-0.9375">
        <ele>181</ele>
        <time>2021-12-19T08:28:26Z</time>
      </trkpt>
      <trkpt lat="46.79271" lon="-0.93755">
        <ele>181</ele>
        <time>2021-12-19T08:28:27Z</time>
      </trkpt>
      <trkpt lat="46.79267" lon="-0.93761">
        <ele>181</ele>
        <time>2021-12-19T08:28:28Z</time>
      </trkpt>
      <trkpt lat="46.79257" lon="-0.93765">
        <ele>180</ele>
        <time>2021-12-19T08:28:30Z</time>
      </trkpt>
      <trkpt lat="46.79252" lon="-0.93761">
        <ele>179</ele>
        <time>2021-12-19T08:28:31Z</time>
      </trkpt>
      <trkpt lat="46.79249" lon="-0.93754">
        <ele>179</ele>
        <time>2021-12-19T08:28:32Z</time>
      </trkpt>
      <trkpt lat="46.79248" lon="-0.93745">
        <ele>179</ele>
        <time>2021-12-19T08:28:33Z</time>
      </trkpt>
      <trkpt lat="46.79251" lon="-0.93725">
        <ele>178</ele>
        <time>2021-12-19T08:28:35Z</time>
      </trkpt>
      <trkpt lat="46.79252" lon="-0.93716">
        <ele>178</ele>
        <time>2021-12-19T08:28:36Z</time>
      </trkpt>
      <trkpt lat="46.7925" lon="-0.93697">
        <ele>178</ele>
        <time>2021-12-19T08:28:38Z</time>
      </trkpt>
      <trkpt lat="46.79248" lon="-0.93688">
        <ele>178</ele>
        <time>2021-12-19T08:28:39Z</time>
      </trkpt>
      <trkpt lat="46.79244" lon="-0.93668">
        <ele>178</ele>
        <time>2021-12-19T08:28:41Z</time>
      </trkpt>
      <trkpt lat="46.79242" lon="-0.93658">
        <ele>178</ele>
        <time>2021-12-19T08:28:42Z</time>
      </trkpt>
      <trkpt lat="46.79236" lon="-0.93637">
        <ele>177</ele>
        <time>2021-12-19T08:28:44Z</time>
      </trkpt>
      <trkpt lat="46.79233" lon="-0.93626">
        <ele>177</ele>
        <time>2021-12-19T08:28:45Z</time>
      </trkpt>
      <trkpt lat="46.7923" lon="-0.93616">
        <ele>177</ele>
        <time>2021-12-19T08:28:46Z</time>
      </trkpt>
      <trkpt lat="46.79223" lon="-0.93594">
        <ele>177</ele>
        <time>2021-12-19T08:28:48Z</time>
      </trkpt>
      <trkpt lat="46.7922" lon="-0.93584">
        <ele>177</ele>
        <time>2021-12-19T08:28:49Z</time>
      </trkpt>
      <trkpt lat="46.79214" lon="-0.93564">
        <ele>176</ele>
        <time>2021-12-19T08:28:51Z</time>
      </trkpt>
      <trkpt lat="46.7921" lon="-0.93554">
        <ele>176</ele>
        <time>2021-12-19T08:28:52Z</time>
      </trkpt>
      <trkpt lat="46.79204" lon="-0.93535">
        <ele>176</ele>
        <time>2021-12-19T08:28:54Z</time>
      </trkpt>
      <trkpt lat="46.79199" lon="-0.93517">
        <ele>176</ele>
        <time>2021-12-19T08:28:56Z</time>
      </trkpt>
      <trkpt lat="46.79193" lon="-0.93499">
        <ele>176</ele>
        <time>2021-12-19T08:28:58Z</time>
      </trkpt>
      <trkpt lat="46.7919" lon="-0.93489">
        <ele>176</ele>
        <time>2021-12-19T08:28:59Z</time>
      </trkpt>
      <trkpt lat="46.79185" lon="-0.9347">
        <ele>176</ele>
        <time>2021-12-19T08:29:01Z</time>
      </trkpt>
      <trkpt lat="46.7918" lon="-0.93451">
        <ele>177</ele>
        <time>2021-12-19T08:29:03Z</time>
      </trkpt>
      <trkpt lat="46.79175" lon="-0.93432">
        <ele>177</ele>
        <time>2021-12-19T08:29:05Z</time>
      </trkpt>
      <trkpt lat="46.79172" lon="-0.93421">
        <ele>177</ele>
        <time>2021-12-19T08:29:06Z</time>
      </trkpt>
      <trkpt lat="46.79167" lon="-0.93402">
        <ele>177</ele>
        <time>2021-12-19T08:29:08Z</time>
      </trkpt>
      <trkpt lat="46.79162" lon="-0.93384">
        <ele>178</ele>
        <time>2021-12-19T08:29:10Z</time>
      </trkpt>
      <trkpt lat="46.79158" lon="-0.93367">
        <ele>178</ele>
        <time>2021-12-19T08:29:12Z</time>
      </trkpt>
      <trkpt lat="46.79156" lon="-0.93359">
        <ele>178</ele>
        <time>2021-12-19T08:29:13Z</time>
      </trkpt>
      <trkpt lat="46.79154" lon="-0.93351">
        <ele>179</ele>
        <time>2021-12-19T08:29:14Z</time>
      </trkpt>
      <trkpt lat="46.79149" lon="-0.93335">
        <ele>179</ele>
        <time>2021-12-19T08:29:16Z</time>
      </trkpt>
      <trkpt lat="46.79145" lon="-0.93318">
        <ele>179</ele>
        <time>2021-12-19T08:29:18Z</time>
      </trkpt>
      <trkpt lat="46.79142" lon="-0.9331">
        <ele>179</ele>
        <time>2021-12-19T08:29:19Z</time>
      </trkpt>
      <trkpt lat="46.79136" lon="-0.93294">
        <ele>180</ele>
        <time>2021-12-19T08:29:21Z</time>
      </trkpt>
      <trkpt lat="46.79132" lon="-0.93287">
        <ele>180</ele>
        <time>2021-12-19T08:29:22Z</time>
      </trkpt>
      <trkpt lat="46.79124" lon="-0.93273">
        <ele>179</ele>
        <time>2021-12-19T08:29:24Z</time>
      </trkpt>
      <trkpt lat="46.79116" lon="-0.9326">
        <ele>180</ele>
        <time>2021-12-19T08:29:26Z</time>
      </trkpt>
      <trkpt lat="46.79106" lon="-0.93248">
        <ele>180</ele>
        <time>2021-12-19T08:29:28Z</time>
      </trkpt>
      <trkpt lat="46.79095" lon="-0.93236">
        <ele>179</ele>
        <time>2021-12-19T08:29:30Z</time>
      </trkpt>
      <trkpt lat="46.79089" lon="-0.9323">
        <ele>179</ele>
        <time>2021-12-19T08:29:31Z</time>
      </trkpt>
      <trkpt lat="46.79078" lon="-0.93217">
        <ele>178</ele>
        <time>2021-12-19T08:29:33Z</time>
      </trkpt>
      <trkpt lat="46.79072" lon="-0.93211">
        <ele>178</ele>
        <time>2021-12-19T08:29:34Z</time>
      </trkpt>
      <trkpt lat="46.79061" lon="-0.932">
        <ele>178</ele>
        <time>2021-12-19T08:29:36Z</time>
      </trkpt>
      <trkpt lat="46.79055" lon="-0.93193">
        <ele>178</ele>
        <time>2021-12-19T08:29:37Z</time>
      </trkpt>
      <trkpt lat="46.79043" lon="-0.93181">
        <ele>178</ele>
        <time>2021-12-19T08:29:39Z</time>
      </trkpt>
      <trkpt lat="46.79031" lon="-0.93168">
        <ele>177</ele>
        <time>2021-12-19T08:29:41Z</time>
      </trkpt>
      <trkpt lat="46.79019" lon="-0.93155">
        <ele>177</ele>
        <time>2021-12-19T08:29:43Z</time>
      </trkpt>
      <trkpt lat="46.79013" lon="-0.93149">
        <ele>177</ele>
        <time>2021-12-19T08:29:44Z</time>
      </trkpt>
      <trkpt lat="46.79002" lon="-0.93136">
        <ele>176</ele>
        <time>2021-12-19T08:29:46Z</time>
      </trkpt>
      <trkpt lat="46.78991" lon="-0.93122">
        <ele>176</ele>
        <time>2021-12-19T08:29:48Z</time>
      </trkpt>
      <trkpt lat="46.78985" lon="-0.93117">
        <ele>176</ele>
        <time>2021-12-19T08:29:49Z</time>
      </trkpt>
      <trkpt lat="46.78975" lon="-0.93105">
        <ele>175</ele>
        <time>2021-12-19T08:29:51Z</time>
      </trkpt>
      <trkpt lat="46.7897" lon="-0.931">
        <ele>175</ele>
        <time>2021-12-19T08:29:52Z</time>
      </trkpt>
      <trkpt lat="46.78964" lon="-0.93097">
        <ele>175</ele>
        <time>2021-12-19T08:29:53Z</time>
      </trkpt>
      <trkpt lat="46.78957" lon="-0.93097">
        <ele>175</ele>
        <time>2021-12-19T08:29:54Z</time>
      </trkpt>
      <trkpt lat="46.78944" lon="-0.93107">
        <ele>174</ele>
        <time>2021-12-19T08:29:56Z</time>
      </trkpt>
      <trkpt lat="46.78932" lon="-0.93123">
        <ele>173</ele>
        <time>2021-12-19T08:29:58Z</time>
      </trkpt>
      <trkpt lat="46.78926" lon="-0.93131">
        <ele>173</ele>
        <time>2021-12-19T08:29:59Z</time>
      </trkpt>
      <trkpt lat="46.78912" lon="-0.93147">
        <ele>172</ele>
        <time>2021-12-19T08:30:01Z</time>
      </trkpt>
      <trkpt lat="46.78898" lon="-0.93164">
        <ele>172</ele>
        <time>2021-12-19T08:30:03Z</time>
      </trkpt>
      <trkpt lat="46.7889" lon="-0.93172">
        <ele>171</ele>
        <time>2021-12-19T08:30:04Z</time>
      </trkpt>
      <trkpt lat="46.78875" lon="-0.93188">
        <ele>171</ele>
        <time>2021-12-19T08:30:06Z</time>
      </trkpt>
      <trkpt lat="46.78861" lon="-0.93204">
        <ele>170</ele>
        <time>2021-12-19T08:30:08Z</time>
      </trkpt>
      <trkpt lat="46.78847" lon="-0.93219">
        <ele>170</ele>
        <time>2021-12-19T08:30:10Z</time>
      </trkpt>
      <trkpt lat="46.7884" lon="-0.93226">
        <ele>170</ele>
        <time>2021-12-19T08:30:11Z</time>
      </trkpt>
      <trkpt lat="46.78833" lon="-0.93234">
        <ele>169</ele>
        <time>2021-12-19T08:30:12Z</time>
      </trkpt>
      <trkpt lat="46.78818" lon="-0.9325">
        <ele>169</ele>
        <time>2021-12-19T08:30:14Z</time>
      </trkpt>
      <trkpt lat="46.78811" lon="-0.93258">
        <ele>169</ele>
        <time>2021-12-19T08:30:15Z</time>
      </trkpt>
      <trkpt lat="46.78798" lon="-0.93274">
        <ele>169</ele>
        <time>2021-12-19T08:30:17Z</time>
      </trkpt>
      <trkpt lat="46.78791" lon="-0.93283">
        <ele>169</ele>
        <time>2021-12-19T08:30:18Z</time>
      </trkpt>
      <trkpt lat="46.78784" lon="-0.93291">
        <ele>168</ele>
        <time>2021-12-19T08:30:19Z</time>
      </trkpt>
      <trkpt lat="46.7877" lon="-0.93308">
        <ele>168</ele>
        <time>2021-12-19T08:30:21Z</time>
      </trkpt>
      <trkpt lat="46.78756" lon="-0.93326">
        <ele>168</ele>
        <time>2021-12-19T08:30:23Z</time>
      </trkpt>
      <trkpt lat="46.78742" lon="-0.93343">
        <ele>168</ele>
        <time>2021-12-19T08:30:25Z</time>
      </trkpt>
      <trkpt lat="46.78728" lon="-0.93361">
        <ele>168</ele>
        <time>2021-12-19T08:30:27Z</time>
      </trkpt>
      <trkpt lat="46.78716" lon="-0.93379">
        <ele>168</ele>
        <time>2021-12-19T08:30:29Z</time>
      </trkpt>
      <trkpt lat="46.7871" lon="-0.93388">
        <ele>168</ele>
        <time>2021-12-19T08:30:30Z</time>
      </trkpt>
      <trkpt lat="46.787" lon="-0.93409">
        <ele>168</ele>
        <time>2021-12-19T08:30:32Z</time>
      </trkpt>
      <trkpt lat="46.78693" lon="-0.93433">
        <ele>167</ele>
        <time>2021-12-19T08:30:34Z</time>
      </trkpt>
      <trkpt lat="46.78687" lon="-0.93456">
        <ele>167</ele>
        <time>2021-12-19T08:30:36Z</time>
      </trkpt>
      <trkpt lat="46.78685" lon="-0.93468">
        <ele>167</ele>
        <time>2021-12-19T08:30:37Z</time>
      </trkpt>
      <trkpt lat="46.78683" lon="-0.93481">
        <ele>167</ele>
        <time>2021-12-19T08:30:38Z</time>
      </trkpt>
      <trkpt lat="46.78678" lon="-0.93506">
        <ele>167</ele>
        <time>2021-12-19T08:30:40Z</time>
      </trkpt>
      <trkpt lat="46.78673" lon="-0.93531">
        <ele>166</ele>
        <time>2021-12-19T08:30:42Z</time>
      </trkpt>
      <trkpt lat="46.78668" lon="-0.93556">
        <ele>166</ele>
        <time>2021-12-19T08:30:44Z</time>
      </trkpt>
      <trkpt lat="46.78663" lon="-0.93581">
        <ele>166</ele>
        <time>2021-12-19T08:30:46Z</time>
      </trkpt>
      <trkpt lat="46.78657" lon="-0.93606">
        <ele>166</ele>
        <time>2021-12-19T08:30:48Z</time>
      </trkpt>
      <trkpt lat="46.78654" lon="-0.93618">
        <ele>166</ele>
        <time>2021-12-19T08:30:49Z</time>
      </trkpt>
      <trkpt lat="46.78647" lon="-0.93643">
        <ele>166</ele>
        <time>2021-12-19T08:30:51Z</time>
      </trkpt>
      <trkpt lat="46.78642" lon="-0.93655">
        <ele>166</ele>
        <time>2021-12-19T08:30:52Z</time>
      </trkpt>
      <trkpt lat="46.78632" lon="-0.93678">
        <ele>166</ele>
        <time>2021-12-19T08:30:54Z</time>
      </trkpt>
      <trkpt lat="46.78626" lon="-0.93689">
        <ele>166</ele>
        <time>2021-12-19T08:30:55Z</time>
      </trkpt>
      <trkpt lat="46.78614" lon="-0.93709">
        <ele>165</ele>
        <time>2021-12-19T08:30:57Z</time>
      </trkpt>
      <trkpt lat="46.78608" lon="-0.93719">
        <ele>165</ele>
        <time>2021-12-19T08:30:58Z</time>
      </trkpt>
      <trkpt lat="46.78595" lon="-0.93739">
        <ele>165</ele>
        <time>2021-12-19T08:31:00Z</time>
      </trkpt>
      <trkpt lat="46.78583" lon="-0.93758">
        <ele>165</ele>
        <time>2021-12-19T08:31:02Z</time>
      </trkpt>
      <trkpt lat="46.7857" lon="-0.93777">
        <ele>164</ele>
        <time>2021-12-19T08:31:04Z</time>
      </trkpt>
      <trkpt lat="46.78556" lon="-0.93795">
        <ele>164</ele>
        <time>2021-12-19T08:31:06Z</time>
      </trkpt>
      <trkpt lat="46.78543" lon="-0.93813">
        <ele>163</ele>
        <time>2021-12-19T08:31:08Z</time>
      </trkpt>
      <trkpt lat="46.78536" lon="-0.93822">
        <ele>163</ele>
        <time>2021-12-19T08:31:09Z</time>
      </trkpt>
      <trkpt lat="46.78529" lon="-0.93831">
        <ele>162</ele>
        <time>2021-12-19T08:31:10Z</time>
      </trkpt>
      <trkpt lat="46.78515" lon="-0.93849">
        <ele>162</ele>
        <time>2021-12-19T08:31:12Z</time>
      </trkpt>
      <trkpt lat="46.78508" lon="-0.93857">
        <ele>163</ele>
        <time>2021-12-19T08:31:13Z</time>
      </trkpt>
      <trkpt lat="46.78501" lon="-0.93866">
        <ele>163</ele>
        <time>2021-12-19T08:31:14Z</time>
      </trkpt>
      <trkpt lat="46.78487" lon="-0.93882">
        <ele>162</ele>
        <time>2021-12-19T08:31:16Z</time>
      </trkpt>
      <trkpt lat="46.7848" lon="-0.93891">
        <ele>162</ele>
        <time>2021-12-19T08:31:17Z</time>
      </trkpt>
      <trkpt lat="46.78472" lon="-0.93899">
        <ele>162</ele>
        <time>2021-12-19T08:31:18Z</time>
      </trkpt>
      <trkpt lat="46.78465" lon="-0.93907">
        <ele>162</ele>
        <time>2021-12-19T08:31:19Z</time>
      </trkpt>
      <trkpt lat="46.78451" lon="-0.93923">
        <ele>162</ele>
        <time>2021-12-19T08:31:21Z</time>
      </trkpt>
      <trkpt lat="46.78443" lon="-0.93931">
        <ele>162</ele>
        <time>2021-12-19T08:31:22Z</time>
      </trkpt>
      <trkpt lat="46.78429" lon="-0.93946">
        <ele>162</ele>
        <time>2021-12-19T08:31:24Z</time>
      </trkpt>
      <trkpt lat="46.78414" lon="-0.93961">
        <ele>162</ele>
        <time>2021-12-19T08:31:26Z</time>
      </trkpt>
      <trkpt lat="46.78406" lon="-0.93969">
        <ele>161</ele>
        <time>2021-12-19T08:31:27Z</time>
      </trkpt>
      <trkpt lat="46.78391" lon="-0.93985">
        <ele>161</ele>
        <time>2021-12-19T08:31:29Z</time>
      </trkpt>
      <trkpt lat="46.78376" lon="-0.94">
        <ele>161</ele>
        <time>2021-12-19T08:31:31Z</time>
      </trkpt>
      <trkpt lat="46.78368" lon="-0.94008">
        <ele>161</ele>
        <time>2021-12-19T08:31:32Z</time>
      </trkpt>
      <trkpt lat="46.78353" lon="-0.94024">
        <ele>161</ele>
        <time>2021-12-19T08:31:34Z</time>
      </trkpt>
      <trkpt lat="46.78346" lon="-0.94032">
        <ele>161</ele>
        <time>2021-12-19T08:31:35Z</time>
      </trkpt>
      <trkpt lat="46.78338" lon="-0.94039">
        <ele>161</ele>
        <time>2021-12-19T08:31:36Z</time>
      </trkpt>
      <trkpt lat="46.78322" lon="-0.94054">
        <ele>161</ele>
        <time>2021-12-19T08:31:38Z</time>
      </trkpt>
      <trkpt lat="46.78314" lon="-0.94062">
        <ele>160</ele>
        <time>2021-12-19T08:31:39Z</time>
      </trkpt>
      <trkpt lat="46.78306" lon="-0.9407">
        <ele>160</ele>
        <time>2021-12-19T08:31:40Z</time>
      </trkpt>
      <trkpt lat="46.78291" lon="-0.94084">
        <ele>160</ele>
        <time>2021-12-19T08:31:42Z</time>
      </trkpt>
      <trkpt lat="46.78283" lon="-0.9409">
        <ele>160</ele>
        <time>2021-12-19T08:31:43Z</time>
      </trkpt>
      <trkpt lat="46.78275" lon="-0.94097">
        <ele>160</ele>
        <time>2021-12-19T08:31:44Z</time>
      </trkpt>
      <trkpt lat="46.78258" lon="-0.9411">
        <ele>159</ele>
        <time>2021-12-19T08:31:46Z</time>
      </trkpt>
      <trkpt lat="46.78241" lon="-0.94123">
        <ele>160</ele>
        <time>2021-12-19T08:31:48Z</time>
      </trkpt>
      <trkpt lat="46.78224" lon="-0.94137">
        <ele>159</ele>
        <time>2021-12-19T08:31:50Z</time>
      </trkpt>
      <trkpt lat="46.78215" lon="-0.94145">
        <ele>159</ele>
        <time>2021-12-19T08:31:51Z</time>
      </trkpt>
      <trkpt lat="46.782" lon="-0.94164">
        <ele>159</ele>
        <time>2021-12-19T08:31:53Z</time>
      </trkpt>
      <trkpt lat="46.78192" lon="-0.94175">
        <ele>158</ele>
        <time>2021-12-19T08:31:54Z</time>
      </trkpt>
      <trkpt lat="46.78179" lon="-0.94198">
        <ele>157</ele>
        <time>2021-12-19T08:31:56Z</time>
      </trkpt>
      <trkpt lat="46.78174" lon="-0.9421">
        <ele>157</ele>
        <time>2021-12-19T08:31:57Z</time>
      </trkpt>
      <trkpt lat="46.78168" lon="-0.94222">
        <ele>157</ele>
        <time>2021-12-19T08:31:58Z</time>
      </trkpt>
      <trkpt lat="46.78156" lon="-0.94246">
        <ele>157</ele>
        <time>2021-12-19T08:32:00Z</time>
      </trkpt>
      <trkpt lat="46.78145" lon="-0.94268">
        <ele>156</ele>
        <time>2021-12-19T08:32:02Z</time>
      </trkpt>
      <trkpt lat="46.78139" lon="-0.9428">
        <ele>156</ele>
        <time>2021-12-19T08:32:03Z</time>
      </trkpt>
      <trkpt lat="46.78133" lon="-0.94291">
        <ele>156</ele>
        <time>2021-12-19T08:32:04Z</time>
      </trkpt>
      <trkpt lat="46.78119" lon="-0.94313">
        <ele>155</ele>
        <time>2021-12-19T08:32:06Z</time>
      </trkpt>
      <trkpt lat="46.78113" lon="-0.94324">
        <ele>155</ele>
        <time>2021-12-19T08:32:07Z</time>
      </trkpt>
      <trkpt lat="46.78106" lon="-0.94335">
        <ele>155</ele>
        <time>2021-12-19T08:32:08Z</time>
      </trkpt>
      <trkpt lat="46.78091" lon="-0.94355">
        <ele>155</ele>
        <time>2021-12-19T08:32:10Z</time>
      </trkpt>
      <trkpt lat="46.78075" lon="-0.94372">
        <ele>156</ele>
        <time>2021-12-19T08:32:12Z</time>
      </trkpt>
      <trkpt lat="46.78058" lon="-0.94387">
        <ele>156</ele>
        <time>2021-12-19T08:32:14Z</time>
      </trkpt>
      <trkpt lat="46.7804" lon="-0.94398">
        <ele>155</ele>
        <time>2021-12-19T08:32:16Z</time>
      </trkpt>
      <trkpt lat="46.78021" lon="-0.94407">
        <ele>155</ele>
        <time>2021-12-19T08:32:18Z</time>
      </trkpt>
      <trkpt lat="46.78011" lon="-0.94411">
        <ele>155</ele>
        <time>2021-12-19T08:32:19Z</time>
      </trkpt>
      <trkpt lat="46.78001" lon="-0.94416">
        <ele>155</ele>
        <time>2021-12-19T08:32:20Z</time>
      </trkpt>
      <trkpt lat="46.77982" lon="-0.94424">
        <ele>155</ele>
        <time>2021-12-19T08:32:22Z</time>
      </trkpt>
      <trkpt lat="46.77973" lon="-0.94428">
        <ele>155</ele>
        <time>2021-12-19T08:32:23Z</time>
      </trkpt>
      <trkpt lat="46.77954" lon="-0.94436">
        <ele>155</ele>
        <time>2021-12-19T08:32:25Z</time>
      </trkpt>
      <trkpt lat="46.77936" lon="-0.94445">
        <ele>155</ele>
        <time>2021-12-19T08:32:27Z</time>
      </trkpt>
      <trkpt lat="46.77927" lon="-0.9445">
        <ele>155</ele>
        <time>2021-12-19T08:32:28Z</time>
      </trkpt>
      <trkpt lat="46.77918" lon="-0.94456">
        <ele>154</ele>
        <time>2021-12-19T08:32:29Z</time>
      </trkpt>
      <trkpt lat="46.77909" lon="-0.94463">
        <ele>154</ele>
        <time>2021-12-19T08:32:30Z</time>
      </trkpt>
      <trkpt lat="46.779" lon="-0.9447">
        <ele>153</ele>
        <time>2021-12-19T08:32:31Z</time>
      </trkpt>
      <trkpt lat="46.77883" lon="-0.94487">
        <ele>152</ele>
        <time>2021-12-19T08:32:33Z</time>
      </trkpt>
      <trkpt lat="46.77874" lon="-0.94495">
        <ele>152</ele>
        <time>2021-12-19T08:32:34Z</time>
      </trkpt>
      <trkpt lat="46.77858" lon="-0.94514">
        <ele>151</ele>
        <time>2021-12-19T08:32:36Z</time>
      </trkpt>
      <trkpt lat="46.77842" lon="-0.94534">
        <ele>151</ele>
        <time>2021-12-19T08:32:38Z</time>
      </trkpt>
      <trkpt lat="46.77827" lon="-0.94554">
        <ele>150</ele>
        <time>2021-12-19T08:32:40Z</time>
      </trkpt>
      <trkpt lat="46.77811" lon="-0.94571">
        <ele>149</ele>
        <time>2021-12-19T08:32:42Z</time>
      </trkpt>
      <trkpt lat="46.77795" lon="-0.94587">
        <ele>149</ele>
        <time>2021-12-19T08:32:44Z</time>
      </trkpt>
      <trkpt lat="46.77787" lon="-0.94595">
        <ele>149</ele>
        <time>2021-12-19T08:32:45Z</time>
      </trkpt>
      <trkpt lat="46.77779" lon="-0.94602">
        <ele>149</ele>
        <time>2021-12-19T08:32:46Z</time>
      </trkpt>
      <trkpt lat="46.7777" lon="-0.94609">
        <ele>149</ele>
        <time>2021-12-19T08:32:47Z</time>
      </trkpt>
      <trkpt lat="46.77754" lon="-0.94622">
        <ele>149</ele>
        <time>2021-12-19T08:32:49Z</time>
      </trkpt>
      <trkpt lat="46.77746" lon="-0.94628">
        <ele>149</ele>
        <time>2021-12-19T08:32:50Z</time>
      </trkpt>
      <trkpt lat="46.77737" lon="-0.94636">
        <ele>149</ele>
        <time>2021-12-19T08:32:51Z</time>
      </trkpt>
      <trkpt lat="46.77721" lon="-0.9465">
        <ele>149</ele>
        <time>2021-12-19T08:32:53Z</time>
      </trkpt>
      <trkpt lat="46.77712" lon="-0.94657">
        <ele>149</ele>
        <time>2021-12-19T08:32:54Z</time>
      </trkpt>
      <trkpt lat="46.77704" lon="-0.94664">
        <ele>148</ele>
        <time>2021-12-19T08:32:55Z</time>
      </trkpt>
      <trkpt lat="46.77687" lon="-0.94678">
        <ele>148</ele>
        <time>2021-12-19T08:32:57Z</time>
      </trkpt>
      <trkpt lat="46.7767" lon="-0.94692">
        <ele>148</ele>
        <time>2021-12-19T08:32:59Z</time>
      </trkpt>
      <trkpt lat="46.77662" lon="-0.94699">
        <ele>148</ele>
        <time>2021-12-19T08:33:00Z</time>
      </trkpt>
      <trkpt lat="46.77646" lon="-0.94711">
        <ele>148</ele>
        <time>2021-12-19T08:33:02Z</time>
      </trkpt>
      <trkpt lat="46.77639" lon="-0.94717">
        <ele>148</ele>
        <time>2021-12-19T08:33:03Z</time>
      </trkpt>
      <trkpt lat="46.77624" lon="-0.9473">
        <ele>148</ele>
        <time>2021-12-19T08:33:05Z</time>
      </trkpt>
      <trkpt lat="46.77616" lon="-0.94736">
        <ele>148</ele>
        <time>2021-12-19T08:33:06Z</time>
      </trkpt>
      <trkpt lat="46.77601" lon="-0.94748">
        <ele>149</ele>
        <time>2021-12-19T08:33:08Z</time>
      </trkpt>
      <trkpt lat="46.77587" lon="-0.9476">
        <ele>149</ele>
        <time>2021-12-19T08:33:10Z</time>
      </trkpt>
      <trkpt lat="46.77573" lon="-0.94772">
        <ele>149</ele>
        <time>2021-12-19T08:33:12Z</time>
      </trkpt>
      <trkpt lat="46.77567" lon="-0.94778">
        <ele>149</ele>
        <time>2021-12-19T08:33:13Z</time>
      </trkpt>
      <trkpt lat="46.77554" lon="-0.94789">
        <ele>149</ele>
        <time>2021-12-19T08:33:15Z</time>
      </trkpt>
      <trkpt lat="46.77542" lon="-0.94798">
        <ele>150</ele>
        <time>2021-12-19T08:33:17Z</time>
      </trkpt>
      <trkpt lat="46.77531" lon="-0.94808">
        <ele>151</ele>
        <time>2021-12-19T08:33:19Z</time>
      </trkpt>
      <trkpt lat="46.77525" lon="-0.94813">
        <ele>151</ele>
        <time>2021-12-19T08:33:20Z</time>
      </trkpt>
      <trkpt lat="46.77513" lon="-0.94822">
        <ele>152</ele>
        <time>2021-12-19T08:33:22Z</time>
      </trkpt>
      <trkpt lat="46.77502" lon="-0.94832">
        <ele>153</ele>
        <time>2021-12-19T08:33:24Z</time>
      </trkpt>
      <trkpt lat="46.77491" lon="-0.94841">
        <ele>153</ele>
        <time>2021-12-19T08:33:26Z</time>
      </trkpt>
      <trkpt lat="46.77486" lon="-0.94846">
        <ele>154</ele>
        <time>2021-12-19T08:33:27Z</time>
      </trkpt>
      <trkpt lat="46.7748" lon="-0.94851">
        <ele>154</ele>
        <time>2021-12-19T08:33:28Z</time>
      </trkpt>
      <trkpt lat="46.77475" lon="-0.94856">
        <ele>155</ele>
        <time>2021-12-19T08:33:29Z</time>
      </trkpt>
      <trkpt lat="46.77464" lon="-0.94867">
        <ele>155</ele>
        <time>2021-12-19T08:33:31Z</time>
      </trkpt>
      <trkpt lat="46.77459" lon="-0.94872">
        <ele>155</ele>
        <time>2021-12-19T08:33:32Z</time>
      </trkpt>
      <trkpt lat="46.77454" lon="-0.94877">
        <ele>156</ele>
        <time>2021-12-19T08:33:33Z</time>
      </trkpt>
      <trkpt lat="46.77444" lon="-0.94887">
        <ele>156</ele>
        <time>2021-12-19T08:33:35Z</time>
      </trkpt>
      <trkpt lat="46.7744" lon="-0.94893">
        <ele>156</ele>
        <time>2021-12-19T08:33:36Z</time>
      </trkpt>
      <trkpt lat="46.77435" lon="-0.94898">
        <ele>156</ele>
        <time>2021-12-19T08:33:37Z</time>
      </trkpt>
      <trkpt lat="46.77426" lon="-0.94909">
        <ele>157</ele>
        <time>2021-12-19T08:33:39Z</time>
      </trkpt>
      <trkpt lat="46.77422" lon="-0.94915">
        <ele>158</ele>
        <time>2021-12-19T08:33:40Z</time>
      </trkpt>
      <trkpt lat="46.77414" lon="-0.94926">
        <ele>159</ele>
        <time>2021-12-19T08:33:42Z</time>
      </trkpt>
      <trkpt lat="46.77409" lon="-0.94932">
        <ele>160</ele>
        <time>2021-12-19T08:33:43Z</time>
      </trkpt>
      <trkpt lat="46.774" lon="-0.94945">
        <ele>161</ele>
        <time>2021-12-19T08:33:45Z</time>
      </trkpt>
      <trkpt lat="46.77396" lon="-0.94951">
        <ele>161</ele>
        <time>2021-12-19T08:33:46Z</time>
      </trkpt>
      <trkpt lat="46.77392" lon="-0.94958">
        <ele>162</ele>
        <time>2021-12-19T08:33:47Z</time>
      </trkpt>
      <trkpt lat="46.77384" lon="-0.94969">
        <ele>162</ele>
        <time>2021-12-19T08:33:49Z</time>
      </trkpt>
      <trkpt lat="46.77375" lon="-0.94981">
        <ele>162</ele>
        <time>2021-12-19T08:33:51Z</time>
      </trkpt>
      <trkpt lat="46.77366" lon="-0.94994">
        <ele>162</ele>
        <time>2021-12-19T08:33:53Z</time>
      </trkpt>
      <trkpt lat="46.77362" lon="-0.95001">
        <ele>161</ele>
        <time>2021-12-19T08:33:54Z</time>
      </trkpt>
      <trkpt lat="46.77352" lon="-0.95015">
        <ele>161</ele>
        <time>2021-12-19T08:33:56Z</time>
      </trkpt>
      <trkpt lat="46.77341" lon="-0.95032">
        <ele>160</ele>
        <time>2021-12-19T08:33:58Z</time>
      </trkpt>
      <trkpt lat="46.77335" lon="-0.9504">
        <ele>160</ele>
        <time>2021-12-19T08:33:59Z</time>
      </trkpt>
      <trkpt lat="46.77329" lon="-0.95049">
        <ele>160</ele>
        <time>2021-12-19T08:34:00Z</time>
      </trkpt>
      <trkpt lat="46.77317" lon="-0.95068">
        <ele>159</ele>
        <time>2021-12-19T08:34:02Z</time>
      </trkpt>
      <trkpt lat="46.77311" lon="-0.95078">
        <ele>159</ele>
        <time>2021-12-19T08:34:03Z</time>
      </trkpt>
      <trkpt lat="46.773" lon="-0.95101">
        <ele>158</ele>
        <time>2021-12-19T08:34:05Z</time>
      </trkpt>
      <trkpt lat="46.77295" lon="-0.95113">
        <ele>157</ele>
        <time>2021-12-19T08:34:06Z</time>
      </trkpt>
      <trkpt lat="46.7729" lon="-0.95127">
        <ele>157</ele>
        <time>2021-12-19T08:34:07Z</time>
      </trkpt>
      <trkpt lat="46.77279" lon="-0.95152">
        <ele>157</ele>
        <time>2021-12-19T08:34:09Z</time>
      </trkpt>
      <trkpt lat="46.77272" lon="-0.95164">
        <ele>156</ele>
        <time>2021-12-19T08:34:10Z</time>
      </trkpt>
      <trkpt lat="46.77256" lon="-0.95182">
        <ele>156</ele>
        <time>2021-12-19T08:34:12Z</time>
      </trkpt>
      <trkpt lat="46.77247" lon="-0.95189">
        <ele>156</ele>
        <time>2021-12-19T08:34:13Z</time>
      </trkpt>
      <trkpt lat="46.77238" lon="-0.95194">
        <ele>156</ele>
        <time>2021-12-19T08:34:14Z</time>
      </trkpt>
      <trkpt lat="46.77228" lon="-0.95198">
        <ele>156</ele>
        <time>2021-12-19T08:34:15Z</time>
      </trkpt>
      <trkpt lat="46.7721" lon="-0.95201">
        <ele>156</ele>
        <time>2021-12-19T08:34:17Z</time>
      </trkpt>
      <trkpt lat="46.772" lon="-0.952">
        <ele>157</ele>
        <time>2021-12-19T08:34:18Z</time>
      </trkpt>
      <trkpt lat="46.77183" lon="-0.95198">
        <ele>157</ele>
        <time>2021-12-19T08:34:20Z</time>
      </trkpt>
      <trkpt lat="46.77174" lon="-0.95197">
        <ele>158</ele>
        <time>2021-12-19T08:34:21Z</time>
      </trkpt>
      <trkpt lat="46.77157" lon="-0.95196">
        <ele>158</ele>
        <time>2021-12-19T08:34:23Z</time>
      </trkpt>
      <trkpt lat="46.77148" lon="-0.95196">
        <ele>158</ele>
        <time>2021-12-19T08:34:24Z</time>
      </trkpt>
      <trkpt lat="46.7714" lon="-0.95196">
        <ele>158</ele>
        <time>2021-12-19T08:34:25Z</time>
      </trkpt>
      <trkpt lat="46.77123" lon="-0.95196">
        <ele>158</ele>
        <time>2021-12-19T08:34:27Z</time>
      </trkpt>
      <trkpt lat="46.77114" lon="-0.95196">
        <ele>158</ele>
        <time>2021-12-19T08:34:28Z</time>
      </trkpt>
      <trkpt lat="46.77096" lon="-0.95197">
        <ele>157</ele>
        <time>2021-12-19T08:34:30Z</time>
      </trkpt>
      <trkpt lat="46.77078" lon="-0.952">
        <ele>157</ele>
        <time>2021-12-19T08:34:32Z</time>
      </trkpt>
      <trkpt lat="46.77069" lon="-0.95202">
        <ele>156</ele>
        <time>2021-12-19T08:34:33Z</time>
      </trkpt>
      <trkpt lat="46.7705" lon="-0.95206">
        <ele>156</ele>
        <time>2021-12-19T08:34:35Z</time>
      </trkpt>
      <trkpt lat="46.7704" lon="-0.95208">
        <ele>155</ele>
        <time>2021-12-19T08:34:36Z</time>
      </trkpt>
      <trkpt lat="46.7702" lon="-0.95212">
        <ele>154</ele>
        <time>2021-12-19T08:34:38Z</time>
      </trkpt>
      <trkpt lat="46.76999" lon="-0.95215">
        <ele>153</ele>
        <time>2021-12-19T08:34:40Z</time>
      </trkpt>
      <trkpt lat="46.76978" lon="-0.9522">
        <ele>152</ele>
        <time>2021-12-19T08:34:42Z</time>
      </trkpt>
      <trkpt lat="46.76967" lon="-0.95223">
        <ele>151</ele>
        <time>2021-12-19T08:34:43Z</time>
      </trkpt>
      <trkpt lat="46.76945" lon="-0.9523">
        <ele>149</ele>
        <time>2021-12-19T08:34:45Z</time>
      </trkpt>
      <trkpt lat="46.76935" lon="-0.95235">
        <ele>149</ele>
        <time>2021-12-19T08:34:46Z</time>
      </trkpt>
      <trkpt lat="46.76912" lon="-0.95247">
        <ele>148</ele>
        <time>2021-12-19T08:34:48Z</time>
      </trkpt>
      <trkpt lat="46.76901" lon="-0.95253">
        <ele>147</ele>
        <time>2021-12-19T08:34:49Z</time>
      </trkpt>
      <trkpt lat="46.7689" lon="-0.95259">
        <ele>146</ele>
        <time>2021-12-19T08:34:50Z</time>
      </trkpt>
      <trkpt lat="46.76868" lon="-0.95272">
        <ele>145</ele>
        <time>2021-12-19T08:34:52Z</time>
      </trkpt>
      <trkpt lat="46.76857" lon="-0.95279">
        <ele>144</ele>
        <time>2021-12-19T08:34:53Z</time>
      </trkpt>
      <trkpt lat="46.76846" lon="-0.95286">
        <ele>143</ele>
        <time>2021-12-19T08:34:54Z</time>
      </trkpt>
      <trkpt lat="46.76825" lon="-0.95302">
        <ele>142</ele>
        <time>2021-12-19T08:34:56Z</time>
      </trkpt>
      <trkpt lat="46.76804" lon="-0.9532">
        <ele>140</ele>
        <time>2021-12-19T08:34:58Z</time>
      </trkpt>
      <trkpt lat="46.76794" lon="-0.9533">
        <ele>139</ele>
        <time>2021-12-19T08:34:59Z</time>
      </trkpt>
      <trkpt lat="46.76784" lon="-0.9534">
        <ele>139</ele>
        <time>2021-12-19T08:35:00Z</time>
      </trkpt>
      <trkpt lat="46.76766" lon="-0.95362">
        <ele>138</ele>
        <time>2021-12-19T08:35:02Z</time>
      </trkpt>
      <trkpt lat="46.76749" lon="-0.95383">
        <ele>138</ele>
        <time>2021-12-19T08:35:04Z</time>
      </trkpt>
      <trkpt lat="46.76741" lon="-0.95393">
        <ele>139</ele>
        <time>2021-12-19T08:35:05Z</time>
      </trkpt>
      <trkpt lat="46.76725" lon="-0.95408">
        <ele>139</ele>
        <time>2021-12-19T08:35:07Z</time>
      </trkpt>
      <trkpt lat="46.76717" lon="-0.95415">
        <ele>140</ele>
        <time>2021-12-19T08:35:08Z</time>
      </trkpt>
      <trkpt lat="46.76702" lon="-0.95425">
        <ele>141</ele>
        <time>2021-12-19T08:35:10Z</time>
      </trkpt>
      <trkpt lat="46.76686" lon="-0.95431">
        <ele>142</ele>
        <time>2021-12-19T08:35:12Z</time>
      </trkpt>
      <trkpt lat="46.76673" lon="-0.95436">
        <ele>143</ele>
        <time>2021-12-19T08:35:14Z</time>
      </trkpt>
      <trkpt lat="46.7666" lon="-0.95438">
        <ele>144</ele>
        <time>2021-12-19T08:35:16Z</time>
      </trkpt>
      <trkpt lat="46.76647" lon="-0.9544">
        <ele>145</ele>
        <time>2021-12-19T08:35:18Z</time>
      </trkpt>
      <trkpt lat="46.76641" lon="-0.95441">
        <ele>145</ele>
        <time>2021-12-19T08:35:19Z</time>
      </trkpt>
      <trkpt lat="46.76628" lon="-0.95445">
        <ele>146</ele>
        <time>2021-12-19T08:35:21Z</time>
      </trkpt>
      <trkpt lat="46.76621" lon="-0.95447">
        <ele>146</ele>
        <time>2021-12-19T08:35:22Z</time>
      </trkpt>
      <trkpt lat="46.76615" lon="-0.95449">
        <ele>147</ele>
        <time>2021-12-19T08:35:23Z</time>
      </trkpt>
      <trkpt lat="46.76603" lon="-0.95453">
        <ele>147</ele>
        <time>2021-12-19T08:35:25Z</time>
      </trkpt>
      <trkpt lat="46.7659" lon="-0.95459">
        <ele>148</ele>
        <time>2021-12-19T08:35:27Z</time>
      </trkpt>
      <trkpt lat="46.76578" lon="-0.95465">
        <ele>148</ele>
        <time>2021-12-19T08:35:29Z</time>
      </trkpt>
      <trkpt lat="46.76566" lon="-0.95473">
        <ele>149</ele>
        <time>2021-12-19T08:35:31Z</time>
      </trkpt>
      <trkpt lat="46.7656" lon="-0.95476">
        <ele>149</ele>
        <time>2021-12-19T08:35:32Z</time>
      </trkpt>
      <trkpt lat="46.76554" lon="-0.9548">
        <ele>149</ele>
        <time>2021-12-19T08:35:33Z</time>
      </trkpt>
      <trkpt lat="46.76549" lon="-0.95484">
        <ele>149</ele>
        <time>2021-12-19T08:35:34Z</time>
      </trkpt>
      <trkpt lat="46.76543" lon="-0.95489">
        <ele>149</ele>
        <time>2021-12-19T08:35:35Z</time>
      </trkpt>
      <trkpt lat="46.7653" lon="-0.95498">
        <ele>150</ele>
        <time>2021-12-19T08:35:37Z</time>
      </trkpt>
      <trkpt lat="46.76517" lon="-0.95507">
        <ele>150</ele>
        <time>2021-12-19T08:35:39Z</time>
      </trkpt>
      <trkpt lat="46.76504" lon="-0.95517">
        <ele>150</ele>
        <time>2021-12-19T08:35:41Z</time>
      </trkpt>
      <trkpt lat="46.76491" lon="-0.95528">
        <ele>151</ele>
        <time>2021-12-19T08:35:43Z</time>
      </trkpt>
      <trkpt lat="46.76485" lon="-0.95532">
        <ele>151</ele>
        <time>2021-12-19T08:35:44Z</time>
      </trkpt>
      <trkpt lat="46.76479" lon="-0.95537">
        <ele>151</ele>
        <time>2021-12-19T08:35:45Z</time>
      </trkpt>
      <trkpt lat="46.76468" lon="-0.95546">
        <ele>151</ele>
        <time>2021-12-19T08:35:47Z</time>
      </trkpt>
      <trkpt lat="46.76462" lon="-0.95551">
        <ele>151</ele>
        <time>2021-12-19T08:35:48Z</time>
      </trkpt>
      <trkpt lat="46.76456" lon="-0.95556">
        <ele>152</ele>
        <time>2021-12-19T08:35:49Z</time>
      </trkpt>
      <trkpt lat="46.76445" lon="-0.95566">
        <ele>152</ele>
        <time>2021-12-19T08:35:51Z</time>
      </trkpt>
      <trkpt lat="46.76439" lon="-0.95571">
        <ele>152</ele>
        <time>2021-12-19T08:35:52Z</time>
      </trkpt>
      <trkpt lat="46.76432" lon="-0.95576">
        <ele>152</ele>
        <time>2021-12-19T08:35:53Z</time>
      </trkpt>
      <trkpt lat="46.76419" lon="-0.95586">
        <ele>152</ele>
        <time>2021-12-19T08:35:55Z</time>
      </trkpt>
      <trkpt lat="46.76413" lon="-0.95591">
        <ele>152</ele>
        <time>2021-12-19T08:35:56Z</time>
      </trkpt>
      <trkpt lat="46.76407" lon="-0.95597">
        <ele>152</ele>
        <time>2021-12-19T08:35:57Z</time>
      </trkpt>
      <trkpt lat="46.76401" lon="-0.95603">
        <ele>152</ele>
        <time>2021-12-19T08:35:58Z</time>
      </trkpt>
      <trkpt lat="46.76395" lon="-0.95607">
        <ele>152</ele>
        <time>2021-12-19T08:35:59Z</time>
      </trkpt>
      <trkpt lat="46.76388" lon="-0.95613">
        <ele>152</ele>
        <time>2021-12-19T08:36:00Z</time>
      </trkpt>
      <trkpt lat="46.76375" lon="-0.95623">
        <ele>152</ele>
        <time>2021-12-19T08:36:02Z</time>
      </trkpt>
      <trkpt lat="46.76369" lon="-0.95629">
        <ele>152</ele>
        <time>2021-12-19T08:36:03Z</time>
      </trkpt>
      <trkpt lat="46.76356" lon="-0.95641">
        <ele>152</ele>
        <time>2021-12-19T08:36:05Z</time>
      </trkpt>
      <trkpt lat="46.76344" lon="-0.95654">
        <ele>151</ele>
        <time>2021-12-19T08:36:07Z</time>
      </trkpt>
      <trkpt lat="46.76338" lon="-0.95661">
        <ele>151</ele>
        <time>2021-12-19T08:36:08Z</time>
      </trkpt>
      <trkpt lat="46.76326" lon="-0.95675">
        <ele>151</ele>
        <time>2021-12-19T08:36:10Z</time>
      </trkpt>
      <trkpt lat="46.76321" lon="-0.95682">
        <ele>150</ele>
        <time>2021-12-19T08:36:11Z</time>
      </trkpt>
      <trkpt lat="46.76311" lon="-0.95698">
        <ele>150</ele>
        <time>2021-12-19T08:36:13Z</time>
      </trkpt>
      <trkpt lat="46.76306" lon="-0.95706">
        <ele>149</ele>
        <time>2021-12-19T08:36:14Z</time>
      </trkpt>
      <trkpt lat="46.76301" lon="-0.95715">
        <ele>149</ele>
        <time>2021-12-19T08:36:15Z</time>
      </trkpt>
      <trkpt lat="46.76292" lon="-0.95733">
        <ele>149</ele>
        <time>2021-12-19T08:36:17Z</time>
      </trkpt>
      <trkpt lat="46.76287" lon="-0.95742">
        <ele>149</ele>
        <time>2021-12-19T08:36:18Z</time>
      </trkpt>
      <trkpt lat="46.76279" lon="-0.9576">
        <ele>148</ele>
        <time>2021-12-19T08:36:20Z</time>
      </trkpt>
      <trkpt lat="46.7627" lon="-0.95778">
        <ele>147</ele>
        <time>2021-12-19T08:36:22Z</time>
      </trkpt>
      <trkpt lat="46.76258" lon="-0.95795">
        <ele>147</ele>
        <time>2021-12-19T08:36:24Z</time>
      </trkpt>
      <trkpt lat="46.76245" lon="-0.95811">
        <ele>148</ele>
        <time>2021-12-19T08:36:26Z</time>
      </trkpt>
      <trkpt lat="46.76238" lon="-0.95819">
        <ele>147</ele>
        <time>2021-12-19T08:36:27Z</time>
      </trkpt>
      <trkpt lat="46.76231" lon="-0.95827">
        <ele>148</ele>
        <time>2021-12-19T08:36:28Z</time>
      </trkpt>
      <trkpt lat="46.76216" lon="-0.95843">
        <ele>147</ele>
        <time>2021-12-19T08:36:30Z</time>
      </trkpt>
      <trkpt lat="46.76201" lon="-0.95859">
        <ele>147</ele>
        <time>2021-12-19T08:36:32Z</time>
      </trkpt>
      <trkpt lat="46.76186" lon="-0.95873">
        <ele>147</ele>
        <time>2021-12-19T08:36:34Z</time>
      </trkpt>
      <trkpt lat="46.76178" lon="-0.95881">
        <ele>146</ele>
        <time>2021-12-19T08:36:35Z</time>
      </trkpt>
      <trkpt lat="46.76171" lon="-0.95888">
        <ele>146</ele>
        <time>2021-12-19T08:36:36Z</time>
      </trkpt>
      <trkpt lat="46.76156" lon="-0.95902">
        <ele>146</ele>
        <time>2021-12-19T08:36:38Z</time>
      </trkpt>
      <trkpt lat="46.76149" lon="-0.9591">
        <ele>147</ele>
        <time>2021-12-19T08:36:39Z</time>
      </trkpt>
      <trkpt lat="46.76134" lon="-0.95924">
        <ele>147</ele>
        <time>2021-12-19T08:36:41Z</time>
      </trkpt>
      <trkpt lat="46.76127" lon="-0.9593">
        <ele>147</ele>
        <time>2021-12-19T08:36:42Z</time>
      </trkpt>
      <trkpt lat="46.76114" lon="-0.95943">
        <ele>146</ele>
        <time>2021-12-19T08:36:44Z</time>
      </trkpt>
      <trkpt lat="46.76107" lon="-0.9595">
        <ele>147</ele>
        <time>2021-12-19T08:36:45Z</time>
      </trkpt>
      <trkpt lat="46.76094" lon="-0.95966">
        <ele>147</ele>
        <time>2021-12-19T08:36:47Z</time>
      </trkpt>
      <trkpt lat="46.76082" lon="-0.95983">
        <ele>148</ele>
        <time>2021-12-19T08:36:49Z</time>
      </trkpt>
      <trkpt lat="46.76071" lon="-0.96001">
        <ele>148</ele>
        <time>2021-12-19T08:36:51Z</time>
      </trkpt>
      <trkpt lat="46.76068" lon="-0.96011">
        <ele>149</ele>
        <time>2021-12-19T08:36:52Z</time>
      </trkpt>
      <trkpt lat="46.76067" lon="-0.96021">
        <ele>148</ele>
        <time>2021-12-19T08:36:53Z</time>
      </trkpt>
      <trkpt lat="46.76068" lon="-0.96042">
        <ele>148</ele>
        <time>2021-12-19T08:36:55Z</time>
      </trkpt>
      <trkpt lat="46.76061" lon="-0.96058">
        <ele>148</ele>
        <time>2021-12-19T08:36:57Z</time>
      </trkpt>
      <trkpt lat="46.76048" lon="-0.96059">
        <ele>149</ele>
        <time>2021-12-19T08:36:59Z</time>
      </trkpt>
      <trkpt lat="46.76041" lon="-0.96058">
        <ele>149</ele>
        <time>2021-12-19T08:37:00Z</time>
      </trkpt>
      <trkpt lat="46.76028" lon="-0.9606">
        <ele>148</ele>
        <time>2021-12-19T08:37:02Z</time>
      </trkpt>
      <trkpt lat="46.76022" lon="-0.96067">
        <ele>148</ele>
        <time>2021-12-19T08:37:03Z</time>
      </trkpt>
      <trkpt lat="46.76017" lon="-0.96074">
        <ele>149</ele>
        <time>2021-12-19T08:37:04Z</time>
      </trkpt>
      <trkpt lat="46.76006" lon="-0.96088">
        <ele>149</ele>
        <time>2021-12-19T08:37:06Z</time>
      </trkpt>
      <trkpt lat="46.76" lon="-0.96094">
        <ele>149</ele>
        <time>2021-12-19T08:37:07Z</time>
      </trkpt>
      <trkpt lat="46.75987" lon="-0.96104">
        <ele>150</ele>
        <time>2021-12-19T08:37:09Z</time>
      </trkpt>
      <trkpt lat="46.75973" lon="-0.96114">
        <ele>152</ele>
        <time>2021-12-19T08:37:11Z</time>
      </trkpt>
      <trkpt lat="46.75958" lon="-0.96121">
        <ele>154</ele>
        <time>2021-12-19T08:37:13Z</time>
      </trkpt>
      <trkpt lat="46.75951" lon="-0.96124">
        <ele>154</ele>
        <time>2021-12-19T08:37:14Z</time>
      </trkpt>
      <trkpt lat="46.75937" lon="-0.96126">
        <ele>155</ele>
        <time>2021-12-19T08:37:16Z</time>
      </trkpt>
      <trkpt lat="46.7593" lon="-0.96126">
        <ele>155</ele>
        <time>2021-12-19T08:37:17Z</time>
      </trkpt>
      <trkpt lat="46.75923" lon="-0.96127">
        <ele>155</ele>
        <time>2021-12-19T08:37:18Z</time>
      </trkpt>
      <trkpt lat="46.75916" lon="-0.96126">
        <ele>155</ele>
        <time>2021-12-19T08:37:19Z</time>
      </trkpt>
      <trkpt lat="46.75909" lon="-0.96127">
        <ele>155</ele>
        <time>2021-12-19T08:37:20Z</time>
      </trkpt>
      <trkpt lat="46.75902" lon="-0.96127">
        <ele>155</ele>
        <time>2021-12-19T08:37:21Z</time>
      </trkpt>
      <trkpt lat="46.75888" lon="-0.9613">
        <ele>156</ele>
        <time>2021-12-19T08:37:23Z</time>
      </trkpt>
      <trkpt lat="46.75874" lon="-0.96136">
        <ele>156</ele>
        <time>2021-12-19T08:37:25Z</time>
      </trkpt>
      <trkpt lat="46.7586" lon="-0.96142">
        <ele>156</ele>
        <time>2021-12-19T08:37:27Z</time>
      </trkpt>
      <trkpt lat="46.75853" lon="-0.96145">
        <ele>156</ele>
        <time>2021-12-19T08:37:28Z</time>
      </trkpt>
      <trkpt lat="46.7584" lon="-0.96151">
        <ele>156</ele>
        <time>2021-12-19T08:37:30Z</time>
      </trkpt>
      <trkpt lat="46.75833" lon="-0.96154">
        <ele>156</ele>
        <time>2021-12-19T08:37:31Z</time>
      </trkpt>
      <trkpt lat="46.7582" lon="-0.96159">
        <ele>157</ele>
        <time>2021-12-19T08:37:33Z</time>
      </trkpt>
      <trkpt lat="46.75813" lon="-0.96162">
        <ele>157</ele>
        <time>2021-12-19T08:37:34Z</time>
      </trkpt>
      <trkpt lat="46.75806" lon="-0.96165">
        <ele>157</ele>
        <time>2021-12-19T08:37:35Z</time>
      </trkpt>
      <trkpt lat="46.75792" lon="-0.96172">
        <ele>157</ele>
        <time>2021-12-19T08:37:37Z</time>
      </trkpt>
      <trkpt lat="46.75778" lon="-0.96181">
        <ele>156</ele>
        <time>2021-12-19T08:37:39Z</time>
      </trkpt>
      <trkpt lat="46.75771" lon="-0.96186">
        <ele>156</ele>
        <time>2021-12-19T08:37:40Z</time>
      </trkpt>
      <trkpt lat="46.75765" lon="-0.96191">
        <ele>156</ele>
        <time>2021-12-19T08:37:41Z</time>
      </trkpt>
      <trkpt lat="46.75758" lon="-0.96197">
        <ele>155</ele>
        <time>2021-12-19T08:37:42Z</time>
      </trkpt>
      <trkpt lat="46.75745" lon="-0.9621">
        <ele>155</ele>
        <time>2021-12-19T08:37:44Z</time>
      </trkpt>
      <trkpt lat="46.75731" lon="-0.96224">
        <ele>155</ele>
        <time>2021-12-19T08:37:46Z</time>
      </trkpt>
      <trkpt lat="46.75724" lon="-0.96231">
        <ele>155</ele>
        <time>2021-12-19T08:37:47Z</time>
      </trkpt>
      <trkpt lat="46.7571" lon="-0.96246">
        <ele>154</ele>
        <time>2021-12-19T08:37:49Z</time>
      </trkpt>
      <trkpt lat="46.75696" lon="-0.9626">
        <ele>153</ele>
        <time>2021-12-19T08:37:51Z</time>
      </trkpt>
      <trkpt lat="46.75689" lon="-0.96267">
        <ele>153</ele>
        <time>2021-12-19T08:37:52Z</time>
      </trkpt>
      <trkpt lat="46.75682" lon="-0.96274">
        <ele>153</ele>
        <time>2021-12-19T08:37:53Z</time>
      </trkpt>
      <trkpt lat="46.75668" lon="-0.96287">
        <ele>151</ele>
        <time>2021-12-19T08:37:55Z</time>
      </trkpt>
      <trkpt lat="46.75655" lon="-0.96298">
        <ele>151</ele>
        <time>2021-12-19T08:37:57Z</time>
      </trkpt>
      <trkpt lat="46.75641" lon="-0.96298">
        <ele>151</ele>
        <time>2021-12-19T08:37:59Z</time>
      </trkpt>
      <trkpt lat="46.75635" lon="-0.96293">
        <ele>151</ele>
        <time>2021-12-19T08:38:00Z</time>
      </trkpt>
      <trkpt lat="46.75626" lon="-0.96277">
        <ele>151</ele>
        <time>2021-12-19T08:38:02Z</time>
      </trkpt>
      <trkpt lat="46.7562" lon="-0.96253">
        <ele>151</ele>
        <time>2021-12-19T08:38:04Z</time>
      </trkpt>
      <trkpt lat="46.75615" lon="-0.96225">
        <ele>150</ele>
        <time>2021-12-19T08:38:06Z</time>
      </trkpt>
      <trkpt lat="46.75612" lon="-0.96215">
        <ele>150</ele>
        <time>2021-12-19T08:38:07Z</time>
      </trkpt>
      <trkpt lat="46.75605" lon="-0.96196">
        <ele>149</ele>
        <time>2021-12-19T08:38:09Z</time>
      </trkpt>
      <trkpt lat="46.75601" lon="-0.96187">
        <ele>149</ele>
        <time>2021-12-19T08:38:10Z</time>
      </trkpt>
      <trkpt lat="46.75594" lon="-0.96168">
        <ele>149</ele>
        <time>2021-12-19T08:38:12Z</time>
      </trkpt>
      <trkpt lat="46.7559" lon="-0.96159">
        <ele>149</ele>
        <time>2021-12-19T08:38:13Z</time>
      </trkpt>
      <trkpt lat="46.75587" lon="-0.9615">
        <ele>149</ele>
        <time>2021-12-19T08:38:14Z</time>
      </trkpt>
      <trkpt lat="46.7558" lon="-0.96132">
        <ele>148</ele>
        <time>2021-12-19T08:38:16Z</time>
      </trkpt>
      <trkpt lat="46.75576" lon="-0.96122">
        <ele>148</ele>
        <time>2021-12-19T08:38:17Z</time>
      </trkpt>
      <trkpt lat="46.75569" lon="-0.96104">
        <ele>148</ele>
        <time>2021-12-19T08:38:19Z</time>
      </trkpt>
      <trkpt lat="46.75566" lon="-0.96094">
        <ele>147</ele>
        <time>2021-12-19T08:38:20Z</time>
      </trkpt>
      <trkpt lat="46.75559" lon="-0.96074">
        <ele>147</ele>
        <time>2021-12-19T08:38:22Z</time>
      </trkpt>
      <trkpt lat="46.75555" lon="-0.96065">
        <ele>147</ele>
        <time>2021-12-19T08:38:23Z</time>
      </trkpt>
      <trkpt lat="46.75551" lon="-0.96055">
        <ele>146</ele>
        <time>2021-12-19T08:38:24Z</time>
      </trkpt>
      <trkpt lat="46.75543" lon="-0.96037">
        <ele>146</ele>
        <time>2021-12-19T08:38:26Z</time>
      </trkpt>
      <trkpt lat="46.75539" lon="-0.96029">
        <ele>146</ele>
        <time>2021-12-19T08:38:27Z</time>
      </trkpt>
      <trkpt lat="46.75536" lon="-0.96022">
        <ele>145</ele>
        <time>2021-12-19T08:38:28Z</time>
      </trkpt>
      <trkpt lat="46.75533" lon="-0.96015">
        <ele>145</ele>
        <time>2021-12-19T08:38:29Z</time>
      </trkpt>
      <trkpt lat="46.75528" lon="-0.96007">
        <ele>145</ele>
        <time>2021-12-19T08:38:31Z</time>
      </trkpt>
      <trkpt lat="46.75526" lon="-0.96005">
        <ele>145</ele>
        <time>2021-12-19T08:38:32Z</time>
      </trkpt>
      <trkpt lat="46.75525" lon="-0.96004">
        <ele>145</ele>
        <time>2021-12-19T08:38:33Z</time>
      </trkpt>
      <trkpt lat="46.75521" lon="-0.95998">
        <ele>145</ele>
        <time>2021-12-19T08:38:35Z</time>
      </trkpt>
      <trkpt lat="46.7552" lon="-0.95993">
        <ele>144</ele>
        <time>2021-12-19T08:38:36Z</time>
      </trkpt>
      <trkpt lat="46.75518" lon="-0.95987">
        <ele>144</ele>
        <time>2021-12-19T08:38:37Z</time>
      </trkpt>
      <trkpt lat="46.75515" lon="-0.9598">
        <ele>144</ele>
        <time>2021-12-19T08:38:38Z</time>
      </trkpt>
      <trkpt lat="46.75507" lon="-0.95968">
        <ele>144</ele>
        <time>2021-12-19T08:38:40Z</time>
      </trkpt>
      <trkpt lat="46.75502" lon="-0.95964">
        <ele>144</ele>
        <time>2021-12-19T08:38:41Z</time>
      </trkpt>
      <trkpt lat="46.75496" lon="-0.9596">
        <ele>144</ele>
        <time>2021-12-19T08:38:42Z</time>
      </trkpt>
      <trkpt lat="46.75485" lon="-0.95953">
        <ele>144</ele>
        <time>2021-12-19T08:38:44Z</time>
      </trkpt>
      <trkpt lat="46.7548" lon="-0.95948">
        <ele>143</ele>
        <time>2021-12-19T08:38:45Z</time>
      </trkpt>
      <trkpt lat="46.75468" lon="-0.95939">
        <ele>142</ele>
        <time>2021-12-19T08:38:47Z</time>
      </trkpt>
      <trkpt lat="46.75457" lon="-0.95928">
        <ele>142</ele>
        <time>2021-12-19T08:38:49Z</time>
      </trkpt>
      <trkpt lat="46.75446" lon="-0.95918">
        <ele>141</ele>
        <time>2021-12-19T08:38:51Z</time>
      </trkpt>
      <trkpt lat="46.75434" lon="-0.95909">
        <ele>141</ele>
        <time>2021-12-19T08:38:53Z</time>
      </trkpt>
      <trkpt lat="46.75427" lon="-0.95904">
        <ele>141</ele>
        <time>2021-12-19T08:38:54Z</time>
      </trkpt>
      <trkpt lat="46.75414" lon="-0.95895">
        <ele>140</ele>
        <time>2021-12-19T08:38:56Z</time>
      </trkpt>
      <trkpt lat="46.75403" lon="-0.95883">
        <ele>140</ele>
        <time>2021-12-19T08:38:58Z</time>
      </trkpt>
      <trkpt lat="46.75391" lon="-0.95871">
        <ele>138</ele>
        <time>2021-12-19T08:39:00Z</time>
      </trkpt>
      <trkpt lat="46.75381" lon="-0.95858">
        <ele>138</ele>
        <time>2021-12-19T08:39:02Z</time>
      </trkpt>
      <trkpt lat="46.75375" lon="-0.95851">
        <ele>138</ele>
        <time>2021-12-19T08:39:03Z</time>
      </trkpt>
      <trkpt lat="46.7537" lon="-0.95844">
        <ele>137</ele>
        <time>2021-12-19T08:39:04Z</time>
      </trkpt>
      <trkpt lat="46.7536" lon="-0.95829">
        <ele>137</ele>
        <time>2021-12-19T08:39:06Z</time>
      </trkpt>
      <trkpt lat="46.75347" lon="-0.95817">
        <ele>136</ele>
        <time>2021-12-19T08:39:08Z</time>
      </trkpt>
      <trkpt lat="46.7534" lon="-0.95812">
        <ele>136</ele>
        <time>2021-12-19T08:39:09Z</time>
      </trkpt>
      <trkpt lat="46.75335" lon="-0.95807">
        <ele>136</ele>
        <time>2021-12-19T08:39:10Z</time>
      </trkpt>
      <trkpt lat="46.75328" lon="-0.95792">
        <ele>135</ele>
        <time>2021-12-19T08:39:12Z</time>
      </trkpt>
      <trkpt lat="46.75326" lon="-0.95781">
        <ele>136</ele>
        <time>2021-12-19T08:39:13Z</time>
      </trkpt>
      <trkpt lat="46.75321" lon="-0.95759">
        <ele>135</ele>
        <time>2021-12-19T08:39:15Z</time>
      </trkpt>
      <trkpt lat="46.75317" lon="-0.95748">
        <ele>134</ele>
        <time>2021-12-19T08:39:16Z</time>
      </trkpt>
      <trkpt lat="46.75308" lon="-0.95726">
        <ele>133</ele>
        <time>2021-12-19T08:39:18Z</time>
      </trkpt>
      <trkpt lat="46.75303" lon="-0.95714">
        <ele>132</ele>
        <time>2021-12-19T08:39:19Z</time>
      </trkpt>
      <trkpt lat="46.75292" lon="-0.9569">
        <ele>131</ele>
        <time>2021-12-19T08:39:21Z</time>
      </trkpt>
      <trkpt lat="46.75286" lon="-0.95678">
        <ele>131</ele>
        <time>2021-12-19T08:39:22Z</time>
      </trkpt>
      <trkpt lat="46.75281" lon="-0.95667">
        <ele>130</ele>
        <time>2021-12-19T08:39:23Z</time>
      </trkpt>
      <trkpt lat="46.75275" lon="-0.95657">
        <ele>130</ele>
        <time>2021-12-19T08:39:24Z</time>
      </trkpt>
      <trkpt lat="46.75263" lon="-0.95637">
        <ele>129</ele>
        <time>2021-12-19T08:39:26Z</time>
      </trkpt>
      <trkpt lat="46.75257" lon="-0.95627">
        <ele>128</ele>
        <time>2021-12-19T08:39:27Z</time>
      </trkpt>
      <trkpt lat="46.7525" lon="-0.95617">
        <ele>128</ele>
        <time>2021-12-19T08:39:28Z</time>
      </trkpt>
      <trkpt lat="46.75235" lon="-0.95599">
        <ele>127</ele>
        <time>2021-12-19T08:39:30Z</time>
      </trkpt>
      <trkpt lat="46.75227" lon="-0.95591">
        <ele>126</ele>
        <time>2021-12-19T08:39:31Z</time>
      </trkpt>
      <trkpt lat="46.7521" lon="-0.95576">
        <ele>125</ele>
        <time>2021-12-19T08:39:33Z</time>
      </trkpt>
      <trkpt lat="46.75192" lon="-0.95562">
        <ele>124</ele>
        <time>2021-12-19T08:39:35Z</time>
      </trkpt>
      <trkpt lat="46.75183" lon="-0.95556">
        <ele>124</ele>
        <time>2021-12-19T08:39:36Z</time>
      </trkpt>
      <trkpt lat="46.75174" lon="-0.95548">
        <ele>123</ele>
        <time>2021-12-19T08:39:37Z</time>
      </trkpt>
      <trkpt lat="46.75165" lon="-0.9554">
        <ele>123</ele>
        <time>2021-12-19T08:39:38Z</time>
      </trkpt>
      <trkpt lat="46.75149" lon="-0.95522">
        <ele>122</ele>
        <time>2021-12-19T08:39:40Z</time>
      </trkpt>
      <trkpt lat="46.75133" lon="-0.95501">
        <ele>121</ele>
        <time>2021-12-19T08:39:42Z</time>
      </trkpt>
      <trkpt lat="46.75119" lon="-0.95479">
        <ele>121</ele>
        <time>2021-12-19T08:39:44Z</time>
      </trkpt>
      <trkpt lat="46.75112" lon="-0.95468">
        <ele>121</ele>
        <time>2021-12-19T08:39:45Z</time>
      </trkpt>
      <trkpt lat="46.75099" lon="-0.95444">
        <ele>120</ele>
        <time>2021-12-19T08:39:47Z</time>
      </trkpt>
      <trkpt lat="46.75094" lon="-0.95431">
        <ele>119</ele>
        <time>2021-12-19T08:39:48Z</time>
      </trkpt>
      <trkpt lat="46.75086" lon="-0.95403">
        <ele>118</ele>
        <time>2021-12-19T08:39:50Z</time>
      </trkpt>
      <trkpt lat="46.75082" lon="-0.95372">
        <ele>117</ele>
        <time>2021-12-19T08:39:52Z</time>
      </trkpt>
      <trkpt lat="46.75079" lon="-0.95339">
        <ele>115</ele>
        <time>2021-12-19T08:39:54Z</time>
      </trkpt>
      <trkpt lat="46.75074" lon="-0.95307">
        <ele>114</ele>
        <time>2021-12-19T08:39:56Z</time>
      </trkpt>
      <trkpt lat="46.75068" lon="-0.95275">
        <ele>112</ele>
        <time>2021-12-19T08:39:58Z</time>
      </trkpt>
      <trkpt lat="46.75059" lon="-0.95243">
        <ele>111</ele>
        <time>2021-12-19T08:40:00Z</time>
      </trkpt>
      <trkpt lat="46.75053" lon="-0.95228">
        <ele>110</ele>
        <time>2021-12-19T08:40:01Z</time>
      </trkpt>
      <trkpt lat="46.75047" lon="-0.95214">
        <ele>110</ele>
        <time>2021-12-19T08:40:02Z</time>
      </trkpt>
      <trkpt lat="46.75032" lon="-0.95189">
        <ele>109</ele>
        <time>2021-12-19T08:40:04Z</time>
      </trkpt>
      <trkpt lat="46.75015" lon="-0.9517">
        <ele>109</ele>
        <time>2021-12-19T08:40:06Z</time>
      </trkpt>
      <trkpt lat="46.75006" lon="-0.95162">
        <ele>109</ele>
        <time>2021-12-19T08:40:07Z</time>
      </trkpt>
      <trkpt lat="46.74997" lon="-0.95155">
        <ele>109</ele>
        <time>2021-12-19T08:40:08Z</time>
      </trkpt>
      <trkpt lat="46.74988" lon="-0.95149">
        <ele>109</ele>
        <time>2021-12-19T08:40:09Z</time>
      </trkpt>
      <trkpt lat="46.74971" lon="-0.9514">
        <ele>109</ele>
        <time>2021-12-19T08:40:11Z</time>
      </trkpt>
      <trkpt lat="46.74955" lon="-0.95134">
        <ele>109</ele>
        <time>2021-12-19T08:40:13Z</time>
      </trkpt>
      <trkpt lat="46.74947" lon="-0.95133">
        <ele>109</ele>
        <time>2021-12-19T08:40:14Z</time>
      </trkpt>
      <trkpt lat="46.74932" lon="-0.95133">
        <ele>110</ele>
        <time>2021-12-19T08:40:16Z</time>
      </trkpt>
      <trkpt lat="46.74919" lon="-0.95137">
        <ele>111</ele>
        <time>2021-12-19T08:40:18Z</time>
      </trkpt>
      <trkpt lat="46.74913" lon="-0.95139">
        <ele>112</ele>
        <time>2021-12-19T08:40:19Z</time>
      </trkpt>
      <trkpt lat="46.74901" lon="-0.95146">
        <ele>113</ele>
        <time>2021-12-19T08:40:21Z</time>
      </trkpt>
      <trkpt lat="46.74896" lon="-0.95148">
        <ele>113</ele>
        <time>2021-12-19T08:40:22Z</time>
      </trkpt>
      <trkpt lat="46.74885" lon="-0.95153">
        <ele>114</ele>
        <time>2021-12-19T08:40:24Z</time>
      </trkpt>
      <trkpt lat="46.74879" lon="-0.95155">
        <ele>115</ele>
        <time>2021-12-19T08:40:25Z</time>
      </trkpt>
      <trkpt lat="46.74868" lon="-0.95158">
        <ele>115</ele>
        <time>2021-12-19T08:40:27Z</time>
      </trkpt>
      <trkpt lat="46.74862" lon="-0.95158">
        <ele>116</ele>
        <time>2021-12-19T08:40:28Z</time>
      </trkpt>
      <trkpt lat="46.74857" lon="-0.95158">
        <ele>116</ele>
        <time>2021-12-19T08:40:29Z</time>
      </trkpt>
      <trkpt lat="46.74847" lon="-0.95156">
        <ele>117</ele>
        <time>2021-12-19T08:40:31Z</time>
      </trkpt>
      <trkpt lat="46.74842" lon="-0.95154">
        <ele>117</ele>
        <time>2021-12-19T08:40:32Z</time>
      </trkpt>
      <trkpt lat="46.74831" lon="-0.9515">
        <ele>117</ele>
        <time>2021-12-19T08:40:34Z</time>
      </trkpt>
      <trkpt lat="46.74825" lon="-0.95148">
        <ele>117</ele>
        <time>2021-12-19T08:40:35Z</time>
      </trkpt>
      <trkpt lat="46.7482" lon="-0.95148">
        <ele>118</ele>
        <time>2021-12-19T08:40:36Z</time>
      </trkpt>
      <trkpt lat="46.74808" lon="-0.95151">
        <ele>118</ele>
        <time>2021-12-19T08:40:38Z</time>
      </trkpt>
      <trkpt lat="46.74797" lon="-0.95157">
        <ele>119</ele>
        <time>2021-12-19T08:40:40Z</time>
      </trkpt>
      <trkpt lat="46.74792" lon="-0.95161">
        <ele>119</ele>
        <time>2021-12-19T08:40:41Z</time>
      </trkpt>
      <trkpt lat="46.74781" lon="-0.95169">
        <ele>119</ele>
        <time>2021-12-19T08:40:43Z</time>
      </trkpt>
      <trkpt lat="46.74771" lon="-0.95176">
        <ele>120</ele>
        <time>2021-12-19T08:40:45Z</time>
      </trkpt>
      <trkpt lat="46.74766" lon="-0.95178">
        <ele>120</ele>
        <time>2021-12-19T08:40:46Z</time>
      </trkpt>
      <trkpt lat="46.7476" lon="-0.95179">
        <ele>120</ele>
        <time>2021-12-19T08:40:47Z</time>
      </trkpt>
      <trkpt lat="46.74749" lon="-0.9518">
        <ele>121</ele>
        <time>2021-12-19T08:40:49Z</time>
      </trkpt>
      <trkpt lat="46.74743" lon="-0.95178">
        <ele>121</ele>
        <time>2021-12-19T08:40:50Z</time>
      </trkpt>
      <trkpt lat="46.74737" lon="-0.95175">
        <ele>121</ele>
        <time>2021-12-19T08:40:51Z</time>
      </trkpt>
      <trkpt lat="46.74727" lon="-0.95166">
        <ele>122</ele>
        <time>2021-12-19T08:40:53Z</time>
      </trkpt>
      <trkpt lat="46.74722" lon="-0.9516">
        <ele>122</ele>
        <time>2021-12-19T08:40:54Z</time>
      </trkpt>
      <trkpt lat="46.74718" lon="-0.95155">
        <ele>122</ele>
        <time>2021-12-19T08:40:55Z</time>
      </trkpt>
      <trkpt lat="46.7471" lon="-0.95144">
        <ele>122</ele>
        <time>2021-12-19T08:40:57Z</time>
      </trkpt>
      <trkpt lat="46.74702" lon="-0.95133">
        <ele>122</ele>
        <time>2021-12-19T08:40:59Z</time>
      </trkpt>
      <trkpt lat="46.74693" lon="-0.95123">
        <ele>123</ele>
        <time>2021-12-19T08:41:01Z</time>
      </trkpt>
      <trkpt lat="46.74685" lon="-0.95113">
        <ele>123</ele>
        <time>2021-12-19T08:41:03Z</time>
      </trkpt>
      <trkpt lat="46.7468" lon="-0.95109">
        <ele>124</ele>
        <time>2021-12-19T08:41:04Z</time>
      </trkpt>
      <trkpt lat="46.7467" lon="-0.95102">
        <ele>125</ele>
        <time>2021-12-19T08:41:06Z</time>
      </trkpt>
      <trkpt lat="46.74659" lon="-0.95096">
        <ele>125</ele>
        <time>2021-12-19T08:41:08Z</time>
      </trkpt>
      <trkpt lat="46.74648" lon="-0.95094">
        <ele>126</ele>
        <time>2021-12-19T08:41:10Z</time>
      </trkpt>
      <trkpt lat="46.74636" lon="-0.95091">
        <ele>127</ele>
        <time>2021-12-19T08:41:12Z</time>
      </trkpt>
      <trkpt lat="46.7463" lon="-0.95089">
        <ele>128</ele>
        <time>2021-12-19T08:41:13Z</time>
      </trkpt>
      <trkpt lat="46.74624" lon="-0.95087">
        <ele>128</ele>
        <time>2021-12-19T08:41:14Z</time>
      </trkpt>
      <trkpt lat="46.74619" lon="-0.95087">
        <ele>129</ele>
        <time>2021-12-19T08:41:15Z</time>
      </trkpt>
      <trkpt lat="46.74607" lon="-0.95085">
        <ele>129</ele>
        <time>2021-12-19T08:41:17Z</time>
      </trkpt>
      <trkpt lat="46.74597" lon="-0.95082">
        <ele>129</ele>
        <time>2021-12-19T08:41:19Z</time>
      </trkpt>
      <trkpt lat="46.74592" lon="-0.9508">
        <ele>130</ele>
        <time>2021-12-19T08:41:20Z</time>
      </trkpt>
      <trkpt lat="46.74583" lon="-0.95075">
        <ele>130</ele>
        <time>2021-12-19T08:41:22Z</time>
      </trkpt>
      <trkpt lat="46.74579" lon="-0.95072">
        <ele>130</ele>
        <time>2021-12-19T08:41:23Z</time>
      </trkpt>
      <trkpt lat="46.74575" lon="-0.95068">
        <ele>130</ele>
        <time>2021-12-19T08:41:24Z</time>
      </trkpt>
      <trkpt lat="46.74567" lon="-0.95061">
        <ele>131</ele>
        <time>2021-12-19T08:41:26Z</time>
      </trkpt>
      <trkpt lat="46.74558" lon="-0.95054">
        <ele>132</ele>
        <time>2021-12-19T08:41:28Z</time>
      </trkpt>
      <trkpt lat="46.74554" lon="-0.9505">
        <ele>132</ele>
        <time>2021-12-19T08:41:29Z</time>
      </trkpt>
      <trkpt lat="46.74547" lon="-0.95041">
        <ele>133</ele>
        <time>2021-12-19T08:41:31Z</time>
      </trkpt>
      <trkpt lat="46.74544" lon="-0.95036">
        <ele>133</ele>
        <time>2021-12-19T08:41:32Z</time>
      </trkpt>
      <trkpt lat="46.74541" lon="-0.9503">
        <ele>133</ele>
        <time>2021-12-19T08:41:33Z</time>
      </trkpt>
      <trkpt lat="46.74534" lon="-0.95021">
        <ele>134</ele>
        <time>2021-12-19T08:41:35Z</time>
      </trkpt>
      <trkpt lat="46.74528" lon="-0.95012">
        <ele>135</ele>
        <time>2021-12-19T08:41:37Z</time>
      </trkpt>
      <trkpt lat="46.74525" lon="-0.95006">
        <ele>135</ele>
        <time>2021-12-19T08:41:38Z</time>
      </trkpt>
      <trkpt lat="46.74523" lon="-0.95001">
        <ele>135</ele>
        <time>2021-12-19T08:41:39Z</time>
      </trkpt>
      <trkpt lat="46.74517" lon="-0.94991">
        <ele>135</ele>
        <time>2021-12-19T08:41:41Z</time>
      </trkpt>
      <trkpt lat="46.74513" lon="-0.94982">
        <ele>136</ele>
        <time>2021-12-19T08:41:43Z</time>
      </trkpt>
      <trkpt lat="46.74511" lon="-0.94977">
        <ele>136</ele>
        <time>2021-12-19T08:41:44Z</time>
      </trkpt>
      <trkpt lat="46.74508" lon="-0.94967">
        <ele>136</ele>
        <time>2021-12-19T08:41:46Z</time>
      </trkpt>
      <trkpt lat="46.74505" lon="-0.94958">
        <ele>136</ele>
        <time>2021-12-19T08:41:48Z</time>
      </trkpt>
      <trkpt lat="46.74501" lon="-0.94951">
        <ele>137</ele>
        <time>2021-12-19T08:41:50Z</time>
      </trkpt>
      <trkpt lat="46.74497" lon="-0.9495">
        <ele>137</ele>
        <time>2021-12-19T08:41:51Z</time>
      </trkpt>
      <trkpt lat="46.74493" lon="-0.94951">
        <ele>138</ele>
        <time>2021-12-19T08:41:52Z</time>
      </trkpt>
      <trkpt lat="46.74484" lon="-0.94954">
        <ele>139</ele>
        <time>2021-12-19T08:41:54Z</time>
      </trkpt>
      <trkpt lat="46.74479" lon="-0.94952">
        <ele>139</ele>
        <time>2021-12-19T08:41:55Z</time>
      </trkpt>
      <trkpt lat="46.74474" lon="-0.9494">
        <ele>140</ele>
        <time>2021-12-19T08:41:57Z</time>
      </trkpt>
      <trkpt lat="46.74472" lon="-0.94933">
        <ele>140</ele>
        <time>2021-12-19T08:41:58Z</time>
      </trkpt>
      <trkpt lat="46.74468" lon="-0.94921">
        <ele>139</ele>
        <time>2021-12-19T08:42:00Z</time>
      </trkpt>
      <trkpt lat="46.74461" lon="-0.94911">
        <ele>139</ele>
        <time>2021-12-19T08:42:02Z</time>
      </trkpt>
      <trkpt lat="46.74453" lon="-0.94903">
        <ele>141</ele>
        <time>2021-12-19T08:42:04Z</time>
      </trkpt>
      <trkpt lat="46.7445" lon="-0.94901">
        <ele>142</ele>
        <time>2021-12-19T08:42:05Z</time>
      </trkpt>
      <trkpt lat="46.7444" lon="-0.94898">
        <ele>143</ele>
        <time>2021-12-19T08:42:07Z</time>
      </trkpt>
      <trkpt lat="46.74434" lon="-0.94899">
        <ele>143</ele>
        <time>2021-12-19T08:42:08Z</time>
      </trkpt>
      <trkpt lat="46.74422" lon="-0.94906">
        <ele>143</ele>
        <time>2021-12-19T08:42:10Z</time>
      </trkpt>
      <trkpt lat="46.74417" lon="-0.94909">
        <ele>143</ele>
        <time>2021-12-19T08:42:11Z</time>
      </trkpt>
      <trkpt lat="46.74411" lon="-0.94912">
        <ele>143</ele>
        <time>2021-12-19T08:42:12Z</time>
      </trkpt>
      <trkpt lat="46.74405" lon="-0.94914">
        <ele>143</ele>
        <time>2021-12-19T08:42:13Z</time>
      </trkpt>
      <trkpt lat="46.74394" lon="-0.94918">
        <ele>144</ele>
        <time>2021-12-19T08:42:15Z</time>
      </trkpt>
      <trkpt lat="46.74382" lon="-0.94919">
        <ele>144</ele>
        <time>2021-12-19T08:42:17Z</time>
      </trkpt>
      <trkpt lat="46.74371" lon="-0.94918">
        <ele>144</ele>
        <time>2021-12-19T08:42:19Z</time>
      </trkpt>
      <trkpt lat="46.74359" lon="-0.94918">
        <ele>145</ele>
        <time>2021-12-19T08:42:21Z</time>
      </trkpt>
      <trkpt lat="46.74349" lon="-0.94916">
        <ele>145</ele>
        <time>2021-12-19T08:42:23Z</time>
      </trkpt>
      <trkpt lat="46.74344" lon="-0.94916">
        <ele>145</ele>
        <time>2021-12-19T08:42:24Z</time>
      </trkpt>
      <trkpt lat="46.74334" lon="-0.94914">
        <ele>145</ele>
        <time>2021-12-19T08:42:26Z</time>
      </trkpt>
      <trkpt lat="46.74324" lon="-0.94914">
        <ele>146</ele>
        <time>2021-12-19T08:42:28Z</time>
      </trkpt>
      <trkpt lat="46.74314" lon="-0.94913">
        <ele>147</ele>
        <time>2021-12-19T08:42:30Z</time>
      </trkpt>
      <trkpt lat="46.74309" lon="-0.94912">
        <ele>147</ele>
        <time>2021-12-19T08:42:31Z</time>
      </trkpt>
      <trkpt lat="46.74299" lon="-0.9491">
        <ele>147</ele>
        <time>2021-12-19T08:42:33Z</time>
      </trkpt>
      <trkpt lat="46.74289" lon="-0.94911">
        <ele>148</ele>
        <time>2021-12-19T08:42:35Z</time>
      </trkpt>
      <trkpt lat="46.74278" lon="-0.9491">
        <ele>148</ele>
        <time>2021-12-19T08:42:37Z</time>
      </trkpt>
      <trkpt lat="46.74268" lon="-0.94908">
        <ele>148</ele>
        <time>2021-12-19T08:42:39Z</time>
      </trkpt>
      <trkpt lat="46.74256" lon="-0.94905">
        <ele>148</ele>
        <time>2021-12-19T08:42:41Z</time>
      </trkpt>
      <trkpt lat="46.74251" lon="-0.94904">
        <ele>149</ele>
        <time>2021-12-19T08:42:42Z</time>
      </trkpt>
      <trkpt lat="46.74245" lon="-0.94902">
        <ele>148</ele>
        <time>2021-12-19T08:42:43Z</time>
      </trkpt>
      <trkpt lat="46.74234" lon="-0.949">
        <ele>148</ele>
        <time>2021-12-19T08:42:45Z</time>
      </trkpt>
      <trkpt lat="46.74229" lon="-0.94898">
        <ele>148</ele>
        <time>2021-12-19T08:42:46Z</time>
      </trkpt>
      <trkpt lat="46.74218" lon="-0.94895">
        <ele>148</ele>
        <time>2021-12-19T08:42:48Z</time>
      </trkpt>
      <trkpt lat="46.74206" lon="-0.94892">
        <ele>148</ele>
        <time>2021-12-19T08:42:50Z</time>
      </trkpt>
      <trkpt lat="46.74201" lon="-0.9489">
        <ele>148</ele>
        <time>2021-12-19T08:42:51Z</time>
      </trkpt>
      <trkpt lat="46.7419" lon="-0.94886">
        <ele>148</ele>
        <time>2021-12-19T08:42:53Z</time>
      </trkpt>
      <trkpt lat="46.74179" lon="-0.94882">
        <ele>148</ele>
        <time>2021-12-19T08:42:55Z</time>
      </trkpt>
      <trkpt lat="46.74167" lon="-0.94878">
        <ele>149</ele>
        <time>2021-12-19T08:42:57Z</time>
      </trkpt>
      <trkpt lat="46.74156" lon="-0.94871">
        <ele>149</ele>
        <time>2021-12-19T08:42:59Z</time>
      </trkpt>
      <trkpt lat="46.74145" lon="-0.94861">
        <ele>149</ele>
        <time>2021-12-19T08:43:01Z</time>
      </trkpt>
      <trkpt lat="46.7414" lon="-0.94857">
        <ele>149</ele>
        <time>2021-12-19T08:43:02Z</time>
      </trkpt>
      <trkpt lat="46.74131" lon="-0.94846">
        <ele>150</ele>
        <time>2021-12-19T08:43:04Z</time>
      </trkpt>
      <trkpt lat="46.74126" lon="-0.94841">
        <ele>150</ele>
        <time>2021-12-19T08:43:05Z</time>
      </trkpt>
      <trkpt lat="46.74117" lon="-0.9483">
        <ele>150</ele>
        <time>2021-12-19T08:43:07Z</time>
      </trkpt>
      <trkpt lat="46.74108" lon="-0.94818">
        <ele>150</ele>
        <time>2021-12-19T08:43:09Z</time>
      </trkpt>
      <trkpt lat="46.74103" lon="-0.94812">
        <ele>150</ele>
        <time>2021-12-19T08:43:10Z</time>
      </trkpt>
      <trkpt lat="46.74095" lon="-0.94798">
        <ele>151</ele>
        <time>2021-12-19T08:43:12Z</time>
      </trkpt>
      <trkpt lat="46.7409" lon="-0.94791">
        <ele>151</ele>
        <time>2021-12-19T08:43:13Z</time>
      </trkpt>
      <trkpt lat="46.74081" lon="-0.94778">
        <ele>150</ele>
        <time>2021-12-19T08:43:15Z</time>
      </trkpt>
      <trkpt lat="46.74076" lon="-0.94771">
        <ele>150</ele>
        <time>2021-12-19T08:43:16Z</time>
      </trkpt>
      <trkpt lat="46.74067" lon="-0.94756">
        <ele>150</ele>
        <time>2021-12-19T08:43:18Z</time>
      </trkpt>
      <trkpt lat="46.74063" lon="-0.94748">
        <ele>150</ele>
        <time>2021-12-19T08:43:19Z</time>
      </trkpt>
      <trkpt lat="46.74056" lon="-0.94733">
        <ele>151</ele>
        <time>2021-12-19T08:43:21Z</time>
      </trkpt>
      <trkpt lat="46.74048" lon="-0.94718">
        <ele>151</ele>
        <time>2021-12-19T08:43:23Z</time>
      </trkpt>
      <trkpt lat="46.7404" lon="-0.94702">
        <ele>152</ele>
        <time>2021-12-19T08:43:25Z</time>
      </trkpt>
      <trkpt lat="46.74033" lon="-0.94687">
        <ele>152</ele>
        <time>2021-12-19T08:43:27Z</time>
      </trkpt>
      <trkpt lat="46.74025" lon="-0.94672">
        <ele>151</ele>
        <time>2021-12-19T08:43:29Z</time>
      </trkpt>
      <trkpt lat="46.74022" lon="-0.94665">
        <ele>151</ele>
        <time>2021-12-19T08:43:30Z</time>
      </trkpt>
      <trkpt lat="46.74014" lon="-0.9465">
        <ele>152</ele>
        <time>2021-12-19T08:43:32Z</time>
      </trkpt>
      <trkpt lat="46.74007" lon="-0.94636">
        <ele>152</ele>
        <time>2021-12-19T08:43:34Z</time>
      </trkpt>
      <trkpt lat="46.74003" lon="-0.94628">
        <ele>152</ele>
        <time>2021-12-19T08:43:35Z</time>
      </trkpt>
      <trkpt lat="46.73995" lon="-0.94614">
        <ele>152</ele>
        <time>2021-12-19T08:43:37Z</time>
      </trkpt>
      <trkpt lat="46.73992" lon="-0.94606">
        <ele>152</ele>
        <time>2021-12-19T08:43:38Z</time>
      </trkpt>
      <trkpt lat="46.73983" lon="-0.94592">
        <ele>152</ele>
        <time>2021-12-19T08:43:40Z</time>
      </trkpt>
      <trkpt lat="46.73974" lon="-0.94578">
        <ele>152</ele>
        <time>2021-12-19T08:43:42Z</time>
      </trkpt>
      <trkpt lat="46.73965" lon="-0.94565">
        <ele>152</ele>
        <time>2021-12-19T08:43:44Z</time>
      </trkpt>
      <trkpt lat="46.73955" lon="-0.94553">
        <ele>151</ele>
        <time>2021-12-19T08:43:46Z</time>
      </trkpt>
      <trkpt lat="46.73945" lon="-0.94541">
        <ele>151</ele>
        <time>2021-12-19T08:43:48Z</time>
      </trkpt>
      <trkpt lat="46.7394" lon="-0.94535">
        <ele>151</ele>
        <time>2021-12-19T08:43:49Z</time>
      </trkpt>
      <trkpt lat="46.73935" lon="-0.9453">
        <ele>151</ele>
        <time>2021-12-19T08:43:50Z</time>
      </trkpt>
      <trkpt lat="46.73925" lon="-0.94518">
        <ele>151</ele>
        <time>2021-12-19T08:43:52Z</time>
      </trkpt>
      <trkpt lat="46.73921" lon="-0.94512">
        <ele>151</ele>
        <time>2021-12-19T08:43:53Z</time>
      </trkpt>
      <trkpt lat="46.73915" lon="-0.94507">
        <ele>150</ele>
        <time>2021-12-19T08:43:54Z</time>
      </trkpt>
      <trkpt lat="46.7391" lon="-0.94501">
        <ele>150</ele>
        <time>2021-12-19T08:43:55Z</time>
      </trkpt>
      <trkpt lat="46.73905" lon="-0.94495">
        <ele>150</ele>
        <time>2021-12-19T08:43:56Z</time>
      </trkpt>
      <trkpt lat="46.73894" lon="-0.94483">
        <ele>150</ele>
        <time>2021-12-19T08:43:58Z</time>
      </trkpt>
      <trkpt lat="46.73882" lon="-0.94471">
        <ele>150</ele>
        <time>2021-12-19T08:44:00Z</time>
      </trkpt>
      <trkpt lat="46.73876" lon="-0.94465">
        <ele>149</ele>
        <time>2021-12-19T08:44:01Z</time>
      </trkpt>
      <trkpt lat="46.73864" lon="-0.94453">
        <ele>149</ele>
        <time>2021-12-19T08:44:03Z</time>
      </trkpt>
      <trkpt lat="46.73857" lon="-0.94447">
        <ele>148</ele>
        <time>2021-12-19T08:44:04Z</time>
      </trkpt>
      <trkpt lat="46.73843" lon="-0.94435">
        <ele>147</ele>
        <time>2021-12-19T08:44:06Z</time>
      </trkpt>
      <trkpt lat="46.73835" lon="-0.9443">
        <ele>147</ele>
        <time>2021-12-19T08:44:07Z</time>
      </trkpt>
      <trkpt lat="46.73827" lon="-0.94425">
        <ele>147</ele>
        <time>2021-12-19T08:44:08Z</time>
      </trkpt>
      <trkpt lat="46.73809" lon="-0.94416">
        <ele>146</ele>
        <time>2021-12-19T08:44:10Z</time>
      </trkpt>
      <trkpt lat="46.738" lon="-0.94412">
        <ele>145</ele>
        <time>2021-12-19T08:44:11Z</time>
      </trkpt>
      <trkpt lat="46.73781" lon="-0.94405">
        <ele>144</ele>
        <time>2021-12-19T08:44:13Z</time>
      </trkpt>
      <trkpt lat="46.7376" lon="-0.94398">
        <ele>144</ele>
        <time>2021-12-19T08:44:15Z</time>
      </trkpt>
      <trkpt lat="46.73751" lon="-0.94396">
        <ele>144</ele>
        <time>2021-12-19T08:44:16Z</time>
      </trkpt>
      <trkpt lat="46.73695" lon="-0.94382">
        <ele>143</ele>
        <time>2021-12-19T08:44:18Z</time>
      </trkpt>
      <trkpt lat="46.73722" lon="-0.94388">
        <ele>143</ele>
        <time>2021-12-19T08:44:19Z</time>
      </trkpt>
      <trkpt lat="46.73704" lon="-0.94384">
        <ele>142</ele>
        <time>2021-12-19T08:44:17Z</time>
      </trkpt>
      <trkpt lat="46.73679" lon="-0.94378">
        <ele>142</ele>
        <time>2021-12-19T08:44:20Z</time>
      </trkpt>
      <trkpt lat="46.73663" lon="-0.94374">
        <ele>143</ele>
        <time>2021-12-19T08:44:22Z</time>
      </trkpt>
      <trkpt lat="46.73649" lon="-0.94371">
        <ele>142</ele>
        <time>2021-12-19T08:44:24Z</time>
      </trkpt>
      <trkpt lat="46.73634" lon="-0.94374">
        <ele>141</ele>
        <time>2021-12-19T08:44:26Z</time>
      </trkpt>
      <trkpt lat="46.73618" lon="-0.94383">
        <ele>140</ele>
        <time>2021-12-19T08:44:28Z</time>
      </trkpt>
      <trkpt lat="46.736" lon="-0.94385">
        <ele>140</ele>
        <time>2021-12-19T08:44:30Z</time>
      </trkpt>
      <trkpt lat="46.73583" lon="-0.94387">
        <ele>140</ele>
        <time>2021-12-19T08:44:32Z</time>
      </trkpt>
      <trkpt lat="46.73574" lon="-0.94389">
        <ele>140</ele>
        <time>2021-12-19T08:44:33Z</time>
      </trkpt>
      <trkpt lat="46.73558" lon="-0.94391">
        <ele>139</ele>
        <time>2021-12-19T08:44:35Z</time>
      </trkpt>
      <trkpt lat="46.73541" lon="-0.94394">
        <ele>138</ele>
        <time>2021-12-19T08:44:37Z</time>
      </trkpt>
      <trkpt lat="46.73532" lon="-0.94395">
        <ele>138</ele>
        <time>2021-12-19T08:44:38Z</time>
      </trkpt>
      <trkpt lat="46.73513" lon="-0.94398">
        <ele>137</ele>
        <time>2021-12-19T08:44:40Z</time>
      </trkpt>
      <trkpt lat="46.73494" lon="-0.94401">
        <ele>136</ele>
        <time>2021-12-19T08:44:42Z</time>
      </trkpt>
      <trkpt lat="46.73484" lon="-0.94403">
        <ele>136</ele>
        <time>2021-12-19T08:44:43Z</time>
      </trkpt>
      <trkpt lat="46.73463" lon="-0.94405">
        <ele>136</ele>
        <time>2021-12-19T08:44:45Z</time>
      </trkpt>
      <trkpt lat="46.73453" lon="-0.94407">
        <ele>136</ele>
        <time>2021-12-19T08:44:46Z</time>
      </trkpt>
      <trkpt lat="46.73433" lon="-0.94411">
        <ele>136</ele>
        <time>2021-12-19T08:44:48Z</time>
      </trkpt>
      <trkpt lat="46.73414" lon="-0.94417">
        <ele>136</ele>
        <time>2021-12-19T08:44:50Z</time>
      </trkpt>
      <trkpt lat="46.73405" lon="-0.9442">
        <ele>136</ele>
        <time>2021-12-19T08:44:51Z</time>
      </trkpt>
      <trkpt lat="46.73396" lon="-0.94423">
        <ele>136</ele>
        <time>2021-12-19T08:44:52Z</time>
      </trkpt>
      <trkpt lat="46.73379" lon="-0.94429">
        <ele>136</ele>
        <time>2021-12-19T08:44:54Z</time>
      </trkpt>
      <trkpt lat="46.73371" lon="-0.94432">
        <ele>136</ele>
        <time>2021-12-19T08:44:55Z</time>
      </trkpt>
      <trkpt lat="46.73354" lon="-0.94438">
        <ele>135</ele>
        <time>2021-12-19T08:44:57Z</time>
      </trkpt>
      <trkpt lat="46.73339" lon="-0.94444">
        <ele>135</ele>
        <time>2021-12-19T08:44:59Z</time>
      </trkpt>
      <trkpt lat="46.73325" lon="-0.9445">
        <ele>137</ele>
        <time>2021-12-19T08:45:01Z</time>
      </trkpt>
      <trkpt lat="46.73318" lon="-0.94452">
        <ele>137</ele>
        <time>2021-12-19T08:45:02Z</time>
      </trkpt>
      <trkpt lat="46.73304" lon="-0.94457">
        <ele>138</ele>
        <time>2021-12-19T08:45:04Z</time>
      </trkpt>
      <trkpt lat="46.7329" lon="-0.94462">
        <ele>138</ele>
        <time>2021-12-19T08:45:06Z</time>
      </trkpt>
      <trkpt lat="46.73276" lon="-0.94468">
        <ele>139</ele>
        <time>2021-12-19T08:45:08Z</time>
      </trkpt>
      <trkpt lat="46.73261" lon="-0.94473">
        <ele>139</ele>
        <time>2021-12-19T08:45:10Z</time>
      </trkpt>
      <trkpt lat="46.73254" lon="-0.94476">
        <ele>139</ele>
        <time>2021-12-19T08:45:11Z</time>
      </trkpt>
      <trkpt lat="46.73247" lon="-0.94478">
        <ele>140</ele>
        <time>2021-12-19T08:45:12Z</time>
      </trkpt>
      <trkpt lat="46.73233" lon="-0.94483">
        <ele>140</ele>
        <time>2021-12-19T08:45:14Z</time>
      </trkpt>
      <trkpt lat="46.73226" lon="-0.94485">
        <ele>140</ele>
        <time>2021-12-19T08:45:15Z</time>
      </trkpt>
      <trkpt lat="46.73212" lon="-0.94491">
        <ele>140</ele>
        <time>2021-12-19T08:45:17Z</time>
      </trkpt>
      <trkpt lat="46.73205" lon="-0.94493">
        <ele>140</ele>
        <time>2021-12-19T08:45:18Z</time>
      </trkpt>
      <trkpt lat="46.73191" lon="-0.94497">
        <ele>140</ele>
        <time>2021-12-19T08:45:20Z</time>
      </trkpt>
      <trkpt lat="46.73184" lon="-0.94498">
        <ele>140</ele>
        <time>2021-12-19T08:45:21Z</time>
      </trkpt>
      <trkpt lat="46.7317" lon="-0.945">
        <ele>140</ele>
        <time>2021-12-19T08:45:23Z</time>
      </trkpt>
      <trkpt lat="46.73163" lon="-0.94501">
        <ele>140</ele>
        <time>2021-12-19T08:45:24Z</time>
      </trkpt>
      <trkpt lat="46.73149" lon="-0.94502">
        <ele>140</ele>
        <time>2021-12-19T08:45:26Z</time>
      </trkpt>
      <trkpt lat="46.73134" lon="-0.94503">
        <ele>140</ele>
        <time>2021-12-19T08:45:28Z</time>
      </trkpt>
      <trkpt lat="46.73118" lon="-0.94503">
        <ele>140</ele>
        <time>2021-12-19T08:45:30Z</time>
      </trkpt>
      <trkpt lat="46.73101" lon="-0.94502">
        <ele>141</ele>
        <time>2021-12-19T08:45:32Z</time>
      </trkpt>
      <trkpt lat="46.73093" lon="-0.94503">
        <ele>140</ele>
        <time>2021-12-19T08:45:33Z</time>
      </trkpt>
      <trkpt lat="46.73085" lon="-0.94504">
        <ele>140</ele>
        <time>2021-12-19T08:45:34Z</time>
      </trkpt>
      <trkpt lat="46.73068" lon="-0.94506">
        <ele>140</ele>
        <time>2021-12-19T08:45:36Z</time>
      </trkpt>
      <trkpt lat="46.73051" lon="-0.94507">
        <ele>140</ele>
        <time>2021-12-19T08:45:38Z</time>
      </trkpt>
      <trkpt lat="46.73043" lon="-0.94507">
        <ele>140</ele>
        <time>2021-12-19T08:45:39Z</time>
      </trkpt>
      <trkpt lat="46.73026" lon="-0.94508">
        <ele>140</ele>
        <time>2021-12-19T08:45:41Z</time>
      </trkpt>
      <trkpt lat="46.73009" lon="-0.94509">
        <ele>140</ele>
        <time>2021-12-19T08:45:43Z</time>
      </trkpt>
      <trkpt lat="46.73001" lon="-0.9451">
        <ele>140</ele>
        <time>2021-12-19T08:45:44Z</time>
      </trkpt>
      <trkpt lat="46.72993" lon="-0.9451">
        <ele>140</ele>
        <time>2021-12-19T08:45:45Z</time>
      </trkpt>
      <trkpt lat="46.72985" lon="-0.94511">
        <ele>140</ele>
        <time>2021-12-19T08:45:46Z</time>
      </trkpt>
      <trkpt lat="46.72968" lon="-0.94512">
        <ele>140</ele>
        <time>2021-12-19T08:45:48Z</time>
      </trkpt>
      <trkpt lat="46.72952" lon="-0.94513">
        <ele>139</ele>
        <time>2021-12-19T08:45:50Z</time>
      </trkpt>
      <trkpt lat="46.72935" lon="-0.94515">
        <ele>139</ele>
        <time>2021-12-19T08:45:52Z</time>
      </trkpt>
      <trkpt lat="46.72918" lon="-0.94517">
        <ele>139</ele>
        <time>2021-12-19T08:45:54Z</time>
      </trkpt>
      <trkpt lat="46.72902" lon="-0.94519">
        <ele>138</ele>
        <time>2021-12-19T08:45:56Z</time>
      </trkpt>
      <trkpt lat="46.72886" lon="-0.94523">
        <ele>138</ele>
        <time>2021-12-19T08:45:58Z</time>
      </trkpt>
      <trkpt lat="46.72871" lon="-0.94527">
        <ele>138</ele>
        <time>2021-12-19T08:46:00Z</time>
      </trkpt>
      <trkpt lat="46.72855" lon="-0.94531">
        <ele>139</ele>
        <time>2021-12-19T08:46:02Z</time>
      </trkpt>
      <trkpt lat="46.72847" lon="-0.94533">
        <ele>139</ele>
        <time>2021-12-19T08:46:03Z</time>
      </trkpt>
      <trkpt lat="46.72831" lon="-0.94535">
        <ele>140</ele>
        <time>2021-12-19T08:46:05Z</time>
      </trkpt>
      <trkpt lat="46.72815" lon="-0.94537">
        <ele>140</ele>
        <time>2021-12-19T08:46:07Z</time>
      </trkpt>
      <trkpt lat="46.72799" lon="-0.94538">
        <ele>140</ele>
        <time>2021-12-19T08:46:09Z</time>
      </trkpt>
      <trkpt lat="46.72791" lon="-0.94539">
        <ele>140</ele>
        <time>2021-12-19T08:46:10Z</time>
      </trkpt>
      <trkpt lat="46.72775" lon="-0.94542">
        <ele>140</ele>
        <time>2021-12-19T08:46:12Z</time>
      </trkpt>
      <trkpt lat="46.72767" lon="-0.94544">
        <ele>140</ele>
        <time>2021-12-19T08:46:13Z</time>
      </trkpt>
      <trkpt lat="46.72752" lon="-0.9455">
        <ele>140</ele>
        <time>2021-12-19T08:46:15Z</time>
      </trkpt>
      <trkpt lat="46.72737" lon="-0.94558">
        <ele>140</ele>
        <time>2021-12-19T08:46:17Z</time>
      </trkpt>
      <trkpt lat="46.72729" lon="-0.94563">
        <ele>140</ele>
        <time>2021-12-19T08:46:18Z</time>
      </trkpt>
      <trkpt lat="46.72713" lon="-0.94574">
        <ele>140</ele>
        <time>2021-12-19T08:46:20Z</time>
      </trkpt>
      <trkpt lat="46.72705" lon="-0.9458">
        <ele>140</ele>
        <time>2021-12-19T08:46:21Z</time>
      </trkpt>
      <trkpt lat="46.72689" lon="-0.94591">
        <ele>139</ele>
        <time>2021-12-19T08:46:23Z</time>
      </trkpt>
      <trkpt lat="46.72673" lon="-0.94604">
        <ele>139</ele>
        <time>2021-12-19T08:46:25Z</time>
      </trkpt>
      <trkpt lat="46.72657" lon="-0.94617">
        <ele>139</ele>
        <time>2021-12-19T08:46:27Z</time>
      </trkpt>
      <trkpt lat="46.72649" lon="-0.94623">
        <ele>139</ele>
        <time>2021-12-19T08:46:28Z</time>
      </trkpt>
      <trkpt lat="46.7264" lon="-0.94629">
        <ele>139</ele>
        <time>2021-12-19T08:46:29Z</time>
      </trkpt>
      <trkpt lat="46.72624" lon="-0.9464">
        <ele>139</ele>
        <time>2021-12-19T08:46:31Z</time>
      </trkpt>
      <trkpt lat="46.72608" lon="-0.9465">
        <ele>140</ele>
        <time>2021-12-19T08:46:33Z</time>
      </trkpt>
      <trkpt lat="46.72592" lon="-0.9466">
        <ele>139</ele>
        <time>2021-12-19T08:46:35Z</time>
      </trkpt>
      <trkpt lat="46.72576" lon="-0.94671">
        <ele>139</ele>
        <time>2021-12-19T08:46:37Z</time>
      </trkpt>
      <trkpt lat="46.7256" lon="-0.94681">
        <ele>139</ele>
        <time>2021-12-19T08:46:39Z</time>
      </trkpt>
      <trkpt lat="46.72552" lon="-0.94687">
        <ele>139</ele>
        <time>2021-12-19T08:46:40Z</time>
      </trkpt>
      <trkpt lat="46.72544" lon="-0.94692">
        <ele>139</ele>
        <time>2021-12-19T08:46:41Z</time>
      </trkpt>
      <trkpt lat="46.72536" lon="-0.94697">
        <ele>139</ele>
        <time>2021-12-19T08:46:42Z</time>
      </trkpt>
      <trkpt lat="46.72528" lon="-0.94703">
        <ele>139</ele>
        <time>2021-12-19T08:46:43Z</time>
      </trkpt>
      <trkpt lat="46.72512" lon="-0.94714">
        <ele>139</ele>
        <time>2021-12-19T08:46:45Z</time>
      </trkpt>
      <trkpt lat="46.72504" lon="-0.9472">
        <ele>139</ele>
        <time>2021-12-19T08:46:46Z</time>
      </trkpt>
      <trkpt lat="46.72488" lon="-0.9473">
        <ele>139</ele>
        <time>2021-12-19T08:46:48Z</time>
      </trkpt>
      <trkpt lat="46.72481" lon="-0.94736">
        <ele>139</ele>
        <time>2021-12-19T08:46:49Z</time>
      </trkpt>
      <trkpt lat="46.72466" lon="-0.94746">
        <ele>139</ele>
        <time>2021-12-19T08:46:51Z</time>
      </trkpt>
      <trkpt lat="46.7245" lon="-0.94757">
        <ele>139</ele>
        <time>2021-12-19T08:46:53Z</time>
      </trkpt>
      <trkpt lat="46.72435" lon="-0.94766">
        <ele>139</ele>
        <time>2021-12-19T08:46:55Z</time>
      </trkpt>
      <trkpt lat="46.72419" lon="-0.94776">
        <ele>140</ele>
        <time>2021-12-19T08:46:57Z</time>
      </trkpt>
      <trkpt lat="46.72411" lon="-0.9478">
        <ele>140</ele>
        <time>2021-12-19T08:46:58Z</time>
      </trkpt>
      <trkpt lat="46.72396" lon="-0.94789">
        <ele>140</ele>
        <time>2021-12-19T08:47:00Z</time>
      </trkpt>
      <trkpt lat="46.72388" lon="-0.94793">
        <ele>140</ele>
        <time>2021-12-19T08:47:01Z</time>
      </trkpt>
      <trkpt lat="46.72373" lon="-0.94802">
        <ele>140</ele>
        <time>2021-12-19T08:47:03Z</time>
      </trkpt>
      <trkpt lat="46.72365" lon="-0.94805">
        <ele>140</ele>
        <time>2021-12-19T08:47:04Z</time>
      </trkpt>
      <trkpt lat="46.7235" lon="-0.94812">
        <ele>140</ele>
        <time>2021-12-19T08:47:06Z</time>
      </trkpt>
      <trkpt lat="46.72335" lon="-0.94819">
        <ele>140</ele>
        <time>2021-12-19T08:47:08Z</time>
      </trkpt>
      <trkpt lat="46.72328" lon="-0.94823">
        <ele>140</ele>
        <time>2021-12-19T08:47:09Z</time>
      </trkpt>
      <trkpt lat="46.7232" lon="-0.94826">
        <ele>140</ele>
        <time>2021-12-19T08:47:10Z</time>
      </trkpt>
      <trkpt lat="46.72305" lon="-0.94831">
        <ele>141</ele>
        <time>2021-12-19T08:47:12Z</time>
      </trkpt>
      <trkpt lat="46.72289" lon="-0.94836">
        <ele>140</ele>
        <time>2021-12-19T08:47:14Z</time>
      </trkpt>
      <trkpt lat="46.72272" lon="-0.94841">
        <ele>141</ele>
        <time>2021-12-19T08:47:16Z</time>
      </trkpt>
      <trkpt lat="46.72264" lon="-0.94843">
        <ele>141</ele>
        <time>2021-12-19T08:47:17Z</time>
      </trkpt>
      <trkpt lat="46.72256" lon="-0.94845">
        <ele>141</ele>
        <time>2021-12-19T08:47:18Z</time>
      </trkpt>
      <trkpt lat="46.72239" lon="-0.9485">
        <ele>140</ele>
        <time>2021-12-19T08:47:20Z</time>
      </trkpt>
      <trkpt lat="46.72231" lon="-0.94853">
        <ele>140</ele>
        <time>2021-12-19T08:47:21Z</time>
      </trkpt>
      <trkpt lat="46.72214" lon="-0.94859">
        <ele>140</ele>
        <time>2021-12-19T08:47:23Z</time>
      </trkpt>
      <trkpt lat="46.72198" lon="-0.94866">
        <ele>140</ele>
        <time>2021-12-19T08:47:25Z</time>
      </trkpt>
      <trkpt lat="46.72181" lon="-0.94872">
        <ele>139</ele>
        <time>2021-12-19T08:47:27Z</time>
      </trkpt>
      <trkpt lat="46.72164" lon="-0.94878">
        <ele>139</ele>
        <time>2021-12-19T08:47:29Z</time>
      </trkpt>
      <trkpt lat="46.72155" lon="-0.9488">
        <ele>139</ele>
        <time>2021-12-19T08:47:30Z</time>
      </trkpt>
      <trkpt lat="46.72147" lon="-0.94883">
        <ele>139</ele>
        <time>2021-12-19T08:47:31Z</time>
      </trkpt>
      <trkpt lat="46.72129" lon="-0.94887">
        <ele>138</ele>
        <time>2021-12-19T08:47:33Z</time>
      </trkpt>
      <trkpt lat="46.7212" lon="-0.94889">
        <ele>138</ele>
        <time>2021-12-19T08:47:34Z</time>
      </trkpt>
      <trkpt lat="46.72103" lon="-0.94894">
        <ele>138</ele>
        <time>2021-12-19T08:47:36Z</time>
      </trkpt>
      <trkpt lat="46.72086" lon="-0.94898">
        <ele>137</ele>
        <time>2021-12-19T08:47:38Z</time>
      </trkpt>
      <trkpt lat="46.72077" lon="-0.949">
        <ele>137</ele>
        <time>2021-12-19T08:47:39Z</time>
      </trkpt>
      <trkpt lat="46.7206" lon="-0.94903">
        <ele>137</ele>
        <time>2021-12-19T08:47:41Z</time>
      </trkpt>
      <trkpt lat="46.72043" lon="-0.94906">
        <ele>136</ele>
        <time>2021-12-19T08:47:43Z</time>
      </trkpt>
      <trkpt lat="46.72034" lon="-0.94908">
        <ele>136</ele>
        <time>2021-12-19T08:47:44Z</time>
      </trkpt>
      <trkpt lat="46.72025" lon="-0.9491">
        <ele>136</ele>
        <time>2021-12-19T08:47:45Z</time>
      </trkpt>
      <trkpt lat="46.72008" lon="-0.94914">
        <ele>136</ele>
        <time>2021-12-19T08:47:47Z</time>
      </trkpt>
      <trkpt lat="46.72" lon="-0.94917">
        <ele>136</ele>
        <time>2021-12-19T08:47:48Z</time>
      </trkpt>
      <trkpt lat="46.71983" lon="-0.94923">
        <ele>136</ele>
        <time>2021-12-19T08:47:50Z</time>
      </trkpt>
      <trkpt lat="46.71975" lon="-0.94927">
        <ele>136</ele>
        <time>2021-12-19T08:47:51Z</time>
      </trkpt>
      <trkpt lat="46.71958" lon="-0.94933">
        <ele>136</ele>
        <time>2021-12-19T08:47:53Z</time>
      </trkpt>
      <trkpt lat="46.7195" lon="-0.94937">
        <ele>136</ele>
        <time>2021-12-19T08:47:54Z</time>
      </trkpt>
      <trkpt lat="46.71933" lon="-0.94942">
        <ele>136</ele>
        <time>2021-12-19T08:47:56Z</time>
      </trkpt>
      <trkpt lat="46.71925" lon="-0.94945">
        <ele>136</ele>
        <time>2021-12-19T08:47:57Z</time>
      </trkpt>
      <trkpt lat="46.71909" lon="-0.94951">
        <ele>136</ele>
        <time>2021-12-19T08:47:59Z</time>
      </trkpt>
      <trkpt lat="46.71901" lon="-0.94955">
        <ele>136</ele>
        <time>2021-12-19T08:48:00Z</time>
      </trkpt>
      <trkpt lat="46.71886" lon="-0.94961">
        <ele>135</ele>
        <time>2021-12-19T08:48:02Z</time>
      </trkpt>
      <trkpt lat="46.7187" lon="-0.94966">
        <ele>135</ele>
        <time>2021-12-19T08:48:04Z</time>
      </trkpt>
      <trkpt lat="46.71862" lon="-0.94969">
        <ele>135</ele>
        <time>2021-12-19T08:48:05Z</time>
      </trkpt>
      <trkpt lat="46.71853" lon="-0.94972">
        <ele>134</ele>
        <time>2021-12-19T08:48:06Z</time>
      </trkpt>
      <trkpt lat="46.71837" lon="-0.94979">
        <ele>134</ele>
        <time>2021-12-19T08:48:08Z</time>
      </trkpt>
      <trkpt lat="46.71829" lon="-0.94982">
        <ele>134</ele>
        <time>2021-12-19T08:48:09Z</time>
      </trkpt>
      <trkpt lat="46.71811" lon="-0.94989">
        <ele>133</ele>
        <time>2021-12-19T08:48:11Z</time>
      </trkpt>
      <trkpt lat="46.71794" lon="-0.94996">
        <ele>133</ele>
        <time>2021-12-19T08:48:13Z</time>
      </trkpt>
      <trkpt lat="46.71777" lon="-0.95006">
        <ele>132</ele>
        <time>2021-12-19T08:48:15Z</time>
      </trkpt>
      <trkpt lat="46.7176" lon="-0.95022">
        <ele>130</ele>
        <time>2021-12-19T08:48:17Z</time>
      </trkpt>
      <trkpt lat="46.71752" lon="-0.95031">
        <ele>128</ele>
        <time>2021-12-19T08:48:18Z</time>
      </trkpt>
      <trkpt lat="46.71743" lon="-0.95041">
        <ele>128</ele>
        <time>2021-12-19T08:48:19Z</time>
      </trkpt>
      <trkpt lat="46.71735" lon="-0.95052">
        <ele>127</ele>
        <time>2021-12-19T08:48:20Z</time>
      </trkpt>
      <trkpt lat="46.71719" lon="-0.95076">
        <ele>125</ele>
        <time>2021-12-19T08:48:22Z</time>
      </trkpt>
      <trkpt lat="46.71707" lon="-0.95102">
        <ele>124</ele>
        <time>2021-12-19T08:48:24Z</time>
      </trkpt>
      <trkpt lat="46.71696" lon="-0.95129">
        <ele>124</ele>
        <time>2021-12-19T08:48:26Z</time>
      </trkpt>
      <trkpt lat="46.7169" lon="-0.95142">
        <ele>123</ele>
        <time>2021-12-19T08:48:27Z</time>
      </trkpt>
      <trkpt lat="46.7168" lon="-0.95171">
        <ele>121</ele>
        <time>2021-12-19T08:48:29Z</time>
      </trkpt>
      <trkpt lat="46.7167" lon="-0.95201">
        <ele>120</ele>
        <time>2021-12-19T08:48:31Z</time>
      </trkpt>
      <trkpt lat="46.71665" lon="-0.95215">
        <ele>120</ele>
        <time>2021-12-19T08:48:32Z</time>
      </trkpt>
      <trkpt lat="46.71661" lon="-0.95229">
        <ele>119</ele>
        <time>2021-12-19T08:48:33Z</time>
      </trkpt>
      <trkpt lat="46.71652" lon="-0.9526">
        <ele>117</ele>
        <time>2021-12-19T08:48:35Z</time>
      </trkpt>
      <trkpt lat="46.71642" lon="-0.95291">
        <ele>115</ele>
        <time>2021-12-19T08:48:37Z</time>
      </trkpt>
      <trkpt lat="46.71637" lon="-0.95308">
        <ele>114</ele>
        <time>2021-12-19T08:48:38Z</time>
      </trkpt>
      <trkpt lat="46.71627" lon="-0.9534">
        <ele>113</ele>
        <time>2021-12-19T08:48:40Z</time>
      </trkpt>
      <trkpt lat="46.71622" lon="-0.95357">
        <ele>112</ele>
        <time>2021-12-19T08:48:41Z</time>
      </trkpt>
      <trkpt lat="46.71616" lon="-0.95372">
        <ele>112</ele>
        <time>2021-12-19T08:48:42Z</time>
      </trkpt>
      <trkpt lat="46.71611" lon="-0.95386">
        <ele>111</ele>
        <time>2021-12-19T08:48:43Z</time>
      </trkpt>
      <trkpt lat="46.71597" lon="-0.95414">
        <ele>110</ele>
        <time>2021-12-19T08:48:45Z</time>
      </trkpt>
      <trkpt lat="46.71584" lon="-0.9544">
        <ele>109</ele>
        <time>2021-12-19T08:48:47Z</time>
      </trkpt>
      <trkpt lat="46.71576" lon="-0.95452">
        <ele>108</ele>
        <time>2021-12-19T08:48:48Z</time>
      </trkpt>
      <trkpt lat="46.71567" lon="-0.95463">
        <ele>107</ele>
        <time>2021-12-19T08:48:49Z</time>
      </trkpt>
      <trkpt lat="46.71547" lon="-0.95484">
        <ele>106</ele>
        <time>2021-12-19T08:48:51Z</time>
      </trkpt>
      <trkpt lat="46.71538" lon="-0.95493">
        <ele>106</ele>
        <time>2021-12-19T08:48:52Z</time>
      </trkpt>
      <trkpt lat="46.71518" lon="-0.95512">
        <ele>105</ele>
        <time>2021-12-19T08:48:54Z</time>
      </trkpt>
      <trkpt lat="46.715" lon="-0.95529">
        <ele>104</ele>
        <time>2021-12-19T08:48:56Z</time>
      </trkpt>
      <trkpt lat="46.71483" lon="-0.95545">
        <ele>103</ele>
        <time>2021-12-19T08:48:58Z</time>
      </trkpt>
      <trkpt lat="46.71475" lon="-0.95552">
        <ele>102</ele>
        <time>2021-12-19T08:48:59Z</time>
      </trkpt>
      <trkpt lat="46.71466" lon="-0.95558">
        <ele>102</ele>
        <time>2021-12-19T08:49:00Z</time>
      </trkpt>
      <trkpt lat="46.71446" lon="-0.95563">
        <ele>102</ele>
        <time>2021-12-19T08:49:02Z</time>
      </trkpt>
      <trkpt lat="46.71436" lon="-0.95562">
        <ele>102</ele>
        <time>2021-12-19T08:49:03Z</time>
      </trkpt>
      <trkpt lat="46.71417" lon="-0.95553">
        <ele>100</ele>
        <time>2021-12-19T08:49:05Z</time>
      </trkpt>
      <trkpt lat="46.71408" lon="-0.95547">
        <ele>99</ele>
        <time>2021-12-19T08:49:06Z</time>
      </trkpt>
      <trkpt lat="46.7139" lon="-0.95531">
        <ele>98</ele>
        <time>2021-12-19T08:49:08Z</time>
      </trkpt>
      <trkpt lat="46.71381" lon="-0.95522">
        <ele>98</ele>
        <time>2021-12-19T08:49:09Z</time>
      </trkpt>
      <trkpt lat="46.71363" lon="-0.95505">
        <ele>98</ele>
        <time>2021-12-19T08:49:11Z</time>
      </trkpt>
      <trkpt lat="46.71354" lon="-0.95499">
        <ele>98</ele>
        <time>2021-12-19T08:49:12Z</time>
      </trkpt>
      <trkpt lat="46.71345" lon="-0.95494">
        <ele>99</ele>
        <time>2021-12-19T08:49:13Z</time>
      </trkpt>
      <trkpt lat="46.71325" lon="-0.95484">
        <ele>99</ele>
        <time>2021-12-19T08:49:15Z</time>
      </trkpt>
      <trkpt lat="46.71316" lon="-0.95479">
        <ele>99</ele>
        <time>2021-12-19T08:49:16Z</time>
      </trkpt>
      <trkpt lat="46.71306" lon="-0.95476">
        <ele>99</ele>
        <time>2021-12-19T08:49:17Z</time>
      </trkpt>
      <trkpt lat="46.71296" lon="-0.95472">
        <ele>98</ele>
        <time>2021-12-19T08:49:18Z</time>
      </trkpt>
      <trkpt lat="46.71278" lon="-0.95468">
        <ele>98</ele>
        <time>2021-12-19T08:49:20Z</time>
      </trkpt>
      <trkpt lat="46.71269" lon="-0.95469">
        <ele>98</ele>
        <time>2021-12-19T08:49:21Z</time>
      </trkpt>
      <trkpt lat="46.7125" lon="-0.95473">
        <ele>99</ele>
        <time>2021-12-19T08:49:23Z</time>
      </trkpt>
      <trkpt lat="46.71241" lon="-0.95476">
        <ele>99</ele>
        <time>2021-12-19T08:49:24Z</time>
      </trkpt>
      <trkpt lat="46.71223" lon="-0.95485">
        <ele>99</ele>
        <time>2021-12-19T08:49:26Z</time>
      </trkpt>
      <trkpt lat="46.71214" lon="-0.9549">
        <ele>99</ele>
        <time>2021-12-19T08:49:27Z</time>
      </trkpt>
      <trkpt lat="46.71197" lon="-0.95502">
        <ele>99</ele>
        <time>2021-12-19T08:49:29Z</time>
      </trkpt>
      <trkpt lat="46.71184" lon="-0.95518">
        <ele>98</ele>
        <time>2021-12-19T08:49:31Z</time>
      </trkpt>
      <trkpt lat="46.7118" lon="-0.95528">
        <ele>98</ele>
        <time>2021-12-19T08:49:32Z</time>
      </trkpt>
      <trkpt lat="46.71177" lon="-0.95538">
        <ele>99</ele>
        <time>2021-12-19T08:49:33Z</time>
      </trkpt>
      <trkpt lat="46.71174" lon="-0.95557">
        <ele>100</ele>
        <time>2021-12-19T08:49:35Z</time>
      </trkpt>
      <trkpt lat="46.71173" lon="-0.95566">
        <ele>100</ele>
        <time>2021-12-19T08:49:36Z</time>
      </trkpt>
      <trkpt lat="46.71171" lon="-0.95584">
        <ele>101</ele>
        <time>2021-12-19T08:49:38Z</time>
      </trkpt>
      <trkpt lat="46.71169" lon="-0.95602">
        <ele>101</ele>
        <time>2021-12-19T08:49:40Z</time>
      </trkpt>
      <trkpt lat="46.71168" lon="-0.95611">
        <ele>101</ele>
        <time>2021-12-19T08:49:41Z</time>
      </trkpt>
      <trkpt lat="46.71166" lon="-0.95629">
        <ele>102</ele>
        <time>2021-12-19T08:49:43Z</time>
      </trkpt>
      <trkpt lat="46.71165" lon="-0.95638">
        <ele>102</ele>
        <time>2021-12-19T08:49:44Z</time>
      </trkpt>
      <trkpt lat="46.71162" lon="-0.95656">
        <ele>102</ele>
        <time>2021-12-19T08:49:46Z</time>
      </trkpt>
      <trkpt lat="46.71161" lon="-0.95664">
        <ele>103</ele>
        <time>2021-12-19T08:49:47Z</time>
      </trkpt>
      <trkpt lat="46.71159" lon="-0.95681">
        <ele>104</ele>
        <time>2021-12-19T08:49:49Z</time>
      </trkpt>
      <trkpt lat="46.71157" lon="-0.95698">
        <ele>105</ele>
        <time>2021-12-19T08:49:51Z</time>
      </trkpt>
      <trkpt lat="46.71156" lon="-0.95706">
        <ele>105</ele>
        <time>2021-12-19T08:49:52Z</time>
      </trkpt>
      <trkpt lat="46.71155" lon="-0.95714">
        <ele>106</ele>
        <time>2021-12-19T08:49:53Z</time>
      </trkpt>
      <trkpt lat="46.71154" lon="-0.95729">
        <ele>106</ele>
        <time>2021-12-19T08:49:55Z</time>
      </trkpt>
      <trkpt lat="46.71153" lon="-0.95737">
        <ele>106</ele>
        <time>2021-12-19T08:49:56Z</time>
      </trkpt>
      <trkpt lat="46.71151" lon="-0.95751">
        <ele>107</ele>
        <time>2021-12-19T08:49:58Z</time>
      </trkpt>
      <trkpt lat="46.71149" lon="-0.95758">
        <ele>107</ele>
        <time>2021-12-19T08:49:59Z</time>
      </trkpt>
      <trkpt lat="46.71147" lon="-0.95765">
        <ele>107</ele>
        <time>2021-12-19T08:50:00Z</time>
      </trkpt>
      <trkpt lat="46.71143" lon="-0.95779">
        <ele>108</ele>
        <time>2021-12-19T08:50:02Z</time>
      </trkpt>
      <trkpt lat="46.71138" lon="-0.95792">
        <ele>108</ele>
        <time>2021-12-19T08:50:04Z</time>
      </trkpt>
      <trkpt lat="46.71132" lon="-0.95805">
        <ele>108</ele>
        <time>2021-12-19T08:50:06Z</time>
      </trkpt>
      <trkpt lat="46.7113" lon="-0.95812">
        <ele>108</ele>
        <time>2021-12-19T08:50:07Z</time>
      </trkpt>
      <trkpt lat="46.71125" lon="-0.95824">
        <ele>109</ele>
        <time>2021-12-19T08:50:09Z</time>
      </trkpt>
      <trkpt lat="46.71121" lon="-0.95838">
        <ele>110</ele>
        <time>2021-12-19T08:50:11Z</time>
      </trkpt>
      <trkpt lat="46.71118" lon="-0.95852">
        <ele>111</ele>
        <time>2021-12-19T08:50:13Z</time>
      </trkpt>
      <trkpt lat="46.71117" lon="-0.95859">
        <ele>111</ele>
        <time>2021-12-19T08:50:14Z</time>
      </trkpt>
      <trkpt lat="46.71116" lon="-0.95867">
        <ele>112</ele>
        <time>2021-12-19T08:50:15Z</time>
      </trkpt>
      <trkpt lat="46.71117" lon="-0.9588">
        <ele>112</ele>
        <time>2021-12-19T08:50:17Z</time>
      </trkpt>
      <trkpt lat="46.71117" lon="-0.95887">
        <ele>112</ele>
        <time>2021-12-19T08:50:18Z</time>
      </trkpt>
      <trkpt lat="46.71119" lon="-0.95901">
        <ele>113</ele>
        <time>2021-12-19T08:50:20Z</time>
      </trkpt>
      <trkpt lat="46.71121" lon="-0.95908">
        <ele>113</ele>
        <time>2021-12-19T08:50:21Z</time>
      </trkpt>
      <trkpt lat="46.71123" lon="-0.95915">
        <ele>114</ele>
        <time>2021-12-19T08:50:22Z</time>
      </trkpt>
      <trkpt lat="46.71125" lon="-0.95922">
        <ele>114</ele>
        <time>2021-12-19T08:50:23Z</time>
      </trkpt>
      <trkpt lat="46.71129" lon="-0.95936">
        <ele>115</ele>
        <time>2021-12-19T08:50:25Z</time>
      </trkpt>
      <trkpt lat="46.71131" lon="-0.95942">
        <ele>116</ele>
        <time>2021-12-19T08:50:26Z</time>
      </trkpt>
      <trkpt lat="46.71137" lon="-0.95956">
        <ele>116</ele>
        <time>2021-12-19T08:50:28Z</time>
      </trkpt>
      <trkpt lat="46.71139" lon="-0.95963">
        <ele>117</ele>
        <time>2021-12-19T08:50:29Z</time>
      </trkpt>
      <trkpt lat="46.71145" lon="-0.95975">
        <ele>117</ele>
        <time>2021-12-19T08:50:31Z</time>
      </trkpt>
      <trkpt lat="46.71151" lon="-0.95988">
        <ele>118</ele>
        <time>2021-12-19T08:50:33Z</time>
      </trkpt>
      <trkpt lat="46.71154" lon="-0.95994">
        <ele>118</ele>
        <time>2021-12-19T08:50:34Z</time>
      </trkpt>
      <trkpt lat="46.71161" lon="-0.96007">
        <ele>119</ele>
        <time>2021-12-19T08:50:36Z</time>
      </trkpt>
      <trkpt lat="46.71166" lon="-0.96013">
        <ele>119</ele>
        <time>2021-12-19T08:50:37Z</time>
      </trkpt>
      <trkpt lat="46.71176" lon="-0.96023">
        <ele>120</ele>
        <time>2021-12-19T08:50:39Z</time>
      </trkpt>
      <trkpt lat="46.71181" lon="-0.96028">
        <ele>120</ele>
        <time>2021-12-19T08:50:40Z</time>
      </trkpt>
      <trkpt lat="46.71186" lon="-0.96033">
        <ele>120</ele>
        <time>2021-12-19T08:50:41Z</time>
      </trkpt>
      <trkpt lat="46.71192" lon="-0.96037">
        <ele>120</ele>
        <time>2021-12-19T08:50:42Z</time>
      </trkpt>
      <trkpt lat="46.71198" lon="-0.96042">
        <ele>120</ele>
        <time>2021-12-19T08:50:43Z</time>
      </trkpt>
      <trkpt lat="46.71208" lon="-0.96051">
        <ele>119</ele>
        <time>2021-12-19T08:50:45Z</time>
      </trkpt>
      <trkpt lat="46.71214" lon="-0.96055">
        <ele>119</ele>
        <time>2021-12-19T08:50:46Z</time>
      </trkpt>
      <trkpt lat="46.71219" lon="-0.9606">
        <ele>119</ele>
        <time>2021-12-19T08:50:47Z</time>
      </trkpt>
      <trkpt lat="46.7123" lon="-0.9607">
        <ele>118</ele>
        <time>2021-12-19T08:50:49Z</time>
      </trkpt>
      <trkpt lat="46.71235" lon="-0.96075">
        <ele>119</ele>
        <time>2021-12-19T08:50:50Z</time>
      </trkpt>
      <trkpt lat="46.71245" lon="-0.96087">
        <ele>118</ele>
        <time>2021-12-19T08:50:52Z</time>
      </trkpt>
      <trkpt lat="46.71249" lon="-0.96093">
        <ele>118</ele>
        <time>2021-12-19T08:50:53Z</time>
      </trkpt>
      <trkpt lat="46.71254" lon="-0.96099">
        <ele>118</ele>
        <time>2021-12-19T08:50:54Z</time>
      </trkpt>
      <trkpt lat="46.71261" lon="-0.96113">
        <ele>118</ele>
        <time>2021-12-19T08:50:56Z</time>
      </trkpt>
      <trkpt lat="46.71265" lon="-0.9612">
        <ele>118</ele>
        <time>2021-12-19T08:50:57Z</time>
      </trkpt>
      <trkpt lat="46.71271" lon="-0.96134">
        <ele>118</ele>
        <time>2021-12-19T08:50:59Z</time>
      </trkpt>
      <trkpt lat="46.71278" lon="-0.96148">
        <ele>118</ele>
        <time>2021-12-19T08:51:01Z</time>
      </trkpt>
      <trkpt lat="46.71281" lon="-0.96155">
        <ele>118</ele>
        <time>2021-12-19T08:51:02Z</time>
      </trkpt>
      <trkpt lat="46.71288" lon="-0.96169">
        <ele>119</ele>
        <time>2021-12-19T08:51:04Z</time>
      </trkpt>
      <trkpt lat="46.71292" lon="-0.96176">
        <ele>120</ele>
        <time>2021-12-19T08:51:05Z</time>
      </trkpt>
      <trkpt lat="46.71299" lon="-0.9619">
        <ele>121</ele>
        <time>2021-12-19T08:51:07Z</time>
      </trkpt>
      <trkpt lat="46.71303" lon="-0.96196">
        <ele>121</ele>
        <time>2021-12-19T08:51:08Z</time>
      </trkpt>
      <trkpt lat="46.7131" lon="-0.96209">
        <ele>122</ele>
        <time>2021-12-19T08:51:10Z</time>
      </trkpt>
      <trkpt lat="46.71318" lon="-0.96223">
        <ele>123</ele>
        <time>2021-12-19T08:51:12Z</time>
      </trkpt>
      <trkpt lat="46.71321" lon="-0.9623">
        <ele>124</ele>
        <time>2021-12-19T08:51:13Z</time>
      </trkpt>
      <trkpt lat="46.71325" lon="-0.96236">
        <ele>124</ele>
        <time>2021-12-19T08:51:14Z</time>
      </trkpt>
      <trkpt lat="46.71333" lon="-0.96249">
        <ele>125</ele>
        <time>2021-12-19T08:51:16Z</time>
      </trkpt>
      <trkpt lat="46.7134" lon="-0.96261">
        <ele>125</ele>
        <time>2021-12-19T08:51:18Z</time>
      </trkpt>
      <trkpt lat="46.71348" lon="-0.96275">
        <ele>126</ele>
        <time>2021-12-19T08:51:20Z</time>
      </trkpt>
      <trkpt lat="46.71352" lon="-0.96282">
        <ele>126</ele>
        <time>2021-12-19T08:51:21Z</time>
      </trkpt>
      <trkpt lat="46.7136" lon="-0.96295">
        <ele>127</ele>
        <time>2021-12-19T08:51:23Z</time>
      </trkpt>
      <trkpt lat="46.71365" lon="-0.96302">
        <ele>127</ele>
        <time>2021-12-19T08:51:24Z</time>
      </trkpt>
      <trkpt lat="46.71373" lon="-0.96313">
        <ele>127</ele>
        <time>2021-12-19T08:51:26Z</time>
      </trkpt>
      <trkpt lat="46.71381" lon="-0.96324">
        <ele>127</ele>
        <time>2021-12-19T08:51:28Z</time>
      </trkpt>
      <trkpt lat="46.7139" lon="-0.96335">
        <ele>127</ele>
        <time>2021-12-19T08:51:30Z</time>
      </trkpt>
      <trkpt lat="46.71398" lon="-0.96346">
        <ele>127</ele>
        <time>2021-12-19T08:51:32Z</time>
      </trkpt>
      <trkpt lat="46.71406" lon="-0.96359">
        <ele>126</ele>
        <time>2021-12-19T08:51:34Z</time>
      </trkpt>
      <trkpt lat="46.71415" lon="-0.9637">
        <ele>127</ele>
        <time>2021-12-19T08:51:36Z</time>
      </trkpt>
      <trkpt lat="46.71419" lon="-0.96377">
        <ele>127</ele>
        <time>2021-12-19T08:51:37Z</time>
      </trkpt>
      <trkpt lat="46.71423" lon="-0.96383">
        <ele>127</ele>
        <time>2021-12-19T08:51:38Z</time>
      </trkpt>
      <trkpt lat="46.71432" lon="-0.96394">
        <ele>127</ele>
        <time>2021-12-19T08:51:40Z</time>
      </trkpt>
      <trkpt lat="46.71438" lon="-0.96409">
        <ele>127</ele>
        <time>2021-12-19T08:51:42Z</time>
      </trkpt>
      <trkpt lat="46.71439" lon="-0.96418">
        <ele>127</ele>
        <time>2021-12-19T08:51:43Z</time>
      </trkpt>
      <trkpt lat="46.71439" lon="-0.96426">
        <ele>127</ele>
        <time>2021-12-19T08:51:44Z</time>
      </trkpt>
      <trkpt lat="46.71434" lon="-0.96441">
        <ele>128</ele>
        <time>2021-12-19T08:51:46Z</time>
      </trkpt>
      <trkpt lat="46.71431" lon="-0.96448">
        <ele>129</ele>
        <time>2021-12-19T08:51:47Z</time>
      </trkpt>
      <trkpt lat="46.71425" lon="-0.96461">
        <ele>129</ele>
        <time>2021-12-19T08:51:49Z</time>
      </trkpt>
      <trkpt lat="46.71421" lon="-0.96467">
        <ele>129</ele>
        <time>2021-12-19T08:51:50Z</time>
      </trkpt>
      <trkpt lat="46.71413" lon="-0.9648">
        <ele>129</ele>
        <time>2021-12-19T08:51:52Z</time>
      </trkpt>
      <trkpt lat="46.71405" lon="-0.96493">
        <ele>129</ele>
        <time>2021-12-19T08:51:54Z</time>
      </trkpt>
      <trkpt lat="46.71401" lon="-0.965">
        <ele>129</ele>
        <time>2021-12-19T08:51:55Z</time>
      </trkpt>
      <trkpt lat="46.71394" lon="-0.96516">
        <ele>128</ele>
        <time>2021-12-19T08:51:57Z</time>
      </trkpt>
      <trkpt lat="46.71391" lon="-0.96524">
        <ele>128</ele>
        <time>2021-12-19T08:51:58Z</time>
      </trkpt>
      <trkpt lat="46.71386" lon="-0.96544">
        <ele>128</ele>
        <time>2021-12-19T08:52:00Z</time>
      </trkpt>
      <trkpt lat="46.71382" lon="-0.96565">
        <ele>127</ele>
        <time>2021-12-19T08:52:02Z</time>
      </trkpt>
      <trkpt lat="46.71382" lon="-0.96575">
        <ele>127</ele>
        <time>2021-12-19T08:52:03Z</time>
      </trkpt>
      <trkpt lat="46.71382" lon="-0.96585">
        <ele>126</ele>
        <time>2021-12-19T08:52:04Z</time>
      </trkpt>
      <trkpt lat="46.71383" lon="-0.96606">
        <ele>127</ele>
        <time>2021-12-19T08:52:06Z</time>
      </trkpt>
      <trkpt lat="46.71386" lon="-0.96626">
        <ele>127</ele>
        <time>2021-12-19T08:52:08Z</time>
      </trkpt>
      <trkpt lat="46.71388" lon="-0.96637">
        <ele>127</ele>
        <time>2021-12-19T08:52:09Z</time>
      </trkpt>
      <trkpt lat="46.71391" lon="-0.9666">
        <ele>127</ele>
        <time>2021-12-19T08:52:11Z</time>
      </trkpt>
      <trkpt lat="46.71394" lon="-0.96683">
        <ele>126</ele>
        <time>2021-12-19T08:52:13Z</time>
      </trkpt>
      <trkpt lat="46.71395" lon="-0.96695">
        <ele>126</ele>
        <time>2021-12-19T08:52:14Z</time>
      </trkpt>
      <trkpt lat="46.71398" lon="-0.96719">
        <ele>126</ele>
        <time>2021-12-19T08:52:16Z</time>
      </trkpt>
      <trkpt lat="46.71401" lon="-0.96744">
        <ele>126</ele>
        <time>2021-12-19T08:52:18Z</time>
      </trkpt>
      <trkpt lat="46.71403" lon="-0.96756">
        <ele>126</ele>
        <time>2021-12-19T08:52:19Z</time>
      </trkpt>
      <trkpt lat="46.71404" lon="-0.9678">
        <ele>126</ele>
        <time>2021-12-19T08:52:21Z</time>
      </trkpt>
      <trkpt lat="46.71405" lon="-0.96793">
        <ele>126</ele>
        <time>2021-12-19T08:52:22Z</time>
      </trkpt>
      <trkpt lat="46.71407" lon="-0.96819">
        <ele>126</ele>
        <time>2021-12-19T08:52:24Z</time>
      </trkpt>
      <trkpt lat="46.71407" lon="-0.96831">
        <ele>125</ele>
        <time>2021-12-19T08:52:25Z</time>
      </trkpt>
      <trkpt lat="46.71408" lon="-0.96844">
        <ele>125</ele>
        <time>2021-12-19T08:52:26Z</time>
      </trkpt>
      <trkpt lat="46.7141" lon="-0.96868">
        <ele>124</ele>
        <time>2021-12-19T08:52:28Z</time>
      </trkpt>
      <trkpt lat="46.71411" lon="-0.96892">
        <ele>124</ele>
        <time>2021-12-19T08:52:30Z</time>
      </trkpt>
      <trkpt lat="46.71413" lon="-0.96915">
        <ele>124</ele>
        <time>2021-12-19T08:52:32Z</time>
      </trkpt>
      <trkpt lat="46.71413" lon="-0.96927">
        <ele>124</ele>
        <time>2021-12-19T08:52:33Z</time>
      </trkpt>
      <trkpt lat="46.71413" lon="-0.9695">
        <ele>124</ele>
        <time>2021-12-19T08:52:35Z</time>
      </trkpt>
      <trkpt lat="46.71413" lon="-0.96961">
        <ele>123</ele>
        <time>2021-12-19T08:52:36Z</time>
      </trkpt>
      <trkpt lat="46.71413" lon="-0.96973">
        <ele>124</ele>
        <time>2021-12-19T08:52:37Z</time>
      </trkpt>
      <trkpt lat="46.71412" lon="-0.96996">
        <ele>124</ele>
        <time>2021-12-19T08:52:39Z</time>
      </trkpt>
      <trkpt lat="46.71412" lon="-0.97008">
        <ele>124</ele>
        <time>2021-12-19T08:52:40Z</time>
      </trkpt>
      <trkpt lat="46.71411" lon="-0.97021">
        <ele>124</ele>
        <time>2021-12-19T08:52:41Z</time>
      </trkpt>
      <trkpt lat="46.71411" lon="-0.97045">
        <ele>124</ele>
        <time>2021-12-19T08:52:43Z</time>
      </trkpt>
      <trkpt lat="46.71412" lon="-0.97057">
        <ele>124</ele>
        <time>2021-12-19T08:52:44Z</time>
      </trkpt>
      <trkpt lat="46.71412" lon="-0.9707">
        <ele>124</ele>
        <time>2021-12-19T08:52:45Z</time>
      </trkpt>
      <trkpt lat="46.71416" lon="-0.97094">
        <ele>124</ele>
        <time>2021-12-19T08:52:47Z</time>
      </trkpt>
      <trkpt lat="46.7142" lon="-0.97105">
        <ele>124</ele>
        <time>2021-12-19T08:52:48Z</time>
      </trkpt>
      <trkpt lat="46.71431" lon="-0.97124">
        <ele>123</ele>
        <time>2021-12-19T08:52:50Z</time>
      </trkpt>
      <trkpt lat="46.71437" lon="-0.97134">
        <ele>122</ele>
        <time>2021-12-19T08:52:51Z</time>
      </trkpt>
      <trkpt lat="46.71441" lon="-0.97146">
        <ele>121</ele>
        <time>2021-12-19T08:52:52Z</time>
      </trkpt>
      <trkpt lat="46.71443" lon="-0.97159">
        <ele>120</ele>
        <time>2021-12-19T08:52:53Z</time>
      </trkpt>
      <trkpt lat="46.71441" lon="-0.97188">
        <ele>118</ele>
        <time>2021-12-19T08:52:55Z</time>
      </trkpt>
      <trkpt lat="46.71431" lon="-0.97213">
        <ele>117</ele>
        <time>2021-12-19T08:52:57Z</time>
      </trkpt>
      <trkpt lat="46.71418" lon="-0.97233">
        <ele>116</ele>
        <time>2021-12-19T08:52:59Z</time>
      </trkpt>
      <trkpt lat="46.71401" lon="-0.9725">
        <ele>115</ele>
        <time>2021-12-19T08:53:01Z</time>
      </trkpt>
      <trkpt lat="46.71383" lon="-0.97263">
        <ele>114</ele>
        <time>2021-12-19T08:53:03Z</time>
      </trkpt>
      <trkpt lat="46.71374" lon="-0.97269">
        <ele>113</ele>
        <time>2021-12-19T08:53:04Z</time>
      </trkpt>
      <trkpt lat="46.71365" lon="-0.97275">
        <ele>113</ele>
        <time>2021-12-19T08:53:05Z</time>
      </trkpt>
      <trkpt lat="46.71346" lon="-0.97285">
        <ele>112</ele>
        <time>2021-12-19T08:53:07Z</time>
      </trkpt>
      <trkpt lat="46.71337" lon="-0.97289">
        <ele>111</ele>
        <time>2021-12-19T08:53:08Z</time>
      </trkpt>
      <trkpt lat="46.71322" lon="-0.973">
        <ele>110</ele>
        <time>2021-12-19T08:53:10Z</time>
      </trkpt>
      <trkpt lat="46.71309" lon="-0.97321">
        <ele>110</ele>
        <time>2021-12-19T08:53:12Z</time>
      </trkpt>
      <trkpt lat="46.71299" lon="-0.97345">
        <ele>109</ele>
        <time>2021-12-19T08:53:14Z</time>
      </trkpt>
      <trkpt lat="46.71289" lon="-0.97371">
        <ele>110</ele>
        <time>2021-12-19T08:53:16Z</time>
      </trkpt>
      <trkpt lat="46.71284" lon="-0.97383">
        <ele>110</ele>
        <time>2021-12-19T08:53:17Z</time>
      </trkpt>
      <trkpt lat="46.71272" lon="-0.97404">
        <ele>111</ele>
        <time>2021-12-19T08:53:19Z</time>
      </trkpt>
      <trkpt lat="46.71266" lon="-0.97413">
        <ele>111</ele>
        <time>2021-12-19T08:53:20Z</time>
      </trkpt>
      <trkpt lat="46.71258" lon="-0.97421">
        <ele>112</ele>
        <time>2021-12-19T08:53:21Z</time>
      </trkpt>
      <trkpt lat="46.71243" lon="-0.97432">
        <ele>112</ele>
        <time>2021-12-19T08:53:23Z</time>
      </trkpt>
      <trkpt lat="46.71235" lon="-0.97438">
        <ele>112</ele>
        <time>2021-12-19T08:53:24Z</time>
      </trkpt>
      <trkpt lat="46.71221" lon="-0.97453">
        <ele>111</ele>
        <time>2021-12-19T08:53:26Z</time>
      </trkpt>
      <trkpt lat="46.71215" lon="-0.97463">
        <ele>112</ele>
        <time>2021-12-19T08:53:27Z</time>
      </trkpt>
      <trkpt lat="46.7121" lon="-0.97473">
        <ele>112</ele>
        <time>2021-12-19T08:53:28Z</time>
      </trkpt>
      <trkpt lat="46.71206" lon="-0.97484">
        <ele>112</ele>
        <time>2021-12-19T08:53:29Z</time>
      </trkpt>
      <trkpt lat="46.71202" lon="-0.97494">
        <ele>113</ele>
        <time>2021-12-19T08:53:30Z</time>
      </trkpt>
      <trkpt lat="46.71193" lon="-0.97513">
        <ele>113</ele>
        <time>2021-12-19T08:53:32Z</time>
      </trkpt>
      <trkpt lat="46.71189" lon="-0.97523">
        <ele>113</ele>
        <time>2021-12-19T08:53:33Z</time>
      </trkpt>
      <trkpt lat="46.71181" lon="-0.97541">
        <ele>114</ele>
        <time>2021-12-19T08:53:35Z</time>
      </trkpt>
      <trkpt lat="46.71172" lon="-0.97558">
        <ele>114</ele>
        <time>2021-12-19T08:53:37Z</time>
      </trkpt>
      <trkpt lat="46.71167" lon="-0.97567">
        <ele>114</ele>
        <time>2021-12-19T08:53:38Z</time>
      </trkpt>
      <trkpt lat="46.71158" lon="-0.97585">
        <ele>115</ele>
        <time>2021-12-19T08:53:40Z</time>
      </trkpt>
      <trkpt lat="46.71154" lon="-0.97594">
        <ele>116</ele>
        <time>2021-12-19T08:53:41Z</time>
      </trkpt>
      <trkpt lat="46.71149" lon="-0.97602">
        <ele>116</ele>
        <time>2021-12-19T08:53:42Z</time>
      </trkpt>
      <trkpt lat="46.71141" lon="-0.97617">
        <ele>116</ele>
        <time>2021-12-19T08:53:44Z</time>
      </trkpt>
      <trkpt lat="46.71138" lon="-0.97625">
        <ele>117</ele>
        <time>2021-12-19T08:53:45Z</time>
      </trkpt>
      <trkpt lat="46.7113" lon="-0.97642">
        <ele>117</ele>
        <time>2021-12-19T08:53:47Z</time>
      </trkpt>
      <trkpt lat="46.71122" lon="-0.97659">
        <ele>117</ele>
        <time>2021-12-19T08:53:49Z</time>
      </trkpt>
      <trkpt lat="46.71116" lon="-0.97675">
        <ele>117</ele>
        <time>2021-12-19T08:53:51Z</time>
      </trkpt>
      <trkpt lat="46.7111" lon="-0.97691">
        <ele>118</ele>
        <time>2021-12-19T08:53:53Z</time>
      </trkpt>
      <trkpt lat="46.71104" lon="-0.97706">
        <ele>118</ele>
        <time>2021-12-19T08:53:55Z</time>
      </trkpt>
      <trkpt lat="46.71099" lon="-0.97721">
        <ele>119</ele>
        <time>2021-12-19T08:53:57Z</time>
      </trkpt>
      <trkpt lat="46.71096" lon="-0.97729">
        <ele>119</ele>
        <time>2021-12-19T08:53:58Z</time>
      </trkpt>
      <trkpt lat="46.71094" lon="-0.97736">
        <ele>119</ele>
        <time>2021-12-19T08:53:59Z</time>
      </trkpt>
      <trkpt lat="46.71089" lon="-0.9775">
        <ele>120</ele>
        <time>2021-12-19T08:54:01Z</time>
      </trkpt>
      <trkpt lat="46.71084" lon="-0.97764">
        <ele>120</ele>
        <time>2021-12-19T08:54:03Z</time>
      </trkpt>
      <trkpt lat="46.71081" lon="-0.97771">
        <ele>120</ele>
        <time>2021-12-19T08:54:04Z</time>
      </trkpt>
      <trkpt lat="46.71076" lon="-0.97785">
        <ele>120</ele>
        <time>2021-12-19T08:54:06Z</time>
      </trkpt>
      <trkpt lat="46.71071" lon="-0.97801">
        <ele>121</ele>
        <time>2021-12-19T08:54:08Z</time>
      </trkpt>
      <trkpt lat="46.71068" lon="-0.97809">
        <ele>121</ele>
        <time>2021-12-19T08:54:09Z</time>
      </trkpt>
      <trkpt lat="46.71065" lon="-0.97817">
        <ele>121</ele>
        <time>2021-12-19T08:54:10Z</time>
      </trkpt>
      <trkpt lat="46.7106" lon="-0.97832">
        <ele>122</ele>
        <time>2021-12-19T08:54:12Z</time>
      </trkpt>
      <trkpt lat="46.71057" lon="-0.97839">
        <ele>122</ele>
        <time>2021-12-19T08:54:13Z</time>
      </trkpt>
      <trkpt lat="46.71052" lon="-0.97854">
        <ele>122</ele>
        <time>2021-12-19T08:54:15Z</time>
      </trkpt>
      <trkpt lat="46.71049" lon="-0.97862">
        <ele>122</ele>
        <time>2021-12-19T08:54:16Z</time>
      </trkpt>
      <trkpt lat="46.71047" lon="-0.9787">
        <ele>123</ele>
        <time>2021-12-19T08:54:17Z</time>
      </trkpt>
      <trkpt lat="46.71044" lon="-0.97878">
        <ele>123</ele>
        <time>2021-12-19T08:54:18Z</time>
      </trkpt>
      <trkpt lat="46.71038" lon="-0.97895">
        <ele>123</ele>
        <time>2021-12-19T08:54:20Z</time>
      </trkpt>
      <trkpt lat="46.71033" lon="-0.97912">
        <ele>124</ele>
        <time>2021-12-19T08:54:22Z</time>
      </trkpt>
      <trkpt lat="46.71027" lon="-0.97929">
        <ele>124</ele>
        <time>2021-12-19T08:54:24Z</time>
      </trkpt>
      <trkpt lat="46.71025" lon="-0.97938">
        <ele>124</ele>
        <time>2021-12-19T08:54:25Z</time>
      </trkpt>
      <trkpt lat="46.71021" lon="-0.97955">
        <ele>125</ele>
        <time>2021-12-19T08:54:27Z</time>
      </trkpt>
      <trkpt lat="46.71018" lon="-0.97973">
        <ele>126</ele>
        <time>2021-12-19T08:54:29Z</time>
      </trkpt>
      <trkpt lat="46.71016" lon="-0.97981">
        <ele>126</ele>
        <time>2021-12-19T08:54:30Z</time>
      </trkpt>
      <trkpt lat="46.71014" lon="-0.97998">
        <ele>127</ele>
        <time>2021-12-19T08:54:32Z</time>
      </trkpt>
      <trkpt lat="46.71014" lon="-0.98006">
        <ele>127</ele>
        <time>2021-12-19T08:54:33Z</time>
      </trkpt>
      <trkpt lat="46.71011" lon="-0.98021">
        <ele>128</ele>
        <time>2021-12-19T08:54:35Z</time>
      </trkpt>
      <trkpt lat="46.7101" lon="-0.9803">
        <ele>129</ele>
        <time>2021-12-19T08:54:36Z</time>
      </trkpt>
      <trkpt lat="46.71009" lon="-0.98038">
        <ele>130</ele>
        <time>2021-12-19T08:54:37Z</time>
      </trkpt>
      <trkpt lat="46.71005" lon="-0.98053">
        <ele>131</ele>
        <time>2021-12-19T08:54:39Z</time>
      </trkpt>
      <trkpt lat="46.71003" lon="-0.98061">
        <ele>131</ele>
        <time>2021-12-19T08:54:40Z</time>
      </trkpt>
      <trkpt lat="46.70997" lon="-0.98075">
        <ele>132</ele>
        <time>2021-12-19T08:54:42Z</time>
      </trkpt>
      <trkpt lat="46.70992" lon="-0.98089">
        <ele>132</ele>
        <time>2021-12-19T08:54:44Z</time>
      </trkpt>
      <trkpt lat="46.7099" lon="-0.98095">
        <ele>133</ele>
        <time>2021-12-19T08:54:45Z</time>
      </trkpt>
      <trkpt lat="46.70985" lon="-0.98109">
        <ele>133</ele>
        <time>2021-12-19T08:54:47Z</time>
      </trkpt>
      <trkpt lat="46.7098" lon="-0.98122">
        <ele>133</ele>
        <time>2021-12-19T08:54:49Z</time>
      </trkpt>
      <trkpt lat="46.70978" lon="-0.98128">
        <ele>134</ele>
        <time>2021-12-19T08:54:50Z</time>
      </trkpt>
      <trkpt lat="46.70976" lon="-0.98141">
        <ele>134</ele>
        <time>2021-12-19T08:54:52Z</time>
      </trkpt>
      <trkpt lat="46.70976" lon="-0.98149">
        <ele>134</ele>
        <time>2021-12-19T08:54:53Z</time>
      </trkpt>
      <trkpt lat="46.70982" lon="-0.98162">
        <ele>134</ele>
        <time>2021-12-19T08:54:55Z</time>
      </trkpt>
      <trkpt lat="46.70987" lon="-0.98176">
        <ele>134</ele>
        <time>2021-12-19T08:54:57Z</time>
      </trkpt>
      <trkpt lat="46.70988" lon="-0.98194">
        <ele>134</ele>
        <time>2021-12-19T08:54:59Z</time>
      </trkpt>
      <trkpt lat="46.70987" lon="-0.98203">
        <ele>135</ele>
        <time>2021-12-19T08:55:00Z</time>
      </trkpt>
      <trkpt lat="46.70983" lon="-0.9822">
        <ele>135</ele>
        <time>2021-12-19T08:55:02Z</time>
      </trkpt>
      <trkpt lat="46.70981" lon="-0.98228">
        <ele>135</ele>
        <time>2021-12-19T08:55:03Z</time>
      </trkpt>
      <trkpt lat="46.70979" lon="-0.98236">
        <ele>135</ele>
        <time>2021-12-19T08:55:04Z</time>
      </trkpt>
      <trkpt lat="46.70976" lon="-0.98244">
        <ele>135</ele>
        <time>2021-12-19T08:55:05Z</time>
      </trkpt>
      <trkpt lat="46.7097" lon="-0.98259">
        <ele>135</ele>
        <time>2021-12-19T08:55:07Z</time>
      </trkpt>
      <trkpt lat="46.70963" lon="-0.98273">
        <ele>135</ele>
        <time>2021-12-19T08:55:09Z</time>
      </trkpt>
      <trkpt lat="46.70956" lon="-0.98288">
        <ele>134</ele>
        <time>2021-12-19T08:55:11Z</time>
      </trkpt>
      <trkpt lat="46.70949" lon="-0.98303">
        <ele>134</ele>
        <time>2021-12-19T08:55:13Z</time>
      </trkpt>
      <trkpt lat="46.70944" lon="-0.9831">
        <ele>134</ele>
        <time>2021-12-19T08:55:14Z</time>
      </trkpt>
      <trkpt lat="46.7094" lon="-0.98317">
        <ele>134</ele>
        <time>2021-12-19T08:55:15Z</time>
      </trkpt>
      <trkpt lat="46.70928" lon="-0.98327">
        <ele>134</ele>
        <time>2021-12-19T08:55:17Z</time>
      </trkpt>
      <trkpt lat="46.70916" lon="-0.98333">
        <ele>134</ele>
        <time>2021-12-19T08:55:19Z</time>
      </trkpt>
      <trkpt lat="46.70904" lon="-0.9834">
        <ele>134</ele>
        <time>2021-12-19T08:55:21Z</time>
      </trkpt>
      <trkpt lat="46.70899" lon="-0.98344">
        <ele>134</ele>
        <time>2021-12-19T08:55:22Z</time>
      </trkpt>
      <trkpt lat="46.70888" lon="-0.98354">
        <ele>134</ele>
        <time>2021-12-19T08:55:24Z</time>
      </trkpt>
      <trkpt lat="46.70878" lon="-0.98363">
        <ele>134</ele>
        <time>2021-12-19T08:55:26Z</time>
      </trkpt>
      <trkpt lat="46.70871" lon="-0.98372">
        <ele>133</ele>
        <time>2021-12-19T08:55:28Z</time>
      </trkpt>
      <trkpt lat="46.7087" lon="-0.98386">
        <ele>132</ele>
        <time>2021-12-19T08:55:30Z</time>
      </trkpt>
      <trkpt lat="46.70872" lon="-0.984">
        <ele>132</ele>
        <time>2021-12-19T08:55:32Z</time>
      </trkpt>
      <trkpt lat="46.70873" lon="-0.98415">
        <ele>132</ele>
        <time>2021-12-19T08:55:34Z</time>
      </trkpt>
      <trkpt lat="46.70873" lon="-0.98423">
        <ele>133</ele>
        <time>2021-12-19T08:55:35Z</time>
      </trkpt>
      <trkpt lat="46.70872" lon="-0.98431">
        <ele>132</ele>
        <time>2021-12-19T08:55:36Z</time>
      </trkpt>
      <trkpt lat="46.70869" lon="-0.98438">
        <ele>132</ele>
        <time>2021-12-19T08:55:37Z</time>
      </trkpt>
      <trkpt lat="46.70859" lon="-0.98449">
        <ele>132</ele>
        <time>2021-12-19T08:55:39Z</time>
      </trkpt>
      <trkpt lat="46.70854" lon="-0.98455">
        <ele>132</ele>
        <time>2021-12-19T08:55:40Z</time>
      </trkpt>
      <trkpt lat="46.70849" lon="-0.9846">
        <ele>131</ele>
        <time>2021-12-19T08:55:41Z</time>
      </trkpt>
      <trkpt lat="46.70844" lon="-0.98465">
        <ele>131</ele>
        <time>2021-12-19T08:55:42Z</time>
      </trkpt>
      <trkpt lat="46.70839" lon="-0.9847">
        <ele>131</ele>
        <time>2021-12-19T08:55:43Z</time>
      </trkpt>
      <trkpt lat="46.70834" lon="-0.98475">
        <ele>131</ele>
        <time>2021-12-19T08:55:44Z</time>
      </trkpt>
      <trkpt lat="46.70826" lon="-0.98486">
        <ele>131</ele>
        <time>2021-12-19T08:55:46Z</time>
      </trkpt>
      <trkpt lat="46.70823" lon="-0.98492">
        <ele>132</ele>
        <time>2021-12-19T08:55:47Z</time>
      </trkpt>
      <trkpt lat="46.70817" lon="-0.98506">
        <ele>132</ele>
        <time>2021-12-19T08:55:49Z</time>
      </trkpt>
      <trkpt lat="46.70815" lon="-0.98512">
        <ele>131</ele>
        <time>2021-12-19T08:55:50Z</time>
      </trkpt>
      <trkpt lat="46.70813" lon="-0.98519">
        <ele>131</ele>
        <time>2021-12-19T08:55:51Z</time>
      </trkpt>
      <trkpt lat="46.7081" lon="-0.98527">
        <ele>131</ele>
        <time>2021-12-19T08:55:52Z</time>
      </trkpt>
      <trkpt lat="46.70807" lon="-0.98534">
        <ele>131</ele>
        <time>2021-12-19T08:55:53Z</time>
      </trkpt>
      <trkpt lat="46.70801" lon="-0.98549">
        <ele>131</ele>
        <time>2021-12-19T08:55:55Z</time>
      </trkpt>
      <trkpt lat="46.70794" lon="-0.98563">
        <ele>131</ele>
        <time>2021-12-19T08:55:57Z</time>
      </trkpt>
      <trkpt lat="46.70786" lon="-0.98576">
        <ele>131</ele>
        <time>2021-12-19T08:55:59Z</time>
      </trkpt>
      <trkpt lat="46.70778" lon="-0.98588">
        <ele>131</ele>
        <time>2021-12-19T08:56:01Z</time>
      </trkpt>
      <trkpt lat="46.7077" lon="-0.98599">
        <ele>131</ele>
        <time>2021-12-19T08:56:03Z</time>
      </trkpt>
      <trkpt lat="46.70761" lon="-0.9861">
        <ele>131</ele>
        <time>2021-12-19T08:56:05Z</time>
      </trkpt>
      <trkpt lat="46.70753" lon="-0.98622">
        <ele>131</ele>
        <time>2021-12-19T08:56:07Z</time>
      </trkpt>
      <trkpt lat="46.70744" lon="-0.98634">
        <ele>130</ele>
        <time>2021-12-19T08:56:09Z</time>
      </trkpt>
      <trkpt lat="46.70733" lon="-0.98642">
        <ele>129</ele>
        <time>2021-12-19T08:56:11Z</time>
      </trkpt>
      <trkpt lat="46.70728" lon="-0.98645">
        <ele>129</ele>
        <time>2021-12-19T08:56:12Z</time>
      </trkpt>
      <trkpt lat="46.70722" lon="-0.98648">
        <ele>129</ele>
        <time>2021-12-19T08:56:13Z</time>
      </trkpt>
      <trkpt lat="46.70711" lon="-0.98657">
        <ele>128</ele>
        <time>2021-12-19T08:56:15Z</time>
      </trkpt>
      <trkpt lat="46.70706" lon="-0.98673">
        <ele>128</ele>
        <time>2021-12-19T08:56:17Z</time>
      </trkpt>
      <trkpt lat="46.70703" lon="-0.98688">
        <ele>127</ele>
        <time>2021-12-19T08:56:19Z</time>
      </trkpt>
      <trkpt lat="46.70702" lon="-0.98693">
        <ele>127</ele>
        <time>2021-12-19T08:56:20Z</time>
      </trkpt>
      <trkpt lat="46.70701" lon="-0.98704">
        <ele>127</ele>
        <time>2021-12-19T08:56:22Z</time>
      </trkpt>
      <trkpt lat="46.70701" lon="-0.98709">
        <ele>127</ele>
        <time>2021-12-19T08:56:23Z</time>
      </trkpt>
      <trkpt lat="46.707" lon="-0.9872">
        <ele>127</ele>
        <time>2021-12-19T08:56:25Z</time>
      </trkpt>
      <trkpt lat="46.70692" lon="-0.98727">
        <ele>127</ele>
        <time>2021-12-19T08:56:27Z</time>
      </trkpt>
      <trkpt lat="46.70689" lon="-0.98729">
        <ele>127</ele>
        <time>2021-12-19T08:56:28Z</time>
      </trkpt>
      <trkpt lat="46.70684" lon="-0.98731">
        <ele>126</ele>
        <time>2021-12-19T08:56:30Z</time>
      </trkpt>
      <trkpt lat="46.70679" lon="-0.98733">
        <ele>126</ele>
        <time>2021-12-19T08:56:32Z</time>
      </trkpt>
      <trkpt lat="46.70673" lon="-0.98736">
        <ele>126</ele>
        <time>2021-12-19T08:56:34Z</time>
      </trkpt>
      <trkpt lat="46.70666" lon="-0.98738">
        <ele>127</ele>
        <time>2021-12-19T08:56:36Z</time>
      </trkpt>
      <trkpt lat="46.70659" lon="-0.9874">
        <ele>127</ele>
        <time>2021-12-19T08:56:38Z</time>
      </trkpt>
      <trkpt lat="46.70656" lon="-0.9874">
        <ele>127</ele>
        <time>2021-12-19T08:56:39Z</time>
      </trkpt>
      <trkpt lat="46.70653" lon="-0.9874">
        <ele>127</ele>
        <time>2021-12-19T08:56:40Z</time>
      </trkpt>
      <trkpt lat="46.70652" lon="-0.98741">
        <ele>127</ele>
        <time>2021-12-19T08:56:41Z</time>
      </trkpt>
      <trkpt lat="46.70651" lon="-0.98742">
        <ele>127</ele>
        <time>2021-12-19T08:56:42Z</time>
      </trkpt>
      <trkpt lat="46.7065" lon="-0.98741">
        <ele>126</ele>
        <time>2021-12-19T08:56:44Z</time>
      </trkpt>
      <trkpt lat="46.7065" lon="-0.98741">
        <ele>126</ele>
        <time>2021-12-19T08:56:46Z</time>
      </trkpt>
      <trkpt lat="46.7065" lon="-0.98741">
        <ele>126</ele>
        <time>2021-12-19T08:56:47Z</time>
      </trkpt>
      <trkpt lat="46.7065" lon="-0.98741">
        <ele>126</ele>
        <time>2021-12-19T08:56:49Z</time>
      </trkpt>
      <trkpt lat="46.7065" lon="-0.98741">
        <ele>126</ele>
        <time>2021-12-19T08:56:51Z</time>
      </trkpt>
      <trkpt lat="46.7065" lon="-0.98741">
        <ele>126</ele>
        <time>2021-12-19T08:56:53Z</time>
      </trkpt>
      <trkpt lat="46.7065" lon="-0.98741">
        <ele>126</ele>
        <time>2021-12-19T08:56:54Z</time>
      </trkpt>
      <trkpt lat="46.7065" lon="-0.98741">
        <ele>126</ele>
        <time>2021-12-19T08:56:55Z</time>
      </trkpt>
      <trkpt lat="46.7065" lon="-0.98741">
        <ele>126</ele>
        <time>2021-12-19T08:56:57Z</time>
      </trkpt>
      <trkpt lat="46.7065" lon="-0.98741">
        <ele>126</ele>
        <time>2021-12-19T08:56:59Z</time>
      </trkpt>
      <trkpt lat="46.7065" lon="-0.98741">
        <ele>126</ele>
        <time>2021-12-19T08:57:01Z</time>
      </trkpt>
      <trkpt lat="46.7065" lon="-0.98741">
        <ele>126</ele>
        <time>2021-12-19T08:57:03Z</time>
      </trkpt>
      <trkpt lat="46.70647" lon="-0.9874">
        <ele>126</ele>
        <time>2021-12-19T08:57:05Z</time>
      </trkpt>
      <trkpt lat="46.70644" lon="-0.98739">
        <ele>126</ele>
        <time>2021-12-19T08:57:07Z</time>
      </trkpt>
      <trkpt lat="46.70641" lon="-0.9874">
        <ele>126</ele>
        <time>2021-12-19T08:57:08Z</time>
      </trkpt>
      <trkpt lat="46.70639" lon="-0.9874">
        <ele>126</ele>
        <time>2021-12-19T08:57:09Z</time>
      </trkpt>
      <trkpt lat="46.70635" lon="-0.98741">
        <ele>125</ele>
        <time>2021-12-19T08:57:11Z</time>
      </trkpt>
      <trkpt lat="46.70633" lon="-0.98741">
        <ele>125</ele>
        <time>2021-12-19T08:57:12Z</time>
      </trkpt>
      <trkpt lat="46.70628" lon="-0.98735">
        <ele>125</ele>
        <time>2021-12-19T08:57:14Z</time>
      </trkpt>
      <trkpt lat="46.70625" lon="-0.98731">
        <ele>126</ele>
        <time>2021-12-19T08:57:15Z</time>
      </trkpt>
      <trkpt lat="46.70622" lon="-0.98727">
        <ele>126</ele>
        <time>2021-12-19T08:57:16Z</time>
      </trkpt>
      <trkpt lat="46.70615" lon="-0.98726">
        <ele>127</ele>
        <time>2021-12-19T08:57:18Z</time>
      </trkpt>
      <trkpt lat="46.7061" lon="-0.98728">
        <ele>127</ele>
        <time>2021-12-19T08:57:19Z</time>
      </trkpt>
      <trkpt lat="46.70604" lon="-0.98731">
        <ele>127</ele>
        <time>2021-12-19T08:57:20Z</time>
      </trkpt>
      <trkpt lat="46.70592" lon="-0.98735">
        <ele>126</ele>
        <time>2021-12-19T08:57:22Z</time>
      </trkpt>
      <trkpt lat="46.70585" lon="-0.98737">
        <ele>126</ele>
        <time>2021-12-19T08:57:23Z</time>
      </trkpt>
      <trkpt lat="46.70578" lon="-0.98739">
        <ele>126</ele>
        <time>2021-12-19T08:57:24Z</time>
      </trkpt>
      <trkpt lat="46.7057" lon="-0.9874">
        <ele>126</ele>
        <time>2021-12-19T08:57:25Z</time>
      </trkpt>
      <trkpt lat="46.70554" lon="-0.98741">
        <ele>125</ele>
        <time>2021-12-19T08:57:27Z</time>
      </trkpt>
      <trkpt lat="46.70537" lon="-0.98744">
        <ele>125</ele>
        <time>2021-12-19T08:57:29Z</time>
      </trkpt>
      <trkpt lat="46.7052" lon="-0.98755">
        <ele>125</ele>
        <time>2021-12-19T08:57:31Z</time>
      </trkpt>
      <trkpt lat="46.70512" lon="-0.98762">
        <ele>124</ele>
        <time>2021-12-19T08:57:32Z</time>
      </trkpt>
      <trkpt lat="46.70504" lon="-0.9877">
        <ele>124</ele>
        <time>2021-12-19T08:57:33Z</time>
      </trkpt>
      <trkpt lat="46.70489" lon="-0.98787">
        <ele>124</ele>
        <time>2021-12-19T08:57:35Z</time>
      </trkpt>
      <trkpt lat="46.70481" lon="-0.98795">
        <ele>124</ele>
        <time>2021-12-19T08:57:36Z</time>
      </trkpt>
      <trkpt lat="46.70466" lon="-0.98812">
        <ele>123</ele>
        <time>2021-12-19T08:57:38Z</time>
      </trkpt>
      <trkpt lat="46.70459" lon="-0.9882">
        <ele>123</ele>
        <time>2021-12-19T08:57:39Z</time>
      </trkpt>
      <trkpt lat="46.70444" lon="-0.98836">
        <ele>122</ele>
        <time>2021-12-19T08:57:41Z</time>
      </trkpt>
      <trkpt lat="46.70437" lon="-0.98844">
        <ele>122</ele>
        <time>2021-12-19T08:57:42Z</time>
      </trkpt>
      <trkpt lat="46.70429" lon="-0.98851">
        <ele>122</ele>
        <time>2021-12-19T08:57:43Z</time>
      </trkpt>
      <trkpt lat="46.70421" lon="-0.98857">
        <ele>122</ele>
        <time>2021-12-19T08:57:44Z</time>
      </trkpt>
      <trkpt lat="46.70406" lon="-0.98865">
        <ele>122</ele>
        <time>2021-12-19T08:57:46Z</time>
      </trkpt>
      <trkpt lat="46.70399" lon="-0.98868">
        <ele>122</ele>
        <time>2021-12-19T08:57:47Z</time>
      </trkpt>
      <trkpt lat="46.70388" lon="-0.98871">
        <ele>121</ele>
        <time>2021-12-19T08:57:49Z</time>
      </trkpt>
      <trkpt lat="46.70384" lon="-0.98873">
        <ele>121</ele>
        <time>2021-12-19T08:57:50Z</time>
      </trkpt>
      <trkpt lat="46.70378" lon="-0.98876">
        <ele>122</ele>
        <time>2021-12-19T08:57:52Z</time>
      </trkpt>
      <trkpt lat="46.70375" lon="-0.98876">
        <ele>121</ele>
        <time>2021-12-19T08:57:53Z</time>
      </trkpt>
      <trkpt lat="46.70373" lon="-0.98877">
        <ele>121</ele>
        <time>2021-12-19T08:57:54Z</time>
      </trkpt>
      <trkpt lat="46.70367" lon="-0.9888">
        <ele>121</ele>
        <time>2021-12-19T08:57:56Z</time>
      </trkpt>
      <trkpt lat="46.70364" lon="-0.98882">
        <ele>120</ele>
        <time>2021-12-19T08:57:57Z</time>
      </trkpt>
      <trkpt lat="46.70358" lon="-0.98885">
        <ele>120</ele>
        <time>2021-12-19T08:57:59Z</time>
      </trkpt>
      <trkpt lat="46.70351" lon="-0.98888">
        <ele>120</ele>
        <time>2021-12-19T08:58:01Z</time>
      </trkpt>
      <trkpt lat="46.70348" lon="-0.98889">
        <ele>120</ele>
        <time>2021-12-19T08:58:02Z</time>
      </trkpt>
      <trkpt lat="46.70345" lon="-0.9889">
        <ele>120</ele>
        <time>2021-12-19T08:58:04Z</time>
      </trkpt>
      <trkpt lat="46.70345" lon="-0.98891">
        <ele>120</ele>
        <time>2021-12-19T08:58:05Z</time>
      </trkpt>
      <trkpt lat="46.70345" lon="-0.9889">
        <ele>119</ele>
        <time>2021-12-19T08:58:07Z</time>
      </trkpt>
      <trkpt lat="46.70345" lon="-0.9889">
        <ele>119</ele>
        <time>2021-12-19T08:58:08Z</time>
      </trkpt>
      <trkpt lat="46.70346" lon="-0.9889">
        <ele>120</ele>
        <time>2021-12-19T08:58:10Z</time>
      </trkpt>
      <trkpt lat="46.70346" lon="-0.98892">
        <ele>120</ele>
        <time>2021-12-19T08:58:11Z</time>
      </trkpt>
      <trkpt lat="46.70346" lon="-0.98893">
        <ele>120</ele>
        <time>2021-12-19T08:58:12Z</time>
      </trkpt>
      <trkpt lat="46.70346" lon="-0.98894">
        <ele>119</ele>
        <time>2021-12-19T08:58:14Z</time>
      </trkpt>
      <trkpt lat="46.70346" lon="-0.98894">
        <ele>119</ele>
        <time>2021-12-19T08:58:15Z</time>
      </trkpt>
      <trkpt lat="46.70346" lon="-0.98894">
        <ele>119</ele>
        <time>2021-12-19T08:58:17Z</time>
      </trkpt>
      <trkpt lat="46.70346" lon="-0.98894">
        <ele>119</ele>
        <time>2021-12-19T08:58:18Z</time>
      </trkpt>
      <trkpt lat="46.70346" lon="-0.98894">
        <ele>119</ele>
        <time>2021-12-19T08:58:20Z</time>
      </trkpt>
      <trkpt lat="46.70347" lon="-0.98894">
        <ele>119</ele>
        <time>2021-12-19T08:58:22Z</time>
      </trkpt>
      <trkpt lat="46.70347" lon="-0.98896">
        <ele>119</ele>
        <time>2021-12-19T08:58:24Z</time>
      </trkpt>
      <trkpt lat="46.70346" lon="-0.98895">
        <ele>119</ele>
        <time>2021-12-19T08:58:26Z</time>
      </trkpt>
      <trkpt lat="46.70346" lon="-0.98895">
        <ele>119</ele>
        <time>2021-12-19T08:58:27Z</time>
      </trkpt>
      <trkpt lat="46.70346" lon="-0.98895">
        <ele>119</ele>
        <time>2021-12-19T08:58:29Z</time>
      </trkpt>
      <trkpt lat="46.70346" lon="-0.98895">
        <ele>119</ele>
        <time>2021-12-19T08:58:30Z</time>
      </trkpt>
      <trkpt lat="46.70346" lon="-0.98895">
        <ele>119</ele>
        <time>2021-12-19T08:58:32Z</time>
      </trkpt>
      <trkpt lat="46.70346" lon="-0.98895">
        <ele>119</ele>
        <time>2021-12-19T08:58:34Z</time>
      </trkpt>
      <trkpt lat="46.70346" lon="-0.98895">
        <ele>119</ele>
        <time>2021-12-19T08:58:36Z</time>
      </trkpt>
      <trkpt lat="46.70346" lon="-0.98895">
        <ele>119</ele>
        <time>2021-12-19T08:58:38Z</time>
      </trkpt>
      <trkpt lat="46.70346" lon="-0.98895">
        <ele>119</ele>
        <time>2021-12-19T08:58:39Z</time>
      </trkpt>
      <trkpt lat="46.70346" lon="-0.98895">
        <ele>119</ele>
        <time>2021-12-19T08:58:41Z</time>
      </trkpt>
      <trkpt lat="46.70346" lon="-0.98895">
        <ele>119</ele>
        <time>2021-12-19T08:58:43Z</time>
      </trkpt>
      <trkpt lat="46.70346" lon="-0.98895">
        <ele>119</ele>
        <time>2021-12-19T08:58:44Z</time>
      </trkpt>
      <trkpt lat="46.70346" lon="-0.98895">
        <ele>119</ele>
        <time>2021-12-19T08:58:46Z</time>
      </trkpt>
      <trkpt lat="46.70346" lon="-0.98895">
        <ele>119</ele>
        <time>2021-12-19T08:58:47Z</time>
      </trkpt>
      <trkpt lat="46.70346" lon="-0.98895">
        <ele>119</ele>
        <time>2021-12-19T08:58:49Z</time>
      </trkpt>
      <trkpt lat="46.70346" lon="-0.98895">
        <ele>119</ele>
        <time>2021-12-19T08:58:51Z</time>
      </trkpt>
      <trkpt lat="46.70346" lon="-0.98895">
        <ele>119</ele>
        <time>2021-12-19T08:58:53Z</time>
      </trkpt>
      <trkpt lat="46.70346" lon="-0.98895">
        <ele>119</ele>
        <time>2021-12-19T08:58:55Z</time>
      </trkpt>
      <trkpt lat="46.70346" lon="-0.98895">
        <ele>119</ele>
        <time>2021-12-19T08:58:56Z</time>
      </trkpt>
      <trkpt lat="46.70346" lon="-0.98895">
        <ele>119</ele>
        <time>2021-12-19T08:58:57Z</time>
      </trkpt>
      <trkpt lat="46.70346" lon="-0.98895">
        <ele>119</ele>
        <time>2021-12-19T08:58:59Z</time>
      </trkpt>
      <trkpt lat="46.70346" lon="-0.98895">
        <ele>119</ele>
        <time>2021-12-19T08:59:00Z</time>
      </trkpt>
      <trkpt lat="46.70346" lon="-0.98895">
        <ele>119</ele>
        <time>2021-12-19T08:59:02Z</time>
      </trkpt>
      <trkpt lat="46.70346" lon="-0.98895">
        <ele>119</ele>
        <time>2021-12-19T08:59:04Z</time>
      </trkpt>
      <trkpt lat="46.70346" lon="-0.98895">
        <ele>119</ele>
        <time>2021-12-19T08:59:06Z</time>
      </trkpt>
      <trkpt lat="46.70346" lon="-0.98895">
        <ele>119</ele>
        <time>2021-12-19T08:59:07Z</time>
      </trkpt>
      <trkpt lat="46.70346" lon="-0.98895">
        <ele>119</ele>
        <time>2021-12-19T08:59:09Z</time>
      </trkpt>
      <trkpt lat="46.70346" lon="-0.98895">
        <ele>119</ele>
        <time>2021-12-19T08:59:11Z</time>
      </trkpt>
      <trkpt lat="46.70346" lon="-0.98895">
        <ele>119</ele>
        <time>2021-12-19T08:59:12Z</time>
      </trkpt>
      <trkpt lat="46.70346" lon="-0.98895">
        <ele>119</ele>
        <time>2021-12-19T08:59:14Z</time>
      </trkpt>
      <trkpt lat="46.70346" lon="-0.98895">
        <ele>119</ele>
        <time>2021-12-19T08:59:15Z</time>
      </trkpt>
      <trkpt lat="46.70346" lon="-0.98895">
        <ele>119</ele>
        <time>2021-12-19T08:59:16Z</time>
      </trkpt>
      <trkpt lat="46.70346" lon="-0.98895">
        <ele>118</ele>
        <time>2021-12-19T08:59:18Z</time>
      </trkpt>
      <trkpt lat="46.70345" lon="-0.98895">
        <ele>118</ele>
        <time>2021-12-19T08:59:20Z</time>
      </trkpt>
      <trkpt lat="46.70343" lon="-0.98896">
        <ele>118</ele>
        <time>2021-12-19T08:59:22Z</time>
      </trkpt>
      <trkpt lat="46.70341" lon="-0.98897">
        <ele>118</ele>
        <time>2021-12-19T08:59:23Z</time>
      </trkpt>
      <trkpt lat="46.70338" lon="-0.98897">
        <ele>117</ele>
        <time>2021-12-19T08:59:25Z</time>
      </trkpt>
      <trkpt lat="46.70336" lon="-0.98898">
        <ele>116</ele>
        <time>2021-12-19T08:59:26Z</time>
      </trkpt>
      <trkpt lat="46.70333" lon="-0.989">
        <ele>115</ele>
        <time>2021-12-19T08:59:27Z</time>
      </trkpt>
      <trkpt lat="46.7033" lon="-0.98902">
        <ele>115</ele>
        <time>2021-12-19T08:59:28Z</time>
      </trkpt>
      <trkpt lat="46.70325" lon="-0.98908">
        <ele>115</ele>
        <time>2021-12-19T08:59:30Z</time>
      </trkpt>
      <trkpt lat="46.7032" lon="-0.98915">
        <ele>115</ele>
        <time>2021-12-19T08:59:32Z</time>
      </trkpt>
      <trkpt lat="46.70317" lon="-0.98919">
        <ele>115</ele>
        <time>2021-12-19T08:59:33Z</time>
      </trkpt>
      <trkpt lat="46.70314" lon="-0.98923">
        <ele>116</ele>
        <time>2021-12-19T08:59:34Z</time>
      </trkpt>
      <trkpt lat="46.70309" lon="-0.98932">
        <ele>117</ele>
        <time>2021-12-19T08:59:36Z</time>
      </trkpt>
      <trkpt lat="46.70305" lon="-0.9894">
        <ele>117</ele>
        <time>2021-12-19T08:59:38Z</time>
      </trkpt>
      <trkpt lat="46.70302" lon="-0.98945">
        <ele>117</ele>
        <time>2021-12-19T08:59:39Z</time>
      </trkpt>
      <trkpt lat="46.70298" lon="-0.98955">
        <ele>117</ele>
        <time>2021-12-19T08:59:41Z</time>
      </trkpt>
      <trkpt lat="46.70296" lon="-0.98961">
        <ele>117</ele>
        <time>2021-12-19T08:59:42Z</time>
      </trkpt>
      <trkpt lat="46.70294" lon="-0.98967">
        <ele>117</ele>
        <time>2021-12-19T08:59:43Z</time>
      </trkpt>
      <trkpt lat="46.7029" lon="-0.98981">
        <ele>116</ele>
        <time>2021-12-19T08:59:45Z</time>
      </trkpt>
      <trkpt lat="46.70287" lon="-0.98996">
        <ele>116</ele>
        <time>2021-12-19T08:59:47Z</time>
      </trkpt>
      <trkpt lat="46.70286" lon="-0.99004">
        <ele>117</ele>
        <time>2021-12-19T08:59:48Z</time>
      </trkpt>
      <trkpt lat="46.70284" lon="-0.99011">
        <ele>116</ele>
        <time>2021-12-19T08:59:49Z</time>
      </trkpt>
      <trkpt lat="46.70282" lon="-0.99019">
        <ele>117</ele>
        <time>2021-12-19T08:59:50Z</time>
      </trkpt>
      <trkpt lat="46.7028" lon="-0.99026">
        <ele>117</ele>
        <time>2021-12-19T08:59:51Z</time>
      </trkpt>
      <trkpt lat="46.70276" lon="-0.9904">
        <ele>117</ele>
        <time>2021-12-19T08:59:53Z</time>
      </trkpt>
      <trkpt lat="46.70273" lon="-0.99046">
        <ele>117</ele>
        <time>2021-12-19T08:59:54Z</time>
      </trkpt>
      <trkpt lat="46.7027" lon="-0.99052">
        <ele>117</ele>
        <time>2021-12-19T08:59:55Z</time>
      </trkpt>
      <trkpt lat="46.70263" lon="-0.99064">
        <ele>117</ele>
        <time>2021-12-19T08:59:57Z</time>
      </trkpt>
      <trkpt lat="46.70259" lon="-0.99069">
        <ele>118</ele>
        <time>2021-12-19T08:59:58Z</time>
      </trkpt>
      <trkpt lat="46.70251" lon="-0.9908">
        <ele>118</ele>
        <time>2021-12-19T09:00:00Z</time>
      </trkpt>
      <trkpt lat="46.70241" lon="-0.99092">
        <ele>118</ele>
        <time>2021-12-19T09:00:02Z</time>
      </trkpt>
      <trkpt lat="46.70232" lon="-0.99103">
        <ele>118</ele>
        <time>2021-12-19T09:00:04Z</time>
      </trkpt>
      <trkpt lat="46.70222" lon="-0.99113">
        <ele>118</ele>
        <time>2021-12-19T09:00:06Z</time>
      </trkpt>
      <trkpt lat="46.70211" lon="-0.99123">
        <ele>117</ele>
        <time>2021-12-19T09:00:08Z</time>
      </trkpt>
      <trkpt lat="46.70206" lon="-0.99128">
        <ele>117</ele>
        <time>2021-12-19T09:00:09Z</time>
      </trkpt>
      <trkpt lat="46.702" lon="-0.99132">
        <ele>117</ele>
        <time>2021-12-19T09:00:10Z</time>
      </trkpt>
      <trkpt lat="46.70188" lon="-0.9914">
        <ele>118</ele>
        <time>2021-12-19T09:00:12Z</time>
      </trkpt>
      <trkpt lat="46.70182" lon="-0.99143">
        <ele>118</ele>
        <time>2021-12-19T09:00:13Z</time>
      </trkpt>
      <trkpt lat="46.7017" lon="-0.99149">
        <ele>118</ele>
        <time>2021-12-19T09:00:15Z</time>
      </trkpt>
      <trkpt lat="46.70156" lon="-0.99154">
        <ele>119</ele>
        <time>2021-12-19T09:00:17Z</time>
      </trkpt>
      <trkpt lat="46.70141" lon="-0.99158">
        <ele>119</ele>
        <time>2021-12-19T09:00:19Z</time>
      </trkpt>
      <trkpt lat="46.70125" lon="-0.99163">
        <ele>119</ele>
        <time>2021-12-19T09:00:21Z</time>
      </trkpt>
      <trkpt lat="46.70109" lon="-0.9917">
        <ele>119</ele>
        <time>2021-12-19T09:00:23Z</time>
      </trkpt>
      <trkpt lat="46.70102" lon="-0.99175">
        <ele>119</ele>
        <time>2021-12-19T09:00:24Z</time>
      </trkpt>
      <trkpt lat="46.70094" lon="-0.99181">
        <ele>119</ele>
        <time>2021-12-19T09:00:25Z</time>
      </trkpt>
      <trkpt lat="46.70087" lon="-0.99188">
        <ele>118</ele>
        <time>2021-12-19T09:00:26Z</time>
      </trkpt>
      <trkpt lat="46.70072" lon="-0.99201">
        <ele>119</ele>
        <time>2021-12-19T09:00:28Z</time>
      </trkpt>
      <trkpt lat="46.70065" lon="-0.99209">
        <ele>119</ele>
        <time>2021-12-19T09:00:29Z</time>
      </trkpt>
      <trkpt lat="46.70058" lon="-0.99216">
        <ele>119</ele>
        <time>2021-12-19T09:00:30Z</time>
      </trkpt>
      <trkpt lat="46.70051" lon="-0.99223">
        <ele>119</ele>
        <time>2021-12-19T09:00:31Z</time>
      </trkpt>
      <trkpt lat="46.70038" lon="-0.99235">
        <ele>118</ele>
        <time>2021-12-19T09:00:33Z</time>
      </trkpt>
      <trkpt lat="46.70031" lon="-0.99241">
        <ele>118</ele>
        <time>2021-12-19T09:00:34Z</time>
      </trkpt>
      <trkpt lat="46.70019" lon="-0.99252">
        <ele>119</ele>
        <time>2021-12-19T09:00:36Z</time>
      </trkpt>
      <trkpt lat="46.70013" lon="-0.99258">
        <ele>119</ele>
        <time>2021-12-19T09:00:37Z</time>
      </trkpt>
      <trkpt lat="46.70007" lon="-0.99264">
        <ele>119</ele>
        <time>2021-12-19T09:00:38Z</time>
      </trkpt>
      <trkpt lat="46.70001" lon="-0.99269">
        <ele>119</ele>
        <time>2021-12-19T09:00:39Z</time>
      </trkpt>
      <trkpt lat="46.69996" lon="-0.99275">
        <ele>120</ele>
        <time>2021-12-19T09:00:40Z</time>
      </trkpt>
      <trkpt lat="46.6999" lon="-0.9928">
        <ele>120</ele>
        <time>2021-12-19T09:00:41Z</time>
      </trkpt>
      <trkpt lat="46.69985" lon="-0.99284">
        <ele>120</ele>
        <time>2021-12-19T09:00:42Z</time>
      </trkpt>
      <trkpt lat="46.69976" lon="-0.99292">
        <ele>121</ele>
        <time>2021-12-19T09:00:44Z</time>
      </trkpt>
      <trkpt lat="46.69967" lon="-0.99301">
        <ele>122</ele>
        <time>2021-12-19T09:00:46Z</time>
      </trkpt>
      <trkpt lat="46.69958" lon="-0.9931">
        <ele>122</ele>
        <time>2021-12-19T09:00:48Z</time>
      </trkpt>
      <trkpt lat="46.69954" lon="-0.99314">
        <ele>122</ele>
        <time>2021-12-19T09:00:49Z</time>
      </trkpt>
      <trkpt lat="46.69945" lon="-0.99321">
        <ele>122</ele>
        <time>2021-12-19T09:00:51Z</time>
      </trkpt>
      <trkpt lat="46.6994" lon="-0.99325">
        <ele>123</ele>
        <time>2021-12-19T09:00:52Z</time>
      </trkpt>
      <trkpt lat="46.6993" lon="-0.99331">
        <ele>123</ele>
        <time>2021-12-19T09:00:54Z</time>
      </trkpt>
      <trkpt lat="46.69926" lon="-0.99335">
        <ele>123</ele>
        <time>2021-12-19T09:00:55Z</time>
      </trkpt>
      <trkpt lat="46.69915" lon="-0.99341">
        <ele>123</ele>
        <time>2021-12-19T09:00:57Z</time>
      </trkpt>
      <trkpt lat="46.69905" lon="-0.99344">
        <ele>123</ele>
        <time>2021-12-19T09:00:59Z</time>
      </trkpt>
      <trkpt lat="46.69894" lon="-0.99346">
        <ele>123</ele>
        <time>2021-12-19T09:01:01Z</time>
      </trkpt>
      <trkpt lat="46.69889" lon="-0.99348">
        <ele>123</ele>
        <time>2021-12-19T09:01:02Z</time>
      </trkpt>
      <trkpt lat="46.69877" lon="-0.99351">
        <ele>123</ele>
        <time>2021-12-19T09:01:04Z</time>
      </trkpt>
      <trkpt lat="46.69866" lon="-0.99355">
        <ele>123</ele>
        <time>2021-12-19T09:01:06Z</time>
      </trkpt>
      <trkpt lat="46.6986" lon="-0.99356">
        <ele>123</ele>
        <time>2021-12-19T09:01:07Z</time>
      </trkpt>
      <trkpt lat="46.69848" lon="-0.99359">
        <ele>123</ele>
        <time>2021-12-19T09:01:09Z</time>
      </trkpt>
      <trkpt lat="46.69842" lon="-0.99361">
        <ele>123</ele>
        <time>2021-12-19T09:01:10Z</time>
      </trkpt>
      <trkpt lat="46.6983" lon="-0.99365">
        <ele>124</ele>
        <time>2021-12-19T09:01:12Z</time>
      </trkpt>
      <trkpt lat="46.69824" lon="-0.99367">
        <ele>124</ele>
        <time>2021-12-19T09:01:13Z</time>
      </trkpt>
      <trkpt lat="46.69811" lon="-0.99372">
        <ele>124</ele>
        <time>2021-12-19T09:01:15Z</time>
      </trkpt>
      <trkpt lat="46.69805" lon="-0.99374">
        <ele>124</ele>
        <time>2021-12-19T09:01:16Z</time>
      </trkpt>
      <trkpt lat="46.69792" lon="-0.99379">
        <ele>124</ele>
        <time>2021-12-19T09:01:18Z</time>
      </trkpt>
      <trkpt lat="46.69779" lon="-0.99384">
        <ele>124</ele>
        <time>2021-12-19T09:01:20Z</time>
      </trkpt>
      <trkpt lat="46.69766" lon="-0.9939">
        <ele>124</ele>
        <time>2021-12-19T09:01:22Z</time>
      </trkpt>
      <trkpt lat="46.69752" lon="-0.99396">
        <ele>124</ele>
        <time>2021-12-19T09:01:24Z</time>
      </trkpt>
      <trkpt lat="46.69745" lon="-0.99399">
        <ele>124</ele>
        <time>2021-12-19T09:01:25Z</time>
      </trkpt>
      <trkpt lat="46.69739" lon="-0.99403">
        <ele>124</ele>
        <time>2021-12-19T09:01:26Z</time>
      </trkpt>
      <trkpt lat="46.69732" lon="-0.99407">
        <ele>124</ele>
        <time>2021-12-19T09:01:27Z</time>
      </trkpt>
      <trkpt lat="46.69718" lon="-0.99414">
        <ele>124</ele>
        <time>2021-12-19T09:01:29Z</time>
      </trkpt>
      <trkpt lat="46.69711" lon="-0.99418">
        <ele>124</ele>
        <time>2021-12-19T09:01:30Z</time>
      </trkpt>
      <trkpt lat="46.69705" lon="-0.99422">
        <ele>124</ele>
        <time>2021-12-19T09:01:31Z</time>
      </trkpt>
      <trkpt lat="46.69699" lon="-0.99426">
        <ele>124</ele>
        <time>2021-12-19T09:01:32Z</time>
      </trkpt>
      <trkpt lat="46.69685" lon="-0.99434">
        <ele>124</ele>
        <time>2021-12-19T09:01:34Z</time>
      </trkpt>
      <trkpt lat="46.69671" lon="-0.99442">
        <ele>124</ele>
        <time>2021-12-19T09:01:36Z</time>
      </trkpt>
      <trkpt lat="46.69657" lon="-0.9945">
        <ele>124</ele>
        <time>2021-12-19T09:01:38Z</time>
      </trkpt>
      <trkpt lat="46.69643" lon="-0.99458">
        <ele>123</ele>
        <time>2021-12-19T09:01:40Z</time>
      </trkpt>
      <trkpt lat="46.69635" lon="-0.99462">
        <ele>123</ele>
        <time>2021-12-19T09:01:41Z</time>
      </trkpt>
      <trkpt lat="46.6962" lon="-0.99469">
        <ele>123</ele>
        <time>2021-12-19T09:01:43Z</time>
      </trkpt>
      <trkpt lat="46.69604" lon="-0.99473">
        <ele>123</ele>
        <time>2021-12-19T09:01:45Z</time>
      </trkpt>
      <trkpt lat="46.69587" lon="-0.99475">
        <ele>124</ele>
        <time>2021-12-19T09:01:47Z</time>
      </trkpt>
      <trkpt lat="46.69572" lon="-0.99474">
        <ele>123</ele>
        <time>2021-12-19T09:01:49Z</time>
      </trkpt>
      <trkpt lat="46.69564" lon="-0.99472">
        <ele>123</ele>
        <time>2021-12-19T09:01:50Z</time>
      </trkpt>
      <trkpt lat="46.69549" lon="-0.99469">
        <ele>123</ele>
        <time>2021-12-19T09:01:52Z</time>
      </trkpt>
      <trkpt lat="46.69535" lon="-0.99464">
        <ele>124</ele>
        <time>2021-12-19T09:01:54Z</time>
      </trkpt>
      <trkpt lat="46.6952" lon="-0.99459">
        <ele>124</ele>
        <time>2021-12-19T09:01:56Z</time>
      </trkpt>
      <trkpt lat="46.69513" lon="-0.99456">
        <ele>124</ele>
        <time>2021-12-19T09:01:57Z</time>
      </trkpt>
      <trkpt lat="46.69505" lon="-0.99453">
        <ele>123</ele>
        <time>2021-12-19T09:01:58Z</time>
      </trkpt>
      <trkpt lat="46.69498" lon="-0.99451">
        <ele>123</ele>
        <time>2021-12-19T09:01:59Z</time>
      </trkpt>
      <trkpt lat="46.69483" lon="-0.99446">
        <ele>123</ele>
        <time>2021-12-19T09:02:01Z</time>
      </trkpt>
      <trkpt lat="46.69468" lon="-0.99439">
        <ele>124</ele>
        <time>2021-12-19T09:02:03Z</time>
      </trkpt>
      <trkpt lat="46.69461" lon="-0.99437">
        <ele>124</ele>
        <time>2021-12-19T09:02:04Z</time>
      </trkpt>
      <trkpt lat="46.69453" lon="-0.99434">
        <ele>124</ele>
        <time>2021-12-19T09:02:05Z</time>
      </trkpt>
      <trkpt lat="46.69438" lon="-0.99429">
        <ele>124</ele>
        <time>2021-12-19T09:02:07Z</time>
      </trkpt>
      <trkpt lat="46.69431" lon="-0.99427">
        <ele>123</ele>
        <time>2021-12-19T09:02:08Z</time>
      </trkpt>
      <trkpt lat="46.69416" lon="-0.99425">
        <ele>123</ele>
        <time>2021-12-19T09:02:10Z</time>
      </trkpt>
      <trkpt lat="46.69409" lon="-0.99423">
        <ele>123</ele>
        <time>2021-12-19T09:02:11Z</time>
      </trkpt>
      <trkpt lat="46.69401" lon="-0.99422">
        <ele>123</ele>
        <time>2021-12-19T09:02:12Z</time>
      </trkpt>
      <trkpt lat="46.69394" lon="-0.99421">
        <ele>123</ele>
        <time>2021-12-19T09:02:13Z</time>
      </trkpt>
      <trkpt lat="46.69379" lon="-0.9942">
        <ele>122</ele>
        <time>2021-12-19T09:02:15Z</time>
      </trkpt>
      <trkpt lat="46.69371" lon="-0.9942">
        <ele>122</ele>
        <time>2021-12-19T09:02:16Z</time>
      </trkpt>
      <trkpt lat="46.69356" lon="-0.99421">
        <ele>122</ele>
        <time>2021-12-19T09:02:18Z</time>
      </trkpt>
      <trkpt lat="46.69349" lon="-0.99421">
        <ele>121</ele>
        <time>2021-12-19T09:02:19Z</time>
      </trkpt>
      <trkpt lat="46.69334" lon="-0.99421">
        <ele>121</ele>
        <time>2021-12-19T09:02:21Z</time>
      </trkpt>
      <trkpt lat="46.6932" lon="-0.99421">
        <ele>122</ele>
        <time>2021-12-19T09:02:23Z</time>
      </trkpt>
      <trkpt lat="46.69312" lon="-0.99421">
        <ele>122</ele>
        <time>2021-12-19T09:02:24Z</time>
      </trkpt>
      <trkpt lat="46.69297" lon="-0.99421">
        <ele>121</ele>
        <time>2021-12-19T09:02:26Z</time>
      </trkpt>
      <trkpt lat="46.69282" lon="-0.9942">
        <ele>121</ele>
        <time>2021-12-19T09:02:28Z</time>
      </trkpt>
      <trkpt lat="46.69274" lon="-0.99419">
        <ele>121</ele>
        <time>2021-12-19T09:02:29Z</time>
      </trkpt>
      <trkpt lat="46.69266" lon="-0.99417">
        <ele>121</ele>
        <time>2021-12-19T09:02:30Z</time>
      </trkpt>
      <trkpt lat="46.69251" lon="-0.99414">
        <ele>121</ele>
        <time>2021-12-19T09:02:32Z</time>
      </trkpt>
      <trkpt lat="46.69235" lon="-0.9941">
        <ele>121</ele>
        <time>2021-12-19T09:02:34Z</time>
      </trkpt>
      <trkpt lat="46.69227" lon="-0.99407">
        <ele>121</ele>
        <time>2021-12-19T09:02:35Z</time>
      </trkpt>
      <trkpt lat="46.69212" lon="-0.99401">
        <ele>121</ele>
        <time>2021-12-19T09:02:37Z</time>
      </trkpt>
      <trkpt lat="46.69204" lon="-0.99398">
        <ele>121</ele>
        <time>2021-12-19T09:02:38Z</time>
      </trkpt>
      <trkpt lat="46.69196" lon="-0.99395">
        <ele>120</ele>
        <time>2021-12-19T09:02:39Z</time>
      </trkpt>
      <trkpt lat="46.69181" lon="-0.99389">
        <ele>120</ele>
        <time>2021-12-19T09:02:41Z</time>
      </trkpt>
      <trkpt lat="46.69165" lon="-0.99381">
        <ele>121</ele>
        <time>2021-12-19T09:02:43Z</time>
      </trkpt>
      <trkpt lat="46.6915" lon="-0.99374">
        <ele>120</ele>
        <time>2021-12-19T09:02:45Z</time>
      </trkpt>
      <trkpt lat="46.69143" lon="-0.9937">
        <ele>120</ele>
        <time>2021-12-19T09:02:46Z</time>
      </trkpt>
      <trkpt lat="46.69135" lon="-0.99366">
        <ele>121</ele>
        <time>2021-12-19T09:02:47Z</time>
      </trkpt>
      <trkpt lat="46.69119" lon="-0.99359">
        <ele>121</ele>
        <time>2021-12-19T09:02:49Z</time>
      </trkpt>
      <trkpt lat="46.69104" lon="-0.99351">
        <ele>121</ele>
        <time>2021-12-19T09:02:51Z</time>
      </trkpt>
      <trkpt lat="46.69088" lon="-0.99347">
        <ele>120</ele>
        <time>2021-12-19T09:02:53Z</time>
      </trkpt>
      <trkpt lat="46.69072" lon="-0.99346">
        <ele>119</ele>
        <time>2021-12-19T09:02:55Z</time>
      </trkpt>
      <trkpt lat="46.69054" lon="-0.99349">
        <ele>119</ele>
        <time>2021-12-19T09:02:57Z</time>
      </trkpt>
      <trkpt lat="46.69038" lon="-0.99356">
        <ele>119</ele>
        <time>2021-12-19T09:02:59Z</time>
      </trkpt>
      <trkpt lat="46.69023" lon="-0.99365">
        <ele>119</ele>
        <time>2021-12-19T09:03:01Z</time>
      </trkpt>
      <trkpt lat="46.69008" lon="-0.99373">
        <ele>118</ele>
        <time>2021-12-19T09:03:03Z</time>
      </trkpt>
      <trkpt lat="46.68999" lon="-0.99377">
        <ele>118</ele>
        <time>2021-12-19T09:03:04Z</time>
      </trkpt>
      <trkpt lat="46.68984" lon="-0.99385">
        <ele>118</ele>
        <time>2021-12-19T09:03:06Z</time>
      </trkpt>
      <trkpt lat="46.68967" lon="-0.99394">
        <ele>117</ele>
        <time>2021-12-19T09:03:08Z</time>
      </trkpt>
      <trkpt lat="46.68959" lon="-0.99398">
        <ele>117</ele>
        <time>2021-12-19T09:03:09Z</time>
      </trkpt>
      <trkpt lat="46.6895" lon="-0.99403">
        <ele>117</ele>
        <time>2021-12-19T09:03:10Z</time>
      </trkpt>
      <trkpt lat="46.68933" lon="-0.99411">
        <ele>117</ele>
        <time>2021-12-19T09:03:12Z</time>
      </trkpt>
      <trkpt lat="46.68925" lon="-0.99416">
        <ele>116</ele>
        <time>2021-12-19T09:03:13Z</time>
      </trkpt>
      <trkpt lat="46.68917" lon="-0.9942">
        <ele>116</ele>
        <time>2021-12-19T09:03:14Z</time>
      </trkpt>
      <trkpt lat="46.689" lon="-0.99429">
        <ele>116</ele>
        <time>2021-12-19T09:03:16Z</time>
      </trkpt>
      <trkpt lat="46.68892" lon="-0.99433">
        <ele>116</ele>
        <time>2021-12-19T09:03:17Z</time>
      </trkpt>
      <trkpt lat="46.68875" lon="-0.99441">
        <ele>116</ele>
        <time>2021-12-19T09:03:19Z</time>
      </trkpt>
      <trkpt lat="46.68867" lon="-0.99446">
        <ele>116</ele>
        <time>2021-12-19T09:03:20Z</time>
      </trkpt>
      <trkpt lat="46.68851" lon="-0.99456">
        <ele>115</ele>
        <time>2021-12-19T09:03:22Z</time>
      </trkpt>
      <trkpt lat="46.68843" lon="-0.99463">
        <ele>114</ele>
        <time>2021-12-19T09:03:23Z</time>
      </trkpt>
      <trkpt lat="46.68836" lon="-0.99471">
        <ele>114</ele>
        <time>2021-12-19T09:03:24Z</time>
      </trkpt>
      <trkpt lat="46.68824" lon="-0.99491">
        <ele>113</ele>
        <time>2021-12-19T09:03:26Z</time>
      </trkpt>
      <trkpt lat="46.68819" lon="-0.99502">
        <ele>112</ele>
        <time>2021-12-19T09:03:27Z</time>
      </trkpt>
      <trkpt lat="46.68809" lon="-0.99524">
        <ele>111</ele>
        <time>2021-12-19T09:03:29Z</time>
      </trkpt>
      <trkpt lat="46.68805" lon="-0.99534">
        <ele>111</ele>
        <time>2021-12-19T09:03:30Z</time>
      </trkpt>
      <trkpt lat="46.68795" lon="-0.99554">
        <ele>110</ele>
        <time>2021-12-19T09:03:32Z</time>
      </trkpt>
      <trkpt lat="46.68783" lon="-0.99571">
        <ele>108</ele>
        <time>2021-12-19T09:03:34Z</time>
      </trkpt>
      <trkpt lat="46.68771" lon="-0.99586">
        <ele>107</ele>
        <time>2021-12-19T09:03:36Z</time>
      </trkpt>
      <trkpt lat="46.68763" lon="-0.99593">
        <ele>106</ele>
        <time>2021-12-19T09:03:37Z</time>
      </trkpt>
      <trkpt lat="46.68747" lon="-0.996">
        <ele>105</ele>
        <time>2021-12-19T09:03:39Z</time>
      </trkpt>
      <trkpt lat="46.68738" lon="-0.99601">
        <ele>104</ele>
        <time>2021-12-19T09:03:40Z</time>
      </trkpt>
      <trkpt lat="46.68729" lon="-0.996">
        <ele>104</ele>
        <time>2021-12-19T09:03:41Z</time>
      </trkpt>
      <trkpt lat="46.68721" lon="-0.99597">
        <ele>104</ele>
        <time>2021-12-19T09:03:42Z</time>
      </trkpt>
      <trkpt lat="46.68713" lon="-0.9959">
        <ele>104</ele>
        <time>2021-12-19T09:03:43Z</time>
      </trkpt>
      <trkpt lat="46.68699" lon="-0.99574">
        <ele>101</ele>
        <time>2021-12-19T09:03:45Z</time>
      </trkpt>
      <trkpt lat="46.68684" lon="-0.99565">
        <ele>99</ele>
        <time>2021-12-19T09:03:47Z</time>
      </trkpt>
      <trkpt lat="46.68667" lon="-0.99571">
        <ele>97</ele>
        <time>2021-12-19T09:03:49Z</time>
      </trkpt>
      <trkpt lat="46.68659" lon="-0.9958">
        <ele>97</ele>
        <time>2021-12-19T09:03:50Z</time>
      </trkpt>
      <trkpt lat="46.68644" lon="-0.996">
        <ele>96</ele>
        <time>2021-12-19T09:03:52Z</time>
      </trkpt>
      <trkpt lat="46.68623" lon="-0.99611">
        <ele>94</ele>
        <time>2021-12-19T09:03:54Z</time>
      </trkpt>
      <trkpt lat="46.68602" lon="-0.99619">
        <ele>93</ele>
        <time>2021-12-19T09:03:56Z</time>
      </trkpt>
      <trkpt lat="46.68593" lon="-0.99628">
        <ele>92</ele>
        <time>2021-12-19T09:03:57Z</time>
      </trkpt>
      <trkpt lat="46.6858" lon="-0.99653">
        <ele>90</ele>
        <time>2021-12-19T09:03:59Z</time>
      </trkpt>
      <trkpt lat="46.68575" lon="-0.99667">
        <ele>89</ele>
        <time>2021-12-19T09:04:00Z</time>
      </trkpt>
      <trkpt lat="46.68564" lon="-0.99693">
        <ele>88</ele>
        <time>2021-12-19T09:04:02Z</time>
      </trkpt>
      <trkpt lat="46.68552" lon="-0.9972">
        <ele>88</ele>
        <time>2021-12-19T09:04:04Z</time>
      </trkpt>
      <trkpt lat="46.68546" lon="-0.99733">
        <ele>88</ele>
        <time>2021-12-19T09:04:05Z</time>
      </trkpt>
      <trkpt lat="46.68539" lon="-0.99746">
        <ele>87</ele>
        <time>2021-12-19T09:04:06Z</time>
      </trkpt>
      <trkpt lat="46.68533" lon="-0.99759">
        <ele>87</ele>
        <time>2021-12-19T09:04:07Z</time>
      </trkpt>
      <trkpt lat="46.68521" lon="-0.99784">
        <ele>86</ele>
        <time>2021-12-19T09:04:09Z</time>
      </trkpt>
      <trkpt lat="46.68515" lon="-0.99797">
        <ele>86</ele>
        <time>2021-12-19T09:04:10Z</time>
      </trkpt>
      <trkpt lat="46.68502" lon="-0.99823">
        <ele>86</ele>
        <time>2021-12-19T09:04:12Z</time>
      </trkpt>
      <trkpt lat="46.68496" lon="-0.99836">
        <ele>86</ele>
        <time>2021-12-19T09:04:13Z</time>
      </trkpt>
      <trkpt lat="46.68483" lon="-0.9986">
        <ele>85</ele>
        <time>2021-12-19T09:04:15Z</time>
      </trkpt>
      <trkpt lat="46.68469" lon="-0.99881">
        <ele>85</ele>
        <time>2021-12-19T09:04:17Z</time>
      </trkpt>
      <trkpt lat="46.68462" lon="-0.99892">
        <ele>86</ele>
        <time>2021-12-19T09:04:18Z</time>
      </trkpt>
      <trkpt lat="46.68449" lon="-0.99911">
        <ele>86</ele>
        <time>2021-12-19T09:04:20Z</time>
      </trkpt>
      <trkpt lat="46.68443" lon="-0.99921">
        <ele>87</ele>
        <time>2021-12-19T09:04:21Z</time>
      </trkpt>
      <trkpt lat="46.6843" lon="-0.99936">
        <ele>88</ele>
        <time>2021-12-19T09:04:23Z</time>
      </trkpt>
      <trkpt lat="46.68424" lon="-0.99943">
        <ele>89</ele>
        <time>2021-12-19T09:04:24Z</time>
      </trkpt>
      <trkpt lat="46.68415" lon="-0.99958">
        <ele>90</ele>
        <time>2021-12-19T09:04:26Z</time>
      </trkpt>
      <trkpt lat="46.68407" lon="-0.99971">
        <ele>91</ele>
        <time>2021-12-19T09:04:28Z</time>
      </trkpt>
      <trkpt lat="46.684" lon="-0.9998">
        <ele>92</ele>
        <time>2021-12-19T09:04:30Z</time>
      </trkpt>
      <trkpt lat="46.68398" lon="-0.99985">
        <ele>93</ele>
        <time>2021-12-19T09:04:31Z</time>
      </trkpt>
      <trkpt lat="46.68396" lon="-0.9999">
        <ele>93</ele>
        <time>2021-12-19T09:04:32Z</time>
      </trkpt>
      <trkpt lat="46.68393" lon="-1">
        <ele>94</ele>
        <time>2021-12-19T09:04:34Z</time>
      </trkpt>
      <trkpt lat="46.68389" lon="-1.00009">
        <ele>95</ele>
        <time>2021-12-19T09:04:36Z</time>
      </trkpt>
      <trkpt lat="46.68386" lon="-1.00019">
        <ele>95</ele>
        <time>2021-12-19T09:04:38Z</time>
      </trkpt>
      <trkpt lat="46.68384" lon="-1.00029">
        <ele>96</ele>
        <time>2021-12-19T09:04:40Z</time>
      </trkpt>
      <trkpt lat="46.68381" lon="-1.00038">
        <ele>97</ele>
        <time>2021-12-19T09:04:42Z</time>
      </trkpt>
      <trkpt lat="46.68379" lon="-1.00043">
        <ele>97</ele>
        <time>2021-12-19T09:04:43Z</time>
      </trkpt>
      <trkpt lat="46.68377" lon="-1.00052">
        <ele>98</ele>
        <time>2021-12-19T09:04:45Z</time>
      </trkpt>
      <trkpt lat="46.68375" lon="-1.0006">
        <ele>98</ele>
        <time>2021-12-19T09:04:47Z</time>
      </trkpt>
      <trkpt lat="46.68377" lon="-1.00068">
        <ele>98</ele>
        <time>2021-12-19T09:04:49Z</time>
      </trkpt>
      <trkpt lat="46.68385" lon="-1.00077">
        <ele>99</ele>
        <time>2021-12-19T09:04:51Z</time>
      </trkpt>
      <trkpt lat="46.68395" lon="-1.00086">
        <ele>99</ele>
        <time>2021-12-19T09:04:53Z</time>
      </trkpt>
      <trkpt lat="46.68399" lon="-1.00091">
        <ele>99</ele>
        <time>2021-12-19T09:04:54Z</time>
      </trkpt>
      <trkpt lat="46.68409" lon="-1.00102">
        <ele>99</ele>
        <time>2021-12-19T09:04:56Z</time>
      </trkpt>
      <trkpt lat="46.68419" lon="-1.00113">
        <ele>100</ele>
        <time>2021-12-19T09:04:58Z</time>
      </trkpt>
      <trkpt lat="46.68425" lon="-1.00119">
        <ele>100</ele>
        <time>2021-12-19T09:04:59Z</time>
      </trkpt>
      <trkpt lat="46.6843" lon="-1.00126">
        <ele>100</ele>
        <time>2021-12-19T09:05:00Z</time>
      </trkpt>
      <trkpt lat="46.6844" lon="-1.00138">
        <ele>100</ele>
        <time>2021-12-19T09:05:02Z</time>
      </trkpt>
      <trkpt lat="46.68451" lon="-1.00151">
        <ele>100</ele>
        <time>2021-12-19T09:05:04Z</time>
      </trkpt>
      <trkpt lat="46.68456" lon="-1.00158">
        <ele>100</ele>
        <time>2021-12-19T09:05:05Z</time>
      </trkpt>
      <trkpt lat="46.68466" lon="-1.00173">
        <ele>101</ele>
        <time>2021-12-19T09:05:07Z</time>
      </trkpt>
      <trkpt lat="46.6847" lon="-1.00181">
        <ele>101</ele>
        <time>2021-12-19T09:05:08Z</time>
      </trkpt>
      <trkpt lat="46.68479" lon="-1.00197">
        <ele>101</ele>
        <time>2021-12-19T09:05:10Z</time>
      </trkpt>
      <trkpt lat="46.68483" lon="-1.00205">
        <ele>101</ele>
        <time>2021-12-19T09:05:11Z</time>
      </trkpt>
      <trkpt lat="46.68488" lon="-1.00214">
        <ele>101</ele>
        <time>2021-12-19T09:05:12Z</time>
      </trkpt>
      <trkpt lat="46.68492" lon="-1.00224">
        <ele>101</ele>
        <time>2021-12-19T09:05:13Z</time>
      </trkpt>
      <trkpt lat="46.68501" lon="-1.00243">
        <ele>101</ele>
        <time>2021-12-19T09:05:15Z</time>
      </trkpt>
      <trkpt lat="46.68506" lon="-1.00252">
        <ele>101</ele>
        <time>2021-12-19T09:05:16Z</time>
      </trkpt>
      <trkpt lat="46.68511" lon="-1.0026">
        <ele>101</ele>
        <time>2021-12-19T09:05:17Z</time>
      </trkpt>
      <trkpt lat="46.68522" lon="-1.00276">
        <ele>101</ele>
        <time>2021-12-19T09:05:19Z</time>
      </trkpt>
      <trkpt lat="46.68532" lon="-1.00289">
        <ele>102</ele>
        <time>2021-12-19T09:05:21Z</time>
      </trkpt>
      <trkpt lat="46.68541" lon="-1.00302">
        <ele>102</ele>
        <time>2021-12-19T09:05:23Z</time>
      </trkpt>
      <trkpt lat="46.68549" lon="-1.00315">
        <ele>103</ele>
        <time>2021-12-19T09:05:25Z</time>
      </trkpt>
      <trkpt lat="46.68557" lon="-1.00329">
        <ele>104</ele>
        <time>2021-12-19T09:05:27Z</time>
      </trkpt>
      <trkpt lat="46.68561" lon="-1.00335">
        <ele>104</ele>
        <time>2021-12-19T09:05:28Z</time>
      </trkpt>
      <trkpt lat="46.68569" lon="-1.00348">
        <ele>105</ele>
        <time>2021-12-19T09:05:30Z</time>
      </trkpt>
      <trkpt lat="46.68573" lon="-1.00355">
        <ele>105</ele>
        <time>2021-12-19T09:05:31Z</time>
      </trkpt>
      <trkpt lat="46.68579" lon="-1.00369">
        <ele>106</ele>
        <time>2021-12-19T09:05:33Z</time>
      </trkpt>
      <trkpt lat="46.68586" lon="-1.00382">
        <ele>106</ele>
        <time>2021-12-19T09:05:35Z</time>
      </trkpt>
      <trkpt lat="46.68592" lon="-1.00395">
        <ele>106</ele>
        <time>2021-12-19T09:05:37Z</time>
      </trkpt>
      <trkpt lat="46.68599" lon="-1.00408">
        <ele>107</ele>
        <time>2021-12-19T09:05:39Z</time>
      </trkpt>
      <trkpt lat="46.68602" lon="-1.00415">
        <ele>107</ele>
        <time>2021-12-19T09:05:40Z</time>
      </trkpt>
      <trkpt lat="46.68605" lon="-1.00422">
        <ele>108</ele>
        <time>2021-12-19T09:05:41Z</time>
      </trkpt>
      <trkpt lat="46.68608" lon="-1.0043">
        <ele>108</ele>
        <time>2021-12-19T09:05:42Z</time>
      </trkpt>
      <trkpt lat="46.68611" lon="-1.00437">
        <ele>108</ele>
        <time>2021-12-19T09:05:43Z</time>
      </trkpt>
      <trkpt lat="46.68613" lon="-1.00444">
        <ele>109</ele>
        <time>2021-12-19T09:05:44Z</time>
      </trkpt>
      <trkpt lat="46.68617" lon="-1.0046">
        <ele>110</ele>
        <time>2021-12-19T09:05:46Z</time>
      </trkpt>
      <trkpt lat="46.68619" lon="-1.00476">
        <ele>110</ele>
        <time>2021-12-19T09:05:48Z</time>
      </trkpt>
      <trkpt lat="46.6862" lon="-1.00485">
        <ele>110</ele>
        <time>2021-12-19T09:05:49Z</time>
      </trkpt>
      <trkpt lat="46.68621" lon="-1.00502">
        <ele>109</ele>
        <time>2021-12-19T09:05:51Z</time>
      </trkpt>
      <trkpt lat="46.68621" lon="-1.00511">
        <ele>110</ele>
        <time>2021-12-19T09:05:52Z</time>
      </trkpt>
      <trkpt lat="46.68621" lon="-1.00531">
        <ele>109</ele>
        <time>2021-12-19T09:05:54Z</time>
      </trkpt>
      <trkpt lat="46.68621" lon="-1.00542">
        <ele>109</ele>
        <time>2021-12-19T09:05:55Z</time>
      </trkpt>
      <trkpt lat="46.68622" lon="-1.00566">
        <ele>109</ele>
        <time>2021-12-19T09:05:57Z</time>
      </trkpt>
      <trkpt lat="46.68625" lon="-1.00591">
        <ele>108</ele>
        <time>2021-12-19T09:05:59Z</time>
      </trkpt>
      <trkpt lat="46.68628" lon="-1.00604">
        <ele>108</ele>
        <time>2021-12-19T09:06:00Z</time>
      </trkpt>
      <trkpt lat="46.68635" lon="-1.00627">
        <ele>108</ele>
        <time>2021-12-19T09:06:02Z</time>
      </trkpt>
      <trkpt lat="46.68638" lon="-1.00639">
        <ele>108</ele>
        <time>2021-12-19T09:06:03Z</time>
      </trkpt>
      <trkpt lat="46.68642" lon="-1.00652">
        <ele>107</ele>
        <time>2021-12-19T09:06:04Z</time>
      </trkpt>
      <trkpt lat="46.68651" lon="-1.00676">
        <ele>106</ele>
        <time>2021-12-19T09:06:06Z</time>
      </trkpt>
      <trkpt lat="46.68655" lon="-1.00687">
        <ele>106</ele>
        <time>2021-12-19T09:06:07Z</time>
      </trkpt>
      <trkpt lat="46.68664" lon="-1.0071">
        <ele>106</ele>
        <time>2021-12-19T09:06:09Z</time>
      </trkpt>
      <trkpt lat="46.6867" lon="-1.00721">
        <ele>106</ele>
        <time>2021-12-19T09:06:10Z</time>
      </trkpt>
      <trkpt lat="46.68681" lon="-1.00739">
        <ele>107</ele>
        <time>2021-12-19T09:06:12Z</time>
      </trkpt>
      <trkpt lat="46.68687" lon="-1.00748">
        <ele>107</ele>
        <time>2021-12-19T09:06:13Z</time>
      </trkpt>
      <trkpt lat="46.68692" lon="-1.00758">
        <ele>107</ele>
        <time>2021-12-19T09:06:14Z</time>
      </trkpt>
      <trkpt lat="46.68703" lon="-1.00777">
        <ele>107</ele>
        <time>2021-12-19T09:06:16Z</time>
      </trkpt>
      <trkpt lat="46.68712" lon="-1.00796">
        <ele>108</ele>
        <time>2021-12-19T09:06:18Z</time>
      </trkpt>
      <trkpt lat="46.68717" lon="-1.00807">
        <ele>108</ele>
        <time>2021-12-19T09:06:19Z</time>
      </trkpt>
      <trkpt lat="46.6872" lon="-1.00817">
        <ele>109</ele>
        <time>2021-12-19T09:06:20Z</time>
      </trkpt>
      <trkpt lat="46.68723" lon="-1.00827">
        <ele>109</ele>
        <time>2021-12-19T09:06:21Z</time>
      </trkpt>
      <trkpt lat="46.68729" lon="-1.00846">
        <ele>109</ele>
        <time>2021-12-19T09:06:23Z</time>
      </trkpt>
      <trkpt lat="46.68732" lon="-1.00855">
        <ele>109</ele>
        <time>2021-12-19T09:06:24Z</time>
      </trkpt>
      <trkpt lat="46.68738" lon="-1.00874">
        <ele>109</ele>
        <time>2021-12-19T09:06:26Z</time>
      </trkpt>
      <trkpt lat="46.68746" lon="-1.00892">
        <ele>110</ele>
        <time>2021-12-19T09:06:28Z</time>
      </trkpt>
      <trkpt lat="46.68754" lon="-1.0091">
        <ele>110</ele>
        <time>2021-12-19T09:06:30Z</time>
      </trkpt>
      <trkpt lat="46.68763" lon="-1.00927">
        <ele>110</ele>
        <time>2021-12-19T09:06:32Z</time>
      </trkpt>
      <trkpt lat="46.68771" lon="-1.00943">
        <ele>110</ele>
        <time>2021-12-19T09:06:34Z</time>
      </trkpt>
      <trkpt lat="46.68775" lon="-1.00952">
        <ele>111</ele>
        <time>2021-12-19T09:06:35Z</time>
      </trkpt>
      <trkpt lat="46.68783" lon="-1.00969">
        <ele>112</ele>
        <time>2021-12-19T09:06:37Z</time>
      </trkpt>
      <trkpt lat="46.6879" lon="-1.00986">
        <ele>112</ele>
        <time>2021-12-19T09:06:39Z</time>
      </trkpt>
      <trkpt lat="46.68794" lon="-1.00994">
        <ele>112</ele>
        <time>2021-12-19T09:06:40Z</time>
      </trkpt>
      <trkpt lat="46.68797" lon="-1.01002">
        <ele>112</ele>
        <time>2021-12-19T09:06:41Z</time>
      </trkpt>
      <trkpt lat="46.68802" lon="-1.01019">
        <ele>113</ele>
        <time>2021-12-19T09:06:43Z</time>
      </trkpt>
      <trkpt lat="46.68804" lon="-1.01037">
        <ele>114</ele>
        <time>2021-12-19T09:06:45Z</time>
      </trkpt>
      <trkpt lat="46.68804" lon="-1.01047">
        <ele>114</ele>
        <time>2021-12-19T09:06:46Z</time>
      </trkpt>
      <trkpt lat="46.68805" lon="-1.01065">
        <ele>115</ele>
        <time>2021-12-19T09:06:48Z</time>
      </trkpt>
      <trkpt lat="46.68806" lon="-1.01082">
        <ele>115</ele>
        <time>2021-12-19T09:06:50Z</time>
      </trkpt>
      <trkpt lat="46.68807" lon="-1.01101">
        <ele>115</ele>
        <time>2021-12-19T09:06:52Z</time>
      </trkpt>
      <trkpt lat="46.68811" lon="-1.01117">
        <ele>116</ele>
        <time>2021-12-19T09:06:54Z</time>
      </trkpt>
      <trkpt lat="46.68816" lon="-1.01123">
        <ele>117</ele>
        <time>2021-12-19T09:06:55Z</time>
      </trkpt>
      <trkpt lat="46.68822" lon="-1.01127">
        <ele>117</ele>
        <time>2021-12-19T09:06:56Z</time>
      </trkpt>
      <trkpt lat="46.68827" lon="-1.0113">
        <ele>117</ele>
        <time>2021-12-19T09:06:57Z</time>
      </trkpt>
      <trkpt lat="46.68833" lon="-1.01132">
        <ele>117</ele>
        <time>2021-12-19T09:06:58Z</time>
      </trkpt>
      <trkpt lat="46.68845" lon="-1.01137">
        <ele>118</ele>
        <time>2021-12-19T09:07:00Z</time>
      </trkpt>
      <trkpt lat="46.68851" lon="-1.01139">
        <ele>117</ele>
        <time>2021-12-19T09:07:01Z</time>
      </trkpt>
      <trkpt lat="46.68865" lon="-1.01144">
        <ele>117</ele>
        <time>2021-12-19T09:07:03Z</time>
      </trkpt>
      <trkpt lat="46.68872" lon="-1.01146">
        <ele>116</ele>
        <time>2021-12-19T09:07:04Z</time>
      </trkpt>
      <trkpt lat="46.68888" lon="-1.01149">
        <ele>115</ele>
        <time>2021-12-19T09:07:06Z</time>
      </trkpt>
      <trkpt lat="46.68904" lon="-1.01151">
        <ele>114</ele>
        <time>2021-12-19T09:07:08Z</time>
      </trkpt>
      <trkpt lat="46.68913" lon="-1.01151">
        <ele>114</ele>
        <time>2021-12-19T09:07:09Z</time>
      </trkpt>
      <trkpt lat="46.68922" lon="-1.01151">
        <ele>113</ele>
        <time>2021-12-19T09:07:10Z</time>
      </trkpt>
      <trkpt lat="46.68932" lon="-1.01151">
        <ele>112</ele>
        <time>2021-12-19T09:07:11Z</time>
      </trkpt>
      <trkpt lat="46.68952" lon="-1.01155">
        <ele>111</ele>
        <time>2021-12-19T09:07:13Z</time>
      </trkpt>
      <trkpt lat="46.68971" lon="-1.01166">
        <ele>110</ele>
        <time>2021-12-19T09:07:15Z</time>
      </trkpt>
      <trkpt lat="46.6899" lon="-1.01182">
        <ele>109</ele>
        <time>2021-12-19T09:07:17Z</time>
      </trkpt>
      <trkpt lat="46.6901" lon="-1.01198">
        <ele>110</ele>
        <time>2021-12-19T09:07:19Z</time>
      </trkpt>
      <trkpt lat="46.69029" lon="-1.01213">
        <ele>109</ele>
        <time>2021-12-19T09:07:21Z</time>
      </trkpt>
      <trkpt lat="46.69038" lon="-1.01219">
        <ele>109</ele>
        <time>2021-12-19T09:07:22Z</time>
      </trkpt>
      <trkpt lat="46.69056" lon="-1.01233">
        <ele>109</ele>
        <time>2021-12-19T09:07:24Z</time>
      </trkpt>
      <trkpt lat="46.69073" lon="-1.01244">
        <ele>110</ele>
        <time>2021-12-19T09:07:26Z</time>
      </trkpt>
      <trkpt lat="46.69081" lon="-1.01249">
        <ele>111</ele>
        <time>2021-12-19T09:07:27Z</time>
      </trkpt>
      <trkpt lat="46.69094" lon="-1.01264">
        <ele>111</ele>
        <time>2021-12-19T09:07:29Z</time>
      </trkpt>
      <trkpt lat="46.69103" lon="-1.01283">
        <ele>112</ele>
        <time>2021-12-19T09:07:31Z</time>
      </trkpt>
      <trkpt lat="46.6911" lon="-1.01303">
        <ele>112</ele>
        <time>2021-12-19T09:07:33Z</time>
      </trkpt>
      <trkpt lat="46.69116" lon="-1.01322">
        <ele>113</ele>
        <time>2021-12-19T09:07:35Z</time>
      </trkpt>
      <trkpt lat="46.69119" lon="-1.0133">
        <ele>113</ele>
        <time>2021-12-19T09:07:36Z</time>
      </trkpt>
      <trkpt lat="46.69127" lon="-1.01346">
        <ele>114</ele>
        <time>2021-12-19T09:07:38Z</time>
      </trkpt>
      <trkpt lat="46.6913" lon="-1.01354">
        <ele>114</ele>
        <time>2021-12-19T09:07:39Z</time>
      </trkpt>
      <trkpt lat="46.69138" lon="-1.01368">
        <ele>114</ele>
        <time>2021-12-19T09:07:41Z</time>
      </trkpt>
      <trkpt lat="46.69146" lon="-1.01382">
        <ele>115</ele>
        <time>2021-12-19T09:07:43Z</time>
      </trkpt>
      <trkpt lat="46.6915" lon="-1.01389">
        <ele>116</ele>
        <time>2021-12-19T09:07:44Z</time>
      </trkpt>
      <trkpt lat="46.69155" lon="-1.01396">
        <ele>116</ele>
        <time>2021-12-19T09:07:45Z</time>
      </trkpt>
      <trkpt lat="46.69162" lon="-1.0141">
        <ele>116</ele>
        <time>2021-12-19T09:07:47Z</time>
      </trkpt>
      <trkpt lat="46.6917" lon="-1.01425">
        <ele>116</ele>
        <time>2021-12-19T09:07:49Z</time>
      </trkpt>
      <trkpt lat="46.69177" lon="-1.01441">
        <ele>117</ele>
        <time>2021-12-19T09:07:51Z</time>
      </trkpt>
      <trkpt lat="46.6918" lon="-1.01449">
        <ele>117</ele>
        <time>2021-12-19T09:07:52Z</time>
      </trkpt>
      <trkpt lat="46.69185" lon="-1.01466">
        <ele>117</ele>
        <time>2021-12-19T09:07:54Z</time>
      </trkpt>
      <trkpt lat="46.69189" lon="-1.01484">
        <ele>117</ele>
        <time>2021-12-19T09:07:56Z</time>
      </trkpt>
      <trkpt lat="46.6919" lon="-1.01494">
        <ele>117</ele>
        <time>2021-12-19T09:07:57Z</time>
      </trkpt>
      <trkpt lat="46.69191" lon="-1.01504">
        <ele>118</ele>
        <time>2021-12-19T09:07:58Z</time>
      </trkpt>
      <trkpt lat="46.69191" lon="-1.01524">
        <ele>118</ele>
        <time>2021-12-19T09:08:00Z</time>
      </trkpt>
      <trkpt lat="46.69188" lon="-1.01543">
        <ele>118</ele>
        <time>2021-12-19T09:08:02Z</time>
      </trkpt>
      <trkpt lat="46.69186" lon="-1.01554">
        <ele>118</ele>
        <time>2021-12-19T09:08:03Z</time>
      </trkpt>
      <trkpt lat="46.69184" lon="-1.01564">
        <ele>119</ele>
        <time>2021-12-19T09:08:04Z</time>
      </trkpt>
      <trkpt lat="46.69181" lon="-1.01583">
        <ele>119</ele>
        <time>2021-12-19T09:08:06Z</time>
      </trkpt>
      <trkpt lat="46.69179" lon="-1.01593">
        <ele>119</ele>
        <time>2021-12-19T09:08:07Z</time>
      </trkpt>
      <trkpt lat="46.69175" lon="-1.01612">
        <ele>119</ele>
        <time>2021-12-19T09:08:09Z</time>
      </trkpt>
      <trkpt lat="46.69173" lon="-1.01622">
        <ele>120</ele>
        <time>2021-12-19T09:08:10Z</time>
      </trkpt>
      <trkpt lat="46.6917" lon="-1.0164">
        <ele>120</ele>
        <time>2021-12-19T09:08:12Z</time>
      </trkpt>
      <trkpt lat="46.69167" lon="-1.01658">
        <ele>120</ele>
        <time>2021-12-19T09:08:14Z</time>
      </trkpt>
      <trkpt lat="46.69165" lon="-1.01666">
        <ele>120</ele>
        <time>2021-12-19T09:08:15Z</time>
      </trkpt>
      <trkpt lat="46.69161" lon="-1.01685">
        <ele>121</ele>
        <time>2021-12-19T09:08:17Z</time>
      </trkpt>
      <trkpt lat="46.69159" lon="-1.01694">
        <ele>120</ele>
        <time>2021-12-19T09:08:18Z</time>
      </trkpt>
      <trkpt lat="46.69157" lon="-1.01703">
        <ele>121</ele>
        <time>2021-12-19T09:08:19Z</time>
      </trkpt>
      <trkpt lat="46.69154" lon="-1.01719">
        <ele>121</ele>
        <time>2021-12-19T09:08:21Z</time>
      </trkpt>
      <trkpt lat="46.6915" lon="-1.01735">
        <ele>121</ele>
        <time>2021-12-19T09:08:23Z</time>
      </trkpt>
      <trkpt lat="46.69148" lon="-1.0175">
        <ele>121</ele>
        <time>2021-12-19T09:08:25Z</time>
      </trkpt>
      <trkpt lat="46.69149" lon="-1.01757">
        <ele>122</ele>
        <time>2021-12-19T09:08:26Z</time>
      </trkpt>
      <trkpt lat="46.69157" lon="-1.01771">
        <ele>122</ele>
        <time>2021-12-19T09:08:28Z</time>
      </trkpt>
      <trkpt lat="46.69164" lon="-1.01775">
        <ele>121</ele>
        <time>2021-12-19T09:08:29Z</time>
      </trkpt>
      <trkpt lat="46.69172" lon="-1.01777">
        <ele>121</ele>
        <time>2021-12-19T09:08:30Z</time>
      </trkpt>
      <trkpt lat="46.69188" lon="-1.0178">
        <ele>120</ele>
        <time>2021-12-19T09:08:32Z</time>
      </trkpt>
      <trkpt lat="46.69196" lon="-1.01782">
        <ele>119</ele>
        <time>2021-12-19T09:08:33Z</time>
      </trkpt>
      <trkpt lat="46.69212" lon="-1.01786">
        <ele>118</ele>
        <time>2021-12-19T09:08:35Z</time>
      </trkpt>
      <trkpt lat="46.69221" lon="-1.01788">
        <ele>118</ele>
        <time>2021-12-19T09:08:36Z</time>
      </trkpt>
      <trkpt lat="46.69231" lon="-1.01791">
        <ele>117</ele>
        <time>2021-12-19T09:08:37Z</time>
      </trkpt>
      <trkpt lat="46.6925" lon="-1.01799">
        <ele>116</ele>
        <time>2021-12-19T09:08:39Z</time>
      </trkpt>
      <trkpt lat="46.69259" lon="-1.01804">
        <ele>115</ele>
        <time>2021-12-19T09:08:40Z</time>
      </trkpt>
      <trkpt lat="46.69278" lon="-1.01812">
        <ele>114</ele>
        <time>2021-12-19T09:08:42Z</time>
      </trkpt>
      <trkpt lat="46.69298" lon="-1.0182">
        <ele>112</ele>
        <time>2021-12-19T09:08:44Z</time>
      </trkpt>
      <trkpt lat="46.69308" lon="-1.01823">
        <ele>112</ele>
        <time>2021-12-19T09:08:45Z</time>
      </trkpt>
      <trkpt lat="46.69318" lon="-1.01826">
        <ele>111</ele>
        <time>2021-12-19T09:08:46Z</time>
      </trkpt>
      <trkpt lat="46.69337" lon="-1.0183">
        <ele>110</ele>
        <time>2021-12-19T09:08:48Z</time>
      </trkpt>
      <trkpt lat="46.69347" lon="-1.01829">
        <ele>110</ele>
        <time>2021-12-19T09:08:49Z</time>
      </trkpt>
      <trkpt lat="46.69366" lon="-1.01831">
        <ele>110</ele>
        <time>2021-12-19T09:08:51Z</time>
      </trkpt>
      <trkpt lat="46.69374" lon="-1.01835">
        <ele>109</ele>
        <time>2021-12-19T09:08:52Z</time>
      </trkpt>
      <trkpt lat="46.69381" lon="-1.01842">
        <ele>109</ele>
        <time>2021-12-19T09:08:53Z</time>
      </trkpt>
      <trkpt lat="46.69387" lon="-1.01852">
        <ele>109</ele>
        <time>2021-12-19T09:08:54Z</time>
      </trkpt>
      <trkpt lat="46.69397" lon="-1.01876">
        <ele>109</ele>
        <time>2021-12-19T09:08:56Z</time>
      </trkpt>
      <trkpt lat="46.69408" lon="-1.019">
        <ele>109</ele>
        <time>2021-12-19T09:08:58Z</time>
      </trkpt>
      <trkpt lat="46.69419" lon="-1.01923">
        <ele>109</ele>
        <time>2021-12-19T09:09:00Z</time>
      </trkpt>
      <trkpt lat="46.69425" lon="-1.01934">
        <ele>109</ele>
        <time>2021-12-19T09:09:01Z</time>
      </trkpt>
      <trkpt lat="46.69436" lon="-1.01955">
        <ele>108</ele>
        <time>2021-12-19T09:09:03Z</time>
      </trkpt>
      <trkpt lat="46.69448" lon="-1.01973">
        <ele>109</ele>
        <time>2021-12-19T09:09:05Z</time>
      </trkpt>
      <trkpt lat="46.69458" lon="-1.01988">
        <ele>109</ele>
        <time>2021-12-19T09:09:07Z</time>
      </trkpt>
      <trkpt lat="46.69464" lon="-1.01995">
        <ele>109</ele>
        <time>2021-12-19T09:09:08Z</time>
      </trkpt>
      <trkpt lat="46.6947" lon="-1.02002">
        <ele>110</ele>
        <time>2021-12-19T09:09:09Z</time>
      </trkpt>
      <trkpt lat="46.69483" lon="-1.02014">
        <ele>109</ele>
        <time>2021-12-19T09:09:11Z</time>
      </trkpt>
      <trkpt lat="46.69489" lon="-1.02021">
        <ele>110</ele>
        <time>2021-12-19T09:09:12Z</time>
      </trkpt>
      <trkpt lat="46.695" lon="-1.02036">
        <ele>111</ele>
        <time>2021-12-19T09:09:14Z</time>
      </trkpt>
      <trkpt lat="46.69505" lon="-1.02044">
        <ele>111</ele>
        <time>2021-12-19T09:09:15Z</time>
      </trkpt>
      <trkpt lat="46.69514" lon="-1.02061">
        <ele>111</ele>
        <time>2021-12-19T09:09:17Z</time>
      </trkpt>
      <trkpt lat="46.69519" lon="-1.02069">
        <ele>111</ele>
        <time>2021-12-19T09:09:18Z</time>
      </trkpt>
      <trkpt lat="46.69528" lon="-1.02083">
        <ele>111</ele>
        <time>2021-12-19T09:09:20Z</time>
      </trkpt>
      <trkpt lat="46.69537" lon="-1.02096">
        <ele>112</ele>
        <time>2021-12-19T09:09:22Z</time>
      </trkpt>
      <trkpt lat="46.69545" lon="-1.02111">
        <ele>113</ele>
        <time>2021-12-19T09:09:24Z</time>
      </trkpt>
      <trkpt lat="46.69553" lon="-1.02127">
        <ele>113</ele>
        <time>2021-12-19T09:09:26Z</time>
      </trkpt>
      <trkpt lat="46.69557" lon="-1.02135">
        <ele>113</ele>
        <time>2021-12-19T09:09:27Z</time>
      </trkpt>
      <trkpt lat="46.69565" lon="-1.02151">
        <ele>114</ele>
        <time>2021-12-19T09:09:29Z</time>
      </trkpt>
      <trkpt lat="46.69568" lon="-1.02158">
        <ele>114</ele>
        <time>2021-12-19T09:09:30Z</time>
      </trkpt>
      <trkpt lat="46.69575" lon="-1.02174">
        <ele>115</ele>
        <time>2021-12-19T09:09:32Z</time>
      </trkpt>
      <trkpt lat="46.69578" lon="-1.02181">
        <ele>115</ele>
        <time>2021-12-19T09:09:33Z</time>
      </trkpt>
      <trkpt lat="46.69581" lon="-1.02188">
        <ele>115</ele>
        <time>2021-12-19T09:09:34Z</time>
      </trkpt>
      <trkpt lat="46.69589" lon="-1.022">
        <ele>115</ele>
        <time>2021-12-19T09:09:36Z</time>
      </trkpt>
      <trkpt lat="46.69597" lon="-1.02211">
        <ele>115</ele>
        <time>2021-12-19T09:09:38Z</time>
      </trkpt>
      <trkpt lat="46.69607" lon="-1.02221">
        <ele>116</ele>
        <time>2021-12-19T09:09:40Z</time>
      </trkpt>
      <trkpt lat="46.69611" lon="-1.02226">
        <ele>116</ele>
        <time>2021-12-19T09:09:41Z</time>
      </trkpt>
      <trkpt lat="46.69617" lon="-1.0223">
        <ele>116</ele>
        <time>2021-12-19T09:09:42Z</time>
      </trkpt>
      <trkpt lat="46.69627" lon="-1.02237">
        <ele>116</ele>
        <time>2021-12-19T09:09:44Z</time>
      </trkpt>
      <trkpt lat="46.69633" lon="-1.02241">
        <ele>117</ele>
        <time>2021-12-19T09:09:45Z</time>
      </trkpt>
      <trkpt lat="46.69645" lon="-1.02246">
        <ele>117</ele>
        <time>2021-12-19T09:09:47Z</time>
      </trkpt>
      <trkpt lat="46.69656" lon="-1.0225">
        <ele>118</ele>
        <time>2021-12-19T09:09:49Z</time>
      </trkpt>
      <trkpt lat="46.69661" lon="-1.02252">
        <ele>118</ele>
        <time>2021-12-19T09:09:50Z</time>
      </trkpt>
      <trkpt lat="46.69672" lon="-1.02256">
        <ele>118</ele>
        <time>2021-12-19T09:09:52Z</time>
      </trkpt>
      <trkpt lat="46.69684" lon="-1.02261">
        <ele>119</ele>
        <time>2021-12-19T09:09:54Z</time>
      </trkpt>
      <trkpt lat="46.69689" lon="-1.02263">
        <ele>119</ele>
        <time>2021-12-19T09:09:55Z</time>
      </trkpt>
      <trkpt lat="46.69695" lon="-1.02266">
        <ele>120</ele>
        <time>2021-12-19T09:09:56Z</time>
      </trkpt>
      <trkpt lat="46.69706" lon="-1.02273">
        <ele>121</ele>
        <time>2021-12-19T09:09:58Z</time>
      </trkpt>
      <trkpt lat="46.69711" lon="-1.02277">
        <ele>122</ele>
        <time>2021-12-19T09:09:59Z</time>
      </trkpt>
      <trkpt lat="46.69716" lon="-1.0228">
        <ele>122</ele>
        <time>2021-12-19T09:10:00Z</time>
      </trkpt>
      <trkpt lat="46.69725" lon="-1.02288">
        <ele>123</ele>
        <time>2021-12-19T09:10:02Z</time>
      </trkpt>
      <trkpt lat="46.69734" lon="-1.02297">
        <ele>124</ele>
        <time>2021-12-19T09:10:04Z</time>
      </trkpt>
      <trkpt lat="46.69738" lon="-1.02301">
        <ele>124</ele>
        <time>2021-12-19T09:10:05Z</time>
      </trkpt>
      <trkpt lat="46.69742" lon="-1.02305">
        <ele>124</ele>
        <time>2021-12-19T09:10:06Z</time>
      </trkpt>
      <trkpt lat="46.69746" lon="-1.0231">
        <ele>124</ele>
        <time>2021-12-19T09:10:07Z</time>
      </trkpt>
      <trkpt lat="46.6975" lon="-1.02315">
        <ele>125</ele>
        <time>2021-12-19T09:10:08Z</time>
      </trkpt>
      <trkpt lat="46.69758" lon="-1.02325">
        <ele>125</ele>
        <time>2021-12-19T09:10:10Z</time>
      </trkpt>
      <trkpt lat="46.69766" lon="-1.02335">
        <ele>126</ele>
        <time>2021-12-19T09:10:12Z</time>
      </trkpt>
      <trkpt lat="46.6977" lon="-1.0234">
        <ele>126</ele>
        <time>2021-12-19T09:10:13Z</time>
      </trkpt>
      <trkpt lat="46.69778" lon="-1.0235">
        <ele>126</ele>
        <time>2021-12-19T09:10:15Z</time>
      </trkpt>
      <trkpt lat="46.69787" lon="-1.02359">
        <ele>126</ele>
        <time>2021-12-19T09:10:17Z</time>
      </trkpt>
      <trkpt lat="46.69796" lon="-1.02369">
        <ele>127</ele>
        <time>2021-12-19T09:10:19Z</time>
      </trkpt>
      <trkpt lat="46.69805" lon="-1.02379">
        <ele>128</ele>
        <time>2021-12-19T09:10:21Z</time>
      </trkpt>
      <trkpt lat="46.69814" lon="-1.02389">
        <ele>128</ele>
        <time>2021-12-19T09:10:23Z</time>
      </trkpt>
      <trkpt lat="46.69819" lon="-1.02394">
        <ele>129</ele>
        <time>2021-12-19T09:10:24Z</time>
      </trkpt>
      <trkpt lat="46.69823" lon="-1.02399">
        <ele>130</ele>
        <time>2021-12-19T09:10:25Z</time>
      </trkpt>
      <trkpt lat="46.69834" lon="-1.02409">
        <ele>130</ele>
        <time>2021-12-19T09:10:27Z</time>
      </trkpt>
      <trkpt lat="46.69844" lon="-1.02418">
        <ele>131</ele>
        <time>2021-12-19T09:10:29Z</time>
      </trkpt>
      <trkpt lat="46.69849" lon="-1.02423">
        <ele>131</ele>
        <time>2021-12-19T09:10:30Z</time>
      </trkpt>
      <trkpt lat="46.69855" lon="-1.02427">
        <ele>131</ele>
        <time>2021-12-19T09:10:31Z</time>
      </trkpt>
      <trkpt lat="46.69866" lon="-1.02437">
        <ele>130</ele>
        <time>2021-12-19T09:10:33Z</time>
      </trkpt>
      <trkpt lat="46.69877" lon="-1.02447">
        <ele>131</ele>
        <time>2021-12-19T09:10:35Z</time>
      </trkpt>
      <trkpt lat="46.69883" lon="-1.02453">
        <ele>131</ele>
        <time>2021-12-19T09:10:36Z</time>
      </trkpt>
      <trkpt lat="46.69895" lon="-1.02462">
        <ele>130</ele>
        <time>2021-12-19T09:10:38Z</time>
      </trkpt>
      <trkpt lat="46.69907" lon="-1.02472">
        <ele>130</ele>
        <time>2021-12-19T09:10:40Z</time>
      </trkpt>
      <trkpt lat="46.69913" lon="-1.02477">
        <ele>130</ele>
        <time>2021-12-19T09:10:41Z</time>
      </trkpt>
      <trkpt lat="46.69918" lon="-1.02482">
        <ele>130</ele>
        <time>2021-12-19T09:10:42Z</time>
      </trkpt>
      <trkpt lat="46.69924" lon="-1.02487">
        <ele>130</ele>
        <time>2021-12-19T09:10:43Z</time>
      </trkpt>
      <trkpt lat="46.6993" lon="-1.02492">
        <ele>130</ele>
        <time>2021-12-19T09:10:44Z</time>
      </trkpt>
      <trkpt lat="46.69942" lon="-1.02503">
        <ele>130</ele>
        <time>2021-12-19T09:10:46Z</time>
      </trkpt>
      <trkpt lat="46.69949" lon="-1.02508">
        <ele>130</ele>
        <time>2021-12-19T09:10:47Z</time>
      </trkpt>
      <trkpt lat="46.69962" lon="-1.02519">
        <ele>129</ele>
        <time>2021-12-19T09:10:49Z</time>
      </trkpt>
      <trkpt lat="46.69969" lon="-1.02525">
        <ele>129</ele>
        <time>2021-12-19T09:10:50Z</time>
      </trkpt>
      <trkpt lat="46.69983" lon="-1.02537">
        <ele>128</ele>
        <time>2021-12-19T09:10:52Z</time>
      </trkpt>
      <trkpt lat="46.6999" lon="-1.02543">
        <ele>128</ele>
        <time>2021-12-19T09:10:53Z</time>
      </trkpt>
      <trkpt lat="46.70006" lon="-1.02553">
        <ele>127</ele>
        <time>2021-12-19T09:10:55Z</time>
      </trkpt>
      <trkpt lat="46.70023" lon="-1.02563">
        <ele>126</ele>
        <time>2021-12-19T09:10:57Z</time>
      </trkpt>
      <trkpt lat="46.70031" lon="-1.02568">
        <ele>126</ele>
        <time>2021-12-19T09:10:58Z</time>
      </trkpt>
      <trkpt lat="46.70049" lon="-1.02576">
        <ele>125</ele>
        <time>2021-12-19T09:11:00Z</time>
      </trkpt>
      <trkpt lat="46.70057" lon="-1.0258">
        <ele>125</ele>
        <time>2021-12-19T09:11:01Z</time>
      </trkpt>
      <trkpt lat="46.70075" lon="-1.02587">
        <ele>124</ele>
        <time>2021-12-19T09:11:03Z</time>
      </trkpt>
      <trkpt lat="46.70084" lon="-1.02589">
        <ele>124</ele>
        <time>2021-12-19T09:11:04Z</time>
      </trkpt>
      <trkpt lat="46.70093" lon="-1.02591">
        <ele>124</ele>
        <time>2021-12-19T09:11:05Z</time>
      </trkpt>
      <trkpt lat="46.70112" lon="-1.02594">
        <ele>123</ele>
        <time>2021-12-19T09:11:07Z</time>
      </trkpt>
      <trkpt lat="46.7013" lon="-1.02596">
        <ele>122</ele>
        <time>2021-12-19T09:11:09Z</time>
      </trkpt>
      <trkpt lat="46.70139" lon="-1.02597">
        <ele>122</ele>
        <time>2021-12-19T09:11:10Z</time>
      </trkpt>
      <trkpt lat="46.70157" lon="-1.026">
        <ele>123</ele>
        <time>2021-12-19T09:11:12Z</time>
      </trkpt>
      <trkpt lat="46.70166" lon="-1.02601">
        <ele>123</ele>
        <time>2021-12-19T09:11:13Z</time>
      </trkpt>
      <trkpt lat="46.70184" lon="-1.02607">
        <ele>123</ele>
        <time>2021-12-19T09:11:15Z</time>
      </trkpt>
      <trkpt lat="46.70192" lon="-1.0261">
        <ele>123</ele>
        <time>2021-12-19T09:11:16Z</time>
      </trkpt>
      <trkpt lat="46.70209" lon="-1.02617">
        <ele>122</ele>
        <time>2021-12-19T09:11:18Z</time>
      </trkpt>
      <trkpt lat="46.70226" lon="-1.02625">
        <ele>122</ele>
        <time>2021-12-19T09:11:20Z</time>
      </trkpt>
      <trkpt lat="46.70234" lon="-1.0263">
        <ele>122</ele>
        <time>2021-12-19T09:11:21Z</time>
      </trkpt>
      <trkpt lat="46.70242" lon="-1.02634">
        <ele>122</ele>
        <time>2021-12-19T09:11:22Z</time>
      </trkpt>
      <trkpt lat="46.7025" lon="-1.0264">
        <ele>122</ele>
        <time>2021-12-19T09:11:23Z</time>
      </trkpt>
      <trkpt lat="46.70266" lon="-1.02651">
        <ele>122</ele>
        <time>2021-12-19T09:11:25Z</time>
      </trkpt>
      <trkpt lat="46.70281" lon="-1.02663">
        <ele>121</ele>
        <time>2021-12-19T09:11:27Z</time>
      </trkpt>
      <trkpt lat="46.70288" lon="-1.02669">
        <ele>121</ele>
        <time>2021-12-19T09:11:28Z</time>
      </trkpt>
      <trkpt lat="46.70302" lon="-1.0268">
        <ele>121</ele>
        <time>2021-12-19T09:11:30Z</time>
      </trkpt>
      <trkpt lat="46.70316" lon="-1.02691">
        <ele>121</ele>
        <time>2021-12-19T09:11:32Z</time>
      </trkpt>
      <trkpt lat="46.7033" lon="-1.02703">
        <ele>121</ele>
        <time>2021-12-19T09:11:34Z</time>
      </trkpt>
      <trkpt lat="46.70337" lon="-1.02709">
        <ele>121</ele>
        <time>2021-12-19T09:11:35Z</time>
      </trkpt>
      <trkpt lat="46.70344" lon="-1.02715">
        <ele>121</ele>
        <time>2021-12-19T09:11:36Z</time>
      </trkpt>
      <trkpt lat="46.70352" lon="-1.02721">
        <ele>121</ele>
        <time>2021-12-19T09:11:37Z</time>
      </trkpt>
      <trkpt lat="46.70366" lon="-1.02732">
        <ele>121</ele>
        <time>2021-12-19T09:11:39Z</time>
      </trkpt>
      <trkpt lat="46.70373" lon="-1.02737">
        <ele>121</ele>
        <time>2021-12-19T09:11:40Z</time>
      </trkpt>
      <trkpt lat="46.70388" lon="-1.02746">
        <ele>120</ele>
        <time>2021-12-19T09:11:42Z</time>
      </trkpt>
      <trkpt lat="46.70403" lon="-1.02755">
        <ele>120</ele>
        <time>2021-12-19T09:11:44Z</time>
      </trkpt>
      <trkpt lat="46.70418" lon="-1.02764">
        <ele>120</ele>
        <time>2021-12-19T09:11:46Z</time>
      </trkpt>
      <trkpt lat="46.70434" lon="-1.02771">
        <ele>120</ele>
        <time>2021-12-19T09:11:48Z</time>
      </trkpt>
      <trkpt lat="46.70442" lon="-1.02772">
        <ele>119</ele>
        <time>2021-12-19T09:11:49Z</time>
      </trkpt>
      <trkpt lat="46.70449" lon="-1.02773">
        <ele>119</ele>
        <time>2021-12-19T09:11:50Z</time>
      </trkpt>
      <trkpt lat="46.70465" lon="-1.02772">
        <ele>119</ele>
        <time>2021-12-19T09:11:52Z</time>
      </trkpt>
      <trkpt lat="46.70473" lon="-1.02773">
        <ele>119</ele>
        <time>2021-12-19T09:11:53Z</time>
      </trkpt>
      <trkpt lat="46.7048" lon="-1.02773">
        <ele>118</ele>
        <time>2021-12-19T09:11:54Z</time>
      </trkpt>
      <trkpt lat="46.70496" lon="-1.02777">
        <ele>117</ele>
        <time>2021-12-19T09:11:56Z</time>
      </trkpt>
      <trkpt lat="46.70503" lon="-1.0278">
        <ele>117</ele>
        <time>2021-12-19T09:11:57Z</time>
      </trkpt>
      <trkpt lat="46.70518" lon="-1.0279">
        <ele>116</ele>
        <time>2021-12-19T09:11:59Z</time>
      </trkpt>
      <trkpt lat="46.70529" lon="-1.02802">
        <ele>115</ele>
        <time>2021-12-19T09:12:01Z</time>
      </trkpt>
      <trkpt lat="46.7054" lon="-1.02818">
        <ele>114</ele>
        <time>2021-12-19T09:12:03Z</time>
      </trkpt>
      <trkpt lat="46.70545" lon="-1.02827">
        <ele>114</ele>
        <time>2021-12-19T09:12:04Z</time>
      </trkpt>
      <trkpt lat="46.7055" lon="-1.02837">
        <ele>114</ele>
        <time>2021-12-19T09:12:05Z</time>
      </trkpt>
      <trkpt lat="46.70555" lon="-1.02846">
        <ele>114</ele>
        <time>2021-12-19T09:12:06Z</time>
      </trkpt>
      <trkpt lat="46.70565" lon="-1.02861">
        <ele>114</ele>
        <time>2021-12-19T09:12:08Z</time>
      </trkpt>
      <trkpt lat="46.70577" lon="-1.02874">
        <ele>114</ele>
        <time>2021-12-19T09:12:10Z</time>
      </trkpt>
      <trkpt lat="46.70593" lon="-1.02883">
        <ele>115</ele>
        <time>2021-12-19T09:12:12Z</time>
      </trkpt>
      <trkpt lat="46.70601" lon="-1.02887">
        <ele>115</ele>
        <time>2021-12-19T09:12:13Z</time>
      </trkpt>
      <trkpt lat="46.70619" lon="-1.02895">
        <ele>115</ele>
        <time>2021-12-19T09:12:15Z</time>
      </trkpt>
      <trkpt lat="46.70635" lon="-1.02904">
        <ele>116</ele>
        <time>2021-12-19T09:12:17Z</time>
      </trkpt>
      <trkpt lat="46.70646" lon="-1.02909">
        <ele>115</ele>
        <time>2021-12-19T09:12:19Z</time>
      </trkpt>
      <trkpt lat="46.7065" lon="-1.02912">
        <ele>116</ele>
        <time>2021-12-19T09:12:20Z</time>
      </trkpt>
      <trkpt lat="46.70659" lon="-1.02917">
        <ele>116</ele>
        <time>2021-12-19T09:12:22Z</time>
      </trkpt>
      <trkpt lat="46.70664" lon="-1.02919">
        <ele>115</ele>
        <time>2021-12-19T09:12:23Z</time>
      </trkpt>
      <trkpt lat="46.70673" lon="-1.02923">
        <ele>115</ele>
        <time>2021-12-19T09:12:25Z</time>
      </trkpt>
      <trkpt lat="46.70682" lon="-1.02927">
        <ele>115</ele>
        <time>2021-12-19T09:12:27Z</time>
      </trkpt>
      <trkpt lat="46.70686" lon="-1.02929">
        <ele>115</ele>
        <time>2021-12-19T09:12:28Z</time>
      </trkpt>
      <trkpt lat="46.70693" lon="-1.02933">
        <ele>115</ele>
        <time>2021-12-19T09:12:30Z</time>
      </trkpt>
      <trkpt lat="46.707" lon="-1.02939">
        <ele>114</ele>
        <time>2021-12-19T09:12:32Z</time>
      </trkpt>
      <trkpt lat="46.70708" lon="-1.02946">
        <ele>114</ele>
        <time>2021-12-19T09:12:34Z</time>
      </trkpt>
      <trkpt lat="46.70713" lon="-1.0295">
        <ele>114</ele>
        <time>2021-12-19T09:12:35Z</time>
      </trkpt>
      <trkpt lat="46.70717" lon="-1.02955">
        <ele>115</ele>
        <time>2021-12-19T09:12:36Z</time>
      </trkpt>
      <trkpt lat="46.70722" lon="-1.02959">
        <ele>115</ele>
        <time>2021-12-19T09:12:37Z</time>
      </trkpt>
      <trkpt lat="46.70731" lon="-1.0297">
        <ele>114</ele>
        <time>2021-12-19T09:12:39Z</time>
      </trkpt>
      <trkpt lat="46.70741" lon="-1.02981">
        <ele>115</ele>
        <time>2021-12-19T09:12:41Z</time>
      </trkpt>
      <trkpt lat="46.70751" lon="-1.02991">
        <ele>115</ele>
        <time>2021-12-19T09:12:43Z</time>
      </trkpt>
      <trkpt lat="46.70756" lon="-1.02996">
        <ele>115</ele>
        <time>2021-12-19T09:12:44Z</time>
      </trkpt>
      <trkpt lat="46.70761" lon="-1.03001">
        <ele>116</ele>
        <time>2021-12-19T09:12:45Z</time>
      </trkpt>
      <trkpt lat="46.70771" lon="-1.03011">
        <ele>116</ele>
        <time>2021-12-19T09:12:47Z</time>
      </trkpt>
      <trkpt lat="46.70776" lon="-1.03015">
        <ele>117</ele>
        <time>2021-12-19T09:12:48Z</time>
      </trkpt>
      <trkpt lat="46.70781" lon="-1.0302">
        <ele>117</ele>
        <time>2021-12-19T09:12:49Z</time>
      </trkpt>
      <trkpt lat="46.70791" lon="-1.03029">
        <ele>117</ele>
        <time>2021-12-19T09:12:51Z</time>
      </trkpt>
      <trkpt lat="46.70796" lon="-1.03034">
        <ele>117</ele>
        <time>2021-12-19T09:12:52Z</time>
      </trkpt>
      <trkpt lat="46.70801" lon="-1.03039">
        <ele>117</ele>
        <time>2021-12-19T09:12:53Z</time>
      </trkpt>
      <trkpt lat="46.7081" lon="-1.03049">
        <ele>117</ele>
        <time>2021-12-19T09:12:55Z</time>
      </trkpt>
      <trkpt lat="46.70815" lon="-1.03053">
        <ele>118</ele>
        <time>2021-12-19T09:12:56Z</time>
      </trkpt>
      <trkpt lat="46.70824" lon="-1.03064">
        <ele>117</ele>
        <time>2021-12-19T09:12:58Z</time>
      </trkpt>
      <trkpt lat="46.70828" lon="-1.0307">
        <ele>117</ele>
        <time>2021-12-19T09:12:59Z</time>
      </trkpt>
      <trkpt lat="46.70836" lon="-1.03085">
        <ele>118</ele>
        <time>2021-12-19T09:13:01Z</time>
      </trkpt>
      <trkpt lat="46.7084" lon="-1.03092">
        <ele>118</ele>
        <time>2021-12-19T09:13:02Z</time>
      </trkpt>
      <trkpt lat="46.70847" lon="-1.03105">
        <ele>119</ele>
        <time>2021-12-19T09:13:04Z</time>
      </trkpt>
      <trkpt lat="46.70852" lon="-1.03115">
        <ele>120</ele>
        <time>2021-12-19T09:13:06Z</time>
      </trkpt>
      <trkpt lat="46.70855" lon="-1.0312">
        <ele>119</ele>
        <time>2021-12-19T09:13:07Z</time>
      </trkpt>
      <trkpt lat="46.70859" lon="-1.03128">
        <ele>119</ele>
        <time>2021-12-19T09:13:09Z</time>
      </trkpt>
      <trkpt lat="46.70861" lon="-1.03131">
        <ele>119</ele>
        <time>2021-12-19T09:13:10Z</time>
      </trkpt>
      <trkpt lat="46.70865" lon="-1.03138">
        <ele>119</ele>
        <time>2021-12-19T09:13:12Z</time>
      </trkpt>
      <trkpt lat="46.70866" lon="-1.0314">
        <ele>119</ele>
        <time>2021-12-19T09:13:13Z</time>
      </trkpt>
      <trkpt lat="46.7087" lon="-1.03145">
        <ele>119</ele>
        <time>2021-12-19T09:13:15Z</time>
      </trkpt>
      <trkpt lat="46.70873" lon="-1.03146">
        <ele>118</ele>
        <time>2021-12-19T09:13:16Z</time>
      </trkpt>
      <trkpt lat="46.70881" lon="-1.03144">
        <ele>120</ele>
        <time>2021-12-19T09:13:18Z</time>
      </trkpt>
      <trkpt lat="46.70889" lon="-1.03136">
        <ele>121</ele>
        <time>2021-12-19T09:13:20Z</time>
      </trkpt>
      <trkpt lat="46.70893" lon="-1.03129">
        <ele>121</ele>
        <time>2021-12-19T09:13:21Z</time>
      </trkpt>
      <trkpt lat="46.70901" lon="-1.03114">
        <ele>121</ele>
        <time>2021-12-19T09:13:23Z</time>
      </trkpt>
      <trkpt lat="46.70908" lon="-1.03097">
        <ele>121</ele>
        <time>2021-12-19T09:13:25Z</time>
      </trkpt>
      <trkpt lat="46.70911" lon="-1.03088">
        <ele>121</ele>
        <time>2021-12-19T09:13:26Z</time>
      </trkpt>
      <trkpt lat="46.70917" lon="-1.03068">
        <ele>121</ele>
        <time>2021-12-19T09:13:28Z</time>
      </trkpt>
      <trkpt lat="46.7092" lon="-1.03058">
        <ele>120</ele>
        <time>2021-12-19T09:13:29Z</time>
      </trkpt>
      <trkpt lat="46.70927" lon="-1.03037">
        <ele>120</ele>
        <time>2021-12-19T09:13:31Z</time>
      </trkpt>
      <trkpt lat="46.7093" lon="-1.03026">
        <ele>120</ele>
        <time>2021-12-19T09:13:32Z</time>
      </trkpt>
      <trkpt lat="46.70934" lon="-1.03015">
        <ele>119</ele>
        <time>2021-12-19T09:13:33Z</time>
      </trkpt>
      <trkpt lat="46.70942" lon="-1.02992">
        <ele>119</ele>
        <time>2021-12-19T09:13:35Z</time>
      </trkpt>
      <trkpt lat="46.70946" lon="-1.02981">
        <ele>118</ele>
        <time>2021-12-19T09:13:36Z</time>
      </trkpt>
      <trkpt lat="46.70953" lon="-1.02957">
        <ele>118</ele>
        <time>2021-12-19T09:13:38Z</time>
      </trkpt>
      <trkpt lat="46.7096" lon="-1.02933">
        <ele>117</ele>
        <time>2021-12-19T09:13:40Z</time>
      </trkpt>
      <trkpt lat="46.70964" lon="-1.02921">
        <ele>117</ele>
        <time>2021-12-19T09:13:41Z</time>
      </trkpt>
      <trkpt lat="46.70973" lon="-1.02896">
        <ele>116</ele>
        <time>2021-12-19T09:13:43Z</time>
      </trkpt>
      <trkpt lat="46.70983" lon="-1.02872">
        <ele>115</ele>
        <time>2021-12-19T09:13:45Z</time>
      </trkpt>
      <trkpt lat="46.70994" lon="-1.02849">
        <ele>114</ele>
        <time>2021-12-19T09:13:47Z</time>
      </trkpt>
      <trkpt lat="46.71001" lon="-1.02837">
        <ele>113</ele>
        <time>2021-12-19T09:13:48Z</time>
      </trkpt>
      <trkpt lat="46.71015" lon="-1.02815">
        <ele>111</ele>
        <time>2021-12-19T09:13:50Z</time>
      </trkpt>
      <trkpt lat="46.7103" lon="-1.0279">
        <ele>110</ele>
        <time>2021-12-19T09:13:52Z</time>
      </trkpt>
      <trkpt lat="46.71038" lon="-1.02777">
        <ele>109</ele>
        <time>2021-12-19T09:13:53Z</time>
      </trkpt>
      <trkpt lat="46.71046" lon="-1.02764">
        <ele>108</ele>
        <time>2021-12-19T09:13:54Z</time>
      </trkpt>
      <trkpt lat="46.71063" lon="-1.02737">
        <ele>106</ele>
        <time>2021-12-19T09:13:56Z</time>
      </trkpt>
      <trkpt lat="46.71071" lon="-1.02724">
        <ele>105</ele>
        <time>2021-12-19T09:13:57Z</time>
      </trkpt>
      <trkpt lat="46.71087" lon="-1.02698">
        <ele>104</ele>
        <time>2021-12-19T09:13:59Z</time>
      </trkpt>
      <trkpt lat="46.71094" lon="-1.02686">
        <ele>104</ele>
        <time>2021-12-19T09:14:00Z</time>
      </trkpt>
      <trkpt lat="46.71101" lon="-1.02675">
        <ele>104</ele>
        <time>2021-12-19T09:14:01Z</time>
      </trkpt>
      <trkpt lat="46.71109" lon="-1.02663">
        <ele>104</ele>
        <time>2021-12-19T09:14:02Z</time>
      </trkpt>
      <trkpt lat="46.71122" lon="-1.02641">
        <ele>104</ele>
        <time>2021-12-19T09:14:04Z</time>
      </trkpt>
      <trkpt lat="46.71135" lon="-1.0262">
        <ele>105</ele>
        <time>2021-12-19T09:14:06Z</time>
      </trkpt>
      <trkpt lat="46.71141" lon="-1.02611">
        <ele>105</ele>
        <time>2021-12-19T09:14:07Z</time>
      </trkpt>
      <trkpt lat="46.71152" lon="-1.02592">
        <ele>106</ele>
        <time>2021-12-19T09:14:09Z</time>
      </trkpt>
      <trkpt lat="46.71163" lon="-1.02574">
        <ele>106</ele>
        <time>2021-12-19T09:14:11Z</time>
      </trkpt>
      <trkpt lat="46.71168" lon="-1.02565">
        <ele>106</ele>
        <time>2021-12-19T09:14:12Z</time>
      </trkpt>
      <trkpt lat="46.71173" lon="-1.02557">
        <ele>107</ele>
        <time>2021-12-19T09:14:13Z</time>
      </trkpt>
      <trkpt lat="46.71183" lon="-1.02541">
        <ele>107</ele>
        <time>2021-12-19T09:14:15Z</time>
      </trkpt>
      <trkpt lat="46.71193" lon="-1.02525">
        <ele>107</ele>
        <time>2021-12-19T09:14:17Z</time>
      </trkpt>
      <trkpt lat="46.71198" lon="-1.02517">
        <ele>107</ele>
        <time>2021-12-19T09:14:18Z</time>
      </trkpt>
      <trkpt lat="46.71208" lon="-1.02501">
        <ele>107</ele>
        <time>2021-12-19T09:14:20Z</time>
      </trkpt>
      <trkpt lat="46.71217" lon="-1.02485">
        <ele>107</ele>
        <time>2021-12-19T09:14:22Z</time>
      </trkpt>
      <trkpt lat="46.71227" lon="-1.02469">
        <ele>108</ele>
        <time>2021-12-19T09:14:24Z</time>
      </trkpt>
      <trkpt lat="46.71236" lon="-1.02454">
        <ele>108</ele>
        <time>2021-12-19T09:14:26Z</time>
      </trkpt>
      <trkpt lat="46.71241" lon="-1.02447">
        <ele>108</ele>
        <time>2021-12-19T09:14:27Z</time>
      </trkpt>
      <trkpt lat="46.71246" lon="-1.02439">
        <ele>108</ele>
        <time>2021-12-19T09:14:28Z</time>
      </trkpt>
      <trkpt lat="46.71255" lon="-1.02424">
        <ele>108</ele>
        <time>2021-12-19T09:14:30Z</time>
      </trkpt>
      <trkpt lat="46.71259" lon="-1.02417">
        <ele>109</ele>
        <time>2021-12-19T09:14:31Z</time>
      </trkpt>
      <trkpt lat="46.71268" lon="-1.02402">
        <ele>109</ele>
        <time>2021-12-19T09:14:33Z</time>
      </trkpt>
      <trkpt lat="46.71272" lon="-1.02395">
        <ele>109</ele>
        <time>2021-12-19T09:14:34Z</time>
      </trkpt>
      <trkpt lat="46.7128" lon="-1.02382">
        <ele>110</ele>
        <time>2021-12-19T09:14:36Z</time>
      </trkpt>
      <trkpt lat="46.71289" lon="-1.02367">
        <ele>110</ele>
        <time>2021-12-19T09:14:38Z</time>
      </trkpt>
      <trkpt lat="46.71298" lon="-1.02353">
        <ele>110</ele>
        <time>2021-12-19T09:14:40Z</time>
      </trkpt>
      <trkpt lat="46.71302" lon="-1.02346">
        <ele>110</ele>
        <time>2021-12-19T09:14:41Z</time>
      </trkpt>
      <trkpt lat="46.71306" lon="-1.02339">
        <ele>110</ele>
        <time>2021-12-19T09:14:42Z</time>
      </trkpt>
      <trkpt lat="46.7131" lon="-1.02332">
        <ele>110</ele>
        <time>2021-12-19T09:14:43Z</time>
      </trkpt>
      <trkpt lat="46.71319" lon="-1.02317">
        <ele>111</ele>
        <time>2021-12-19T09:14:45Z</time>
      </trkpt>
      <trkpt lat="46.71324" lon="-1.02309">
        <ele>111</ele>
        <time>2021-12-19T09:14:46Z</time>
      </trkpt>
      <trkpt lat="46.71333" lon="-1.02294">
        <ele>111</ele>
        <time>2021-12-19T09:14:48Z</time>
      </trkpt>
      <trkpt lat="46.71343" lon="-1.02278">
        <ele>111</ele>
        <time>2021-12-19T09:14:50Z</time>
      </trkpt>
      <trkpt lat="46.71352" lon="-1.02262">
        <ele>110</ele>
        <time>2021-12-19T09:14:52Z</time>
      </trkpt>
      <trkpt lat="46.71356" lon="-1.02255">
        <ele>110</ele>
        <time>2021-12-19T09:14:53Z</time>
      </trkpt>
      <trkpt lat="46.71361" lon="-1.02247">
        <ele>111</ele>
        <time>2021-12-19T09:14:54Z</time>
      </trkpt>
      <trkpt lat="46.71366" lon="-1.02239">
        <ele>110</ele>
        <time>2021-12-19T09:14:55Z</time>
      </trkpt>
      <trkpt lat="46.71371" lon="-1.02232">
        <ele>110</ele>
        <time>2021-12-19T09:14:56Z</time>
      </trkpt>
      <trkpt lat="46.7138" lon="-1.02218">
        <ele>110</ele>
        <time>2021-12-19T09:14:58Z</time>
      </trkpt>
      <trkpt lat="46.7139" lon="-1.02202">
        <ele>110</ele>
        <time>2021-12-19T09:15:00Z</time>
      </trkpt>
      <trkpt lat="46.71401" lon="-1.02185">
        <ele>109</ele>
        <time>2021-12-19T09:15:02Z</time>
      </trkpt>
      <trkpt lat="46.71406" lon="-1.02177">
        <ele>109</ele>
        <time>2021-12-19T09:15:03Z</time>
      </trkpt>
      <trkpt lat="46.71416" lon="-1.0216">
        <ele>108</ele>
        <time>2021-12-19T09:15:05Z</time>
      </trkpt>
      <trkpt lat="46.71421" lon="-1.02152">
        <ele>108</ele>
        <time>2021-12-19T09:15:06Z</time>
      </trkpt>
      <trkpt lat="46.71426" lon="-1.02143">
        <ele>108</ele>
        <time>2021-12-19T09:15:07Z</time>
      </trkpt>
      <trkpt lat="46.71437" lon="-1.02127">
        <ele>108</ele>
        <time>2021-12-19T09:15:09Z</time>
      </trkpt>
      <trkpt lat="46.71442" lon="-1.02118">
        <ele>108</ele>
        <time>2021-12-19T09:15:10Z</time>
      </trkpt>
      <trkpt lat="46.71452" lon="-1.02101">
        <ele>108</ele>
        <time>2021-12-19T09:15:12Z</time>
      </trkpt>
      <trkpt lat="46.71463" lon="-1.02085">
        <ele>108</ele>
        <time>2021-12-19T09:15:14Z</time>
      </trkpt>
      <trkpt lat="46.71473" lon="-1.0207">
        <ele>107</ele>
        <time>2021-12-19T09:15:16Z</time>
      </trkpt>
      <trkpt lat="46.71477" lon="-1.02063">
        <ele>107</ele>
        <time>2021-12-19T09:15:17Z</time>
      </trkpt>
      <trkpt lat="46.71487" lon="-1.02047">
        <ele>107</ele>
        <time>2021-12-19T09:15:19Z</time>
      </trkpt>
      <trkpt lat="46.71492" lon="-1.02039">
        <ele>107</ele>
        <time>2021-12-19T09:15:20Z</time>
      </trkpt>
      <trkpt lat="46.71502" lon="-1.02022">
        <ele>107</ele>
        <time>2021-12-19T09:15:22Z</time>
      </trkpt>
      <trkpt lat="46.71506" lon="-1.02014">
        <ele>107</ele>
        <time>2021-12-19T09:15:23Z</time>
      </trkpt>
      <trkpt lat="46.71516" lon="-1.01999">
        <ele>107</ele>
        <time>2021-12-19T09:15:25Z</time>
      </trkpt>
      <trkpt lat="46.71525" lon="-1.01984">
        <ele>107</ele>
        <time>2021-12-19T09:15:27Z</time>
      </trkpt>
      <trkpt lat="46.7153" lon="-1.01976">
        <ele>107</ele>
        <time>2021-12-19T09:15:28Z</time>
      </trkpt>
      <trkpt lat="46.71535" lon="-1.01968">
        <ele>107</ele>
        <time>2021-12-19T09:15:29Z</time>
      </trkpt>
      <trkpt lat="46.71544" lon="-1.01954">
        <ele>108</ele>
        <time>2021-12-19T09:15:31Z</time>
      </trkpt>
      <trkpt lat="46.71553" lon="-1.01938">
        <ele>109</ele>
        <time>2021-12-19T09:15:33Z</time>
      </trkpt>
      <trkpt lat="46.71563" lon="-1.01922">
        <ele>109</ele>
        <time>2021-12-19T09:15:35Z</time>
      </trkpt>
      <trkpt lat="46.71573" lon="-1.01906">
        <ele>109</ele>
        <time>2021-12-19T09:15:37Z</time>
      </trkpt>
      <trkpt lat="46.71578" lon="-1.01898">
        <ele>109</ele>
        <time>2021-12-19T09:15:38Z</time>
      </trkpt>
      <trkpt lat="46.71583" lon="-1.0189">
        <ele>109</ele>
        <time>2021-12-19T09:15:39Z</time>
      </trkpt>
      <trkpt lat="46.71592" lon="-1.01875">
        <ele>110</ele>
        <time>2021-12-19T09:15:41Z</time>
      </trkpt>
      <trkpt lat="46.71597" lon="-1.01867">
        <ele>110</ele>
        <time>2021-12-19T09:15:42Z</time>
      </trkpt>
      <trkpt lat="46.71602" lon="-1.0186">
        <ele>110</ele>
        <time>2021-12-19T09:15:43Z</time>
      </trkpt>
      <trkpt lat="46.71606" lon="-1.01852">
        <ele>110</ele>
        <time>2021-12-19T09:15:44Z</time>
      </trkpt>
      <trkpt lat="46.71616" lon="-1.01837">
        <ele>110</ele>
        <time>2021-12-19T09:15:46Z</time>
      </trkpt>
      <trkpt lat="46.71624" lon="-1.01823">
        <ele>111</ele>
        <time>2021-12-19T09:15:48Z</time>
      </trkpt>
      <trkpt lat="46.71633" lon="-1.01809">
        <ele>111</ele>
        <time>2021-12-19T09:15:50Z</time>
      </trkpt>
      <trkpt lat="46.71642" lon="-1.01795">
        <ele>111</ele>
        <time>2021-12-19T09:15:52Z</time>
      </trkpt>
      <trkpt lat="46.71651" lon="-1.01782">
        <ele>112</ele>
        <time>2021-12-19T09:15:54Z</time>
      </trkpt>
      <trkpt lat="46.71656" lon="-1.01774">
        <ele>112</ele>
        <time>2021-12-19T09:15:55Z</time>
      </trkpt>
      <trkpt lat="46.71663" lon="-1.01759">
        <ele>112</ele>
        <time>2021-12-19T09:15:57Z</time>
      </trkpt>
      <trkpt lat="46.71667" lon="-1.0175">
        <ele>112</ele>
        <time>2021-12-19T09:15:58Z</time>
      </trkpt>
      <trkpt lat="46.71669" lon="-1.01732">
        <ele>112</ele>
        <time>2021-12-19T09:16:00Z</time>
      </trkpt>
      <trkpt lat="46.7167" lon="-1.01723">
        <ele>113</ele>
        <time>2021-12-19T09:16:01Z</time>
      </trkpt>
      <trkpt lat="46.71674" lon="-1.01708">
        <ele>113</ele>
        <time>2021-12-19T09:16:03Z</time>
      </trkpt>
      <trkpt lat="46.71678" lon="-1.01702">
        <ele>113</ele>
        <time>2021-12-19T09:16:04Z</time>
      </trkpt>
      <trkpt lat="46.71683" lon="-1.01698">
        <ele>113</ele>
        <time>2021-12-19T09:16:05Z</time>
      </trkpt>
      <trkpt lat="46.71696" lon="-1.01698">
        <ele>112</ele>
        <time>2021-12-19T09:16:07Z</time>
      </trkpt>
      <trkpt lat="46.71702" lon="-1.01704">
        <ele>112</ele>
        <time>2021-12-19T09:16:08Z</time>
      </trkpt>
      <trkpt lat="46.71706" lon="-1.01711">
        <ele>112</ele>
        <time>2021-12-19T09:16:09Z</time>
      </trkpt>
      <trkpt lat="46.71715" lon="-1.0173">
        <ele>112</ele>
        <time>2021-12-19T09:16:11Z</time>
      </trkpt>
      <trkpt lat="46.7172" lon="-1.01738">
        <ele>111</ele>
        <time>2021-12-19T09:16:12Z</time>
      </trkpt>
      <trkpt lat="46.71733" lon="-1.01749">
        <ele>111</ele>
        <time>2021-12-19T09:16:14Z</time>
      </trkpt>
      <trkpt lat="46.71748" lon="-1.01757">
        <ele>110</ele>
        <time>2021-12-19T09:16:16Z</time>
      </trkpt>
      <trkpt lat="46.71756" lon="-1.01761">
        <ele>110</ele>
        <time>2021-12-19T09:16:17Z</time>
      </trkpt>
      <trkpt lat="46.71763" lon="-1.01764">
        <ele>109</ele>
        <time>2021-12-19T09:16:18Z</time>
      </trkpt>
      <trkpt lat="46.71778" lon="-1.01771">
        <ele>109</ele>
        <time>2021-12-19T09:16:20Z</time>
      </trkpt>
      <trkpt lat="46.71785" lon="-1.01775">
        <ele>108</ele>
        <time>2021-12-19T09:16:21Z</time>
      </trkpt>
      <trkpt lat="46.71799" lon="-1.01783">
        <ele>108</ele>
        <time>2021-12-19T09:16:23Z</time>
      </trkpt>
      <trkpt lat="46.71813" lon="-1.0179">
        <ele>108</ele>
        <time>2021-12-19T09:16:25Z</time>
      </trkpt>
      <trkpt lat="46.7182" lon="-1.01795">
        <ele>108</ele>
        <time>2021-12-19T09:16:26Z</time>
      </trkpt>
      <trkpt lat="46.71827" lon="-1.01799">
        <ele>108</ele>
        <time>2021-12-19T09:16:27Z</time>
      </trkpt>
      <trkpt lat="46.7184" lon="-1.01808">
        <ele>108</ele>
        <time>2021-12-19T09:16:29Z</time>
      </trkpt>
      <trkpt lat="46.71854" lon="-1.01816">
        <ele>107</ele>
        <time>2021-12-19T09:16:31Z</time>
      </trkpt>
      <trkpt lat="46.71869" lon="-1.01824">
        <ele>108</ele>
        <time>2021-12-19T09:16:33Z</time>
      </trkpt>
      <trkpt lat="46.71882" lon="-1.01833">
        <ele>108</ele>
        <time>2021-12-19T09:16:35Z</time>
      </trkpt>
      <trkpt lat="46.71889" lon="-1.01837">
        <ele>109</ele>
        <time>2021-12-19T09:16:36Z</time>
      </trkpt>
      <trkpt lat="46.71896" lon="-1.01841">
        <ele>109</ele>
        <time>2021-12-19T09:16:37Z</time>
      </trkpt>
      <trkpt lat="46.7191" lon="-1.01849">
        <ele>109</ele>
        <time>2021-12-19T09:16:39Z</time>
      </trkpt>
      <trkpt lat="46.71916" lon="-1.01852">
        <ele>109</ele>
        <time>2021-12-19T09:16:40Z</time>
      </trkpt>
      <trkpt lat="46.71928" lon="-1.0186">
        <ele>110</ele>
        <time>2021-12-19T09:16:42Z</time>
      </trkpt>
      <trkpt lat="46.71933" lon="-1.01863">
        <ele>110</ele>
        <time>2021-12-19T09:16:43Z</time>
      </trkpt>
      <trkpt lat="46.71944" lon="-1.0187">
        <ele>111</ele>
        <time>2021-12-19T09:16:45Z</time>
      </trkpt>
      <trkpt lat="46.71954" lon="-1.01876">
        <ele>111</ele>
        <time>2021-12-19T09:16:47Z</time>
      </trkpt>
      <trkpt lat="46.71959" lon="-1.01879">
        <ele>111</ele>
        <time>2021-12-19T09:16:48Z</time>
      </trkpt>
      <trkpt lat="46.71968" lon="-1.01885">
        <ele>112</ele>
        <time>2021-12-19T09:16:50Z</time>
      </trkpt>
      <trkpt lat="46.71976" lon="-1.01892">
        <ele>112</ele>
        <time>2021-12-19T09:16:52Z</time>
      </trkpt>
      <trkpt lat="46.7198" lon="-1.01897">
        <ele>113</ele>
        <time>2021-12-19T09:16:53Z</time>
      </trkpt>
      <trkpt lat="46.71987" lon="-1.01907">
        <ele>113</ele>
        <time>2021-12-19T09:16:55Z</time>
      </trkpt>
      <trkpt lat="46.7199" lon="-1.01913">
        <ele>113</ele>
        <time>2021-12-19T09:16:56Z</time>
      </trkpt>
      <trkpt lat="46.71994" lon="-1.01927">
        <ele>113</ele>
        <time>2021-12-19T09:16:58Z</time>
      </trkpt>
      <trkpt lat="46.71998" lon="-1.01941">
        <ele>113</ele>
        <time>2021-12-19T09:17:00Z</time>
      </trkpt>
      <trkpt lat="46.72" lon="-1.01949">
        <ele>114</ele>
        <time>2021-12-19T09:17:01Z</time>
      </trkpt>
      <trkpt lat="46.72003" lon="-1.01957">
        <ele>114</ele>
        <time>2021-12-19T09:17:02Z</time>
      </trkpt>
      <trkpt lat="46.72007" lon="-1.01974">
        <ele>114</ele>
        <time>2021-12-19T09:17:04Z</time>
      </trkpt>
      <trkpt lat="46.72012" lon="-1.01992">
        <ele>115</ele>
        <time>2021-12-19T09:17:06Z</time>
      </trkpt>
      <trkpt lat="46.72014" lon="-1.02">
        <ele>114</ele>
        <time>2021-12-19T09:17:07Z</time>
      </trkpt>
      <trkpt lat="46.72019" lon="-1.02015">
        <ele>115</ele>
        <time>2021-12-19T09:17:09Z</time>
      </trkpt>
      <trkpt lat="46.72021" lon="-1.02023">
        <ele>115</ele>
        <time>2021-12-19T09:17:10Z</time>
      </trkpt>
      <trkpt lat="46.72026" lon="-1.0204">
        <ele>115</ele>
        <time>2021-12-19T09:17:12Z</time>
      </trkpt>
      <trkpt lat="46.72028" lon="-1.02049">
        <ele>114</ele>
        <time>2021-12-19T09:17:13Z</time>
      </trkpt>
      <trkpt lat="46.72031" lon="-1.02058">
        <ele>115</ele>
        <time>2021-12-19T09:17:14Z</time>
      </trkpt>
      <trkpt lat="46.72036" lon="-1.02076">
        <ele>115</ele>
        <time>2021-12-19T09:17:16Z</time>
      </trkpt>
      <trkpt lat="46.72038" lon="-1.02085">
        <ele>116</ele>
        <time>2021-12-19T09:17:17Z</time>
      </trkpt>
      <trkpt lat="46.72045" lon="-1.02103">
        <ele>116</ele>
        <time>2021-12-19T09:17:19Z</time>
      </trkpt>
      <trkpt lat="46.72049" lon="-1.0211">
        <ele>117</ele>
        <time>2021-12-19T09:17:20Z</time>
      </trkpt>
      <trkpt lat="46.72056" lon="-1.02125">
        <ele>117</ele>
        <time>2021-12-19T09:17:22Z</time>
      </trkpt>
      <trkpt lat="46.72059" lon="-1.02133">
        <ele>117</ele>
        <time>2021-12-19T09:17:23Z</time>
      </trkpt>
      <trkpt lat="46.72067" lon="-1.02148">
        <ele>118</ele>
        <time>2021-12-19T09:17:25Z</time>
      </trkpt>
      <trkpt lat="46.72071" lon="-1.02155">
        <ele>119</ele>
        <time>2021-12-19T09:17:26Z</time>
      </trkpt>
      <trkpt lat="46.72079" lon="-1.02169">
        <ele>119</ele>
        <time>2021-12-19T09:17:28Z</time>
      </trkpt>
      <trkpt lat="46.72084" lon="-1.02176">
        <ele>119</ele>
        <time>2021-12-19T09:17:29Z</time>
      </trkpt>
      <trkpt lat="46.72094" lon="-1.02191">
        <ele>119</ele>
        <time>2021-12-19T09:17:31Z</time>
      </trkpt>
      <trkpt lat="46.72103" lon="-1.02206">
        <ele>119</ele>
        <time>2021-12-19T09:17:33Z</time>
      </trkpt>
      <trkpt lat="46.72108" lon="-1.02214">
        <ele>119</ele>
        <time>2021-12-19T09:17:34Z</time>
      </trkpt>
      <trkpt lat="46.72116" lon="-1.02228">
        <ele>120</ele>
        <time>2021-12-19T09:17:36Z</time>
      </trkpt>
      <trkpt lat="46.72121" lon="-1.02235">
        <ele>120</ele>
        <time>2021-12-19T09:17:37Z</time>
      </trkpt>
      <trkpt lat="46.7213" lon="-1.0225">
        <ele>120</ele>
        <time>2021-12-19T09:17:39Z</time>
      </trkpt>
      <trkpt lat="46.72135" lon="-1.02257">
        <ele>120</ele>
        <time>2021-12-19T09:17:40Z</time>
      </trkpt>
      <trkpt lat="46.72144" lon="-1.02272">
        <ele>120</ele>
        <time>2021-12-19T09:17:42Z</time>
      </trkpt>
      <trkpt lat="46.72148" lon="-1.02278">
        <ele>121</ele>
        <time>2021-12-19T09:17:43Z</time>
      </trkpt>
      <trkpt lat="46.72156" lon="-1.02292">
        <ele>121</ele>
        <time>2021-12-19T09:17:45Z</time>
      </trkpt>
      <trkpt lat="46.72164" lon="-1.02305">
        <ele>122</ele>
        <time>2021-12-19T09:17:47Z</time>
      </trkpt>
      <trkpt lat="46.72169" lon="-1.02312">
        <ele>121</ele>
        <time>2021-12-19T09:17:48Z</time>
      </trkpt>
      <trkpt lat="46.72177" lon="-1.02327">
        <ele>122</ele>
        <time>2021-12-19T09:17:50Z</time>
      </trkpt>
      <trkpt lat="46.72186" lon="-1.02341">
        <ele>123</ele>
        <time>2021-12-19T09:17:52Z</time>
      </trkpt>
      <trkpt lat="46.72191" lon="-1.02347">
        <ele>123</ele>
        <time>2021-12-19T09:17:53Z</time>
      </trkpt>
      <trkpt lat="46.72196" lon="-1.02353">
        <ele>123</ele>
        <time>2021-12-19T09:17:54Z</time>
      </trkpt>
      <trkpt lat="46.72206" lon="-1.02366">
        <ele>124</ele>
        <time>2021-12-19T09:17:56Z</time>
      </trkpt>
      <trkpt lat="46.72216" lon="-1.02378">
        <ele>123</ele>
        <time>2021-12-19T09:17:58Z</time>
      </trkpt>
      <trkpt lat="46.72225" lon="-1.02392">
        <ele>124</ele>
        <time>2021-12-19T09:18:00Z</time>
      </trkpt>
      <trkpt lat="46.72233" lon="-1.02408">
        <ele>124</ele>
        <time>2021-12-19T09:18:02Z</time>
      </trkpt>
      <trkpt lat="46.72237" lon="-1.02416">
        <ele>125</ele>
        <time>2021-12-19T09:18:03Z</time>
      </trkpt>
      <trkpt lat="46.72245" lon="-1.02433">
        <ele>124</ele>
        <time>2021-12-19T09:18:05Z</time>
      </trkpt>
      <trkpt lat="46.72248" lon="-1.02441">
        <ele>124</ele>
        <time>2021-12-19T09:18:06Z</time>
      </trkpt>
      <trkpt lat="46.72255" lon="-1.02459">
        <ele>124</ele>
        <time>2021-12-19T09:18:08Z</time>
      </trkpt>
      <trkpt lat="46.72259" lon="-1.02468">
        <ele>125</ele>
        <time>2021-12-19T09:18:09Z</time>
      </trkpt>
      <trkpt lat="46.72263" lon="-1.02477">
        <ele>125</ele>
        <time>2021-12-19T09:18:10Z</time>
      </trkpt>
      <trkpt lat="46.72269" lon="-1.02494">
        <ele>126</ele>
        <time>2021-12-19T09:18:12Z</time>
      </trkpt>
      <trkpt lat="46.72276" lon="-1.02511">
        <ele>127</ele>
        <time>2021-12-19T09:18:14Z</time>
      </trkpt>
      <trkpt lat="46.72284" lon="-1.02526">
        <ele>128</ele>
        <time>2021-12-19T09:18:16Z</time>
      </trkpt>
      <trkpt lat="46.7229" lon="-1.02543">
        <ele>128</ele>
        <time>2021-12-19T09:18:18Z</time>
      </trkpt>
      <trkpt lat="46.72297" lon="-1.02561">
        <ele>128</ele>
        <time>2021-12-19T09:18:20Z</time>
      </trkpt>
      <trkpt lat="46.723" lon="-1.0257">
        <ele>128</ele>
        <time>2021-12-19T09:18:21Z</time>
      </trkpt>
      <trkpt lat="46.72307" lon="-1.02588">
        <ele>129</ele>
        <time>2021-12-19T09:18:23Z</time>
      </trkpt>
      <trkpt lat="46.72313" lon="-1.02604">
        <ele>130</ele>
        <time>2021-12-19T09:18:25Z</time>
      </trkpt>
      <trkpt lat="46.72316" lon="-1.02612">
        <ele>130</ele>
        <time>2021-12-19T09:18:26Z</time>
      </trkpt>
      <trkpt lat="46.72322" lon="-1.0263">
        <ele>130</ele>
        <time>2021-12-19T09:18:28Z</time>
      </trkpt>
      <trkpt lat="46.72327" lon="-1.02647">
        <ele>131</ele>
        <time>2021-12-19T09:18:30Z</time>
      </trkpt>
      <trkpt lat="46.72331" lon="-1.02663">
        <ele>131</ele>
        <time>2021-12-19T09:18:32Z</time>
      </trkpt>
      <trkpt lat="46.72335" lon="-1.02681">
        <ele>131</ele>
        <time>2021-12-19T09:18:34Z</time>
      </trkpt>
      <trkpt lat="46.72337" lon="-1.0269">
        <ele>131</ele>
        <time>2021-12-19T09:18:35Z</time>
      </trkpt>
      <trkpt lat="46.72341" lon="-1.02708">
        <ele>132</ele>
        <time>2021-12-19T09:18:37Z</time>
      </trkpt>
      <trkpt lat="46.72344" lon="-1.02726">
        <ele>132</ele>
        <time>2021-12-19T09:18:39Z</time>
      </trkpt>
      <trkpt lat="46.72345" lon="-1.02734">
        <ele>132</ele>
        <time>2021-12-19T09:18:40Z</time>
      </trkpt>
      <trkpt lat="46.72346" lon="-1.02742">
        <ele>132</ele>
        <time>2021-12-19T09:18:41Z</time>
      </trkpt>
      <trkpt lat="46.72348" lon="-1.02758">
        <ele>132</ele>
        <time>2021-12-19T09:18:43Z</time>
      </trkpt>
      <trkpt lat="46.72351" lon="-1.02774">
        <ele>131</ele>
        <time>2021-12-19T09:18:45Z</time>
      </trkpt>
      <trkpt lat="46.72353" lon="-1.02783">
        <ele>131</ele>
        <time>2021-12-19T09:18:46Z</time>
      </trkpt>
      <trkpt lat="46.72355" lon="-1.02799">
        <ele>131</ele>
        <time>2021-12-19T09:18:48Z</time>
      </trkpt>
      <trkpt lat="46.72358" lon="-1.02815">
        <ele>131</ele>
        <time>2021-12-19T09:18:50Z</time>
      </trkpt>
      <trkpt lat="46.72362" lon="-1.02831">
        <ele>131</ele>
        <time>2021-12-19T09:18:52Z</time>
      </trkpt>
      <trkpt lat="46.72363" lon="-1.02838">
        <ele>131</ele>
        <time>2021-12-19T09:18:53Z</time>
      </trkpt>
      <trkpt lat="46.72369" lon="-1.02852">
        <ele>131</ele>
        <time>2021-12-19T09:18:55Z</time>
      </trkpt>
      <trkpt lat="46.72375" lon="-1.02867">
        <ele>131</ele>
        <time>2021-12-19T09:18:57Z</time>
      </trkpt>
      <trkpt lat="46.7238" lon="-1.0288">
        <ele>131</ele>
        <time>2021-12-19T09:18:59Z</time>
      </trkpt>
      <trkpt lat="46.7238" lon="-1.02896">
        <ele>131</ele>
        <time>2021-12-19T09:19:01Z</time>
      </trkpt>
      <trkpt lat="46.72378" lon="-1.02906">
        <ele>131</ele>
        <time>2021-12-19T09:19:02Z</time>
      </trkpt>
      <trkpt lat="46.72377" lon="-1.02927">
        <ele>131</ele>
        <time>2021-12-19T09:19:04Z</time>
      </trkpt>
      <trkpt lat="46.7238" lon="-1.02948">
        <ele>130</ele>
        <time>2021-12-19T09:19:06Z</time>
      </trkpt>
      <trkpt lat="46.72385" lon="-1.02969">
        <ele>129</ele>
        <time>2021-12-19T09:19:08Z</time>
      </trkpt>
      <trkpt lat="46.72391" lon="-1.02989">
        <ele>129</ele>
        <time>2021-12-19T09:19:10Z</time>
      </trkpt>
      <trkpt lat="46.72397" lon="-1.03009">
        <ele>128</ele>
        <time>2021-12-19T09:19:12Z</time>
      </trkpt>
      <trkpt lat="46.72404" lon="-1.03029">
        <ele>128</ele>
        <time>2021-12-19T09:19:14Z</time>
      </trkpt>
      <trkpt lat="46.72408" lon="-1.03039">
        <ele>128</ele>
        <time>2021-12-19T09:19:15Z</time>
      </trkpt>
      <trkpt lat="46.72415" lon="-1.03059">
        <ele>128</ele>
        <time>2021-12-19T09:19:17Z</time>
      </trkpt>
      <trkpt lat="46.72418" lon="-1.03069">
        <ele>128</ele>
        <time>2021-12-19T09:19:18Z</time>
      </trkpt>
      <trkpt lat="46.72422" lon="-1.03079">
        <ele>128</ele>
        <time>2021-12-19T09:19:19Z</time>
      </trkpt>
      <trkpt lat="46.72429" lon="-1.03099">
        <ele>129</ele>
        <time>2021-12-19T09:19:21Z</time>
      </trkpt>
      <trkpt lat="46.72436" lon="-1.03119">
        <ele>130</ele>
        <time>2021-12-19T09:19:23Z</time>
      </trkpt>
      <trkpt lat="46.72444" lon="-1.03138">
        <ele>130</ele>
        <time>2021-12-19T09:19:25Z</time>
      </trkpt>
      <trkpt lat="46.72447" lon="-1.03148">
        <ele>130</ele>
        <time>2021-12-19T09:19:26Z</time>
      </trkpt>
      <trkpt lat="46.72455" lon="-1.03168">
        <ele>130</ele>
        <time>2021-12-19T09:19:28Z</time>
      </trkpt>
      <trkpt lat="46.72462" lon="-1.03188">
        <ele>130</ele>
        <time>2021-12-19T09:19:30Z</time>
      </trkpt>
      <trkpt lat="46.72469" lon="-1.03207">
        <ele>130</ele>
        <time>2021-12-19T09:19:32Z</time>
      </trkpt>
      <trkpt lat="46.72473" lon="-1.03217">
        <ele>131</ele>
        <time>2021-12-19T09:19:33Z</time>
      </trkpt>
      <trkpt lat="46.7248" lon="-1.03237">
        <ele>131</ele>
        <time>2021-12-19T09:19:35Z</time>
      </trkpt>
      <trkpt lat="46.72487" lon="-1.03256">
        <ele>131</ele>
        <time>2021-12-19T09:19:37Z</time>
      </trkpt>
      <trkpt lat="46.72491" lon="-1.03266">
        <ele>132</ele>
        <time>2021-12-19T09:19:38Z</time>
      </trkpt>
      <trkpt lat="46.72497" lon="-1.03286">
        <ele>132</ele>
        <time>2021-12-19T09:19:40Z</time>
      </trkpt>
      <trkpt lat="46.72504" lon="-1.03306">
        <ele>132</ele>
        <time>2021-12-19T09:19:42Z</time>
      </trkpt>
      <trkpt lat="46.72507" lon="-1.03316">
        <ele>132</ele>
        <time>2021-12-19T09:19:43Z</time>
      </trkpt>
      <trkpt lat="46.7251" lon="-1.03327">
        <ele>132</ele>
        <time>2021-12-19T09:19:44Z</time>
      </trkpt>
      <trkpt lat="46.72517" lon="-1.03347">
        <ele>131</ele>
        <time>2021-12-19T09:19:46Z</time>
      </trkpt>
      <trkpt lat="46.7252" lon="-1.03358">
        <ele>131</ele>
        <time>2021-12-19T09:19:47Z</time>
      </trkpt>
      <trkpt lat="46.72526" lon="-1.0338">
        <ele>131</ele>
        <time>2021-12-19T09:19:49Z</time>
      </trkpt>
      <trkpt lat="46.72529" lon="-1.03391">
        <ele>131</ele>
        <time>2021-12-19T09:19:50Z</time>
      </trkpt>
      <trkpt lat="46.72532" lon="-1.03402">
        <ele>131</ele>
        <time>2021-12-19T09:19:51Z</time>
      </trkpt>
      <trkpt lat="46.72538" lon="-1.03425">
        <ele>131</ele>
        <time>2021-12-19T09:19:53Z</time>
      </trkpt>
      <trkpt lat="46.72541" lon="-1.03437">
        <ele>131</ele>
        <time>2021-12-19T09:19:54Z</time>
      </trkpt>
      <trkpt lat="46.72548" lon="-1.03461">
        <ele>130</ele>
        <time>2021-12-19T09:19:56Z</time>
      </trkpt>
      <trkpt lat="46.72551" lon="-1.03473">
        <ele>130</ele>
        <time>2021-12-19T09:19:57Z</time>
      </trkpt>
      <trkpt lat="46.72558" lon="-1.03497">
        <ele>130</ele>
        <time>2021-12-19T09:19:59Z</time>
      </trkpt>
      <trkpt lat="46.72561" lon="-1.03509">
        <ele>130</ele>
        <time>2021-12-19T09:20:00Z</time>
      </trkpt>
      <trkpt lat="46.72564" lon="-1.03522">
        <ele>129</ele>
        <time>2021-12-19T09:20:01Z</time>
      </trkpt>
      <trkpt lat="46.72571" lon="-1.03547">
        <ele>129</ele>
        <time>2021-12-19T09:20:03Z</time>
      </trkpt>
      <trkpt lat="46.72578" lon="-1.03572">
        <ele>128</ele>
        <time>2021-12-19T09:20:05Z</time>
      </trkpt>
      <trkpt lat="46.72584" lon="-1.03597">
        <ele>128</ele>
        <time>2021-12-19T09:20:07Z</time>
      </trkpt>
      <trkpt lat="46.72588" lon="-1.03609">
        <ele>128</ele>
        <time>2021-12-19T09:20:08Z</time>
      </trkpt>
      <trkpt lat="46.72594" lon="-1.03634">
        <ele>127</ele>
        <time>2021-12-19T09:20:10Z</time>
      </trkpt>
      <trkpt lat="46.72597" lon="-1.03647">
        <ele>127</ele>
        <time>2021-12-19T09:20:11Z</time>
      </trkpt>
      <trkpt lat="46.72604" lon="-1.03672">
        <ele>127</ele>
        <time>2021-12-19T09:20:13Z</time>
      </trkpt>
      <trkpt lat="46.72608" lon="-1.03685">
        <ele>127</ele>
        <time>2021-12-19T09:20:14Z</time>
      </trkpt>
      <trkpt lat="46.72615" lon="-1.03711">
        <ele>126</ele>
        <time>2021-12-19T09:20:16Z</time>
      </trkpt>
      <trkpt lat="46.72618" lon="-1.03724">
        <ele>126</ele>
        <time>2021-12-19T09:20:17Z</time>
      </trkpt>
      <trkpt lat="46.72622" lon="-1.03737">
        <ele>126</ele>
        <time>2021-12-19T09:20:18Z</time>
      </trkpt>
      <trkpt lat="46.72629" lon="-1.03762">
        <ele>125</ele>
        <time>2021-12-19T09:20:20Z</time>
      </trkpt>
      <trkpt lat="46.72635" lon="-1.03787">
        <ele>125</ele>
        <time>2021-12-19T09:20:22Z</time>
      </trkpt>
      <trkpt lat="46.72639" lon="-1.038">
        <ele>125</ele>
        <time>2021-12-19T09:20:23Z</time>
      </trkpt>
      <trkpt lat="46.72645" lon="-1.03826">
        <ele>124</ele>
        <time>2021-12-19T09:20:25Z</time>
      </trkpt>
      <trkpt lat="46.72651" lon="-1.03852">
        <ele>124</ele>
        <time>2021-12-19T09:20:27Z</time>
      </trkpt>
      <trkpt lat="46.72655" lon="-1.03865">
        <ele>124</ele>
        <time>2021-12-19T09:20:28Z</time>
      </trkpt>
      <trkpt lat="46.72658" lon="-1.03878">
        <ele>124</ele>
        <time>2021-12-19T09:20:29Z</time>
      </trkpt>
      <trkpt lat="46.72664" lon="-1.03904">
        <ele>123</ele>
        <time>2021-12-19T09:20:31Z</time>
      </trkpt>
      <trkpt lat="46.7267" lon="-1.0393">
        <ele>123</ele>
        <time>2021-12-19T09:20:33Z</time>
      </trkpt>
      <trkpt lat="46.72672" lon="-1.03943">
        <ele>123</ele>
        <time>2021-12-19T09:20:34Z</time>
      </trkpt>
      <trkpt lat="46.72678" lon="-1.03969">
        <ele>123</ele>
        <time>2021-12-19T09:20:36Z</time>
      </trkpt>
      <trkpt lat="46.72681" lon="-1.03982">
        <ele>124</ele>
        <time>2021-12-19T09:20:37Z</time>
      </trkpt>
      <trkpt lat="46.72684" lon="-1.03995">
        <ele>124</ele>
        <time>2021-12-19T09:20:38Z</time>
      </trkpt>
      <trkpt lat="46.7269" lon="-1.0402">
        <ele>124</ele>
        <time>2021-12-19T09:20:40Z</time>
      </trkpt>
      <trkpt lat="46.72697" lon="-1.04045">
        <ele>124</ele>
        <time>2021-12-19T09:20:42Z</time>
      </trkpt>
      <trkpt lat="46.72701" lon="-1.04057">
        <ele>124</ele>
        <time>2021-12-19T09:20:43Z</time>
      </trkpt>
      <trkpt lat="46.72705" lon="-1.04069">
        <ele>124</ele>
        <time>2021-12-19T09:20:44Z</time>
      </trkpt>
      <trkpt lat="46.72709" lon="-1.04081">
        <ele>124</ele>
        <time>2021-12-19T09:20:45Z</time>
      </trkpt>
      <trkpt lat="46.72717" lon="-1.04105">
        <ele>125</ele>
        <time>2021-12-19T09:20:47Z</time>
      </trkpt>
      <trkpt lat="46.72721" lon="-1.04116">
        <ele>125</ele>
        <time>2021-12-19T09:20:48Z</time>
      </trkpt>
      <trkpt lat="46.72726" lon="-1.04128">
        <ele>125</ele>
        <time>2021-12-19T09:20:49Z</time>
      </trkpt>
      <trkpt lat="46.72734" lon="-1.04151">
        <ele>126</ele>
        <time>2021-12-19T09:20:51Z</time>
      </trkpt>
      <trkpt lat="46.72738" lon="-1.04163">
        <ele>126</ele>
        <time>2021-12-19T09:20:52Z</time>
      </trkpt>
      <trkpt lat="46.72742" lon="-1.04175">
        <ele>126</ele>
        <time>2021-12-19T09:20:53Z</time>
      </trkpt>
      <trkpt lat="46.72751" lon="-1.04198">
        <ele>127</ele>
        <time>2021-12-19T09:20:55Z</time>
      </trkpt>
      <trkpt lat="46.72759" lon="-1.04222">
        <ele>127</ele>
        <time>2021-12-19T09:20:57Z</time>
      </trkpt>
      <trkpt lat="46.72768" lon="-1.04243">
        <ele>127</ele>
        <time>2021-12-19T09:20:59Z</time>
      </trkpt>
      <trkpt lat="46.72778" lon="-1.04264">
        <ele>128</ele>
        <time>2021-12-19T09:21:01Z</time>
      </trkpt>
      <trkpt lat="46.72784" lon="-1.04273">
        <ele>128</ele>
        <time>2021-12-19T09:21:02Z</time>
      </trkpt>
      <trkpt lat="46.72796" lon="-1.04292">
        <ele>128</ele>
        <time>2021-12-19T09:21:04Z</time>
      </trkpt>
      <trkpt lat="46.72809" lon="-1.04311">
        <ele>128</ele>
        <time>2021-12-19T09:21:06Z</time>
      </trkpt>
      <trkpt lat="46.72816" lon="-1.0432">
        <ele>128</ele>
        <time>2021-12-19T09:21:07Z</time>
      </trkpt>
      <trkpt lat="46.72829" lon="-1.04336">
        <ele>128</ele>
        <time>2021-12-19T09:21:09Z</time>
      </trkpt>
      <trkpt lat="46.72845" lon="-1.04352">
        <ele>128</ele>
        <time>2021-12-19T09:21:11Z</time>
      </trkpt>
      <trkpt lat="46.72852" lon="-1.04359">
        <ele>128</ele>
        <time>2021-12-19T09:21:12Z</time>
      </trkpt>
      <trkpt lat="46.72869" lon="-1.04373">
        <ele>128</ele>
        <time>2021-12-19T09:21:14Z</time>
      </trkpt>
      <trkpt lat="46.72877" lon="-1.04378">
        <ele>128</ele>
        <time>2021-12-19T09:21:15Z</time>
      </trkpt>
      <trkpt lat="46.72894" lon="-1.04389">
        <ele>128</ele>
        <time>2021-12-19T09:21:17Z</time>
      </trkpt>
      <trkpt lat="46.72911" lon="-1.04397">
        <ele>128</ele>
        <time>2021-12-19T09:21:19Z</time>
      </trkpt>
      <trkpt lat="46.72928" lon="-1.04403">
        <ele>127</ele>
        <time>2021-12-19T09:21:21Z</time>
      </trkpt>
      <trkpt lat="46.72937" lon="-1.04405">
        <ele>127</ele>
        <time>2021-12-19T09:21:22Z</time>
      </trkpt>
      <trkpt lat="46.72953" lon="-1.0441">
        <ele>127</ele>
        <time>2021-12-19T09:21:24Z</time>
      </trkpt>
      <trkpt lat="46.72961" lon="-1.04413">
        <ele>127</ele>
        <time>2021-12-19T09:21:25Z</time>
      </trkpt>
      <trkpt lat="46.72976" lon="-1.0442">
        <ele>127</ele>
        <time>2021-12-19T09:21:27Z</time>
      </trkpt>
      <trkpt lat="46.72992" lon="-1.0443">
        <ele>126</ele>
        <time>2021-12-19T09:21:29Z</time>
      </trkpt>
      <trkpt lat="46.73007" lon="-1.04444">
        <ele>126</ele>
        <time>2021-12-19T09:21:31Z</time>
      </trkpt>
      <trkpt lat="46.73021" lon="-1.04458">
        <ele>126</ele>
        <time>2021-12-19T09:21:33Z</time>
      </trkpt>
      <trkpt lat="46.73028" lon="-1.04466">
        <ele>125</ele>
        <time>2021-12-19T09:21:34Z</time>
      </trkpt>
      <trkpt lat="46.73034" lon="-1.04473">
        <ele>125</ele>
        <time>2021-12-19T09:21:35Z</time>
      </trkpt>
      <trkpt lat="46.7304" lon="-1.04482">
        <ele>125</ele>
        <time>2021-12-19T09:21:36Z</time>
      </trkpt>
      <trkpt lat="46.73051" lon="-1.04501">
        <ele>125</ele>
        <time>2021-12-19T09:21:38Z</time>
      </trkpt>
      <trkpt lat="46.73061" lon="-1.04521">
        <ele>125</ele>
        <time>2021-12-19T09:21:40Z</time>
      </trkpt>
      <trkpt lat="46.73069" lon="-1.04543">
        <ele>125</ele>
        <time>2021-12-19T09:21:42Z</time>
      </trkpt>
      <trkpt lat="46.73073" lon="-1.04553">
        <ele>125</ele>
        <time>2021-12-19T09:21:43Z</time>
      </trkpt>
      <trkpt lat="46.73081" lon="-1.04575">
        <ele>124</ele>
        <time>2021-12-19T09:21:45Z</time>
      </trkpt>
      <trkpt lat="46.73085" lon="-1.04586">
        <ele>124</ele>
        <time>2021-12-19T09:21:46Z</time>
      </trkpt>
      <trkpt lat="46.7309" lon="-1.04597">
        <ele>124</ele>
        <time>2021-12-19T09:21:47Z</time>
      </trkpt>
      <trkpt lat="46.73094" lon="-1.04608">
        <ele>124</ele>
        <time>2021-12-19T09:21:48Z</time>
      </trkpt>
      <trkpt lat="46.73102" lon="-1.0463">
        <ele>124</ele>
        <time>2021-12-19T09:21:50Z</time>
      </trkpt>
      <trkpt lat="46.73105" lon="-1.04642">
        <ele>124</ele>
        <time>2021-12-19T09:21:51Z</time>
      </trkpt>
      <trkpt lat="46.7311" lon="-1.04665">
        <ele>124</ele>
        <time>2021-12-19T09:21:53Z</time>
      </trkpt>
      <trkpt lat="46.73114" lon="-1.04689">
        <ele>124</ele>
        <time>2021-12-19T09:21:55Z</time>
      </trkpt>
      <trkpt lat="46.73116" lon="-1.04702">
        <ele>123</ele>
        <time>2021-12-19T09:21:56Z</time>
      </trkpt>
      <trkpt lat="46.73118" lon="-1.04715">
        <ele>123</ele>
        <time>2021-12-19T09:21:57Z</time>
      </trkpt>
      <trkpt lat="46.73121" lon="-1.0474">
        <ele>123</ele>
        <time>2021-12-19T09:21:59Z</time>
      </trkpt>
      <trkpt lat="46.73122" lon="-1.04752">
        <ele>123</ele>
        <time>2021-12-19T09:22:00Z</time>
      </trkpt>
      <trkpt lat="46.73124" lon="-1.04778">
        <ele>124</ele>
        <time>2021-12-19T09:22:02Z</time>
      </trkpt>
      <trkpt lat="46.73125" lon="-1.04792">
        <ele>124</ele>
        <time>2021-12-19T09:22:03Z</time>
      </trkpt>
      <trkpt lat="46.73126" lon="-1.04818">
        <ele>124</ele>
        <time>2021-12-19T09:22:05Z</time>
      </trkpt>
      <trkpt lat="46.73128" lon="-1.04845">
        <ele>124</ele>
        <time>2021-12-19T09:22:07Z</time>
      </trkpt>
      <trkpt lat="46.73128" lon="-1.04859">
        <ele>124</ele>
        <time>2021-12-19T09:22:08Z</time>
      </trkpt>
      <trkpt lat="46.7313" lon="-1.04886">
        <ele>124</ele>
        <time>2021-12-19T09:22:10Z</time>
      </trkpt>
      <trkpt lat="46.7313" lon="-1.049">
        <ele>124</ele>
        <time>2021-12-19T09:22:11Z</time>
      </trkpt>
      <trkpt lat="46.73131" lon="-1.04927">
        <ele>123</ele>
        <time>2021-12-19T09:22:13Z</time>
      </trkpt>
      <trkpt lat="46.73131" lon="-1.0494">
        <ele>123</ele>
        <time>2021-12-19T09:22:14Z</time>
      </trkpt>
      <trkpt lat="46.7313" lon="-1.04968">
        <ele>123</ele>
        <time>2021-12-19T09:22:16Z</time>
      </trkpt>
      <trkpt lat="46.73128" lon="-1.04996">
        <ele>122</ele>
        <time>2021-12-19T09:22:18Z</time>
      </trkpt>
      <trkpt lat="46.73127" lon="-1.05025">
        <ele>122</ele>
        <time>2021-12-19T09:22:20Z</time>
      </trkpt>
      <trkpt lat="46.73127" lon="-1.05039">
        <ele>122</ele>
        <time>2021-12-19T09:22:21Z</time>
      </trkpt>
      <trkpt lat="46.73126" lon="-1.05053">
        <ele>122</ele>
        <time>2021-12-19T09:22:22Z</time>
      </trkpt>
      <trkpt lat="46.73125" lon="-1.05082">
        <ele>122</ele>
        <time>2021-12-19T09:22:24Z</time>
      </trkpt>
      <trkpt lat="46.73125" lon="-1.05097">
        <ele>122</ele>
        <time>2021-12-19T09:22:25Z</time>
      </trkpt>
      <trkpt lat="46.73123" lon="-1.05126">
        <ele>121</ele>
        <time>2021-12-19T09:22:27Z</time>
      </trkpt>
      <trkpt lat="46.73121" lon="-1.05156">
        <ele>121</ele>
        <time>2021-12-19T09:22:29Z</time>
      </trkpt>
      <trkpt lat="46.73119" lon="-1.05171">
        <ele>121</ele>
        <time>2021-12-19T09:22:30Z</time>
      </trkpt>
      <trkpt lat="46.73117" lon="-1.05202">
        <ele>121</ele>
        <time>2021-12-19T09:22:32Z</time>
      </trkpt>
      <trkpt lat="46.73115" lon="-1.05232">
        <ele>121</ele>
        <time>2021-12-19T09:22:34Z</time>
      </trkpt>
      <trkpt lat="46.73114" lon="-1.05264">
        <ele>121</ele>
        <time>2021-12-19T09:22:36Z</time>
      </trkpt>
      <trkpt lat="46.73114" lon="-1.0528">
        <ele>122</ele>
        <time>2021-12-19T09:22:37Z</time>
      </trkpt>
      <trkpt lat="46.73114" lon="-1.05296">
        <ele>121</ele>
        <time>2021-12-19T09:22:38Z</time>
      </trkpt>
      <trkpt lat="46.73115" lon="-1.05328">
        <ele>121</ele>
        <time>2021-12-19T09:22:40Z</time>
      </trkpt>
      <trkpt lat="46.73115" lon="-1.05343">
        <ele>121</ele>
        <time>2021-12-19T09:22:41Z</time>
      </trkpt>
      <trkpt lat="46.73116" lon="-1.05375">
        <ele>121</ele>
        <time>2021-12-19T09:22:43Z</time>
      </trkpt>
      <trkpt lat="46.73116" lon="-1.05407">
        <ele>120</ele>
        <time>2021-12-19T09:22:45Z</time>
      </trkpt>
      <trkpt lat="46.73115" lon="-1.05438">
        <ele>119</ele>
        <time>2021-12-19T09:22:47Z</time>
      </trkpt>
      <trkpt lat="46.73114" lon="-1.05454">
        <ele>119</ele>
        <time>2021-12-19T09:22:48Z</time>
      </trkpt>
      <trkpt lat="46.73112" lon="-1.05486">
        <ele>119</ele>
        <time>2021-12-19T09:22:50Z</time>
      </trkpt>
      <trkpt lat="46.73108" lon="-1.05518">
        <ele>119</ele>
        <time>2021-12-19T09:22:52Z</time>
      </trkpt>
      <trkpt lat="46.73102" lon="-1.05548">
        <ele>118</ele>
        <time>2021-12-19T09:22:54Z</time>
      </trkpt>
      <trkpt lat="46.73095" lon="-1.05579">
        <ele>118</ele>
        <time>2021-12-19T09:22:56Z</time>
      </trkpt>
      <trkpt lat="46.73092" lon="-1.05595">
        <ele>117</ele>
        <time>2021-12-19T09:22:57Z</time>
      </trkpt>
      <trkpt lat="46.73088" lon="-1.05611">
        <ele>117</ele>
        <time>2021-12-19T09:22:58Z</time>
      </trkpt>
      <trkpt lat="46.73082" lon="-1.05642">
        <ele>116</ele>
        <time>2021-12-19T09:23:00Z</time>
      </trkpt>
      <trkpt lat="46.73079" lon="-1.05657">
        <ele>116</ele>
        <time>2021-12-19T09:23:01Z</time>
      </trkpt>
      <trkpt lat="46.73073" lon="-1.05689">
        <ele>116</ele>
        <time>2021-12-19T09:23:03Z</time>
      </trkpt>
      <trkpt lat="46.73067" lon="-1.05721">
        <ele>116</ele>
        <time>2021-12-19T09:23:05Z</time>
      </trkpt>
      <trkpt lat="46.73064" lon="-1.05737">
        <ele>115</ele>
        <time>2021-12-19T09:23:06Z</time>
      </trkpt>
      <trkpt lat="46.73058" lon="-1.05768">
        <ele>115</ele>
        <time>2021-12-19T09:23:08Z</time>
      </trkpt>
      <trkpt lat="46.73055" lon="-1.05784">
        <ele>115</ele>
        <time>2021-12-19T09:23:09Z</time>
      </trkpt>
      <trkpt lat="46.73053" lon="-1.05817">
        <ele>115</ele>
        <time>2021-12-19T09:23:11Z</time>
      </trkpt>
      <trkpt lat="46.73053" lon="-1.05834">
        <ele>115</ele>
        <time>2021-12-19T09:23:12Z</time>
      </trkpt>
      <trkpt lat="46.73053" lon="-1.05851">
        <ele>115</ele>
        <time>2021-12-19T09:23:13Z</time>
      </trkpt>
      <trkpt lat="46.73054" lon="-1.05884">
        <ele>115</ele>
        <time>2021-12-19T09:23:15Z</time>
      </trkpt>
      <trkpt lat="46.73055" lon="-1.05918">
        <ele>115</ele>
        <time>2021-12-19T09:23:17Z</time>
      </trkpt>
      <trkpt lat="46.73056" lon="-1.05951">
        <ele>115</ele>
        <time>2021-12-19T09:23:19Z</time>
      </trkpt>
      <trkpt lat="46.73056" lon="-1.05967">
        <ele>115</ele>
        <time>2021-12-19T09:23:20Z</time>
      </trkpt>
      <trkpt lat="46.73057" lon="-1.05984">
        <ele>114</ele>
        <time>2021-12-19T09:23:21Z</time>
      </trkpt>
      <trkpt lat="46.73058" lon="-1.06016">
        <ele>114</ele>
        <time>2021-12-19T09:23:23Z</time>
      </trkpt>
      <trkpt lat="46.73059" lon="-1.06032">
        <ele>114</ele>
        <time>2021-12-19T09:23:24Z</time>
      </trkpt>
      <trkpt lat="46.73063" lon="-1.06064">
        <ele>113</ele>
        <time>2021-12-19T09:23:26Z</time>
      </trkpt>
      <trkpt lat="46.7307" lon="-1.06095">
        <ele>113</ele>
        <time>2021-12-19T09:23:28Z</time>
      </trkpt>
      <trkpt lat="46.73075" lon="-1.0611">
        <ele>113</ele>
        <time>2021-12-19T09:23:29Z</time>
      </trkpt>
      <trkpt lat="46.7308" lon="-1.06124">
        <ele>113</ele>
        <time>2021-12-19T09:23:30Z</time>
      </trkpt>
      <trkpt lat="46.7309" lon="-1.06152">
        <ele>113</ele>
        <time>2021-12-19T09:23:32Z</time>
      </trkpt>
      <trkpt lat="46.73095" lon="-1.06166">
        <ele>113</ele>
        <time>2021-12-19T09:23:33Z</time>
      </trkpt>
      <trkpt lat="46.73099" lon="-1.0618">
        <ele>112</ele>
        <time>2021-12-19T09:23:34Z</time>
      </trkpt>
      <trkpt lat="46.73101" lon="-1.0621">
        <ele>111</ele>
        <time>2021-12-19T09:23:36Z</time>
      </trkpt>
      <trkpt lat="46.73099" lon="-1.06226">
        <ele>111</ele>
        <time>2021-12-19T09:23:37Z</time>
      </trkpt>
      <trkpt lat="46.73086" lon="-1.06254">
        <ele>110</ele>
        <time>2021-12-19T09:23:39Z</time>
      </trkpt>
      <trkpt lat="46.73077" lon="-1.06266">
        <ele>110</ele>
        <time>2021-12-19T09:23:40Z</time>
      </trkpt>
      <trkpt lat="46.73059" lon="-1.06288">
        <ele>109</ele>
        <time>2021-12-19T09:23:42Z</time>
      </trkpt>
      <trkpt lat="46.73041" lon="-1.06309">
        <ele>109</ele>
        <time>2021-12-19T09:23:44Z</time>
      </trkpt>
      <trkpt lat="46.73033" lon="-1.06321">
        <ele>109</ele>
        <time>2021-12-19T09:23:45Z</time>
      </trkpt>
      <trkpt lat="46.73027" lon="-1.06334">
        <ele>109</ele>
        <time>2021-12-19T09:23:46Z</time>
      </trkpt>
      <trkpt lat="46.73023" lon="-1.06348">
        <ele>108</ele>
        <time>2021-12-19T09:23:47Z</time>
      </trkpt>
      <trkpt lat="46.7302" lon="-1.0638">
        <ele>108</ele>
        <time>2021-12-19T09:23:49Z</time>
      </trkpt>
      <trkpt lat="46.7302" lon="-1.06396">
        <ele>109</ele>
        <time>2021-12-19T09:23:50Z</time>
      </trkpt>
      <trkpt lat="46.73022" lon="-1.06428">
        <ele>108</ele>
        <time>2021-12-19T09:23:52Z</time>
      </trkpt>
      <trkpt lat="46.73024" lon="-1.06444">
        <ele>108</ele>
        <time>2021-12-19T09:23:53Z</time>
      </trkpt>
      <trkpt lat="46.73031" lon="-1.06474">
        <ele>108</ele>
        <time>2021-12-19T09:23:55Z</time>
      </trkpt>
      <trkpt lat="46.73043" lon="-1.065">
        <ele>108</ele>
        <time>2021-12-19T09:23:57Z</time>
      </trkpt>
      <trkpt lat="46.7305" lon="-1.06512">
        <ele>108</ele>
        <time>2021-12-19T09:23:58Z</time>
      </trkpt>
      <trkpt lat="46.73065" lon="-1.06535">
        <ele>108</ele>
        <time>2021-12-19T09:24:00Z</time>
      </trkpt>
      <trkpt lat="46.73079" lon="-1.06557">
        <ele>109</ele>
        <time>2021-12-19T09:24:02Z</time>
      </trkpt>
      <trkpt lat="46.73086" lon="-1.06568">
        <ele>109</ele>
        <time>2021-12-19T09:24:03Z</time>
      </trkpt>
      <trkpt lat="46.73101" lon="-1.06584">
        <ele>109</ele>
        <time>2021-12-19T09:24:05Z</time>
      </trkpt>
      <trkpt lat="46.7311" lon="-1.06586">
        <ele>108</ele>
        <time>2021-12-19T09:24:06Z</time>
      </trkpt>
      <trkpt lat="46.7312" lon="-1.06584">
        <ele>108</ele>
        <time>2021-12-19T09:24:07Z</time>
      </trkpt>
      <trkpt lat="46.73137" lon="-1.06572">
        <ele>108</ele>
        <time>2021-12-19T09:24:09Z</time>
      </trkpt>
      <trkpt lat="46.73145" lon="-1.06564">
        <ele>109</ele>
        <time>2021-12-19T09:24:10Z</time>
      </trkpt>
      <trkpt lat="46.73153" lon="-1.06557">
        <ele>110</ele>
        <time>2021-12-19T09:24:11Z</time>
      </trkpt>
      <trkpt lat="46.73161" lon="-1.06552">
        <ele>110</ele>
        <time>2021-12-19T09:24:12Z</time>
      </trkpt>
      <trkpt lat="46.73169" lon="-1.06547">
        <ele>110</ele>
        <time>2021-12-19T09:24:13Z</time>
      </trkpt>
      <trkpt lat="46.73186" lon="-1.06545">
        <ele>111</ele>
        <time>2021-12-19T09:24:15Z</time>
      </trkpt>
      <trkpt lat="46.73195" lon="-1.06547">
        <ele>111</ele>
        <time>2021-12-19T09:24:16Z</time>
      </trkpt>
      <trkpt lat="46.73203" lon="-1.06552">
        <ele>111</ele>
        <time>2021-12-19T09:24:17Z</time>
      </trkpt>
      <trkpt lat="46.73219" lon="-1.06562">
        <ele>111</ele>
        <time>2021-12-19T09:24:19Z</time>
      </trkpt>
      <trkpt lat="46.73234" lon="-1.06574">
        <ele>112</ele>
        <time>2021-12-19T09:24:21Z</time>
      </trkpt>
      <trkpt lat="46.73241" lon="-1.06581">
        <ele>112</ele>
        <time>2021-12-19T09:24:22Z</time>
      </trkpt>
      <trkpt lat="46.73255" lon="-1.06595">
        <ele>112</ele>
        <time>2021-12-19T09:24:24Z</time>
      </trkpt>
      <trkpt lat="46.7326" lon="-1.06603">
        <ele>111</ele>
        <time>2021-12-19T09:24:25Z</time>
      </trkpt>
      <trkpt lat="46.73266" lon="-1.06611">
        <ele>112</ele>
        <time>2021-12-19T09:24:26Z</time>
      </trkpt>
      <trkpt lat="46.73278" lon="-1.06626">
        <ele>112</ele>
        <time>2021-12-19T09:24:28Z</time>
      </trkpt>
      <trkpt lat="46.73289" lon="-1.06641">
        <ele>112</ele>
        <time>2021-12-19T09:24:30Z</time>
      </trkpt>
      <trkpt lat="46.733" lon="-1.06654">
        <ele>112</ele>
        <time>2021-12-19T09:24:32Z</time>
      </trkpt>
      <trkpt lat="46.73305" lon="-1.06661">
        <ele>112</ele>
        <time>2021-12-19T09:24:33Z</time>
      </trkpt>
      <trkpt lat="46.7331" lon="-1.06667">
        <ele>112</ele>
        <time>2021-12-19T09:24:34Z</time>
      </trkpt>
      <trkpt lat="46.73319" lon="-1.06682">
        <ele>113</ele>
        <time>2021-12-19T09:24:36Z</time>
      </trkpt>
      <trkpt lat="46.73326" lon="-1.06696">
        <ele>113</ele>
        <time>2021-12-19T09:24:38Z</time>
      </trkpt>
      <trkpt lat="46.7333" lon="-1.06703">
        <ele>113</ele>
        <time>2021-12-19T09:24:39Z</time>
      </trkpt>
      <trkpt lat="46.73338" lon="-1.06717">
        <ele>113</ele>
        <time>2021-12-19T09:24:41Z</time>
      </trkpt>
      <trkpt lat="46.73341" lon="-1.06723">
        <ele>114</ele>
        <time>2021-12-19T09:24:42Z</time>
      </trkpt>
      <trkpt lat="46.73345" lon="-1.06729">
        <ele>114</ele>
        <time>2021-12-19T09:24:43Z</time>
      </trkpt>
      <trkpt lat="46.73354" lon="-1.06739">
        <ele>114</ele>
        <time>2021-12-19T09:24:45Z</time>
      </trkpt>
      <trkpt lat="46.73363" lon="-1.06751">
        <ele>114</ele>
        <time>2021-12-19T09:24:47Z</time>
      </trkpt>
      <trkpt lat="46.73372" lon="-1.06761">
        <ele>114</ele>
        <time>2021-12-19T09:24:49Z</time>
      </trkpt>
      <trkpt lat="46.73381" lon="-1.06771">
        <ele>114</ele>
        <time>2021-12-19T09:24:51Z</time>
      </trkpt>
      <trkpt lat="46.73385" lon="-1.06776">
        <ele>114</ele>
        <time>2021-12-19T09:24:52Z</time>
      </trkpt>
      <trkpt lat="46.7339" lon="-1.06782">
        <ele>114</ele>
        <time>2021-12-19T09:24:53Z</time>
      </trkpt>
      <trkpt lat="46.73399" lon="-1.06792">
        <ele>115</ele>
        <time>2021-12-19T09:24:55Z</time>
      </trkpt>
      <trkpt lat="46.73409" lon="-1.06803">
        <ele>115</ele>
        <time>2021-12-19T09:24:57Z</time>
      </trkpt>
      <trkpt lat="46.73418" lon="-1.06814">
        <ele>115</ele>
        <time>2021-12-19T09:24:59Z</time>
      </trkpt>
      <trkpt lat="46.73429" lon="-1.06826">
        <ele>114</ele>
        <time>2021-12-19T09:25:01Z</time>
      </trkpt>
      <trkpt lat="46.73439" lon="-1.06838">
        <ele>114</ele>
        <time>2021-12-19T09:25:03Z</time>
      </trkpt>
      <trkpt lat="46.73445" lon="-1.06845">
        <ele>114</ele>
        <time>2021-12-19T09:25:04Z</time>
      </trkpt>
      <trkpt lat="46.73455" lon="-1.0686">
        <ele>114</ele>
        <time>2021-12-19T09:25:06Z</time>
      </trkpt>
      <trkpt lat="46.73464" lon="-1.06876">
        <ele>114</ele>
        <time>2021-12-19T09:25:08Z</time>
      </trkpt>
      <trkpt lat="46.73469" lon="-1.06885">
        <ele>114</ele>
        <time>2021-12-19T09:25:09Z</time>
      </trkpt>
      <trkpt lat="46.73478" lon="-1.06903">
        <ele>114</ele>
        <time>2021-12-19T09:25:11Z</time>
      </trkpt>
      <trkpt lat="46.73487" lon="-1.06923">
        <ele>114</ele>
        <time>2021-12-19T09:25:13Z</time>
      </trkpt>
      <trkpt lat="46.73497" lon="-1.06944">
        <ele>114</ele>
        <time>2021-12-19T09:25:15Z</time>
      </trkpt>
      <trkpt lat="46.73508" lon="-1.06966">
        <ele>113</ele>
        <time>2021-12-19T09:25:17Z</time>
      </trkpt>
      <trkpt lat="46.73515" lon="-1.06976">
        <ele>113</ele>
        <time>2021-12-19T09:25:18Z</time>
      </trkpt>
      <trkpt lat="46.73522" lon="-1.06987">
        <ele>113</ele>
        <time>2021-12-19T09:25:19Z</time>
      </trkpt>
      <trkpt lat="46.73535" lon="-1.07008">
        <ele>112</ele>
        <time>2021-12-19T09:25:21Z</time>
      </trkpt>
      <trkpt lat="46.73542" lon="-1.07018">
        <ele>112</ele>
        <time>2021-12-19T09:25:22Z</time>
      </trkpt>
      <trkpt lat="46.73557" lon="-1.07038">
        <ele>111</ele>
        <time>2021-12-19T09:25:24Z</time>
      </trkpt>
      <trkpt lat="46.73564" lon="-1.07049">
        <ele>111</ele>
        <time>2021-12-19T09:25:25Z</time>
      </trkpt>
      <trkpt lat="46.73578" lon="-1.07071">
        <ele>110</ele>
        <time>2021-12-19T09:25:27Z</time>
      </trkpt>
      <trkpt lat="46.7359" lon="-1.07096">
        <ele>110</ele>
        <time>2021-12-19T09:25:29Z</time>
      </trkpt>
      <trkpt lat="46.736" lon="-1.07121">
        <ele>111</ele>
        <time>2021-12-19T09:25:31Z</time>
      </trkpt>
      <trkpt lat="46.73606" lon="-1.07134">
        <ele>111</ele>
        <time>2021-12-19T09:25:32Z</time>
      </trkpt>
      <trkpt lat="46.73611" lon="-1.07146">
        <ele>112</ele>
        <time>2021-12-19T09:25:33Z</time>
      </trkpt>
      <trkpt lat="46.73622" lon="-1.07168">
        <ele>113</ele>
        <time>2021-12-19T09:25:35Z</time>
      </trkpt>
      <trkpt lat="46.73633" lon="-1.07191">
        <ele>114</ele>
        <time>2021-12-19T09:25:37Z</time>
      </trkpt>
      <trkpt lat="46.73639" lon="-1.07202">
        <ele>114</ele>
        <time>2021-12-19T09:25:38Z</time>
      </trkpt>
      <trkpt lat="46.73645" lon="-1.07213">
        <ele>114</ele>
        <time>2021-12-19T09:25:39Z</time>
      </trkpt>
      <trkpt lat="46.73658" lon="-1.07232">
        <ele>115</ele>
        <time>2021-12-19T09:25:41Z</time>
      </trkpt>
      <trkpt lat="46.73664" lon="-1.07242">
        <ele>115</ele>
        <time>2021-12-19T09:25:42Z</time>
      </trkpt>
      <trkpt lat="46.73675" lon="-1.07261">
        <ele>116</ele>
        <time>2021-12-19T09:25:44Z</time>
      </trkpt>
      <trkpt lat="46.73686" lon="-1.07281">
        <ele>116</ele>
        <time>2021-12-19T09:25:46Z</time>
      </trkpt>
      <trkpt lat="46.73696" lon="-1.07303">
        <ele>116</ele>
        <time>2021-12-19T09:25:48Z</time>
      </trkpt>
      <trkpt lat="46.737" lon="-1.07314">
        <ele>116</ele>
        <time>2021-12-19T09:25:49Z</time>
      </trkpt>
      <trkpt lat="46.73709" lon="-1.07336">
        <ele>116</ele>
        <time>2021-12-19T09:25:51Z</time>
      </trkpt>
      <trkpt lat="46.73712" lon="-1.07347">
        <ele>116</ele>
        <time>2021-12-19T09:25:52Z</time>
      </trkpt>
      <trkpt lat="46.73716" lon="-1.07359">
        <ele>116</ele>
        <time>2021-12-19T09:25:53Z</time>
      </trkpt>
      <trkpt lat="46.7372" lon="-1.07371">
        <ele>116</ele>
        <time>2021-12-19T09:25:54Z</time>
      </trkpt>
      <trkpt lat="46.73727" lon="-1.07396">
        <ele>117</ele>
        <time>2021-12-19T09:25:56Z</time>
      </trkpt>
      <trkpt lat="46.73733" lon="-1.07421">
        <ele>117</ele>
        <time>2021-12-19T09:25:58Z</time>
      </trkpt>
      <trkpt lat="46.73739" lon="-1.07446">
        <ele>118</ele>
        <time>2021-12-19T09:26:00Z</time>
      </trkpt>
      <trkpt lat="46.73742" lon="-1.07458">
        <ele>118</ele>
        <time>2021-12-19T09:26:01Z</time>
      </trkpt>
      <trkpt lat="46.73747" lon="-1.07482">
        <ele>118</ele>
        <time>2021-12-19T09:26:03Z</time>
      </trkpt>
      <trkpt lat="46.73749" lon="-1.07494">
        <ele>118</ele>
        <time>2021-12-19T09:26:04Z</time>
      </trkpt>
      <trkpt lat="46.73755" lon="-1.07518">
        <ele>118</ele>
        <time>2021-12-19T09:26:06Z</time>
      </trkpt>
      <trkpt lat="46.7376" lon="-1.07542">
        <ele>118</ele>
        <time>2021-12-19T09:26:08Z</time>
      </trkpt>
      <trkpt lat="46.73763" lon="-1.07554">
        <ele>118</ele>
        <time>2021-12-19T09:26:09Z</time>
      </trkpt>
      <trkpt lat="46.73769" lon="-1.0758">
        <ele>119</ele>
        <time>2021-12-19T09:26:11Z</time>
      </trkpt>
      <trkpt lat="46.73775" lon="-1.07605">
        <ele>119</ele>
        <time>2021-12-19T09:26:13Z</time>
      </trkpt>
      <trkpt lat="46.73778" lon="-1.07618">
        <ele>119</ele>
        <time>2021-12-19T09:26:14Z</time>
      </trkpt>
      <trkpt lat="46.73783" lon="-1.07644">
        <ele>119</ele>
        <time>2021-12-19T09:26:16Z</time>
      </trkpt>
      <trkpt lat="46.73787" lon="-1.07657">
        <ele>119</ele>
        <time>2021-12-19T09:26:17Z</time>
      </trkpt>
      <trkpt lat="46.7379" lon="-1.07671">
        <ele>119</ele>
        <time>2021-12-19T09:26:18Z</time>
      </trkpt>
      <trkpt lat="46.73793" lon="-1.07685">
        <ele>119</ele>
        <time>2021-12-19T09:26:19Z</time>
      </trkpt>
      <trkpt lat="46.73799" lon="-1.07714">
        <ele>119</ele>
        <time>2021-12-19T09:26:21Z</time>
      </trkpt>
      <trkpt lat="46.73803" lon="-1.07728">
        <ele>119</ele>
        <time>2021-12-19T09:26:22Z</time>
      </trkpt>
      <trkpt lat="46.73806" lon="-1.07742">
        <ele>119</ele>
        <time>2021-12-19T09:26:23Z</time>
      </trkpt>
      <trkpt lat="46.73809" lon="-1.07758">
        <ele>118</ele>
        <time>2021-12-19T09:26:24Z</time>
      </trkpt>
      <trkpt lat="46.73816" lon="-1.07788">
        <ele>118</ele>
        <time>2021-12-19T09:26:26Z</time>
      </trkpt>
      <trkpt lat="46.73819" lon="-1.07804">
        <ele>118</ele>
        <time>2021-12-19T09:26:27Z</time>
      </trkpt>
      <trkpt lat="46.73822" lon="-1.0782">
        <ele>118</ele>
        <time>2021-12-19T09:26:28Z</time>
      </trkpt>
      <trkpt lat="46.73826" lon="-1.07851">
        <ele>118</ele>
        <time>2021-12-19T09:26:30Z</time>
      </trkpt>
      <trkpt lat="46.7383" lon="-1.07881">
        <ele>117</ele>
        <time>2021-12-19T09:26:32Z</time>
      </trkpt>
      <trkpt lat="46.73833" lon="-1.07912">
        <ele>116</ele>
        <time>2021-12-19T09:26:34Z</time>
      </trkpt>
      <trkpt lat="46.73834" lon="-1.07928">
        <ele>116</ele>
        <time>2021-12-19T09:26:35Z</time>
      </trkpt>
      <trkpt lat="46.73837" lon="-1.07959">
        <ele>115</ele>
        <time>2021-12-19T09:26:37Z</time>
      </trkpt>
      <trkpt lat="46.73841" lon="-1.07991">
        <ele>114</ele>
        <time>2021-12-19T09:26:39Z</time>
      </trkpt>
      <trkpt lat="46.73842" lon="-1.08007">
        <ele>114</ele>
        <time>2021-12-19T09:26:40Z</time>
      </trkpt>
      <trkpt lat="46.73843" lon="-1.08023">
        <ele>114</ele>
        <time>2021-12-19T09:26:41Z</time>
      </trkpt>
      <trkpt lat="46.73845" lon="-1.08054">
        <ele>113</ele>
        <time>2021-12-19T09:26:43Z</time>
      </trkpt>
      <trkpt lat="46.73846" lon="-1.08071">
        <ele>113</ele>
        <time>2021-12-19T09:26:44Z</time>
      </trkpt>
      <trkpt lat="46.73847" lon="-1.08103">
        <ele>113</ele>
        <time>2021-12-19T09:26:46Z</time>
      </trkpt>
      <trkpt lat="46.73848" lon="-1.08136">
        <ele>113</ele>
        <time>2021-12-19T09:26:48Z</time>
      </trkpt>
      <trkpt lat="46.73849" lon="-1.08167">
        <ele>113</ele>
        <time>2021-12-19T09:26:50Z</time>
      </trkpt>
      <trkpt lat="46.73851" lon="-1.082">
        <ele>113</ele>
        <time>2021-12-19T09:26:52Z</time>
      </trkpt>
      <trkpt lat="46.73852" lon="-1.08216">
        <ele>113</ele>
        <time>2021-12-19T09:26:53Z</time>
      </trkpt>
      <trkpt lat="46.73854" lon="-1.08233">
        <ele>113</ele>
        <time>2021-12-19T09:26:54Z</time>
      </trkpt>
      <trkpt lat="46.73857" lon="-1.08266">
        <ele>114</ele>
        <time>2021-12-19T09:26:56Z</time>
      </trkpt>
      <trkpt lat="46.7386" lon="-1.08282">
        <ele>114</ele>
        <time>2021-12-19T09:26:57Z</time>
      </trkpt>
      <trkpt lat="46.73864" lon="-1.08313">
        <ele>114</ele>
        <time>2021-12-19T09:26:59Z</time>
      </trkpt>
      <trkpt lat="46.73869" lon="-1.08342">
        <ele>114</ele>
        <time>2021-12-19T09:27:01Z</time>
      </trkpt>
      <trkpt lat="46.73872" lon="-1.08356">
        <ele>115</ele>
        <time>2021-12-19T09:27:02Z</time>
      </trkpt>
      <trkpt lat="46.73874" lon="-1.08369">
        <ele>114</ele>
        <time>2021-12-19T09:27:03Z</time>
      </trkpt>
      <trkpt lat="46.73876" lon="-1.08382">
        <ele>114</ele>
        <time>2021-12-19T09:27:04Z</time>
      </trkpt>
      <trkpt lat="46.73881" lon="-1.08406">
        <ele>115</ele>
        <time>2021-12-19T09:27:06Z</time>
      </trkpt>
      <trkpt lat="46.73883" lon="-1.08417">
        <ele>115</ele>
        <time>2021-12-19T09:27:07Z</time>
      </trkpt>
      <trkpt lat="46.73885" lon="-1.08427">
        <ele>114</ele>
        <time>2021-12-19T09:27:08Z</time>
      </trkpt>
      <trkpt lat="46.73889" lon="-1.08447">
        <ele>114</ele>
        <time>2021-12-19T09:27:10Z</time>
      </trkpt>
      <trkpt lat="46.73893" lon="-1.08465">
        <ele>115</ele>
        <time>2021-12-19T09:27:12Z</time>
      </trkpt>
      <trkpt lat="46.73896" lon="-1.08482">
        <ele>116</ele>
        <time>2021-12-19T09:27:14Z</time>
      </trkpt>
      <trkpt lat="46.73899" lon="-1.08495">
        <ele>116</ele>
        <time>2021-12-19T09:27:16Z</time>
      </trkpt>
      <trkpt lat="46.739" lon="-1.08507">
        <ele>115</ele>
        <time>2021-12-19T09:27:18Z</time>
      </trkpt>
      <trkpt lat="46.739" lon="-1.08513">
        <ele>115</ele>
        <time>2021-12-19T09:27:19Z</time>
      </trkpt>
      <trkpt lat="46.73901" lon="-1.08518">
        <ele>115</ele>
        <time>2021-12-19T09:27:20Z</time>
      </trkpt>
      <trkpt lat="46.73906" lon="-1.08528">
        <ele>116</ele>
        <time>2021-12-19T09:27:22Z</time>
      </trkpt>
      <trkpt lat="46.7391" lon="-1.08533">
        <ele>116</ele>
        <time>2021-12-19T09:27:23Z</time>
      </trkpt>
      <trkpt lat="46.73918" lon="-1.08542">
        <ele>115</ele>
        <time>2021-12-19T09:27:25Z</time>
      </trkpt>
      <trkpt lat="46.73923" lon="-1.08547">
        <ele>116</ele>
        <time>2021-12-19T09:27:26Z</time>
      </trkpt>
      <trkpt lat="46.73927" lon="-1.08552">
        <ele>116</ele>
        <time>2021-12-19T09:27:27Z</time>
      </trkpt>
      <trkpt lat="46.73937" lon="-1.08563">
        <ele>115</ele>
        <time>2021-12-19T09:27:29Z</time>
      </trkpt>
      <trkpt lat="46.73941" lon="-1.08567">
        <ele>115</ele>
        <time>2021-12-19T09:27:30Z</time>
      </trkpt>
      <trkpt lat="46.73951" lon="-1.08577">
        <ele>115</ele>
        <time>2021-12-19T09:27:32Z</time>
      </trkpt>
      <trkpt lat="46.73955" lon="-1.08583">
        <ele>115</ele>
        <time>2021-12-19T09:27:33Z</time>
      </trkpt>
      <trkpt lat="46.73965" lon="-1.08594">
        <ele>115</ele>
        <time>2021-12-19T09:27:35Z</time>
      </trkpt>
      <trkpt lat="46.73969" lon="-1.08599">
        <ele>115</ele>
        <time>2021-12-19T09:27:36Z</time>
      </trkpt>
      <trkpt lat="46.73974" lon="-1.08603">
        <ele>116</ele>
        <time>2021-12-19T09:27:37Z</time>
      </trkpt>
      <trkpt lat="46.73985" lon="-1.08609">
        <ele>116</ele>
        <time>2021-12-19T09:27:39Z</time>
      </trkpt>
      <trkpt lat="46.7399" lon="-1.08612">
        <ele>117</ele>
        <time>2021-12-19T09:27:40Z</time>
      </trkpt>
      <trkpt lat="46.74" lon="-1.08618">
        <ele>118</ele>
        <time>2021-12-19T09:27:42Z</time>
      </trkpt>
      <trkpt lat="46.7401" lon="-1.08618">
        <ele>118</ele>
        <time>2021-12-19T09:27:44Z</time>
      </trkpt>
      <trkpt lat="46.74019" lon="-1.08605">
        <ele>117</ele>
        <time>2021-12-19T09:27:46Z</time>
      </trkpt>
      <trkpt lat="46.74022" lon="-1.08597">
        <ele>117</ele>
        <time>2021-12-19T09:27:47Z</time>
      </trkpt>
      <trkpt lat="46.74025" lon="-1.0859">
        <ele>117</ele>
        <time>2021-12-19T09:27:48Z</time>
      </trkpt>
      <trkpt lat="46.74032" lon="-1.08576">
        <ele>117</ele>
        <time>2021-12-19T09:27:50Z</time>
      </trkpt>
      <trkpt lat="46.7404" lon="-1.08563">
        <ele>117</ele>
        <time>2021-12-19T09:27:52Z</time>
      </trkpt>
      <trkpt lat="46.74043" lon="-1.08557">
        <ele>116</ele>
        <time>2021-12-19T09:27:53Z</time>
      </trkpt>
      <trkpt lat="46.7405" lon="-1.08545">
        <ele>117</ele>
        <time>2021-12-19T09:27:55Z</time>
      </trkpt>
      <trkpt lat="46.74054" lon="-1.08539">
        <ele>117</ele>
        <time>2021-12-19T09:27:56Z</time>
      </trkpt>
      <trkpt lat="46.74057" lon="-1.08533">
        <ele>116</ele>
        <time>2021-12-19T09:27:57Z</time>
      </trkpt>
      <trkpt lat="46.74059" lon="-1.08527">
        <ele>116</ele>
        <time>2021-12-19T09:27:58Z</time>
      </trkpt>
      <trkpt lat="46.74062" lon="-1.08521">
        <ele>116</ele>
        <time>2021-12-19T09:27:59Z</time>
      </trkpt>
      <trkpt lat="46.74068" lon="-1.08509">
        <ele>116</ele>
        <time>2021-12-19T09:28:01Z</time>
      </trkpt>
      <trkpt lat="46.74071" lon="-1.08503">
        <ele>115</ele>
        <time>2021-12-19T09:28:02Z</time>
      </trkpt>
      <trkpt lat="46.74077" lon="-1.08493">
        <ele>115</ele>
        <time>2021-12-19T09:28:04Z</time>
      </trkpt>
      <trkpt lat="46.74084" lon="-1.08481">
        <ele>114</ele>
        <time>2021-12-19T09:28:06Z</time>
      </trkpt>
      <trkpt lat="46.74086" lon="-1.08475">
        <ele>114</ele>
        <time>2021-12-19T09:28:07Z</time>
      </trkpt>
      <trkpt lat="46.74089" lon="-1.08459">
        <ele>113</ele>
        <time>2021-12-19T09:28:09Z</time>
      </trkpt>
      <trkpt lat="46.7409" lon="-1.08442">
        <ele>112</ele>
        <time>2021-12-19T09:28:11Z</time>
      </trkpt>
      <trkpt lat="46.74091" lon="-1.08434">
        <ele>111</ele>
        <time>2021-12-19T09:28:12Z</time>
      </trkpt>
      <trkpt lat="46.74092" lon="-1.08425">
        <ele>111</ele>
        <time>2021-12-19T09:28:13Z</time>
      </trkpt>
      <trkpt lat="46.74094" lon="-1.08409">
        <ele>111</ele>
        <time>2021-12-19T09:28:15Z</time>
      </trkpt>
      <trkpt lat="46.74094" lon="-1.084">
        <ele>111</ele>
        <time>2021-12-19T09:28:16Z</time>
      </trkpt>
      <trkpt lat="46.74097" lon="-1.08384">
        <ele>110</ele>
        <time>2021-12-19T09:28:18Z</time>
      </trkpt>
      <trkpt lat="46.74099" lon="-1.08376">
        <ele>110</ele>
        <time>2021-12-19T09:28:19Z</time>
      </trkpt>
      <trkpt lat="46.74104" lon="-1.08359">
        <ele>110</ele>
        <time>2021-12-19T09:28:21Z</time>
      </trkpt>
      <trkpt lat="46.74106" lon="-1.08351">
        <ele>109</ele>
        <time>2021-12-19T09:28:22Z</time>
      </trkpt>
      <trkpt lat="46.74111" lon="-1.08335">
        <ele>109</ele>
        <time>2021-12-19T09:28:24Z</time>
      </trkpt>
      <trkpt lat="46.74117" lon="-1.08319">
        <ele>109</ele>
        <time>2021-12-19T09:28:26Z</time>
      </trkpt>
      <trkpt lat="46.74125" lon="-1.08305">
        <ele>110</ele>
        <time>2021-12-19T09:28:28Z</time>
      </trkpt>
      <trkpt lat="46.74135" lon="-1.08292">
        <ele>111</ele>
        <time>2021-12-19T09:28:30Z</time>
      </trkpt>
      <trkpt lat="46.74145" lon="-1.08281">
        <ele>110</ele>
        <time>2021-12-19T09:28:32Z</time>
      </trkpt>
      <trkpt lat="46.74154" lon="-1.08271">
        <ele>111</ele>
        <time>2021-12-19T09:28:34Z</time>
      </trkpt>
      <trkpt lat="46.74163" lon="-1.08261">
        <ele>111</ele>
        <time>2021-12-19T09:28:36Z</time>
      </trkpt>
      <trkpt lat="46.74173" lon="-1.08251">
        <ele>110</ele>
        <time>2021-12-19T09:28:38Z</time>
      </trkpt>
      <trkpt lat="46.74177" lon="-1.08246">
        <ele>111</ele>
        <time>2021-12-19T09:28:39Z</time>
      </trkpt>
      <trkpt lat="46.74186" lon="-1.08235">
        <ele>111</ele>
        <time>2021-12-19T09:28:41Z</time>
      </trkpt>
      <trkpt lat="46.74191" lon="-1.0823">
        <ele>111</ele>
        <time>2021-12-19T09:28:42Z</time>
      </trkpt>
      <trkpt lat="46.742" lon="-1.08218">
        <ele>110</ele>
        <time>2021-12-19T09:28:44Z</time>
      </trkpt>
      <trkpt lat="46.74204" lon="-1.08213">
        <ele>110</ele>
        <time>2021-12-19T09:28:45Z</time>
      </trkpt>
      <trkpt lat="46.74212" lon="-1.08201">
        <ele>110</ele>
        <time>2021-12-19T09:28:47Z</time>
      </trkpt>
      <trkpt lat="46.7422" lon="-1.0819">
        <ele>110</ele>
        <time>2021-12-19T09:28:49Z</time>
      </trkpt>
      <trkpt lat="46.74225" lon="-1.08184">
        <ele>110</ele>
        <time>2021-12-19T09:28:50Z</time>
      </trkpt>
      <trkpt lat="46.74234" lon="-1.08173">
        <ele>109</ele>
        <time>2021-12-19T09:28:52Z</time>
      </trkpt>
      <trkpt lat="46.74239" lon="-1.08169">
        <ele>109</ele>
        <time>2021-12-19T09:28:53Z</time>
      </trkpt>
      <trkpt lat="46.74251" lon="-1.0816">
        <ele>108</ele>
        <time>2021-12-19T09:28:55Z</time>
      </trkpt>
      <trkpt lat="46.74264" lon="-1.08153">
        <ele>108</ele>
        <time>2021-12-19T09:28:57Z</time>
      </trkpt>
      <trkpt lat="46.7427" lon="-1.08149">
        <ele>108</ele>
        <time>2021-12-19T09:28:58Z</time>
      </trkpt>
      <trkpt lat="46.74276" lon="-1.08146">
        <ele>108</ele>
        <time>2021-12-19T09:28:59Z</time>
      </trkpt>
      <trkpt lat="46.74288" lon="-1.0814">
        <ele>107</ele>
        <time>2021-12-19T09:29:01Z</time>
      </trkpt>
      <trkpt lat="46.74294" lon="-1.08138">
        <ele>107</ele>
        <time>2021-12-19T09:29:02Z</time>
      </trkpt>
      <trkpt lat="46.74305" lon="-1.08133">
        <ele>107</ele>
        <time>2021-12-19T09:29:04Z</time>
      </trkpt>
      <trkpt lat="46.74311" lon="-1.0813">
        <ele>106</ele>
        <time>2021-12-19T09:29:05Z</time>
      </trkpt>
      <trkpt lat="46.74324" lon="-1.08122">
        <ele>105</ele>
        <time>2021-12-19T09:29:07Z</time>
      </trkpt>
      <trkpt lat="46.74337" lon="-1.08115">
        <ele>105</ele>
        <time>2021-12-19T09:29:09Z</time>
      </trkpt>
      <trkpt lat="46.74351" lon="-1.08108">
        <ele>104</ele>
        <time>2021-12-19T09:29:11Z</time>
      </trkpt>
      <trkpt lat="46.74358" lon="-1.08105">
        <ele>104</ele>
        <time>2021-12-19T09:29:12Z</time>
      </trkpt>
      <trkpt lat="46.74365" lon="-1.08102">
        <ele>104</ele>
        <time>2021-12-19T09:29:13Z</time>
      </trkpt>
      <trkpt lat="46.74379" lon="-1.08095">
        <ele>103</ele>
        <time>2021-12-19T09:29:15Z</time>
      </trkpt>
      <trkpt lat="46.74386" lon="-1.08092">
        <ele>103</ele>
        <time>2021-12-19T09:29:16Z</time>
      </trkpt>
      <trkpt lat="46.74393" lon="-1.08088">
        <ele>103</ele>
        <time>2021-12-19T09:29:17Z</time>
      </trkpt>
      <trkpt lat="46.74399" lon="-1.08084">
        <ele>103</ele>
        <time>2021-12-19T09:29:18Z</time>
      </trkpt>
      <trkpt lat="46.74413" lon="-1.08077">
        <ele>102</ele>
        <time>2021-12-19T09:29:20Z</time>
      </trkpt>
      <trkpt lat="46.7442" lon="-1.08074">
        <ele>102</ele>
        <time>2021-12-19T09:29:21Z</time>
      </trkpt>
      <trkpt lat="46.74427" lon="-1.0807">
        <ele>102</ele>
        <time>2021-12-19T09:29:22Z</time>
      </trkpt>
      <trkpt lat="46.7444" lon="-1.08062">
        <ele>102</ele>
        <time>2021-12-19T09:29:24Z</time>
      </trkpt>
      <trkpt lat="46.74448" lon="-1.08058">
        <ele>102</ele>
        <time>2021-12-19T09:29:25Z</time>
      </trkpt>
      <trkpt lat="46.74462" lon="-1.08051">
        <ele>102</ele>
        <time>2021-12-19T09:29:27Z</time>
      </trkpt>
      <trkpt lat="46.74477" lon="-1.08044">
        <ele>102</ele>
        <time>2021-12-19T09:29:29Z</time>
      </trkpt>
      <trkpt lat="46.74484" lon="-1.0804">
        <ele>101</ele>
        <time>2021-12-19T09:29:30Z</time>
      </trkpt>
      <trkpt lat="46.74491" lon="-1.08037">
        <ele>101</ele>
        <time>2021-12-19T09:29:31Z</time>
      </trkpt>
      <trkpt lat="46.74506" lon="-1.08031">
        <ele>101</ele>
        <time>2021-12-19T09:29:33Z</time>
      </trkpt>
      <trkpt lat="46.74513" lon="-1.08028">
        <ele>101</ele>
        <time>2021-12-19T09:29:34Z</time>
      </trkpt>
      <trkpt lat="46.74528" lon="-1.08022">
        <ele>101</ele>
        <time>2021-12-19T09:29:36Z</time>
      </trkpt>
      <trkpt lat="46.74535" lon="-1.08019">
        <ele>101</ele>
        <time>2021-12-19T09:29:37Z</time>
      </trkpt>
      <trkpt lat="46.74549" lon="-1.08013">
        <ele>101</ele>
        <time>2021-12-19T09:29:39Z</time>
      </trkpt>
      <trkpt lat="46.74556" lon="-1.08011">
        <ele>101</ele>
        <time>2021-12-19T09:29:40Z</time>
      </trkpt>
      <trkpt lat="46.7457" lon="-1.08007">
        <ele>101</ele>
        <time>2021-12-19T09:29:42Z</time>
      </trkpt>
      <trkpt lat="46.74583" lon="-1.08002">
        <ele>101</ele>
        <time>2021-12-19T09:29:44Z</time>
      </trkpt>
      <trkpt lat="46.7459" lon="-1.08">
        <ele>101</ele>
        <time>2021-12-19T09:29:45Z</time>
      </trkpt>
      <trkpt lat="46.74604" lon="-1.07994">
        <ele>101</ele>
        <time>2021-12-19T09:29:47Z</time>
      </trkpt>
      <trkpt lat="46.74616" lon="-1.07987">
        <ele>101</ele>
        <time>2021-12-19T09:29:49Z</time>
      </trkpt>
      <trkpt lat="46.74622" lon="-1.07983">
        <ele>101</ele>
        <time>2021-12-19T09:29:50Z</time>
      </trkpt>
      <trkpt lat="46.74628" lon="-1.07978">
        <ele>102</ele>
        <time>2021-12-19T09:29:51Z</time>
      </trkpt>
      <trkpt lat="46.74633" lon="-1.07973">
        <ele>102</ele>
        <time>2021-12-19T09:29:52Z</time>
      </trkpt>
      <trkpt lat="46.74639" lon="-1.07968">
        <ele>102</ele>
        <time>2021-12-19T09:29:53Z</time>
      </trkpt>
      <trkpt lat="46.74651" lon="-1.07963">
        <ele>102</ele>
        <time>2021-12-19T09:29:55Z</time>
      </trkpt>
      <trkpt lat="46.74656" lon="-1.07965">
        <ele>103</ele>
        <time>2021-12-19T09:29:56Z</time>
      </trkpt>
      <trkpt lat="46.74666" lon="-1.07976">
        <ele>103</ele>
        <time>2021-12-19T09:29:58Z</time>
      </trkpt>
      <trkpt lat="46.74675" lon="-1.0799">
        <ele>103</ele>
        <time>2021-12-19T09:30:00Z</time>
      </trkpt>
      <trkpt lat="46.74687" lon="-1.07999">
        <ele>103</ele>
        <time>2021-12-19T09:30:02Z</time>
      </trkpt>
      <trkpt lat="46.747" lon="-1.08004">
        <ele>103</ele>
        <time>2021-12-19T09:30:04Z</time>
      </trkpt>
      <trkpt lat="46.74713" lon="-1.08008">
        <ele>103</ele>
        <time>2021-12-19T09:30:06Z</time>
      </trkpt>
      <trkpt lat="46.74724" lon="-1.08012">
        <ele>103</ele>
        <time>2021-12-19T09:30:08Z</time>
      </trkpt>
      <trkpt lat="46.74735" lon="-1.08016">
        <ele>104</ele>
        <time>2021-12-19T09:30:10Z</time>
      </trkpt>
      <trkpt lat="46.74746" lon="-1.08019">
        <ele>104</ele>
        <time>2021-12-19T09:30:12Z</time>
      </trkpt>
      <trkpt lat="46.74757" lon="-1.08022">
        <ele>105</ele>
        <time>2021-12-19T09:30:14Z</time>
      </trkpt>
      <trkpt lat="46.74769" lon="-1.08024">
        <ele>105</ele>
        <time>2021-12-19T09:30:16Z</time>
      </trkpt>
      <trkpt lat="46.7478" lon="-1.08025">
        <ele>106</ele>
        <time>2021-12-19T09:30:18Z</time>
      </trkpt>
      <trkpt lat="46.74791" lon="-1.08026">
        <ele>106</ele>
        <time>2021-12-19T09:30:20Z</time>
      </trkpt>
      <trkpt lat="46.74797" lon="-1.08026">
        <ele>106</ele>
        <time>2021-12-19T09:30:21Z</time>
      </trkpt>
      <trkpt lat="46.74803" lon="-1.08025">
        <ele>107</ele>
        <time>2021-12-19T09:30:22Z</time>
      </trkpt>
      <trkpt lat="46.74809" lon="-1.08025">
        <ele>107</ele>
        <time>2021-12-19T09:30:23Z</time>
      </trkpt>
      <trkpt lat="46.7482" lon="-1.08023">
        <ele>107</ele>
        <time>2021-12-19T09:30:25Z</time>
      </trkpt>
      <trkpt lat="46.74831" lon="-1.08021">
        <ele>107</ele>
        <time>2021-12-19T09:30:27Z</time>
      </trkpt>
      <trkpt lat="46.74837" lon="-1.0802">
        <ele>107</ele>
        <time>2021-12-19T09:30:28Z</time>
      </trkpt>
      <trkpt lat="46.74843" lon="-1.08019">
        <ele>107</ele>
        <time>2021-12-19T09:30:29Z</time>
      </trkpt>
      <trkpt lat="46.74856" lon="-1.08016">
        <ele>106</ele>
        <time>2021-12-19T09:30:31Z</time>
      </trkpt>
      <trkpt lat="46.74863" lon="-1.08015">
        <ele>106</ele>
        <time>2021-12-19T09:30:32Z</time>
      </trkpt>
      <trkpt lat="46.74877" lon="-1.08013">
        <ele>105</ele>
        <time>2021-12-19T09:30:34Z</time>
      </trkpt>
      <trkpt lat="46.74892" lon="-1.08013">
        <ele>104</ele>
        <time>2021-12-19T09:30:36Z</time>
      </trkpt>
      <trkpt lat="46.74908" lon="-1.08014">
        <ele>103</ele>
        <time>2021-12-19T09:30:38Z</time>
      </trkpt>
      <trkpt lat="46.74927" lon="-1.08016">
        <ele>102</ele>
        <time>2021-12-19T09:30:40Z</time>
      </trkpt>
      <trkpt lat="46.74947" lon="-1.08018">
        <ele>101</ele>
        <time>2021-12-19T09:30:42Z</time>
      </trkpt>
      <trkpt lat="46.74957" lon="-1.08019">
        <ele>100</ele>
        <time>2021-12-19T09:30:43Z</time>
      </trkpt>
      <trkpt lat="46.74977" lon="-1.0802">
        <ele>99</ele>
        <time>2021-12-19T09:30:45Z</time>
      </trkpt>
      <trkpt lat="46.74987" lon="-1.08018">
        <ele>99</ele>
        <time>2021-12-19T09:30:46Z</time>
      </trkpt>
      <trkpt lat="46.75006" lon="-1.0801">
        <ele>99</ele>
        <time>2021-12-19T09:30:48Z</time>
      </trkpt>
      <trkpt lat="46.75021" lon="-1.07995">
        <ele>99</ele>
        <time>2021-12-19T09:30:50Z</time>
      </trkpt>
      <trkpt lat="46.75033" lon="-1.07979">
        <ele>100</ele>
        <time>2021-12-19T09:30:52Z</time>
      </trkpt>
      <trkpt lat="46.7504" lon="-1.07972">
        <ele>100</ele>
        <time>2021-12-19T09:30:53Z</time>
      </trkpt>
      <trkpt lat="46.75047" lon="-1.07966">
        <ele>100</ele>
        <time>2021-12-19T09:30:54Z</time>
      </trkpt>
      <trkpt lat="46.7506" lon="-1.07956">
        <ele>101</ele>
        <time>2021-12-19T09:30:56Z</time>
      </trkpt>
      <trkpt lat="46.75066" lon="-1.07952">
        <ele>101</ele>
        <time>2021-12-19T09:30:57Z</time>
      </trkpt>
      <trkpt lat="46.75078" lon="-1.07943">
        <ele>102</ele>
        <time>2021-12-19T09:30:59Z</time>
      </trkpt>
      <trkpt lat="46.75089" lon="-1.07937">
        <ele>102</ele>
        <time>2021-12-19T09:31:01Z</time>
      </trkpt>
      <trkpt lat="46.75095" lon="-1.07934">
        <ele>102</ele>
        <time>2021-12-19T09:31:02Z</time>
      </trkpt>
      <trkpt lat="46.75104" lon="-1.07928">
        <ele>103</ele>
        <time>2021-12-19T09:31:04Z</time>
      </trkpt>
      <trkpt lat="46.75114" lon="-1.07921">
        <ele>104</ele>
        <time>2021-12-19T09:31:06Z</time>
      </trkpt>
      <trkpt lat="46.7512" lon="-1.07917">
        <ele>104</ele>
        <time>2021-12-19T09:31:07Z</time>
      </trkpt>
      <trkpt lat="46.75124" lon="-1.07914">
        <ele>104</ele>
        <time>2021-12-19T09:31:08Z</time>
      </trkpt>
      <trkpt lat="46.75133" lon="-1.07908">
        <ele>105</ele>
        <time>2021-12-19T09:31:10Z</time>
      </trkpt>
      <trkpt lat="46.75142" lon="-1.07901">
        <ele>105</ele>
        <time>2021-12-19T09:31:12Z</time>
      </trkpt>
      <trkpt lat="46.75147" lon="-1.07897">
        <ele>105</ele>
        <time>2021-12-19T09:31:13Z</time>
      </trkpt>
      <trkpt lat="46.75156" lon="-1.07889">
        <ele>105</ele>
        <time>2021-12-19T09:31:15Z</time>
      </trkpt>
      <trkpt lat="46.75161" lon="-1.07885">
        <ele>105</ele>
        <time>2021-12-19T09:31:16Z</time>
      </trkpt>
      <trkpt lat="46.75171" lon="-1.07878">
        <ele>105</ele>
        <time>2021-12-19T09:31:18Z</time>
      </trkpt>
      <trkpt lat="46.75182" lon="-1.0787">
        <ele>106</ele>
        <time>2021-12-19T09:31:20Z</time>
      </trkpt>
      <trkpt lat="46.75192" lon="-1.07862">
        <ele>106</ele>
        <time>2021-12-19T09:31:22Z</time>
      </trkpt>
      <trkpt lat="46.75197" lon="-1.07858">
        <ele>106</ele>
        <time>2021-12-19T09:31:23Z</time>
      </trkpt>
      <trkpt lat="46.75202" lon="-1.07854">
        <ele>107</ele>
        <time>2021-12-19T09:31:24Z</time>
      </trkpt>
      <trkpt lat="46.75211" lon="-1.07847">
        <ele>107</ele>
        <time>2021-12-19T09:31:26Z</time>
      </trkpt>
      <trkpt lat="46.75221" lon="-1.07839">
        <ele>108</ele>
        <time>2021-12-19T09:31:28Z</time>
      </trkpt>
      <trkpt lat="46.7523" lon="-1.07833">
        <ele>109</ele>
        <time>2021-12-19T09:31:30Z</time>
      </trkpt>
      <trkpt lat="46.75235" lon="-1.0783">
        <ele>109</ele>
        <time>2021-12-19T09:31:31Z</time>
      </trkpt>
      <trkpt lat="46.7524" lon="-1.07827">
        <ele>109</ele>
        <time>2021-12-19T09:31:32Z</time>
      </trkpt>
      <trkpt lat="46.75251" lon="-1.07824">
        <ele>109</ele>
        <time>2021-12-19T09:31:34Z</time>
      </trkpt>
      <trkpt lat="46.75263" lon="-1.07821">
        <ele>109</ele>
        <time>2021-12-19T09:31:36Z</time>
      </trkpt>
      <trkpt lat="46.75269" lon="-1.0782">
        <ele>108</ele>
        <time>2021-12-19T09:31:37Z</time>
      </trkpt>
      <trkpt lat="46.75283" lon="-1.07816">
        <ele>108</ele>
        <time>2021-12-19T09:31:39Z</time>
      </trkpt>
      <trkpt lat="46.75298" lon="-1.0781">
        <ele>106</ele>
        <time>2021-12-19T09:31:41Z</time>
      </trkpt>
      <trkpt lat="46.75314" lon="-1.07799">
        <ele>106</ele>
        <time>2021-12-19T09:31:43Z</time>
      </trkpt>
      <trkpt lat="46.75322" lon="-1.07792">
        <ele>106</ele>
        <time>2021-12-19T09:31:44Z</time>
      </trkpt>
      <trkpt lat="46.75337" lon="-1.07776">
        <ele>104</ele>
        <time>2021-12-19T09:31:46Z</time>
      </trkpt>
      <trkpt lat="46.75344" lon="-1.07767">
        <ele>104</ele>
        <time>2021-12-19T09:31:47Z</time>
      </trkpt>
      <trkpt lat="46.75361" lon="-1.07745">
        <ele>104</ele>
        <time>2021-12-19T09:31:49Z</time>
      </trkpt>
      <trkpt lat="46.75375" lon="-1.07726">
        <ele>103</ele>
        <time>2021-12-19T09:31:51Z</time>
      </trkpt>
      <trkpt lat="46.75388" lon="-1.07709">
        <ele>103</ele>
        <time>2021-12-19T09:31:53Z</time>
      </trkpt>
      <trkpt lat="46.754" lon="-1.07692">
        <ele>102</ele>
        <time>2021-12-19T09:31:55Z</time>
      </trkpt>
      <trkpt lat="46.75405" lon="-1.07683">
        <ele>102</ele>
        <time>2021-12-19T09:31:56Z</time>
      </trkpt>
      <trkpt lat="46.75416" lon="-1.07665">
        <ele>103</ele>
        <time>2021-12-19T09:31:58Z</time>
      </trkpt>
      <trkpt lat="46.75421" lon="-1.07657">
        <ele>103</ele>
        <time>2021-12-19T09:31:59Z</time>
      </trkpt>
      <trkpt lat="46.7543" lon="-1.07641">
        <ele>103</ele>
        <time>2021-12-19T09:32:01Z</time>
      </trkpt>
      <trkpt lat="46.75435" lon="-1.07633">
        <ele>104</ele>
        <time>2021-12-19T09:32:02Z</time>
      </trkpt>
      <trkpt lat="46.75444" lon="-1.07618">
        <ele>103</ele>
        <time>2021-12-19T09:32:04Z</time>
      </trkpt>
      <trkpt lat="46.75448" lon="-1.0761">
        <ele>103</ele>
        <time>2021-12-19T09:32:05Z</time>
      </trkpt>
      <trkpt lat="46.75457" lon="-1.07596">
        <ele>103</ele>
        <time>2021-12-19T09:32:07Z</time>
      </trkpt>
      <trkpt lat="46.75462" lon="-1.07588">
        <ele>104</ele>
        <time>2021-12-19T09:32:08Z</time>
      </trkpt>
      <trkpt lat="46.75466" lon="-1.07581">
        <ele>104</ele>
        <time>2021-12-19T09:32:09Z</time>
      </trkpt>
      <trkpt lat="46.75474" lon="-1.07565">
        <ele>105</ele>
        <time>2021-12-19T09:32:11Z</time>
      </trkpt>
      <trkpt lat="46.75482" lon="-1.07549">
        <ele>105</ele>
        <time>2021-12-19T09:32:13Z</time>
      </trkpt>
      <trkpt lat="46.75485" lon="-1.07541">
        <ele>105</ele>
        <time>2021-12-19T09:32:14Z</time>
      </trkpt>
      <trkpt lat="46.75491" lon="-1.07527">
        <ele>106</ele>
        <time>2021-12-19T09:32:16Z</time>
      </trkpt>
      <trkpt lat="46.75494" lon="-1.0752">
        <ele>106</ele>
        <time>2021-12-19T09:32:17Z</time>
      </trkpt>
      <trkpt lat="46.75497" lon="-1.07513">
        <ele>106</ele>
        <time>2021-12-19T09:32:18Z</time>
      </trkpt>
      <trkpt lat="46.75502" lon="-1.07498">
        <ele>106</ele>
        <time>2021-12-19T09:32:20Z</time>
      </trkpt>
      <trkpt lat="46.75505" lon="-1.07491">
        <ele>107</ele>
        <time>2021-12-19T09:32:21Z</time>
      </trkpt>
      <trkpt lat="46.75508" lon="-1.07484">
        <ele>107</ele>
        <time>2021-12-19T09:32:22Z</time>
      </trkpt>
      <trkpt lat="46.75513" lon="-1.0747">
        <ele>108</ele>
        <time>2021-12-19T09:32:24Z</time>
      </trkpt>
      <trkpt lat="46.75515" lon="-1.07464">
        <ele>108</ele>
        <time>2021-12-19T09:32:25Z</time>
      </trkpt>
      <trkpt lat="46.75517" lon="-1.07457">
        <ele>108</ele>
        <time>2021-12-19T09:32:26Z</time>
      </trkpt>
      <trkpt lat="46.75521" lon="-1.07445">
        <ele>108</ele>
        <time>2021-12-19T09:32:28Z</time>
      </trkpt>
      <trkpt lat="46.75523" lon="-1.07439">
        <ele>109</ele>
        <time>2021-12-19T09:32:29Z</time>
      </trkpt>
      <trkpt lat="46.75526" lon="-1.07434">
        <ele>109</ele>
        <time>2021-12-19T09:32:30Z</time>
      </trkpt>
      <trkpt lat="46.75531" lon="-1.07423">
        <ele>109</ele>
        <time>2021-12-19T09:32:32Z</time>
      </trkpt>
      <trkpt lat="46.75534" lon="-1.07418">
        <ele>110</ele>
        <time>2021-12-19T09:32:33Z</time>
      </trkpt>
      <trkpt lat="46.75539" lon="-1.07407">
        <ele>110</ele>
        <time>2021-12-19T09:32:35Z</time>
      </trkpt>
      <trkpt lat="46.75546" lon="-1.07399">
        <ele>111</ele>
        <time>2021-12-19T09:32:37Z</time>
      </trkpt>
      <trkpt lat="46.75552" lon="-1.07391">
        <ele>111</ele>
        <time>2021-12-19T09:32:39Z</time>
      </trkpt>
      <trkpt lat="46.75559" lon="-1.07384">
        <ele>111</ele>
        <time>2021-12-19T09:32:41Z</time>
      </trkpt>
      <trkpt lat="46.75566" lon="-1.07376">
        <ele>112</ele>
        <time>2021-12-19T09:32:43Z</time>
      </trkpt>
      <trkpt lat="46.7557" lon="-1.07371">
        <ele>112</ele>
        <time>2021-12-19T09:32:44Z</time>
      </trkpt>
      <trkpt lat="46.75576" lon="-1.07363">
        <ele>113</ele>
        <time>2021-12-19T09:32:46Z</time>
      </trkpt>
      <trkpt lat="46.7558" lon="-1.07359">
        <ele>113</ele>
        <time>2021-12-19T09:32:47Z</time>
      </trkpt>
      <trkpt lat="46.75586" lon="-1.0735">
        <ele>114</ele>
        <time>2021-12-19T09:32:49Z</time>
      </trkpt>
      <trkpt lat="46.75589" lon="-1.07346">
        <ele>114</ele>
        <time>2021-12-19T09:32:50Z</time>
      </trkpt>
      <trkpt lat="46.75595" lon="-1.07335">
        <ele>114</ele>
        <time>2021-12-19T09:32:52Z</time>
      </trkpt>
      <trkpt lat="46.75596" lon="-1.07329">
        <ele>115</ele>
        <time>2021-12-19T09:32:53Z</time>
      </trkpt>
      <trkpt lat="46.75597" lon="-1.07316">
        <ele>116</ele>
        <time>2021-12-19T09:32:55Z</time>
      </trkpt>
      <trkpt lat="46.75597" lon="-1.07309">
        <ele>116</ele>
        <time>2021-12-19T09:32:56Z</time>
      </trkpt>
      <trkpt lat="46.75597" lon="-1.07301">
        <ele>115</ele>
        <time>2021-12-19T09:32:57Z</time>
      </trkpt>
      <trkpt lat="46.75596" lon="-1.07287">
        <ele>116</ele>
        <time>2021-12-19T09:32:59Z</time>
      </trkpt>
      <trkpt lat="46.75596" lon="-1.0728">
        <ele>116</ele>
        <time>2021-12-19T09:33:00Z</time>
      </trkpt>
      <trkpt lat="46.75596" lon="-1.07273">
        <ele>116</ele>
        <time>2021-12-19T09:33:01Z</time>
      </trkpt>
      <trkpt lat="46.75595" lon="-1.07259">
        <ele>116</ele>
        <time>2021-12-19T09:33:03Z</time>
      </trkpt>
      <trkpt lat="46.75594" lon="-1.07252">
        <ele>116</ele>
        <time>2021-12-19T09:33:04Z</time>
      </trkpt>
      <trkpt lat="46.75592" lon="-1.07237">
        <ele>116</ele>
        <time>2021-12-19T09:33:06Z</time>
      </trkpt>
      <trkpt lat="46.75592" lon="-1.07231">
        <ele>116</ele>
        <time>2021-12-19T09:33:07Z</time>
      </trkpt>
      <trkpt lat="46.75591" lon="-1.07224">
        <ele>116</ele>
        <time>2021-12-19T09:33:08Z</time>
      </trkpt>
      <trkpt lat="46.7559" lon="-1.07212">
        <ele>117</ele>
        <time>2021-12-19T09:33:10Z</time>
      </trkpt>
      <trkpt lat="46.75589" lon="-1.07206">
        <ele>117</ele>
        <time>2021-12-19T09:33:11Z</time>
      </trkpt>
      <trkpt lat="46.75588" lon="-1.072">
        <ele>117</ele>
        <time>2021-12-19T09:33:12Z</time>
      </trkpt>
      <trkpt lat="46.75587" lon="-1.07195">
        <ele>117</ele>
        <time>2021-12-19T09:33:13Z</time>
      </trkpt>
      <trkpt lat="46.75586" lon="-1.07183">
        <ele>119</ele>
        <time>2021-12-19T09:33:15Z</time>
      </trkpt>
      <trkpt lat="46.75586" lon="-1.07178">
        <ele>119</ele>
        <time>2021-12-19T09:33:16Z</time>
      </trkpt>
      <trkpt lat="46.75589" lon="-1.0717">
        <ele>119</ele>
        <time>2021-12-19T09:33:18Z</time>
      </trkpt>
      <trkpt lat="46.75593" lon="-1.07167">
        <ele>119</ele>
        <time>2021-12-19T09:33:19Z</time>
      </trkpt>
      <trkpt lat="46.75604" lon="-1.07167">
        <ele>119</ele>
        <time>2021-12-19T09:33:21Z</time>
      </trkpt>
      <trkpt lat="46.75616" lon="-1.0717">
        <ele>119</ele>
        <time>2021-12-19T09:33:23Z</time>
      </trkpt>
      <trkpt lat="46.75622" lon="-1.07173">
        <ele>119</ele>
        <time>2021-12-19T09:33:24Z</time>
      </trkpt>
      <trkpt lat="46.75635" lon="-1.07178">
        <ele>118</ele>
        <time>2021-12-19T09:33:26Z</time>
      </trkpt>
      <trkpt lat="46.75643" lon="-1.0718">
        <ele>117</ele>
        <time>2021-12-19T09:33:27Z</time>
      </trkpt>
      <trkpt lat="46.7565" lon="-1.07183">
        <ele>116</ele>
        <time>2021-12-19T09:33:28Z</time>
      </trkpt>
      <trkpt lat="46.75666" lon="-1.07189">
        <ele>116</ele>
        <time>2021-12-19T09:33:30Z</time>
      </trkpt>
      <trkpt lat="46.75674" lon="-1.07193">
        <ele>115</ele>
        <time>2021-12-19T09:33:31Z</time>
      </trkpt>
      <trkpt lat="46.75682" lon="-1.07198">
        <ele>115</ele>
        <time>2021-12-19T09:33:32Z</time>
      </trkpt>
      <trkpt lat="46.757" lon="-1.07203">
        <ele>114</ele>
        <time>2021-12-19T09:33:34Z</time>
      </trkpt>
      <trkpt lat="46.75719" lon="-1.07205">
        <ele>114</ele>
        <time>2021-12-19T09:33:36Z</time>
      </trkpt>
      <trkpt lat="46.75729" lon="-1.07206">
        <ele>113</ele>
        <time>2021-12-19T09:33:37Z</time>
      </trkpt>
      <trkpt lat="46.75738" lon="-1.07207">
        <ele>113</ele>
        <time>2021-12-19T09:33:38Z</time>
      </trkpt>
      <trkpt lat="46.75756" lon="-1.07209">
        <ele>113</ele>
        <time>2021-12-19T09:33:40Z</time>
      </trkpt>
      <trkpt lat="46.75774" lon="-1.07211">
        <ele>113</ele>
        <time>2021-12-19T09:33:42Z</time>
      </trkpt>
      <trkpt lat="46.7579" lon="-1.07214">
        <ele>113</ele>
        <time>2021-12-19T09:33:44Z</time>
      </trkpt>
      <trkpt lat="46.75798" lon="-1.07215">
        <ele>113</ele>
        <time>2021-12-19T09:33:45Z</time>
      </trkpt>
      <trkpt lat="46.75813" lon="-1.07216">
        <ele>113</ele>
        <time>2021-12-19T09:33:47Z</time>
      </trkpt>
      <trkpt lat="46.75821" lon="-1.07217">
        <ele>113</ele>
        <time>2021-12-19T09:33:48Z</time>
      </trkpt>
      <trkpt lat="46.75828" lon="-1.07217">
        <ele>113</ele>
        <time>2021-12-19T09:33:49Z</time>
      </trkpt>
      <trkpt lat="46.75843" lon="-1.07219">
        <ele>113</ele>
        <time>2021-12-19T09:33:51Z</time>
      </trkpt>
      <trkpt lat="46.75858" lon="-1.07221">
        <ele>112</ele>
        <time>2021-12-19T09:33:53Z</time>
      </trkpt>
      <trkpt lat="46.75866" lon="-1.07222">
        <ele>112</ele>
        <time>2021-12-19T09:33:54Z</time>
      </trkpt>
      <trkpt lat="46.75882" lon="-1.07224">
        <ele>112</ele>
        <time>2021-12-19T09:33:56Z</time>
      </trkpt>
      <trkpt lat="46.7589" lon="-1.07224">
        <ele>112</ele>
        <time>2021-12-19T09:33:57Z</time>
      </trkpt>
      <trkpt lat="46.75906" lon="-1.07226">
        <ele>112</ele>
        <time>2021-12-19T09:33:59Z</time>
      </trkpt>
      <trkpt lat="46.75914" lon="-1.07227">
        <ele>112</ele>
        <time>2021-12-19T09:34:00Z</time>
      </trkpt>
      <trkpt lat="46.75922" lon="-1.07228">
        <ele>112</ele>
        <time>2021-12-19T09:34:01Z</time>
      </trkpt>
      <trkpt lat="46.7593" lon="-1.07229">
        <ele>112</ele>
        <time>2021-12-19T09:34:02Z</time>
      </trkpt>
      <trkpt lat="46.75938" lon="-1.07229">
        <ele>111</ele>
        <time>2021-12-19T09:34:03Z</time>
      </trkpt>
      <trkpt lat="46.75953" lon="-1.07231">
        <ele>111</ele>
        <time>2021-12-19T09:34:05Z</time>
      </trkpt>
      <trkpt lat="46.7596" lon="-1.07232">
        <ele>111</ele>
        <time>2021-12-19T09:34:06Z</time>
      </trkpt>
      <trkpt lat="46.75975" lon="-1.07234">
        <ele>111</ele>
        <time>2021-12-19T09:34:08Z</time>
      </trkpt>
      <trkpt lat="46.7599" lon="-1.07236">
        <ele>111</ele>
        <time>2021-12-19T09:34:10Z</time>
      </trkpt>
      <trkpt lat="46.76005" lon="-1.07237">
        <ele>112</ele>
        <time>2021-12-19T09:34:12Z</time>
      </trkpt>
      <trkpt lat="46.76013" lon="-1.07238">
        <ele>112</ele>
        <time>2021-12-19T09:34:13Z</time>
      </trkpt>
      <trkpt lat="46.7602" lon="-1.07239">
        <ele>112</ele>
        <time>2021-12-19T09:34:14Z</time>
      </trkpt>
      <trkpt lat="46.76035" lon="-1.07241">
        <ele>112</ele>
        <time>2021-12-19T09:34:16Z</time>
      </trkpt>
      <trkpt lat="46.7605" lon="-1.07243">
        <ele>112</ele>
        <time>2021-12-19T09:34:18Z</time>
      </trkpt>
      <trkpt lat="46.76057" lon="-1.07244">
        <ele>112</ele>
        <time>2021-12-19T09:34:19Z</time>
      </trkpt>
      <trkpt lat="46.76065" lon="-1.07245">
        <ele>111</ele>
        <time>2021-12-19T09:34:20Z</time>
      </trkpt>
      <trkpt lat="46.7608" lon="-1.07247">
        <ele>111</ele>
        <time>2021-12-19T09:34:22Z</time>
      </trkpt>
      <trkpt lat="46.76088" lon="-1.07247">
        <ele>111</ele>
        <time>2021-12-19T09:34:23Z</time>
      </trkpt>
      <trkpt lat="46.76103" lon="-1.07248">
        <ele>111</ele>
        <time>2021-12-19T09:34:25Z</time>
      </trkpt>
      <trkpt lat="46.76111" lon="-1.07249">
        <ele>111</ele>
        <time>2021-12-19T09:34:26Z</time>
      </trkpt>
      <trkpt lat="46.76126" lon="-1.07251">
        <ele>111</ele>
        <time>2021-12-19T09:34:28Z</time>
      </trkpt>
      <trkpt lat="46.76141" lon="-1.07252">
        <ele>111</ele>
        <time>2021-12-19T09:34:30Z</time>
      </trkpt>
      <trkpt lat="46.76148" lon="-1.07253">
        <ele>111</ele>
        <time>2021-12-19T09:34:31Z</time>
      </trkpt>
      <trkpt lat="46.76164" lon="-1.07255">
        <ele>112</ele>
        <time>2021-12-19T09:34:33Z</time>
      </trkpt>
      <trkpt lat="46.76171" lon="-1.07256">
        <ele>111</ele>
        <time>2021-12-19T09:34:34Z</time>
      </trkpt>
      <trkpt lat="46.76187" lon="-1.07258">
        <ele>111</ele>
        <time>2021-12-19T09:34:36Z</time>
      </trkpt>
      <trkpt lat="46.76194" lon="-1.07259">
        <ele>111</ele>
        <time>2021-12-19T09:34:37Z</time>
      </trkpt>
      <trkpt lat="46.76209" lon="-1.0726">
        <ele>112</ele>
        <time>2021-12-19T09:34:39Z</time>
      </trkpt>
      <trkpt lat="46.76216" lon="-1.07261">
        <ele>112</ele>
        <time>2021-12-19T09:34:40Z</time>
      </trkpt>
      <trkpt lat="46.7623" lon="-1.07262">
        <ele>112</ele>
        <time>2021-12-19T09:34:42Z</time>
      </trkpt>
      <trkpt lat="46.76244" lon="-1.07264">
        <ele>113</ele>
        <time>2021-12-19T09:34:44Z</time>
      </trkpt>
      <trkpt lat="46.76252" lon="-1.07265">
        <ele>113</ele>
        <time>2021-12-19T09:34:45Z</time>
      </trkpt>
      <trkpt lat="46.76266" lon="-1.07267">
        <ele>113</ele>
        <time>2021-12-19T09:34:47Z</time>
      </trkpt>
      <trkpt lat="46.76281" lon="-1.07269">
        <ele>113</ele>
        <time>2021-12-19T09:34:49Z</time>
      </trkpt>
      <trkpt lat="46.76288" lon="-1.0727">
        <ele>113</ele>
        <time>2021-12-19T09:34:50Z</time>
      </trkpt>
      <trkpt lat="46.76295" lon="-1.0727">
        <ele>113</ele>
        <time>2021-12-19T09:34:51Z</time>
      </trkpt>
      <trkpt lat="46.76309" lon="-1.07272">
        <ele>114</ele>
        <time>2021-12-19T09:34:53Z</time>
      </trkpt>
      <trkpt lat="46.76323" lon="-1.07274">
        <ele>114</ele>
        <time>2021-12-19T09:34:55Z</time>
      </trkpt>
      <trkpt lat="46.76337" lon="-1.07275">
        <ele>115</ele>
        <time>2021-12-19T09:34:57Z</time>
      </trkpt>
      <trkpt lat="46.76344" lon="-1.07276">
        <ele>115</ele>
        <time>2021-12-19T09:34:58Z</time>
      </trkpt>
      <trkpt lat="46.7635" lon="-1.07277">
        <ele>115</ele>
        <time>2021-12-19T09:34:59Z</time>
      </trkpt>
      <trkpt lat="46.76357" lon="-1.07277">
        <ele>115</ele>
        <time>2021-12-19T09:35:00Z</time>
      </trkpt>
      <trkpt lat="46.76371" lon="-1.07279">
        <ele>116</ele>
        <time>2021-12-19T09:35:02Z</time>
      </trkpt>
      <trkpt lat="46.76387" lon="-1.0728">
        <ele>116</ele>
        <time>2021-12-19T09:35:04Z</time>
      </trkpt>
      <trkpt lat="46.76394" lon="-1.07281">
        <ele>117</ele>
        <time>2021-12-19T09:35:05Z</time>
      </trkpt>
      <trkpt lat="46.76401" lon="-1.07282">
        <ele>116</ele>
        <time>2021-12-19T09:35:06Z</time>
      </trkpt>
      <trkpt lat="46.76415" lon="-1.07284">
        <ele>116</ele>
        <time>2021-12-19T09:35:08Z</time>
      </trkpt>
      <trkpt lat="46.76429" lon="-1.07286">
        <ele>116</ele>
        <time>2021-12-19T09:35:10Z</time>
      </trkpt>
      <trkpt lat="46.76443" lon="-1.07287">
        <ele>116</ele>
        <time>2021-12-19T09:35:12Z</time>
      </trkpt>
      <trkpt lat="46.7645" lon="-1.07287">
        <ele>116</ele>
        <time>2021-12-19T09:35:13Z</time>
      </trkpt>
      <trkpt lat="46.76464" lon="-1.07288">
        <ele>116</ele>
        <time>2021-12-19T09:35:15Z</time>
      </trkpt>
      <trkpt lat="46.76477" lon="-1.07289">
        <ele>117</ele>
        <time>2021-12-19T09:35:17Z</time>
      </trkpt>
      <trkpt lat="46.76484" lon="-1.07289">
        <ele>117</ele>
        <time>2021-12-19T09:35:18Z</time>
      </trkpt>
      <trkpt lat="46.76491" lon="-1.07289">
        <ele>117</ele>
        <time>2021-12-19T09:35:19Z</time>
      </trkpt>
      <trkpt lat="46.76504" lon="-1.07289">
        <ele>116</ele>
        <time>2021-12-19T09:35:21Z</time>
      </trkpt>
      <trkpt lat="46.76511" lon="-1.0729">
        <ele>117</ele>
        <time>2021-12-19T09:35:22Z</time>
      </trkpt>
      <trkpt lat="46.76525" lon="-1.0729">
        <ele>117</ele>
        <time>2021-12-19T09:35:24Z</time>
      </trkpt>
      <trkpt lat="46.76538" lon="-1.07289">
        <ele>117</ele>
        <time>2021-12-19T09:35:26Z</time>
      </trkpt>
      <trkpt lat="46.76544" lon="-1.07289">
        <ele>117</ele>
        <time>2021-12-19T09:35:27Z</time>
      </trkpt>
      <trkpt lat="46.76551" lon="-1.0729">
        <ele>117</ele>
        <time>2021-12-19T09:35:28Z</time>
      </trkpt>
      <trkpt lat="46.76558" lon="-1.0729">
        <ele>117</ele>
        <time>2021-12-19T09:35:29Z</time>
      </trkpt>
      <trkpt lat="46.76565" lon="-1.0729">
        <ele>116</ele>
        <time>2021-12-19T09:35:30Z</time>
      </trkpt>
      <trkpt lat="46.76572" lon="-1.07291">
        <ele>116</ele>
        <time>2021-12-19T09:35:31Z</time>
      </trkpt>
      <trkpt lat="46.76585" lon="-1.07291">
        <ele>116</ele>
        <time>2021-12-19T09:35:33Z</time>
      </trkpt>
      <trkpt lat="46.76592" lon="-1.0729">
        <ele>116</ele>
        <time>2021-12-19T09:35:34Z</time>
      </trkpt>
      <trkpt lat="46.76599" lon="-1.07289">
        <ele>116</ele>
        <time>2021-12-19T09:35:35Z</time>
      </trkpt>
      <trkpt lat="46.76606" lon="-1.07289">
        <ele>116</ele>
        <time>2021-12-19T09:35:36Z</time>
      </trkpt>
      <trkpt lat="46.7662" lon="-1.07288">
        <ele>117</ele>
        <time>2021-12-19T09:35:38Z</time>
      </trkpt>
      <trkpt lat="46.76627" lon="-1.07288">
        <ele>118</ele>
        <time>2021-12-19T09:35:39Z</time>
      </trkpt>
      <trkpt lat="46.76639" lon="-1.07287">
        <ele>118</ele>
        <time>2021-12-19T09:35:41Z</time>
      </trkpt>
      <trkpt lat="46.76646" lon="-1.07287">
        <ele>118</ele>
        <time>2021-12-19T09:35:42Z</time>
      </trkpt>
      <trkpt lat="46.7666" lon="-1.07286">
        <ele>119</ele>
        <time>2021-12-19T09:35:44Z</time>
      </trkpt>
      <trkpt lat="46.76667" lon="-1.07286">
        <ele>119</ele>
        <time>2021-12-19T09:35:45Z</time>
      </trkpt>
      <trkpt lat="46.76674" lon="-1.07286">
        <ele>119</ele>
        <time>2021-12-19T09:35:46Z</time>
      </trkpt>
      <trkpt lat="46.76688" lon="-1.07285">
        <ele>120</ele>
        <time>2021-12-19T09:35:48Z</time>
      </trkpt>
      <trkpt lat="46.76702" lon="-1.07283">
        <ele>120</ele>
        <time>2021-12-19T09:35:50Z</time>
      </trkpt>
      <trkpt lat="46.76715" lon="-1.07282">
        <ele>120</ele>
        <time>2021-12-19T09:35:52Z</time>
      </trkpt>
      <trkpt lat="46.76722" lon="-1.07281">
        <ele>120</ele>
        <time>2021-12-19T09:35:53Z</time>
      </trkpt>
      <trkpt lat="46.76728" lon="-1.07281">
        <ele>120</ele>
        <time>2021-12-19T09:35:54Z</time>
      </trkpt>
      <trkpt lat="46.76741" lon="-1.0728">
        <ele>120</ele>
        <time>2021-12-19T09:35:56Z</time>
      </trkpt>
      <trkpt lat="46.76747" lon="-1.0728">
        <ele>121</ele>
        <time>2021-12-19T09:35:57Z</time>
      </trkpt>
      <trkpt lat="46.76761" lon="-1.0728">
        <ele>120</ele>
        <time>2021-12-19T09:35:59Z</time>
      </trkpt>
      <trkpt lat="46.76768" lon="-1.07279">
        <ele>120</ele>
        <time>2021-12-19T09:36:00Z</time>
      </trkpt>
      <trkpt lat="46.76781" lon="-1.07278">
        <ele>120</ele>
        <time>2021-12-19T09:36:02Z</time>
      </trkpt>
      <trkpt lat="46.76794" lon="-1.07277">
        <ele>120</ele>
        <time>2021-12-19T09:36:04Z</time>
      </trkpt>
      <trkpt lat="46.76801" lon="-1.07277">
        <ele>120</ele>
        <time>2021-12-19T09:36:05Z</time>
      </trkpt>
      <trkpt lat="46.76814" lon="-1.07276">
        <ele>120</ele>
        <time>2021-12-19T09:36:07Z</time>
      </trkpt>
      <trkpt lat="46.76821" lon="-1.07276">
        <ele>120</ele>
        <time>2021-12-19T09:36:08Z</time>
      </trkpt>
      <trkpt lat="46.76835" lon="-1.07275">
        <ele>120</ele>
        <time>2021-12-19T09:36:10Z</time>
      </trkpt>
      <trkpt lat="46.76848" lon="-1.07274">
        <ele>120</ele>
        <time>2021-12-19T09:36:12Z</time>
      </trkpt>
      <trkpt lat="46.76861" lon="-1.07273">
        <ele>120</ele>
        <time>2021-12-19T09:36:14Z</time>
      </trkpt>
      <trkpt lat="46.76868" lon="-1.07272">
        <ele>120</ele>
        <time>2021-12-19T09:36:15Z</time>
      </trkpt>
      <trkpt lat="46.76874" lon="-1.07271">
        <ele>121</ele>
        <time>2021-12-19T09:36:16Z</time>
      </trkpt>
      <trkpt lat="46.76887" lon="-1.07271">
        <ele>122</ele>
        <time>2021-12-19T09:36:18Z</time>
      </trkpt>
      <trkpt lat="46.76901" lon="-1.0727">
        <ele>122</ele>
        <time>2021-12-19T09:36:20Z</time>
      </trkpt>
      <trkpt lat="46.76914" lon="-1.0727">
        <ele>122</ele>
        <time>2021-12-19T09:36:22Z</time>
      </trkpt>
      <trkpt lat="46.76928" lon="-1.07269">
        <ele>122</ele>
        <time>2021-12-19T09:36:24Z</time>
      </trkpt>
      <trkpt lat="46.76935" lon="-1.07269">
        <ele>122</ele>
        <time>2021-12-19T09:36:25Z</time>
      </trkpt>
      <trkpt lat="46.76948" lon="-1.07267">
        <ele>122</ele>
        <time>2021-12-19T09:36:27Z</time>
      </trkpt>
      <trkpt lat="46.76962" lon="-1.07267">
        <ele>123</ele>
        <time>2021-12-19T09:36:29Z</time>
      </trkpt>
      <trkpt lat="46.76969" lon="-1.07266">
        <ele>123</ele>
        <time>2021-12-19T09:36:30Z</time>
      </trkpt>
      <trkpt lat="46.76983" lon="-1.07265">
        <ele>123</ele>
        <time>2021-12-19T09:36:32Z</time>
      </trkpt>
      <trkpt lat="46.76997" lon="-1.07264">
        <ele>123</ele>
        <time>2021-12-19T09:36:34Z</time>
      </trkpt>
      <trkpt lat="46.77003" lon="-1.07264">
        <ele>124</ele>
        <time>2021-12-19T09:36:35Z</time>
      </trkpt>
      <trkpt lat="46.7701" lon="-1.07264">
        <ele>124</ele>
        <time>2021-12-19T09:36:36Z</time>
      </trkpt>
      <trkpt lat="46.77025" lon="-1.07263">
        <ele>124</ele>
        <time>2021-12-19T09:36:38Z</time>
      </trkpt>
      <trkpt lat="46.77039" lon="-1.07262">
        <ele>123</ele>
        <time>2021-12-19T09:36:40Z</time>
      </trkpt>
      <trkpt lat="46.77052" lon="-1.07261">
        <ele>123</ele>
        <time>2021-12-19T09:36:42Z</time>
      </trkpt>
      <trkpt lat="46.77059" lon="-1.07261">
        <ele>124</ele>
        <time>2021-12-19T09:36:43Z</time>
      </trkpt>
      <trkpt lat="46.77073" lon="-1.0726">
        <ele>124</ele>
        <time>2021-12-19T09:36:45Z</time>
      </trkpt>
      <trkpt lat="46.7708" lon="-1.07259">
        <ele>124</ele>
        <time>2021-12-19T09:36:46Z</time>
      </trkpt>
      <trkpt lat="46.77087" lon="-1.07259">
        <ele>124</ele>
        <time>2021-12-19T09:36:47Z</time>
      </trkpt>
      <trkpt lat="46.77093" lon="-1.07258">
        <ele>124</ele>
        <time>2021-12-19T09:36:48Z</time>
      </trkpt>
      <trkpt lat="46.77106" lon="-1.07258">
        <ele>124</ele>
        <time>2021-12-19T09:36:50Z</time>
      </trkpt>
      <trkpt lat="46.77119" lon="-1.07257">
        <ele>124</ele>
        <time>2021-12-19T09:36:52Z</time>
      </trkpt>
      <trkpt lat="46.77132" lon="-1.07256">
        <ele>125</ele>
        <time>2021-12-19T09:36:54Z</time>
      </trkpt>
      <trkpt lat="46.77146" lon="-1.07251">
        <ele>124</ele>
        <time>2021-12-19T09:36:56Z</time>
      </trkpt>
      <trkpt lat="46.77153" lon="-1.07248">
        <ele>124</ele>
        <time>2021-12-19T09:36:57Z</time>
      </trkpt>
      <trkpt lat="46.77168" lon="-1.07239">
        <ele>124</ele>
        <time>2021-12-19T09:36:59Z</time>
      </trkpt>
      <trkpt lat="46.77182" lon="-1.07226">
        <ele>123</ele>
        <time>2021-12-19T09:37:01Z</time>
      </trkpt>
      <trkpt lat="46.77189" lon="-1.07218">
        <ele>123</ele>
        <time>2021-12-19T09:37:02Z</time>
      </trkpt>
      <trkpt lat="46.77201" lon="-1.07204">
        <ele>123</ele>
        <time>2021-12-19T09:37:04Z</time>
      </trkpt>
      <trkpt lat="46.77207" lon="-1.07198">
        <ele>123</ele>
        <time>2021-12-19T09:37:05Z</time>
      </trkpt>
      <trkpt lat="46.77212" lon="-1.07193">
        <ele>123</ele>
        <time>2021-12-19T09:37:06Z</time>
      </trkpt>
      <trkpt lat="46.77221" lon="-1.07182">
        <ele>123</ele>
        <time>2021-12-19T09:37:08Z</time>
      </trkpt>
      <trkpt lat="46.77227" lon="-1.07177">
        <ele>124</ele>
        <time>2021-12-19T09:37:09Z</time>
      </trkpt>
      <trkpt lat="46.77231" lon="-1.07172">
        <ele>124</ele>
        <time>2021-12-19T09:37:10Z</time>
      </trkpt>
      <trkpt lat="46.7724" lon="-1.07164">
        <ele>125</ele>
        <time>2021-12-19T09:37:12Z</time>
      </trkpt>
      <trkpt lat="46.77245" lon="-1.07153">
        <ele>125</ele>
        <time>2021-12-19T09:37:14Z</time>
      </trkpt>
      <trkpt lat="46.77249" lon="-1.07139">
        <ele>125</ele>
        <time>2021-12-19T09:37:16Z</time>
      </trkpt>
      <trkpt lat="46.77251" lon="-1.07131">
        <ele>125</ele>
        <time>2021-12-19T09:37:17Z</time>
      </trkpt>
      <trkpt lat="46.77252" lon="-1.07124">
        <ele>125</ele>
        <time>2021-12-19T09:37:18Z</time>
      </trkpt>
      <trkpt lat="46.77254" lon="-1.07118">
        <ele>126</ele>
        <time>2021-12-19T09:37:19Z</time>
      </trkpt>
      <trkpt lat="46.77259" lon="-1.07104">
        <ele>126</ele>
        <time>2021-12-19T09:37:21Z</time>
      </trkpt>
      <trkpt lat="46.77264" lon="-1.07091">
        <ele>127</ele>
        <time>2021-12-19T09:37:23Z</time>
      </trkpt>
      <trkpt lat="46.77269" lon="-1.07078">
        <ele>127</ele>
        <time>2021-12-19T09:37:25Z</time>
      </trkpt>
      <trkpt lat="46.77274" lon="-1.07067">
        <ele>127</ele>
        <time>2021-12-19T09:37:27Z</time>
      </trkpt>
      <trkpt lat="46.77277" lon="-1.07061">
        <ele>127</ele>
        <time>2021-12-19T09:37:28Z</time>
      </trkpt>
      <trkpt lat="46.77283" lon="-1.07049">
        <ele>127</ele>
        <time>2021-12-19T09:37:30Z</time>
      </trkpt>
      <trkpt lat="46.77286" lon="-1.07043">
        <ele>128</ele>
        <time>2021-12-19T09:37:31Z</time>
      </trkpt>
      <trkpt lat="46.77289" lon="-1.07037">
        <ele>128</ele>
        <time>2021-12-19T09:37:32Z</time>
      </trkpt>
      <trkpt lat="46.77297" lon="-1.07025">
        <ele>128</ele>
        <time>2021-12-19T09:37:34Z</time>
      </trkpt>
      <trkpt lat="46.77301" lon="-1.07019">
        <ele>128</ele>
        <time>2021-12-19T09:37:35Z</time>
      </trkpt>
      <trkpt lat="46.77304" lon="-1.07013">
        <ele>128</ele>
        <time>2021-12-19T09:37:36Z</time>
      </trkpt>
      <trkpt lat="46.77312" lon="-1.07">
        <ele>129</ele>
        <time>2021-12-19T09:37:38Z</time>
      </trkpt>
      <trkpt lat="46.77316" lon="-1.06994">
        <ele>129</ele>
        <time>2021-12-19T09:37:39Z</time>
      </trkpt>
      <trkpt lat="46.77325" lon="-1.06981">
        <ele>129</ele>
        <time>2021-12-19T09:37:41Z</time>
      </trkpt>
      <trkpt lat="46.77333" lon="-1.06967">
        <ele>130</ele>
        <time>2021-12-19T09:37:43Z</time>
      </trkpt>
      <trkpt lat="46.77337" lon="-1.06961">
        <ele>130</ele>
        <time>2021-12-19T09:37:44Z</time>
      </trkpt>
      <trkpt lat="46.77346" lon="-1.06948">
        <ele>130</ele>
        <time>2021-12-19T09:37:46Z</time>
      </trkpt>
      <trkpt lat="46.77354" lon="-1.06935">
        <ele>130</ele>
        <time>2021-12-19T09:37:48Z</time>
      </trkpt>
      <trkpt lat="46.77362" lon="-1.06922">
        <ele>130</ele>
        <time>2021-12-19T09:37:50Z</time>
      </trkpt>
      <trkpt lat="46.77371" lon="-1.06909">
        <ele>130</ele>
        <time>2021-12-19T09:37:52Z</time>
      </trkpt>
      <trkpt lat="46.77375" lon="-1.06903">
        <ele>130</ele>
        <time>2021-12-19T09:37:53Z</time>
      </trkpt>
      <trkpt lat="46.77383" lon="-1.0689">
        <ele>131</ele>
        <time>2021-12-19T09:37:55Z</time>
      </trkpt>
      <trkpt lat="46.77392" lon="-1.06876">
        <ele>131</ele>
        <time>2021-12-19T09:37:57Z</time>
      </trkpt>
      <trkpt lat="46.774" lon="-1.06864">
        <ele>131</ele>
        <time>2021-12-19T09:37:59Z</time>
      </trkpt>
      <trkpt lat="46.77404" lon="-1.06857">
        <ele>131</ele>
        <time>2021-12-19T09:38:00Z</time>
      </trkpt>
      <trkpt lat="46.77408" lon="-1.0685">
        <ele>132</ele>
        <time>2021-12-19T09:38:01Z</time>
      </trkpt>
      <trkpt lat="46.77417" lon="-1.06837">
        <ele>132</ele>
        <time>2021-12-19T09:38:03Z</time>
      </trkpt>
      <trkpt lat="46.77422" lon="-1.0683">
        <ele>132</ele>
        <time>2021-12-19T09:38:04Z</time>
      </trkpt>
      <trkpt lat="46.77431" lon="-1.06819">
        <ele>132</ele>
        <time>2021-12-19T09:38:06Z</time>
      </trkpt>
      <trkpt lat="46.77435" lon="-1.06813">
        <ele>131</ele>
        <time>2021-12-19T09:38:07Z</time>
      </trkpt>
      <trkpt lat="46.77445" lon="-1.06801">
        <ele>131</ele>
        <time>2021-12-19T09:38:09Z</time>
      </trkpt>
      <trkpt lat="46.77457" lon="-1.06789">
        <ele>132</ele>
        <time>2021-12-19T09:38:11Z</time>
      </trkpt>
      <trkpt lat="46.77462" lon="-1.06783">
        <ele>132</ele>
        <time>2021-12-19T09:38:12Z</time>
      </trkpt>
      <trkpt lat="46.77467" lon="-1.06776">
        <ele>132</ele>
        <time>2021-12-19T09:38:13Z</time>
      </trkpt>
      <trkpt lat="46.77476" lon="-1.06763">
        <ele>132</ele>
        <time>2021-12-19T09:38:15Z</time>
      </trkpt>
      <trkpt lat="46.77482" lon="-1.06757">
        <ele>132</ele>
        <time>2021-12-19T09:38:16Z</time>
      </trkpt>
      <trkpt lat="46.77492" lon="-1.06745">
        <ele>132</ele>
        <time>2021-12-19T09:38:18Z</time>
      </trkpt>
      <trkpt lat="46.77497" lon="-1.06739">
        <ele>132</ele>
        <time>2021-12-19T09:38:19Z</time>
      </trkpt>
      <trkpt lat="46.77508" lon="-1.06727">
        <ele>132</ele>
        <time>2021-12-19T09:38:21Z</time>
      </trkpt>
      <trkpt lat="46.77513" lon="-1.06721">
        <ele>132</ele>
        <time>2021-12-19T09:38:22Z</time>
      </trkpt>
      <trkpt lat="46.77523" lon="-1.06709">
        <ele>132</ele>
        <time>2021-12-19T09:38:24Z</time>
      </trkpt>
      <trkpt lat="46.77529" lon="-1.06703">
        <ele>133</ele>
        <time>2021-12-19T09:38:25Z</time>
      </trkpt>
      <trkpt lat="46.77534" lon="-1.06697">
        <ele>133</ele>
        <time>2021-12-19T09:38:26Z</time>
      </trkpt>
      <trkpt lat="46.77539" lon="-1.06691">
        <ele>133</ele>
        <time>2021-12-19T09:38:27Z</time>
      </trkpt>
      <trkpt lat="46.77548" lon="-1.06679">
        <ele>134</ele>
        <time>2021-12-19T09:38:29Z</time>
      </trkpt>
      <trkpt lat="46.77553" lon="-1.06674">
        <ele>134</ele>
        <time>2021-12-19T09:38:30Z</time>
      </trkpt>
      <trkpt lat="46.77564" lon="-1.06662">
        <ele>134</ele>
        <time>2021-12-19T09:38:32Z</time>
      </trkpt>
      <trkpt lat="46.77569" lon="-1.06657">
        <ele>134</ele>
        <time>2021-12-19T09:38:33Z</time>
      </trkpt>
      <trkpt lat="46.7758" lon="-1.06645">
        <ele>134</ele>
        <time>2021-12-19T09:38:35Z</time>
      </trkpt>
      <trkpt lat="46.7759" lon="-1.06634">
        <ele>134</ele>
        <time>2021-12-19T09:38:37Z</time>
      </trkpt>
      <trkpt lat="46.776" lon="-1.06623">
        <ele>134</ele>
        <time>2021-12-19T09:38:39Z</time>
      </trkpt>
      <trkpt lat="46.77605" lon="-1.06617">
        <ele>134</ele>
        <time>2021-12-19T09:38:40Z</time>
      </trkpt>
      <trkpt lat="46.77615" lon="-1.06605">
        <ele>135</ele>
        <time>2021-12-19T09:38:42Z</time>
      </trkpt>
      <trkpt lat="46.77625" lon="-1.06594">
        <ele>135</ele>
        <time>2021-12-19T09:38:44Z</time>
      </trkpt>
      <trkpt lat="46.7763" lon="-1.06588">
        <ele>135</ele>
        <time>2021-12-19T09:38:45Z</time>
      </trkpt>
      <trkpt lat="46.77635" lon="-1.06583">
        <ele>135</ele>
        <time>2021-12-19T09:38:46Z</time>
      </trkpt>
      <trkpt lat="46.77643" lon="-1.06572">
        <ele>136</ele>
        <time>2021-12-19T09:38:48Z</time>
      </trkpt>
      <trkpt lat="46.77648" lon="-1.06567">
        <ele>136</ele>
        <time>2021-12-19T09:38:49Z</time>
      </trkpt>
      <trkpt lat="46.77652" lon="-1.06561">
        <ele>136</ele>
        <time>2021-12-19T09:38:50Z</time>
      </trkpt>
      <trkpt lat="46.77662" lon="-1.06551">
        <ele>135</ele>
        <time>2021-12-19T09:38:52Z</time>
      </trkpt>
      <trkpt lat="46.77671" lon="-1.06541">
        <ele>135</ele>
        <time>2021-12-19T09:38:54Z</time>
      </trkpt>
      <trkpt lat="46.77675" lon="-1.06535">
        <ele>136</ele>
        <time>2021-12-19T09:38:55Z</time>
      </trkpt>
      <trkpt lat="46.77684" lon="-1.06525">
        <ele>135</ele>
        <time>2021-12-19T09:38:57Z</time>
      </trkpt>
      <trkpt lat="46.77688" lon="-1.0652">
        <ele>135</ele>
        <time>2021-12-19T09:38:58Z</time>
      </trkpt>
      <trkpt lat="46.77691" lon="-1.06514">
        <ele>135</ele>
        <time>2021-12-19T09:38:59Z</time>
      </trkpt>
      <trkpt lat="46.77698" lon="-1.06501">
        <ele>135</ele>
        <time>2021-12-19T09:39:01Z</time>
      </trkpt>
      <trkpt lat="46.777" lon="-1.06494">
        <ele>135</ele>
        <time>2021-12-19T09:39:02Z</time>
      </trkpt>
      <trkpt lat="46.77705" lon="-1.06479">
        <ele>135</ele>
        <time>2021-12-19T09:39:04Z</time>
      </trkpt>
      <trkpt lat="46.77708" lon="-1.06471">
        <ele>135</ele>
        <time>2021-12-19T09:39:05Z</time>
      </trkpt>
      <trkpt lat="46.77712" lon="-1.06455">
        <ele>134</ele>
        <time>2021-12-19T09:39:07Z</time>
      </trkpt>
      <trkpt lat="46.77722" lon="-1.06446">
        <ele>134</ele>
        <time>2021-12-19T09:39:09Z</time>
      </trkpt>
      <trkpt lat="46.77735" lon="-1.06446">
        <ele>134</ele>
        <time>2021-12-19T09:39:11Z</time>
      </trkpt>
      <trkpt lat="46.77748" lon="-1.06445">
        <ele>134</ele>
        <time>2021-12-19T09:39:13Z</time>
      </trkpt>
      <trkpt lat="46.77754" lon="-1.06442">
        <ele>134</ele>
        <time>2021-12-19T09:39:14Z</time>
      </trkpt>
      <trkpt lat="46.77765" lon="-1.06434">
        <ele>134</ele>
        <time>2021-12-19T09:39:16Z</time>
      </trkpt>
      <trkpt lat="46.7777" lon="-1.06429">
        <ele>134</ele>
        <time>2021-12-19T09:39:17Z</time>
      </trkpt>
      <trkpt lat="46.77775" lon="-1.06423">
        <ele>134</ele>
        <time>2021-12-19T09:39:18Z</time>
      </trkpt>
      <trkpt lat="46.77784" lon="-1.0641">
        <ele>134</ele>
        <time>2021-12-19T09:39:20Z</time>
      </trkpt>
      <trkpt lat="46.77789" lon="-1.06405">
        <ele>134</ele>
        <time>2021-12-19T09:39:21Z</time>
      </trkpt>
      <trkpt lat="46.77794" lon="-1.06399">
        <ele>133</ele>
        <time>2021-12-19T09:39:22Z</time>
      </trkpt>
      <trkpt lat="46.77804" lon="-1.06387">
        <ele>134</ele>
        <time>2021-12-19T09:39:24Z</time>
      </trkpt>
      <trkpt lat="46.77809" lon="-1.06381">
        <ele>134</ele>
        <time>2021-12-19T09:39:25Z</time>
      </trkpt>
      <trkpt lat="46.77818" lon="-1.06368">
        <ele>134</ele>
        <time>2021-12-19T09:39:27Z</time>
      </trkpt>
      <trkpt lat="46.77823" lon="-1.06361">
        <ele>134</ele>
        <time>2021-12-19T09:39:28Z</time>
      </trkpt>
      <trkpt lat="46.77831" lon="-1.06346">
        <ele>134</ele>
        <time>2021-12-19T09:39:30Z</time>
      </trkpt>
      <trkpt lat="46.77838" lon="-1.06331">
        <ele>135</ele>
        <time>2021-12-19T09:39:32Z</time>
      </trkpt>
      <trkpt lat="46.77843" lon="-1.06325">
        <ele>135</ele>
        <time>2021-12-19T09:39:33Z</time>
      </trkpt>
      <trkpt lat="46.77851" lon="-1.0631">
        <ele>135</ele>
        <time>2021-12-19T09:39:35Z</time>
      </trkpt>
      <trkpt lat="46.77855" lon="-1.06303">
        <ele>136</ele>
        <time>2021-12-19T09:39:36Z</time>
      </trkpt>
      <trkpt lat="46.7786" lon="-1.06298">
        <ele>136</ele>
        <time>2021-12-19T09:39:37Z</time>
      </trkpt>
      <trkpt lat="46.77865" lon="-1.06293">
        <ele>136</ele>
        <time>2021-12-19T09:39:38Z</time>
      </trkpt>
      <trkpt lat="46.77877" lon="-1.06286">
        <ele>136</ele>
        <time>2021-12-19T09:39:40Z</time>
      </trkpt>
      <trkpt lat="46.77882" lon="-1.06283">
        <ele>137</ele>
        <time>2021-12-19T09:39:41Z</time>
      </trkpt>
      <trkpt lat="46.77894" lon="-1.06278">
        <ele>137</ele>
        <time>2021-12-19T09:39:43Z</time>
      </trkpt>
      <trkpt lat="46.77905" lon="-1.06277">
        <ele>138</ele>
        <time>2021-12-19T09:39:45Z</time>
      </trkpt>
      <trkpt lat="46.7791" lon="-1.06278">
        <ele>138</ele>
        <time>2021-12-19T09:39:46Z</time>
      </trkpt>
      <trkpt lat="46.77916" lon="-1.06279">
        <ele>139</ele>
        <time>2021-12-19T09:39:47Z</time>
      </trkpt>
      <trkpt lat="46.77926" lon="-1.06282">
        <ele>139</ele>
        <time>2021-12-19T09:39:49Z</time>
      </trkpt>
      <trkpt lat="46.77936" lon="-1.06284">
        <ele>140</ele>
        <time>2021-12-19T09:39:51Z</time>
      </trkpt>
      <trkpt lat="46.77942" lon="-1.06285">
        <ele>140</ele>
        <time>2021-12-19T09:39:52Z</time>
      </trkpt>
      <trkpt lat="46.77952" lon="-1.06285">
        <ele>140</ele>
        <time>2021-12-19T09:39:54Z</time>
      </trkpt>
      <trkpt lat="46.7796" lon="-1.06283">
        <ele>141</ele>
        <time>2021-12-19T09:39:56Z</time>
      </trkpt>
      <trkpt lat="46.77969" lon="-1.06279">
        <ele>142</ele>
        <time>2021-12-19T09:39:58Z</time>
      </trkpt>
      <trkpt lat="46.77978" lon="-1.06275">
        <ele>141</ele>
        <time>2021-12-19T09:40:00Z</time>
      </trkpt>
      <trkpt lat="46.77983" lon="-1.06273">
        <ele>141</ele>
        <time>2021-12-19T09:40:01Z</time>
      </trkpt>
      <trkpt lat="46.77988" lon="-1.0627">
        <ele>141</ele>
        <time>2021-12-19T09:40:02Z</time>
      </trkpt>
      <trkpt lat="46.77999" lon="-1.06265">
        <ele>141</ele>
        <time>2021-12-19T09:40:04Z</time>
      </trkpt>
      <trkpt lat="46.78011" lon="-1.06259">
        <ele>141</ele>
        <time>2021-12-19T09:40:06Z</time>
      </trkpt>
      <trkpt lat="46.78017" lon="-1.06255">
        <ele>141</ele>
        <time>2021-12-19T09:40:07Z</time>
      </trkpt>
      <trkpt lat="46.78029" lon="-1.06246">
        <ele>141</ele>
        <time>2021-12-19T09:40:09Z</time>
      </trkpt>
      <trkpt lat="46.78035" lon="-1.06241">
        <ele>140</ele>
        <time>2021-12-19T09:40:10Z</time>
      </trkpt>
      <trkpt lat="46.78048" lon="-1.06232">
        <ele>140</ele>
        <time>2021-12-19T09:40:12Z</time>
      </trkpt>
      <trkpt lat="46.78054" lon="-1.06228">
        <ele>141</ele>
        <time>2021-12-19T09:40:13Z</time>
      </trkpt>
      <trkpt lat="46.78065" lon="-1.0622">
        <ele>141</ele>
        <time>2021-12-19T09:40:15Z</time>
      </trkpt>
      <trkpt lat="46.78076" lon="-1.06211">
        <ele>141</ele>
        <time>2021-12-19T09:40:17Z</time>
      </trkpt>
      <trkpt lat="46.78082" lon="-1.06207">
        <ele>141</ele>
        <time>2021-12-19T09:40:18Z</time>
      </trkpt>
      <trkpt lat="46.78093" lon="-1.062">
        <ele>141</ele>
        <time>2021-12-19T09:40:20Z</time>
      </trkpt>
      <trkpt lat="46.78099" lon="-1.06198">
        <ele>141</ele>
        <time>2021-12-19T09:40:21Z</time>
      </trkpt>
      <trkpt lat="46.78111" lon="-1.06194">
        <ele>141</ele>
        <time>2021-12-19T09:40:23Z</time>
      </trkpt>
      <trkpt lat="46.78123" lon="-1.06191">
        <ele>140</ele>
        <time>2021-12-19T09:40:25Z</time>
      </trkpt>
      <trkpt lat="46.78129" lon="-1.06188">
        <ele>141</ele>
        <time>2021-12-19T09:40:26Z</time>
      </trkpt>
      <trkpt lat="46.78136" lon="-1.06186">
        <ele>141</ele>
        <time>2021-12-19T09:40:27Z</time>
      </trkpt>
      <trkpt lat="46.78148" lon="-1.06182">
        <ele>142</ele>
        <time>2021-12-19T09:40:29Z</time>
      </trkpt>
      <trkpt lat="46.78154" lon="-1.0618">
        <ele>142</ele>
        <time>2021-12-19T09:40:30Z</time>
      </trkpt>
      <trkpt lat="46.78167" lon="-1.06173">
        <ele>142</ele>
        <time>2021-12-19T09:40:32Z</time>
      </trkpt>
      <trkpt lat="46.78173" lon="-1.06169">
        <ele>141</ele>
        <time>2021-12-19T09:40:33Z</time>
      </trkpt>
      <trkpt lat="46.78185" lon="-1.06158">
        <ele>141</ele>
        <time>2021-12-19T09:40:35Z</time>
      </trkpt>
      <trkpt lat="46.7819" lon="-1.06154">
        <ele>142</ele>
        <time>2021-12-19T09:40:36Z</time>
      </trkpt>
      <trkpt lat="46.78201" lon="-1.06144">
        <ele>142</ele>
        <time>2021-12-19T09:40:38Z</time>
      </trkpt>
      <trkpt lat="46.78206" lon="-1.06139">
        <ele>142</ele>
        <time>2021-12-19T09:40:39Z</time>
      </trkpt>
      <trkpt lat="46.78212" lon="-1.06135">
        <ele>142</ele>
        <time>2021-12-19T09:40:40Z</time>
      </trkpt>
      <trkpt lat="46.78222" lon="-1.06127">
        <ele>142</ele>
        <time>2021-12-19T09:40:42Z</time>
      </trkpt>
      <trkpt lat="46.78227" lon="-1.06122">
        <ele>142</ele>
        <time>2021-12-19T09:40:43Z</time>
      </trkpt>
      <trkpt lat="46.78231" lon="-1.06118">
        <ele>142</ele>
        <time>2021-12-19T09:40:44Z</time>
      </trkpt>
      <trkpt lat="46.78241" lon="-1.0611">
        <ele>142</ele>
        <time>2021-12-19T09:40:46Z</time>
      </trkpt>
      <trkpt lat="46.7825" lon="-1.06102">
        <ele>142</ele>
        <time>2021-12-19T09:40:48Z</time>
      </trkpt>
      <trkpt lat="46.7826" lon="-1.06094">
        <ele>142</ele>
        <time>2021-12-19T09:40:50Z</time>
      </trkpt>
      <trkpt lat="46.78269" lon="-1.06087">
        <ele>143</ele>
        <time>2021-12-19T09:40:52Z</time>
      </trkpt>
      <trkpt lat="46.78273" lon="-1.06083">
        <ele>143</ele>
        <time>2021-12-19T09:40:53Z</time>
      </trkpt>
      <trkpt lat="46.78278" lon="-1.0608">
        <ele>143</ele>
        <time>2021-12-19T09:40:54Z</time>
      </trkpt>
      <trkpt lat="46.78282" lon="-1.06077">
        <ele>144</ele>
        <time>2021-12-19T09:40:55Z</time>
      </trkpt>
      <trkpt lat="46.78287" lon="-1.06073">
        <ele>143</ele>
        <time>2021-12-19T09:40:56Z</time>
      </trkpt>
      <trkpt lat="46.78291" lon="-1.06069">
        <ele>143</ele>
        <time>2021-12-19T09:40:57Z</time>
      </trkpt>
      <trkpt lat="46.783" lon="-1.06062">
        <ele>144</ele>
        <time>2021-12-19T09:40:59Z</time>
      </trkpt>
      <trkpt lat="46.78304" lon="-1.06058">
        <ele>144</ele>
        <time>2021-12-19T09:41:00Z</time>
      </trkpt>
      <trkpt lat="46.78312" lon="-1.06049">
        <ele>144</ele>
        <time>2021-12-19T09:41:02Z</time>
      </trkpt>
      <trkpt lat="46.78317" lon="-1.06045">
        <ele>144</ele>
        <time>2021-12-19T09:41:03Z</time>
      </trkpt>
      <trkpt lat="46.78321" lon="-1.06042">
        <ele>144</ele>
        <time>2021-12-19T09:41:04Z</time>
      </trkpt>
      <trkpt lat="46.78331" lon="-1.06038">
        <ele>144</ele>
        <time>2021-12-19T09:41:06Z</time>
      </trkpt>
      <trkpt lat="46.78337" lon="-1.06038">
        <ele>144</ele>
        <time>2021-12-19T09:41:07Z</time>
      </trkpt>
      <trkpt lat="46.78349" lon="-1.06042">
        <ele>144</ele>
        <time>2021-12-19T09:41:09Z</time>
      </trkpt>
      <trkpt lat="46.78354" lon="-1.06044">
        <ele>145</ele>
        <time>2021-12-19T09:41:10Z</time>
      </trkpt>
      <trkpt lat="46.78365" lon="-1.06048">
        <ele>145</ele>
        <time>2021-12-19T09:41:12Z</time>
      </trkpt>
      <trkpt lat="46.78371" lon="-1.0605">
        <ele>145</ele>
        <time>2021-12-19T09:41:13Z</time>
      </trkpt>
      <trkpt lat="46.78381" lon="-1.06053">
        <ele>146</ele>
        <time>2021-12-19T09:41:15Z</time>
      </trkpt>
      <trkpt lat="46.78392" lon="-1.06057">
        <ele>145</ele>
        <time>2021-12-19T09:41:17Z</time>
      </trkpt>
      <trkpt lat="46.78396" lon="-1.06059">
        <ele>145</ele>
        <time>2021-12-19T09:41:18Z</time>
      </trkpt>
      <trkpt lat="46.78401" lon="-1.06061">
        <ele>145</ele>
        <time>2021-12-19T09:41:19Z</time>
      </trkpt>
      <trkpt lat="46.78406" lon="-1.06063">
        <ele>145</ele>
        <time>2021-12-19T09:41:20Z</time>
      </trkpt>
      <trkpt lat="46.78417" lon="-1.06066">
        <ele>145</ele>
        <time>2021-12-19T09:41:22Z</time>
      </trkpt>
      <trkpt lat="46.78423" lon="-1.06068">
        <ele>145</ele>
        <time>2021-12-19T09:41:23Z</time>
      </trkpt>
      <trkpt lat="46.78428" lon="-1.0607">
        <ele>144</ele>
        <time>2021-12-19T09:41:24Z</time>
      </trkpt>
      <trkpt lat="46.78434" lon="-1.06072">
        <ele>144</ele>
        <time>2021-12-19T09:41:25Z</time>
      </trkpt>
      <trkpt lat="46.78444" lon="-1.06076">
        <ele>145</ele>
        <time>2021-12-19T09:41:27Z</time>
      </trkpt>
      <trkpt lat="46.78455" lon="-1.0608">
        <ele>146</ele>
        <time>2021-12-19T09:41:29Z</time>
      </trkpt>
      <trkpt lat="46.78461" lon="-1.06082">
        <ele>146</ele>
        <time>2021-12-19T09:41:30Z</time>
      </trkpt>
      <trkpt lat="46.78471" lon="-1.06085">
        <ele>147</ele>
        <time>2021-12-19T09:41:32Z</time>
      </trkpt>
      <trkpt lat="46.7848" lon="-1.06087">
        <ele>147</ele>
        <time>2021-12-19T09:41:34Z</time>
      </trkpt>
      <trkpt lat="46.78485" lon="-1.06088">
        <ele>147</ele>
        <time>2021-12-19T09:41:35Z</time>
      </trkpt>
      <trkpt lat="46.78495" lon="-1.06091">
        <ele>148</ele>
        <time>2021-12-19T09:41:37Z</time>
      </trkpt>
      <trkpt lat="46.785" lon="-1.06093">
        <ele>148</ele>
        <time>2021-12-19T09:41:38Z</time>
      </trkpt>
      <trkpt lat="46.78505" lon="-1.06096">
        <ele>148</ele>
        <time>2021-12-19T09:41:39Z</time>
      </trkpt>
      <trkpt lat="46.7851" lon="-1.06098">
        <ele>148</ele>
        <time>2021-12-19T09:41:40Z</time>
      </trkpt>
      <trkpt lat="46.7852" lon="-1.06102">
        <ele>148</ele>
        <time>2021-12-19T09:41:42Z</time>
      </trkpt>
      <trkpt lat="46.78524" lon="-1.06104">
        <ele>148</ele>
        <time>2021-12-19T09:41:43Z</time>
      </trkpt>
      <trkpt lat="46.78533" lon="-1.06107">
        <ele>149</ele>
        <time>2021-12-19T09:41:45Z</time>
      </trkpt>
      <trkpt lat="46.78538" lon="-1.06108">
        <ele>149</ele>
        <time>2021-12-19T09:41:46Z</time>
      </trkpt>
      <trkpt lat="46.78542" lon="-1.0611">
        <ele>149</ele>
        <time>2021-12-19T09:41:47Z</time>
      </trkpt>
      <trkpt lat="46.78551" lon="-1.06113">
        <ele>150</ele>
        <time>2021-12-19T09:41:49Z</time>
      </trkpt>
      <trkpt lat="46.78556" lon="-1.06115">
        <ele>150</ele>
        <time>2021-12-19T09:41:50Z</time>
      </trkpt>
      <trkpt lat="46.78565" lon="-1.06118">
        <ele>150</ele>
        <time>2021-12-19T09:41:52Z</time>
      </trkpt>
      <trkpt lat="46.78575" lon="-1.0612">
        <ele>150</ele>
        <time>2021-12-19T09:41:54Z</time>
      </trkpt>
      <trkpt lat="46.78585" lon="-1.06124">
        <ele>151</ele>
        <time>2021-12-19T09:41:56Z</time>
      </trkpt>
      <trkpt lat="46.78595" lon="-1.06128">
        <ele>152</ele>
        <time>2021-12-19T09:41:58Z</time>
      </trkpt>
      <trkpt lat="46.78604" lon="-1.06131">
        <ele>152</ele>
        <time>2021-12-19T09:42:00Z</time>
      </trkpt>
      <trkpt lat="46.78613" lon="-1.06134">
        <ele>152</ele>
        <time>2021-12-19T09:42:02Z</time>
      </trkpt>
      <trkpt lat="46.78618" lon="-1.06135">
        <ele>153</ele>
        <time>2021-12-19T09:42:03Z</time>
      </trkpt>
      <trkpt lat="46.78623" lon="-1.06137">
        <ele>153</ele>
        <time>2021-12-19T09:42:04Z</time>
      </trkpt>
      <trkpt lat="46.78628" lon="-1.06138">
        <ele>153</ele>
        <time>2021-12-19T09:42:05Z</time>
      </trkpt>
      <trkpt lat="46.78638" lon="-1.06142">
        <ele>153</ele>
        <time>2021-12-19T09:42:07Z</time>
      </trkpt>
      <trkpt lat="46.78647" lon="-1.06145">
        <ele>153</ele>
        <time>2021-12-19T09:42:09Z</time>
      </trkpt>
      <trkpt lat="46.78657" lon="-1.06149">
        <ele>153</ele>
        <time>2021-12-19T09:42:11Z</time>
      </trkpt>
      <trkpt lat="46.78661" lon="-1.0615">
        <ele>153</ele>
        <time>2021-12-19T09:42:12Z</time>
      </trkpt>
      <trkpt lat="46.7867" lon="-1.06153">
        <ele>153</ele>
        <time>2021-12-19T09:42:14Z</time>
      </trkpt>
      <trkpt lat="46.78674" lon="-1.06155">
        <ele>153</ele>
        <time>2021-12-19T09:42:15Z</time>
      </trkpt>
      <trkpt lat="46.78681" lon="-1.06157">
        <ele>153</ele>
        <time>2021-12-19T09:42:17Z</time>
      </trkpt>
      <trkpt lat="46.78684" lon="-1.06158">
        <ele>152</ele>
        <time>2021-12-19T09:42:18Z</time>
      </trkpt>
      <trkpt lat="46.78687" lon="-1.06159">
        <ele>152</ele>
        <time>2021-12-19T09:42:19Z</time>
      </trkpt>
      <trkpt lat="46.78691" lon="-1.06162">
        <ele>153</ele>
        <time>2021-12-19T09:42:21Z</time>
      </trkpt>
      <trkpt lat="46.78694" lon="-1.06162">
        <ele>153</ele>
        <time>2021-12-19T09:42:22Z</time>
      </trkpt>
      <trkpt lat="46.78697" lon="-1.06162">
        <ele>152</ele>
        <time>2021-12-19T09:42:23Z</time>
      </trkpt>
      <trkpt lat="46.78706" lon="-1.0616">
        <ele>153</ele>
        <time>2021-12-19T09:42:25Z</time>
      </trkpt>
      <trkpt lat="46.78711" lon="-1.06158">
        <ele>154</ele>
        <time>2021-12-19T09:42:26Z</time>
      </trkpt>
      <trkpt lat="46.78721" lon="-1.06155">
        <ele>154</ele>
        <time>2021-12-19T09:42:28Z</time>
      </trkpt>
      <trkpt lat="46.78726" lon="-1.06151">
        <ele>154</ele>
        <time>2021-12-19T09:42:29Z</time>
      </trkpt>
      <trkpt lat="46.78735" lon="-1.06143">
        <ele>154</ele>
        <time>2021-12-19T09:42:31Z</time>
      </trkpt>
      <trkpt lat="46.78746" lon="-1.06136">
        <ele>155</ele>
        <time>2021-12-19T09:42:33Z</time>
      </trkpt>
      <trkpt lat="46.78751" lon="-1.06133">
        <ele>155</ele>
        <time>2021-12-19T09:42:34Z</time>
      </trkpt>
      <trkpt lat="46.78756" lon="-1.06129">
        <ele>155</ele>
        <time>2021-12-19T09:42:35Z</time>
      </trkpt>
      <trkpt lat="46.78768" lon="-1.06121">
        <ele>154</ele>
        <time>2021-12-19T09:42:37Z</time>
      </trkpt>
      <trkpt lat="46.7878" lon="-1.06113">
        <ele>153</ele>
        <time>2021-12-19T09:42:39Z</time>
      </trkpt>
      <trkpt lat="46.78794" lon="-1.06105">
        <ele>153</ele>
        <time>2021-12-19T09:42:41Z</time>
      </trkpt>
      <trkpt lat="46.78808" lon="-1.061">
        <ele>152</ele>
        <time>2021-12-19T09:42:43Z</time>
      </trkpt>
      <trkpt lat="46.78816" lon="-1.06098">
        <ele>152</ele>
        <time>2021-12-19T09:42:44Z</time>
      </trkpt>
      <trkpt lat="46.78832" lon="-1.06096">
        <ele>151</ele>
        <time>2021-12-19T09:42:46Z</time>
      </trkpt>
      <trkpt lat="46.78849" lon="-1.06097">
        <ele>149</ele>
        <time>2021-12-19T09:42:48Z</time>
      </trkpt>
      <trkpt lat="46.78857" lon="-1.06099">
        <ele>149</ele>
        <time>2021-12-19T09:42:49Z</time>
      </trkpt>
      <trkpt lat="46.78875" lon="-1.06105">
        <ele>148</ele>
        <time>2021-12-19T09:42:51Z</time>
      </trkpt>
      <trkpt lat="46.78884" lon="-1.06109">
        <ele>148</ele>
        <time>2021-12-19T09:42:52Z</time>
      </trkpt>
      <trkpt lat="46.78902" lon="-1.06118">
        <ele>147</ele>
        <time>2021-12-19T09:42:54Z</time>
      </trkpt>
      <trkpt lat="46.7892" lon="-1.06128">
        <ele>146</ele>
        <time>2021-12-19T09:42:56Z</time>
      </trkpt>
      <trkpt lat="46.78938" lon="-1.06137">
        <ele>145</ele>
        <time>2021-12-19T09:42:58Z</time>
      </trkpt>
      <trkpt lat="46.78957" lon="-1.06147">
        <ele>144</ele>
        <time>2021-12-19T09:43:00Z</time>
      </trkpt>
      <trkpt lat="46.78967" lon="-1.06152">
        <ele>144</ele>
        <time>2021-12-19T09:43:01Z</time>
      </trkpt>
      <trkpt lat="46.78985" lon="-1.06162">
        <ele>143</ele>
        <time>2021-12-19T09:43:03Z</time>
      </trkpt>
      <trkpt lat="46.78994" lon="-1.06166">
        <ele>143</ele>
        <time>2021-12-19T09:43:04Z</time>
      </trkpt>
      <trkpt lat="46.79012" lon="-1.06175">
        <ele>142</ele>
        <time>2021-12-19T09:43:06Z</time>
      </trkpt>
      <trkpt lat="46.79021" lon="-1.0618">
        <ele>142</ele>
        <time>2021-12-19T09:43:07Z</time>
      </trkpt>
      <trkpt lat="46.7903" lon="-1.06185">
        <ele>142</ele>
        <time>2021-12-19T09:43:08Z</time>
      </trkpt>
      <trkpt lat="46.79047" lon="-1.06193">
        <ele>141</ele>
        <time>2021-12-19T09:43:10Z</time>
      </trkpt>
      <trkpt lat="46.79055" lon="-1.06197">
        <ele>141</ele>
        <time>2021-12-19T09:43:11Z</time>
      </trkpt>
      <trkpt lat="46.79072" lon="-1.06206">
        <ele>141</ele>
        <time>2021-12-19T09:43:13Z</time>
      </trkpt>
      <trkpt lat="46.79088" lon="-1.06214">
        <ele>141</ele>
        <time>2021-12-19T09:43:15Z</time>
      </trkpt>
      <trkpt lat="46.79096" lon="-1.06219">
        <ele>141</ele>
        <time>2021-12-19T09:43:16Z</time>
      </trkpt>
      <trkpt lat="46.79112" lon="-1.06227">
        <ele>140</ele>
        <time>2021-12-19T09:43:18Z</time>
      </trkpt>
      <trkpt lat="46.79121" lon="-1.06231">
        <ele>140</ele>
        <time>2021-12-19T09:43:19Z</time>
      </trkpt>
      <trkpt lat="46.79129" lon="-1.06235">
        <ele>139</ele>
        <time>2021-12-19T09:43:20Z</time>
      </trkpt>
      <trkpt lat="46.79137" lon="-1.06239">
        <ele>139</ele>
        <time>2021-12-19T09:43:21Z</time>
      </trkpt>
      <trkpt lat="46.79153" lon="-1.06248">
        <ele>139</ele>
        <time>2021-12-19T09:43:23Z</time>
      </trkpt>
      <trkpt lat="46.79169" lon="-1.06256">
        <ele>138</ele>
        <time>2021-12-19T09:43:25Z</time>
      </trkpt>
      <trkpt lat="46.79177" lon="-1.0626">
        <ele>138</ele>
        <time>2021-12-19T09:43:26Z</time>
      </trkpt>
      <trkpt lat="46.79185" lon="-1.06263">
        <ele>138</ele>
        <time>2021-12-19T09:43:27Z</time>
      </trkpt>
      <trkpt lat="46.79201" lon="-1.06268">
        <ele>137</ele>
        <time>2021-12-19T09:43:29Z</time>
      </trkpt>
      <trkpt lat="46.79208" lon="-1.0627">
        <ele>137</ele>
        <time>2021-12-19T09:43:30Z</time>
      </trkpt>
      <trkpt lat="46.79216" lon="-1.06271">
        <ele>137</ele>
        <time>2021-12-19T09:43:31Z</time>
      </trkpt>
      <trkpt lat="46.79224" lon="-1.06273">
        <ele>137</ele>
        <time>2021-12-19T09:43:32Z</time>
      </trkpt>
      <trkpt lat="46.79232" lon="-1.06273">
        <ele>137</ele>
        <time>2021-12-19T09:43:33Z</time>
      </trkpt>
      <trkpt lat="46.7924" lon="-1.06274">
        <ele>137</ele>
        <time>2021-12-19T09:43:34Z</time>
      </trkpt>
      <trkpt lat="46.79256" lon="-1.06275">
        <ele>137</ele>
        <time>2021-12-19T09:43:36Z</time>
      </trkpt>
      <trkpt lat="46.79272" lon="-1.06277">
        <ele>137</ele>
        <time>2021-12-19T09:43:38Z</time>
      </trkpt>
      <trkpt lat="46.79287" lon="-1.06279">
        <ele>137</ele>
        <time>2021-12-19T09:43:40Z</time>
      </trkpt>
      <trkpt lat="46.79294" lon="-1.06281">
        <ele>137</ele>
        <time>2021-12-19T09:43:41Z</time>
      </trkpt>
      <trkpt lat="46.79309" lon="-1.06283">
        <ele>137</ele>
        <time>2021-12-19T09:43:43Z</time>
      </trkpt>
      <trkpt lat="46.79316" lon="-1.06284">
        <ele>137</ele>
        <time>2021-12-19T09:43:44Z</time>
      </trkpt>
      <trkpt lat="46.79331" lon="-1.06287">
        <ele>137</ele>
        <time>2021-12-19T09:43:46Z</time>
      </trkpt>
      <trkpt lat="46.79338" lon="-1.06288">
        <ele>137</ele>
        <time>2021-12-19T09:43:47Z</time>
      </trkpt>
      <trkpt lat="46.79345" lon="-1.0629">
        <ele>137</ele>
        <time>2021-12-19T09:43:48Z</time>
      </trkpt>
      <trkpt lat="46.7936" lon="-1.06292">
        <ele>137</ele>
        <time>2021-12-19T09:43:50Z</time>
      </trkpt>
      <trkpt lat="46.79368" lon="-1.06294">
        <ele>137</ele>
        <time>2021-12-19T09:43:51Z</time>
      </trkpt>
      <trkpt lat="46.79383" lon="-1.06297">
        <ele>137</ele>
        <time>2021-12-19T09:43:53Z</time>
      </trkpt>
      <trkpt lat="46.79391" lon="-1.06299">
        <ele>137</ele>
        <time>2021-12-19T09:43:54Z</time>
      </trkpt>
      <trkpt lat="46.79406" lon="-1.06302">
        <ele>136</ele>
        <time>2021-12-19T09:43:56Z</time>
      </trkpt>
      <trkpt lat="46.79414" lon="-1.06304">
        <ele>136</ele>
        <time>2021-12-19T09:43:57Z</time>
      </trkpt>
      <trkpt lat="46.7943" lon="-1.06308">
        <ele>135</ele>
        <time>2021-12-19T09:43:59Z</time>
      </trkpt>
      <trkpt lat="46.79447" lon="-1.06311">
        <ele>135</ele>
        <time>2021-12-19T09:44:01Z</time>
      </trkpt>
      <trkpt lat="46.79464" lon="-1.06313">
        <ele>134</ele>
        <time>2021-12-19T09:44:03Z</time>
      </trkpt>
      <trkpt lat="46.79472" lon="-1.06314">
        <ele>133</ele>
        <time>2021-12-19T09:44:04Z</time>
      </trkpt>
      <trkpt lat="46.7949" lon="-1.06312">
        <ele>133</ele>
        <time>2021-12-19T09:44:06Z</time>
      </trkpt>
      <trkpt lat="46.79498" lon="-1.0631">
        <ele>133</ele>
        <time>2021-12-19T09:44:07Z</time>
      </trkpt>
      <trkpt lat="46.79514" lon="-1.06303">
        <ele>133</ele>
        <time>2021-12-19T09:44:09Z</time>
      </trkpt>
      <trkpt lat="46.79521" lon="-1.063">
        <ele>133</ele>
        <time>2021-12-19T09:44:10Z</time>
      </trkpt>
      <trkpt lat="46.79535" lon="-1.06293">
        <ele>133</ele>
        <time>2021-12-19T09:44:12Z</time>
      </trkpt>
      <trkpt lat="46.79549" lon="-1.06286">
        <ele>133</ele>
        <time>2021-12-19T09:44:14Z</time>
      </trkpt>
      <trkpt lat="46.79556" lon="-1.06283">
        <ele>133</ele>
        <time>2021-12-19T09:44:15Z</time>
      </trkpt>
      <trkpt lat="46.79569" lon="-1.06276">
        <ele>133</ele>
        <time>2021-12-19T09:44:17Z</time>
      </trkpt>
      <trkpt lat="46.79575" lon="-1.06273">
        <ele>134</ele>
        <time>2021-12-19T09:44:18Z</time>
      </trkpt>
      <trkpt lat="46.79582" lon="-1.0627">
        <ele>134</ele>
        <time>2021-12-19T09:44:19Z</time>
      </trkpt>
      <trkpt lat="46.79588" lon="-1.06266">
        <ele>134</ele>
        <time>2021-12-19T09:44:20Z</time>
      </trkpt>
      <trkpt lat="46.796" lon="-1.0626">
        <ele>135</ele>
        <time>2021-12-19T09:44:22Z</time>
      </trkpt>
      <trkpt lat="46.79612" lon="-1.06255">
        <ele>135</ele>
        <time>2021-12-19T09:44:24Z</time>
      </trkpt>
      <trkpt lat="46.79624" lon="-1.06249">
        <ele>135</ele>
        <time>2021-12-19T09:44:26Z</time>
      </trkpt>
      <trkpt lat="46.79635" lon="-1.06243">
        <ele>135</ele>
        <time>2021-12-19T09:44:28Z</time>
      </trkpt>
      <trkpt lat="46.79647" lon="-1.06237">
        <ele>136</ele>
        <time>2021-12-19T09:44:30Z</time>
      </trkpt>
      <trkpt lat="46.79658" lon="-1.06232">
        <ele>136</ele>
        <time>2021-12-19T09:44:32Z</time>
      </trkpt>
      <trkpt lat="46.79664" lon="-1.06229">
        <ele>136</ele>
        <time>2021-12-19T09:44:33Z</time>
      </trkpt>
      <trkpt lat="46.79669" lon="-1.06226">
        <ele>137</ele>
        <time>2021-12-19T09:44:34Z</time>
      </trkpt>
      <trkpt lat="46.79675" lon="-1.06224">
        <ele>137</ele>
        <time>2021-12-19T09:44:35Z</time>
      </trkpt>
      <trkpt lat="46.79687" lon="-1.06218">
        <ele>137</ele>
        <time>2021-12-19T09:44:37Z</time>
      </trkpt>
      <trkpt lat="46.79692" lon="-1.06216">
        <ele>137</ele>
        <time>2021-12-19T09:44:38Z</time>
      </trkpt>
      <trkpt lat="46.79698" lon="-1.06213">
        <ele>138</ele>
        <time>2021-12-19T09:44:39Z</time>
      </trkpt>
      <trkpt lat="46.79708" lon="-1.06209">
        <ele>138</ele>
        <time>2021-12-19T09:44:41Z</time>
      </trkpt>
      <trkpt lat="46.79713" lon="-1.06207">
        <ele>138</ele>
        <time>2021-12-19T09:44:42Z</time>
      </trkpt>
      <trkpt lat="46.79725" lon="-1.06203">
        <ele>139</ele>
        <time>2021-12-19T09:44:44Z</time>
      </trkpt>
      <trkpt lat="46.79735" lon="-1.06199">
        <ele>139</ele>
        <time>2021-12-19T09:44:46Z</time>
      </trkpt>
      <trkpt lat="46.7974" lon="-1.06197">
        <ele>139</ele>
        <time>2021-12-19T09:44:47Z</time>
      </trkpt>
      <trkpt lat="46.79745" lon="-1.06195">
        <ele>139</ele>
        <time>2021-12-19T09:44:48Z</time>
      </trkpt>
      <trkpt lat="46.79751" lon="-1.06193">
        <ele>139</ele>
        <time>2021-12-19T09:44:49Z</time>
      </trkpt>
      <trkpt lat="46.79757" lon="-1.06191">
        <ele>139</ele>
        <time>2021-12-19T09:44:50Z</time>
      </trkpt>
      <trkpt lat="46.79769" lon="-1.06189">
        <ele>139</ele>
        <time>2021-12-19T09:44:52Z</time>
      </trkpt>
      <trkpt lat="46.79776" lon="-1.06188">
        <ele>139</ele>
        <time>2021-12-19T09:44:53Z</time>
      </trkpt>
      <trkpt lat="46.79782" lon="-1.06187">
        <ele>139</ele>
        <time>2021-12-19T09:44:54Z</time>
      </trkpt>
      <trkpt lat="46.79796" lon="-1.06186">
        <ele>139</ele>
        <time>2021-12-19T09:44:56Z</time>
      </trkpt>
      <trkpt lat="46.7981" lon="-1.06184">
        <ele>139</ele>
        <time>2021-12-19T09:44:58Z</time>
      </trkpt>
      <trkpt lat="46.79817" lon="-1.06183">
        <ele>139</ele>
        <time>2021-12-19T09:44:59Z</time>
      </trkpt>
      <trkpt lat="46.79824" lon="-1.06182">
        <ele>138</ele>
        <time>2021-12-19T09:45:00Z</time>
      </trkpt>
      <trkpt lat="46.79837" lon="-1.0618">
        <ele>138</ele>
        <time>2021-12-19T09:45:02Z</time>
      </trkpt>
      <trkpt lat="46.79843" lon="-1.06178">
        <ele>138</ele>
        <time>2021-12-19T09:45:03Z</time>
      </trkpt>
      <trkpt lat="46.79849" lon="-1.06176">
        <ele>138</ele>
        <time>2021-12-19T09:45:04Z</time>
      </trkpt>
      <trkpt lat="46.79861" lon="-1.0617">
        <ele>137</ele>
        <time>2021-12-19T09:45:06Z</time>
      </trkpt>
      <trkpt lat="46.79867" lon="-1.06166">
        <ele>137</ele>
        <time>2021-12-19T09:45:07Z</time>
      </trkpt>
      <trkpt lat="46.79879" lon="-1.06157">
        <ele>137</ele>
        <time>2021-12-19T09:45:09Z</time>
      </trkpt>
      <trkpt lat="46.79885" lon="-1.06153">
        <ele>137</ele>
        <time>2021-12-19T09:45:10Z</time>
      </trkpt>
      <trkpt lat="46.79896" lon="-1.06143">
        <ele>137</ele>
        <time>2021-12-19T09:45:12Z</time>
      </trkpt>
      <trkpt lat="46.79901" lon="-1.06137">
        <ele>137</ele>
        <time>2021-12-19T09:45:13Z</time>
      </trkpt>
      <trkpt lat="46.79905" lon="-1.06131">
        <ele>137</ele>
        <time>2021-12-19T09:45:14Z</time>
      </trkpt>
      <trkpt lat="46.79914" lon="-1.0612">
        <ele>137</ele>
        <time>2021-12-19T09:45:16Z</time>
      </trkpt>
      <trkpt lat="46.79919" lon="-1.06114">
        <ele>137</ele>
        <time>2021-12-19T09:45:17Z</time>
      </trkpt>
      <trkpt lat="46.79923" lon="-1.06108">
        <ele>137</ele>
        <time>2021-12-19T09:45:18Z</time>
      </trkpt>
      <trkpt lat="46.79932" lon="-1.06096">
        <ele>137</ele>
        <time>2021-12-19T09:45:20Z</time>
      </trkpt>
      <trkpt lat="46.79941" lon="-1.06083">
        <ele>137</ele>
        <time>2021-12-19T09:45:22Z</time>
      </trkpt>
      <trkpt lat="46.79949" lon="-1.06071">
        <ele>137</ele>
        <time>2021-12-19T09:45:24Z</time>
      </trkpt>
      <trkpt lat="46.79953" lon="-1.06065">
        <ele>137</ele>
        <time>2021-12-19T09:45:25Z</time>
      </trkpt>
      <trkpt lat="46.79961" lon="-1.06054">
        <ele>137</ele>
        <time>2021-12-19T09:45:27Z</time>
      </trkpt>
      <trkpt lat="46.79965" lon="-1.06048">
        <ele>137</ele>
        <time>2021-12-19T09:45:28Z</time>
      </trkpt>
      <trkpt lat="46.79973" lon="-1.06036">
        <ele>138</ele>
        <time>2021-12-19T09:45:30Z</time>
      </trkpt>
      <trkpt lat="46.7998" lon="-1.06024">
        <ele>138</ele>
        <time>2021-12-19T09:45:32Z</time>
      </trkpt>
      <trkpt lat="46.79984" lon="-1.06018">
        <ele>138</ele>
        <time>2021-12-19T09:45:33Z</time>
      </trkpt>
      <trkpt lat="46.79988" lon="-1.06012">
        <ele>138</ele>
        <time>2021-12-19T09:45:34Z</time>
      </trkpt>
      <trkpt lat="46.79996" lon="-1.06">
        <ele>138</ele>
        <time>2021-12-19T09:45:36Z</time>
      </trkpt>
      <trkpt lat="46.80001" lon="-1.05994">
        <ele>139</ele>
        <time>2021-12-19T09:45:37Z</time>
      </trkpt>
      <trkpt lat="46.80009" lon="-1.05982">
        <ele>139</ele>
        <time>2021-12-19T09:45:39Z</time>
      </trkpt>
      <trkpt lat="46.80017" lon="-1.05971">
        <ele>140</ele>
        <time>2021-12-19T09:45:41Z</time>
      </trkpt>
      <trkpt lat="46.80021" lon="-1.05965">
        <ele>140</ele>
        <time>2021-12-19T09:45:42Z</time>
      </trkpt>
      <trkpt lat="46.80028" lon="-1.05953">
        <ele>140</ele>
        <time>2021-12-19T09:45:44Z</time>
      </trkpt>
      <trkpt lat="46.80032" lon="-1.05948">
        <ele>140</ele>
        <time>2021-12-19T09:45:45Z</time>
      </trkpt>
      <trkpt lat="46.80041" lon="-1.05937">
        <ele>140</ele>
        <time>2021-12-19T09:45:47Z</time>
      </trkpt>
      <trkpt lat="46.80045" lon="-1.05932">
        <ele>140</ele>
        <time>2021-12-19T09:45:48Z</time>
      </trkpt>
      <trkpt lat="46.80056" lon="-1.05922">
        <ele>140</ele>
        <time>2021-12-19T09:45:50Z</time>
      </trkpt>
      <trkpt lat="46.80062" lon="-1.05918">
        <ele>140</ele>
        <time>2021-12-19T09:45:51Z</time>
      </trkpt>
      <trkpt lat="46.80068" lon="-1.05915">
        <ele>140</ele>
        <time>2021-12-19T09:45:52Z</time>
      </trkpt>
      <trkpt lat="46.8008" lon="-1.05909">
        <ele>140</ele>
        <time>2021-12-19T09:45:54Z</time>
      </trkpt>
      <trkpt lat="46.80093" lon="-1.05906">
        <ele>140</ele>
        <time>2021-12-19T09:45:56Z</time>
      </trkpt>
      <trkpt lat="46.80107" lon="-1.05906">
        <ele>139</ele>
        <time>2021-12-19T09:45:58Z</time>
      </trkpt>
      <trkpt lat="46.80114" lon="-1.05906">
        <ele>139</ele>
        <time>2021-12-19T09:45:59Z</time>
      </trkpt>
      <trkpt lat="46.80127" lon="-1.05907">
        <ele>139</ele>
        <time>2021-12-19T09:46:01Z</time>
      </trkpt>
      <trkpt lat="46.80134" lon="-1.05909">
        <ele>139</ele>
        <time>2021-12-19T09:46:02Z</time>
      </trkpt>
      <trkpt lat="46.80147" lon="-1.05912">
        <ele>139</ele>
        <time>2021-12-19T09:46:04Z</time>
      </trkpt>
      <trkpt lat="46.80154" lon="-1.05914">
        <ele>139</ele>
        <time>2021-12-19T09:46:05Z</time>
      </trkpt>
      <trkpt lat="46.80168" lon="-1.05919">
        <ele>138</ele>
        <time>2021-12-19T09:46:07Z</time>
      </trkpt>
      <trkpt lat="46.80175" lon="-1.05921">
        <ele>138</ele>
        <time>2021-12-19T09:46:08Z</time>
      </trkpt>
      <trkpt lat="46.8019" lon="-1.05925">
        <ele>138</ele>
        <time>2021-12-19T09:46:10Z</time>
      </trkpt>
      <trkpt lat="46.80204" lon="-1.0593">
        <ele>138</ele>
        <time>2021-12-19T09:46:12Z</time>
      </trkpt>
      <trkpt lat="46.80212" lon="-1.05933">
        <ele>138</ele>
        <time>2021-12-19T09:46:13Z</time>
      </trkpt>
      <trkpt lat="46.80226" lon="-1.05937">
        <ele>138</ele>
        <time>2021-12-19T09:46:15Z</time>
      </trkpt>
      <trkpt lat="46.80233" lon="-1.0594">
        <ele>138</ele>
        <time>2021-12-19T09:46:16Z</time>
      </trkpt>
      <trkpt lat="46.80246" lon="-1.05944">
        <ele>138</ele>
        <time>2021-12-19T09:46:18Z</time>
      </trkpt>
      <trkpt lat="46.8026" lon="-1.05948">
        <ele>138</ele>
        <time>2021-12-19T09:46:20Z</time>
      </trkpt>
      <trkpt lat="46.80267" lon="-1.05949">
        <ele>138</ele>
        <time>2021-12-19T09:46:21Z</time>
      </trkpt>
      <trkpt lat="46.80283" lon="-1.05947">
        <ele>138</ele>
        <time>2021-12-19T09:46:23Z</time>
      </trkpt>
      <trkpt lat="46.80297" lon="-1.05943">
        <ele>138</ele>
        <time>2021-12-19T09:46:25Z</time>
      </trkpt>
      <trkpt lat="46.80309" lon="-1.05936">
        <ele>137</ele>
        <time>2021-12-19T09:46:27Z</time>
      </trkpt>
      <trkpt lat="46.8032" lon="-1.05927">
        <ele>136</ele>
        <time>2021-12-19T09:46:29Z</time>
      </trkpt>
      <trkpt lat="46.80325" lon="-1.05921">
        <ele>136</ele>
        <time>2021-12-19T09:46:30Z</time>
      </trkpt>
      <trkpt lat="46.80336" lon="-1.0591">
        <ele>136</ele>
        <time>2021-12-19T09:46:32Z</time>
      </trkpt>
      <trkpt lat="46.80342" lon="-1.05905">
        <ele>136</ele>
        <time>2021-12-19T09:46:33Z</time>
      </trkpt>
      <trkpt lat="46.80348" lon="-1.05901">
        <ele>136</ele>
        <time>2021-12-19T09:46:34Z</time>
      </trkpt>
      <trkpt lat="46.8036" lon="-1.05895">
        <ele>136</ele>
        <time>2021-12-19T09:46:36Z</time>
      </trkpt>
      <trkpt lat="46.80367" lon="-1.05893">
        <ele>136</ele>
        <time>2021-12-19T09:46:37Z</time>
      </trkpt>
      <trkpt lat="46.80373" lon="-1.0589">
        <ele>137</ele>
        <time>2021-12-19T09:46:38Z</time>
      </trkpt>
      <trkpt lat="46.80379" lon="-1.05888">
        <ele>137</ele>
        <time>2021-12-19T09:46:39Z</time>
      </trkpt>
      <trkpt lat="46.80392" lon="-1.05886">
        <ele>137</ele>
        <time>2021-12-19T09:46:41Z</time>
      </trkpt>
      <trkpt lat="46.80398" lon="-1.05885">
        <ele>137</ele>
        <time>2021-12-19T09:46:42Z</time>
      </trkpt>
      <trkpt lat="46.80411" lon="-1.05884">
        <ele>137</ele>
        <time>2021-12-19T09:46:44Z</time>
      </trkpt>
      <trkpt lat="46.80418" lon="-1.05883">
        <ele>137</ele>
        <time>2021-12-19T09:46:45Z</time>
      </trkpt>
      <trkpt lat="46.80424" lon="-1.05881">
        <ele>137</ele>
        <time>2021-12-19T09:46:46Z</time>
      </trkpt>
      <trkpt lat="46.80437" lon="-1.05878">
        <ele>137</ele>
        <time>2021-12-19T09:46:48Z</time>
      </trkpt>
      <trkpt lat="46.80449" lon="-1.05873">
        <ele>138</ele>
        <time>2021-12-19T09:46:50Z</time>
      </trkpt>
      <trkpt lat="46.80454" lon="-1.05871">
        <ele>138</ele>
        <time>2021-12-19T09:46:51Z</time>
      </trkpt>
      <trkpt lat="46.8046" lon="-1.05867">
        <ele>138</ele>
        <time>2021-12-19T09:46:52Z</time>
      </trkpt>
      <trkpt lat="46.80471" lon="-1.05859">
        <ele>138</ele>
        <time>2021-12-19T09:46:54Z</time>
      </trkpt>
      <trkpt lat="46.80482" lon="-1.05851">
        <ele>139</ele>
        <time>2021-12-19T09:46:56Z</time>
      </trkpt>
      <trkpt lat="46.80488" lon="-1.05847">
        <ele>139</ele>
        <time>2021-12-19T09:46:57Z</time>
      </trkpt>
      <trkpt lat="46.80498" lon="-1.05839">
        <ele>139</ele>
        <time>2021-12-19T09:46:59Z</time>
      </trkpt>
      <trkpt lat="46.8051" lon="-1.05831">
        <ele>140</ele>
        <time>2021-12-19T09:47:01Z</time>
      </trkpt>
      <trkpt lat="46.80515" lon="-1.05827">
        <ele>140</ele>
        <time>2021-12-19T09:47:02Z</time>
      </trkpt>
      <trkpt lat="46.80525" lon="-1.05817">
        <ele>140</ele>
        <time>2021-12-19T09:47:04Z</time>
      </trkpt>
      <trkpt lat="46.80534" lon="-1.05807">
        <ele>140</ele>
        <time>2021-12-19T09:47:06Z</time>
      </trkpt>
      <trkpt lat="46.80543" lon="-1.05795">
        <ele>140</ele>
        <time>2021-12-19T09:47:08Z</time>
      </trkpt>
      <trkpt lat="46.8055" lon="-1.05782">
        <ele>140</ele>
        <time>2021-12-19T09:47:10Z</time>
      </trkpt>
      <trkpt lat="46.80558" lon="-1.05769">
        <ele>140</ele>
        <time>2021-12-19T09:47:12Z</time>
      </trkpt>
      <trkpt lat="46.80566" lon="-1.05755">
        <ele>140</ele>
        <time>2021-12-19T09:47:14Z</time>
      </trkpt>
      <trkpt lat="46.80575" lon="-1.05743">
        <ele>140</ele>
        <time>2021-12-19T09:47:16Z</time>
      </trkpt>
      <trkpt lat="46.80583" lon="-1.05732">
        <ele>139</ele>
        <time>2021-12-19T09:47:18Z</time>
      </trkpt>
      <trkpt lat="46.80593" lon="-1.05722">
        <ele>139</ele>
        <time>2021-12-19T09:47:20Z</time>
      </trkpt>
      <trkpt lat="46.80603" lon="-1.05711">
        <ele>139</ele>
        <time>2021-12-19T09:47:22Z</time>
      </trkpt>
      <trkpt lat="46.80608" lon="-1.05707">
        <ele>139</ele>
        <time>2021-12-19T09:47:23Z</time>
      </trkpt>
      <trkpt lat="46.80617" lon="-1.05697">
        <ele>139</ele>
        <time>2021-12-19T09:47:25Z</time>
      </trkpt>
      <trkpt lat="46.80627" lon="-1.05688">
        <ele>140</ele>
        <time>2021-12-19T09:47:27Z</time>
      </trkpt>
      <trkpt lat="46.80638" lon="-1.05679">
        <ele>140</ele>
        <time>2021-12-19T09:47:29Z</time>
      </trkpt>
      <trkpt lat="46.80644" lon="-1.05674">
        <ele>140</ele>
        <time>2021-12-19T09:47:30Z</time>
      </trkpt>
      <trkpt lat="46.80649" lon="-1.0567">
        <ele>140</ele>
        <time>2021-12-19T09:47:31Z</time>
      </trkpt>
      <trkpt lat="46.80659" lon="-1.05661">
        <ele>140</ele>
        <time>2021-12-19T09:47:33Z</time>
      </trkpt>
      <trkpt lat="46.80665" lon="-1.05656">
        <ele>141</ele>
        <time>2021-12-19T09:47:34Z</time>
      </trkpt>
      <trkpt lat="46.80675" lon="-1.05647">
        <ele>141</ele>
        <time>2021-12-19T09:47:36Z</time>
      </trkpt>
      <trkpt lat="46.80681" lon="-1.05642">
        <ele>141</ele>
        <time>2021-12-19T09:47:37Z</time>
      </trkpt>
      <trkpt lat="46.8069" lon="-1.05633">
        <ele>141</ele>
        <time>2021-12-19T09:47:39Z</time>
      </trkpt>
      <trkpt lat="46.80695" lon="-1.05629">
        <ele>141</ele>
        <time>2021-12-19T09:47:40Z</time>
      </trkpt>
      <trkpt lat="46.80705" lon="-1.05618">
        <ele>141</ele>
        <time>2021-12-19T09:47:42Z</time>
      </trkpt>
      <trkpt lat="46.80715" lon="-1.05608">
        <ele>141</ele>
        <time>2021-12-19T09:47:44Z</time>
      </trkpt>
      <trkpt lat="46.80724" lon="-1.05598">
        <ele>141</ele>
        <time>2021-12-19T09:47:46Z</time>
      </trkpt>
      <trkpt lat="46.80729" lon="-1.05592">
        <ele>141</ele>
        <time>2021-12-19T09:47:47Z</time>
      </trkpt>
      <trkpt lat="46.80738" lon="-1.05581">
        <ele>141</ele>
        <time>2021-12-19T09:47:49Z</time>
      </trkpt>
      <trkpt lat="46.80747" lon="-1.05571">
        <ele>141</ele>
        <time>2021-12-19T09:47:51Z</time>
      </trkpt>
      <trkpt lat="46.80756" lon="-1.05559">
        <ele>141</ele>
        <time>2021-12-19T09:47:53Z</time>
      </trkpt>
      <trkpt lat="46.80766" lon="-1.05548">
        <ele>141</ele>
        <time>2021-12-19T09:47:55Z</time>
      </trkpt>
      <trkpt lat="46.8077" lon="-1.05543">
        <ele>141</ele>
        <time>2021-12-19T09:47:56Z</time>
      </trkpt>
      <trkpt lat="46.8078" lon="-1.05531">
        <ele>142</ele>
        <time>2021-12-19T09:47:58Z</time>
      </trkpt>
      <trkpt lat="46.8079" lon="-1.05519">
        <ele>142</ele>
        <time>2021-12-19T09:48:00Z</time>
      </trkpt>
      <trkpt lat="46.80795" lon="-1.05513">
        <ele>142</ele>
        <time>2021-12-19T09:48:01Z</time>
      </trkpt>
      <trkpt lat="46.808" lon="-1.05508">
        <ele>142</ele>
        <time>2021-12-19T09:48:02Z</time>
      </trkpt>
      <trkpt lat="46.80809" lon="-1.05496">
        <ele>142</ele>
        <time>2021-12-19T09:48:04Z</time>
      </trkpt>
      <trkpt lat="46.80818" lon="-1.05486">
        <ele>142</ele>
        <time>2021-12-19T09:48:06Z</time>
      </trkpt>
      <trkpt lat="46.80823" lon="-1.0548">
        <ele>142</ele>
        <time>2021-12-19T09:48:07Z</time>
      </trkpt>
      <trkpt lat="46.80832" lon="-1.0547">
        <ele>142</ele>
        <time>2021-12-19T09:48:09Z</time>
      </trkpt>
      <trkpt lat="46.80841" lon="-1.05461">
        <ele>142</ele>
        <time>2021-12-19T09:48:11Z</time>
      </trkpt>
      <trkpt lat="46.8085" lon="-1.05451">
        <ele>142</ele>
        <time>2021-12-19T09:48:13Z</time>
      </trkpt>
      <trkpt lat="46.80855" lon="-1.05447">
        <ele>142</ele>
        <time>2021-12-19T09:48:14Z</time>
      </trkpt>
      <trkpt lat="46.80864" lon="-1.05439">
        <ele>142</ele>
        <time>2021-12-19T09:48:16Z</time>
      </trkpt>
      <trkpt lat="46.80875" lon="-1.05434">
        <ele>142</ele>
        <time>2021-12-19T09:48:18Z</time>
      </trkpt>
      <trkpt lat="46.8088" lon="-1.05432">
        <ele>142</ele>
        <time>2021-12-19T09:48:19Z</time>
      </trkpt>
      <trkpt lat="46.8089" lon="-1.05428">
        <ele>142</ele>
        <time>2021-12-19T09:48:21Z</time>
      </trkpt>
      <trkpt lat="46.80901" lon="-1.05426">
        <ele>143</ele>
        <time>2021-12-19T09:48:23Z</time>
      </trkpt>
      <trkpt lat="46.80906" lon="-1.05426">
        <ele>143</ele>
        <time>2021-12-19T09:48:24Z</time>
      </trkpt>
      <trkpt lat="46.80912" lon="-1.05425">
        <ele>143</ele>
        <time>2021-12-19T09:48:25Z</time>
      </trkpt>
      <trkpt lat="46.80917" lon="-1.05425">
        <ele>143</ele>
        <time>2021-12-19T09:48:26Z</time>
      </trkpt>
      <trkpt lat="46.80928" lon="-1.05426">
        <ele>144</ele>
        <time>2021-12-19T09:48:28Z</time>
      </trkpt>
      <trkpt lat="46.80939" lon="-1.05428">
        <ele>144</ele>
        <time>2021-12-19T09:48:30Z</time>
      </trkpt>
      <trkpt lat="46.8095" lon="-1.05432">
        <ele>144</ele>
        <time>2021-12-19T09:48:32Z</time>
      </trkpt>
      <trkpt lat="46.80955" lon="-1.05434">
        <ele>144</ele>
        <time>2021-12-19T09:48:33Z</time>
      </trkpt>
      <trkpt lat="46.8096" lon="-1.05436">
        <ele>144</ele>
        <time>2021-12-19T09:48:34Z</time>
      </trkpt>
      <trkpt lat="46.80965" lon="-1.05439">
        <ele>144</ele>
        <time>2021-12-19T09:48:35Z</time>
      </trkpt>
      <trkpt lat="46.80975" lon="-1.05443">
        <ele>145</ele>
        <time>2021-12-19T09:48:37Z</time>
      </trkpt>
      <trkpt lat="46.80987" lon="-1.05448">
        <ele>145</ele>
        <time>2021-12-19T09:48:39Z</time>
      </trkpt>
      <trkpt lat="46.80998" lon="-1.05453">
        <ele>145</ele>
        <time>2021-12-19T09:48:41Z</time>
      </trkpt>
      <trkpt lat="46.81008" lon="-1.05456">
        <ele>145</ele>
        <time>2021-12-19T09:48:43Z</time>
      </trkpt>
      <trkpt lat="46.81014" lon="-1.05456">
        <ele>144</ele>
        <time>2021-12-19T09:48:44Z</time>
      </trkpt>
      <trkpt lat="46.81025" lon="-1.05456">
        <ele>145</ele>
        <time>2021-12-19T09:48:46Z</time>
      </trkpt>
      <trkpt lat="46.81031" lon="-1.05456">
        <ele>145</ele>
        <time>2021-12-19T09:48:47Z</time>
      </trkpt>
      <trkpt lat="46.81036" lon="-1.05456">
        <ele>145</ele>
        <time>2021-12-19T09:48:48Z</time>
      </trkpt>
      <trkpt lat="46.81042" lon="-1.05456">
        <ele>145</ele>
        <time>2021-12-19T09:48:49Z</time>
      </trkpt>
      <trkpt lat="46.81053" lon="-1.05457">
        <ele>146</ele>
        <time>2021-12-19T09:48:51Z</time>
      </trkpt>
      <trkpt lat="46.81064" lon="-1.05459">
        <ele>146</ele>
        <time>2021-12-19T09:48:53Z</time>
      </trkpt>
      <trkpt lat="46.81069" lon="-1.0546">
        <ele>147</ele>
        <time>2021-12-19T09:48:54Z</time>
      </trkpt>
      <trkpt lat="46.8108" lon="-1.05463">
        <ele>147</ele>
        <time>2021-12-19T09:48:56Z</time>
      </trkpt>
      <trkpt lat="46.81085" lon="-1.05464">
        <ele>147</ele>
        <time>2021-12-19T09:48:57Z</time>
      </trkpt>
      <trkpt lat="46.81095" lon="-1.05466">
        <ele>147</ele>
        <time>2021-12-19T09:48:59Z</time>
      </trkpt>
      <trkpt lat="46.81106" lon="-1.05469">
        <ele>148</ele>
        <time>2021-12-19T09:49:01Z</time>
      </trkpt>
      <trkpt lat="46.81111" lon="-1.05471">
        <ele>148</ele>
        <time>2021-12-19T09:49:02Z</time>
      </trkpt>
      <trkpt lat="46.81122" lon="-1.05473">
        <ele>148</ele>
        <time>2021-12-19T09:49:04Z</time>
      </trkpt>
      <trkpt lat="46.81128" lon="-1.05474">
        <ele>148</ele>
        <time>2021-12-19T09:49:05Z</time>
      </trkpt>
      <trkpt lat="46.81139" lon="-1.05476">
        <ele>149</ele>
        <time>2021-12-19T09:49:07Z</time>
      </trkpt>
      <trkpt lat="46.81149" lon="-1.05479">
        <ele>150</ele>
        <time>2021-12-19T09:49:09Z</time>
      </trkpt>
      <trkpt lat="46.81155" lon="-1.0548">
        <ele>150</ele>
        <time>2021-12-19T09:49:10Z</time>
      </trkpt>
      <trkpt lat="46.81165" lon="-1.05483">
        <ele>151</ele>
        <time>2021-12-19T09:49:12Z</time>
      </trkpt>
      <trkpt lat="46.81171" lon="-1.05484">
        <ele>151</ele>
        <time>2021-12-19T09:49:13Z</time>
      </trkpt>
      <trkpt lat="46.81182" lon="-1.05486">
        <ele>152</ele>
        <time>2021-12-19T09:49:15Z</time>
      </trkpt>
      <trkpt lat="46.81188" lon="-1.05488">
        <ele>152</ele>
        <time>2021-12-19T09:49:16Z</time>
      </trkpt>
      <trkpt lat="46.81199" lon="-1.0549">
        <ele>152</ele>
        <time>2021-12-19T09:49:18Z</time>
      </trkpt>
      <trkpt lat="46.81205" lon="-1.05492">
        <ele>152</ele>
        <time>2021-12-19T09:49:19Z</time>
      </trkpt>
      <trkpt lat="46.81211" lon="-1.05494">
        <ele>152</ele>
        <time>2021-12-19T09:49:20Z</time>
      </trkpt>
      <trkpt lat="46.81222" lon="-1.05497">
        <ele>152</ele>
        <time>2021-12-19T09:49:22Z</time>
      </trkpt>
      <trkpt lat="46.81228" lon="-1.05499">
        <ele>152</ele>
        <time>2021-12-19T09:49:23Z</time>
      </trkpt>
      <trkpt lat="46.81233" lon="-1.05501">
        <ele>152</ele>
        <time>2021-12-19T09:49:24Z</time>
      </trkpt>
      <trkpt lat="46.81245" lon="-1.05505">
        <ele>153</ele>
        <time>2021-12-19T09:49:26Z</time>
      </trkpt>
      <trkpt lat="46.81251" lon="-1.05507">
        <ele>153</ele>
        <time>2021-12-19T09:49:27Z</time>
      </trkpt>
      <trkpt lat="46.81263" lon="-1.05512">
        <ele>153</ele>
        <time>2021-12-19T09:49:29Z</time>
      </trkpt>
      <trkpt lat="46.8127" lon="-1.05515">
        <ele>152</ele>
        <time>2021-12-19T09:49:30Z</time>
      </trkpt>
      <trkpt lat="46.81281" lon="-1.05519">
        <ele>152</ele>
        <time>2021-12-19T09:49:32Z</time>
      </trkpt>
      <trkpt lat="46.81287" lon="-1.05522">
        <ele>152</ele>
        <time>2021-12-19T09:49:33Z</time>
      </trkpt>
      <trkpt lat="46.81299" lon="-1.05526">
        <ele>152</ele>
        <time>2021-12-19T09:49:35Z</time>
      </trkpt>
      <trkpt lat="46.81305" lon="-1.05528">
        <ele>152</ele>
        <time>2021-12-19T09:49:36Z</time>
      </trkpt>
      <trkpt lat="46.81311" lon="-1.05531">
        <ele>152</ele>
        <time>2021-12-19T09:49:37Z</time>
      </trkpt>
      <trkpt lat="46.81323" lon="-1.05536">
        <ele>152</ele>
        <time>2021-12-19T09:49:39Z</time>
      </trkpt>
      <trkpt lat="46.81329" lon="-1.05538">
        <ele>152</ele>
        <time>2021-12-19T09:49:40Z</time>
      </trkpt>
      <trkpt lat="46.81335" lon="-1.0554">
        <ele>152</ele>
        <time>2021-12-19T09:49:41Z</time>
      </trkpt>
      <trkpt lat="46.81347" lon="-1.05545">
        <ele>152</ele>
        <time>2021-12-19T09:49:43Z</time>
      </trkpt>
      <trkpt lat="46.8136" lon="-1.0555">
        <ele>152</ele>
        <time>2021-12-19T09:49:45Z</time>
      </trkpt>
      <trkpt lat="46.81373" lon="-1.05555">
        <ele>151</ele>
        <time>2021-12-19T09:49:47Z</time>
      </trkpt>
      <trkpt lat="46.81379" lon="-1.05558">
        <ele>151</ele>
        <time>2021-12-19T09:49:48Z</time>
      </trkpt>
      <trkpt lat="46.81392" lon="-1.05563">
        <ele>151</ele>
        <time>2021-12-19T09:49:50Z</time>
      </trkpt>
      <trkpt lat="46.81398" lon="-1.05565">
        <ele>151</ele>
        <time>2021-12-19T09:49:51Z</time>
      </trkpt>
      <trkpt lat="46.81405" lon="-1.05568">
        <ele>151</ele>
        <time>2021-12-19T09:49:52Z</time>
      </trkpt>
      <trkpt lat="46.81411" lon="-1.0557">
        <ele>151</ele>
        <time>2021-12-19T09:49:53Z</time>
      </trkpt>
      <trkpt lat="46.81418" lon="-1.05573">
        <ele>151</ele>
        <time>2021-12-19T09:49:54Z</time>
      </trkpt>
      <trkpt lat="46.81431" lon="-1.05578">
        <ele>151</ele>
        <time>2021-12-19T09:49:56Z</time>
      </trkpt>
      <trkpt lat="46.81444" lon="-1.05584">
        <ele>151</ele>
        <time>2021-12-19T09:49:58Z</time>
      </trkpt>
      <trkpt lat="46.81457" lon="-1.05589">
        <ele>151</ele>
        <time>2021-12-19T09:50:00Z</time>
      </trkpt>
      <trkpt lat="46.81463" lon="-1.05592">
        <ele>151</ele>
        <time>2021-12-19T09:50:01Z</time>
      </trkpt>
      <trkpt lat="46.81476" lon="-1.05597">
        <ele>151</ele>
        <time>2021-12-19T09:50:03Z</time>
      </trkpt>
      <trkpt lat="46.81489" lon="-1.05603">
        <ele>151</ele>
        <time>2021-12-19T09:50:05Z</time>
      </trkpt>
      <trkpt lat="46.81502" lon="-1.05608">
        <ele>151</ele>
        <time>2021-12-19T09:50:07Z</time>
      </trkpt>
      <trkpt lat="46.81508" lon="-1.05611">
        <ele>151</ele>
        <time>2021-12-19T09:50:08Z</time>
      </trkpt>
      <trkpt lat="46.81514" lon="-1.05614">
        <ele>151</ele>
        <time>2021-12-19T09:50:09Z</time>
      </trkpt>
      <trkpt lat="46.81528" lon="-1.05619">
        <ele>151</ele>
        <time>2021-12-19T09:50:11Z</time>
      </trkpt>
      <trkpt lat="46.81535" lon="-1.05622">
        <ele>151</ele>
        <time>2021-12-19T09:50:12Z</time>
      </trkpt>
      <trkpt lat="46.81548" lon="-1.05628">
        <ele>151</ele>
        <time>2021-12-19T09:50:14Z</time>
      </trkpt>
      <trkpt lat="46.81555" lon="-1.0563">
        <ele>151</ele>
        <time>2021-12-19T09:50:15Z</time>
      </trkpt>
      <trkpt lat="46.81562" lon="-1.05633">
        <ele>151</ele>
        <time>2021-12-19T09:50:16Z</time>
      </trkpt>
      <trkpt lat="46.81576" lon="-1.05637">
        <ele>151</ele>
        <time>2021-12-19T09:50:18Z</time>
      </trkpt>
      <trkpt lat="46.81583" lon="-1.05639">
        <ele>150</ele>
        <time>2021-12-19T09:50:19Z</time>
      </trkpt>
      <trkpt lat="46.81597" lon="-1.05642">
        <ele>150</ele>
        <time>2021-12-19T09:50:21Z</time>
      </trkpt>
      <trkpt lat="46.81604" lon="-1.05643">
        <ele>150</ele>
        <time>2021-12-19T09:50:22Z</time>
      </trkpt>
      <trkpt lat="46.81618" lon="-1.05645">
        <ele>150</ele>
        <time>2021-12-19T09:50:24Z</time>
      </trkpt>
      <trkpt lat="46.81633" lon="-1.05648">
        <ele>150</ele>
        <time>2021-12-19T09:50:26Z</time>
      </trkpt>
      <trkpt lat="46.81647" lon="-1.05649">
        <ele>150</ele>
        <time>2021-12-19T09:50:28Z</time>
      </trkpt>
      <trkpt lat="46.81655" lon="-1.0565">
        <ele>150</ele>
        <time>2021-12-19T09:50:29Z</time>
      </trkpt>
      <trkpt lat="46.81663" lon="-1.05651">
        <ele>150</ele>
        <time>2021-12-19T09:50:30Z</time>
      </trkpt>
      <trkpt lat="46.8167" lon="-1.05651">
        <ele>150</ele>
        <time>2021-12-19T09:50:31Z</time>
      </trkpt>
      <trkpt lat="46.81685" lon="-1.05653">
        <ele>149</ele>
        <time>2021-12-19T09:50:33Z</time>
      </trkpt>
      <trkpt lat="46.81692" lon="-1.05654">
        <ele>149</ele>
        <time>2021-12-19T09:50:34Z</time>
      </trkpt>
      <trkpt lat="46.81706" lon="-1.05656">
        <ele>149</ele>
        <time>2021-12-19T09:50:36Z</time>
      </trkpt>
      <trkpt lat="46.81721" lon="-1.05658">
        <ele>148</ele>
        <time>2021-12-19T09:50:38Z</time>
      </trkpt>
      <trkpt lat="46.81736" lon="-1.0566">
        <ele>148</ele>
        <time>2021-12-19T09:50:40Z</time>
      </trkpt>
      <trkpt lat="46.81743" lon="-1.05661">
        <ele>148</ele>
        <time>2021-12-19T09:50:41Z</time>
      </trkpt>
      <trkpt lat="46.81757" lon="-1.05663">
        <ele>147</ele>
        <time>2021-12-19T09:50:43Z</time>
      </trkpt>
      <trkpt lat="46.81772" lon="-1.05665">
        <ele>148</ele>
        <time>2021-12-19T09:50:45Z</time>
      </trkpt>
      <trkpt lat="46.81786" lon="-1.05666">
        <ele>149</ele>
        <time>2021-12-19T09:50:47Z</time>
      </trkpt>
      <trkpt lat="46.81794" lon="-1.05667">
        <ele>149</ele>
        <time>2021-12-19T09:50:48Z</time>
      </trkpt>
      <trkpt lat="46.81808" lon="-1.05669">
        <ele>148</ele>
        <time>2021-12-19T09:50:50Z</time>
      </trkpt>
      <trkpt lat="46.81822" lon="-1.05671">
        <ele>149</ele>
        <time>2021-12-19T09:50:52Z</time>
      </trkpt>
      <trkpt lat="46.81829" lon="-1.05673">
        <ele>149</ele>
        <time>2021-12-19T09:50:53Z</time>
      </trkpt>
      <trkpt lat="46.81836" lon="-1.05674">
        <ele>149</ele>
        <time>2021-12-19T09:50:54Z</time>
      </trkpt>
      <trkpt lat="46.8185" lon="-1.05676">
        <ele>148</ele>
        <time>2021-12-19T09:50:56Z</time>
      </trkpt>
      <trkpt lat="46.81858" lon="-1.05677">
        <ele>148</ele>
        <time>2021-12-19T09:50:57Z</time>
      </trkpt>
      <trkpt lat="46.81865" lon="-1.05678">
        <ele>147</ele>
        <time>2021-12-19T09:50:58Z</time>
      </trkpt>
      <trkpt lat="46.81872" lon="-1.05678">
        <ele>147</ele>
        <time>2021-12-19T09:50:59Z</time>
      </trkpt>
      <trkpt lat="46.8188" lon="-1.05678">
        <ele>147</ele>
        <time>2021-12-19T09:51:00Z</time>
      </trkpt>
      <trkpt lat="46.81894" lon="-1.05677">
        <ele>147</ele>
        <time>2021-12-19T09:51:02Z</time>
      </trkpt>
      <trkpt lat="46.81908" lon="-1.05676">
        <ele>148</ele>
        <time>2021-12-19T09:51:04Z</time>
      </trkpt>
      <trkpt lat="46.81915" lon="-1.05675">
        <ele>148</ele>
        <time>2021-12-19T09:51:05Z</time>
      </trkpt>
      <trkpt lat="46.81922" lon="-1.05673">
        <ele>147</ele>
        <time>2021-12-19T09:51:06Z</time>
      </trkpt>
      <trkpt lat="46.81935" lon="-1.0567">
        <ele>147</ele>
        <time>2021-12-19T09:51:08Z</time>
      </trkpt>
      <trkpt lat="46.81942" lon="-1.05668">
        <ele>147</ele>
        <time>2021-12-19T09:51:09Z</time>
      </trkpt>
      <trkpt lat="46.81948" lon="-1.05665">
        <ele>147</ele>
        <time>2021-12-19T09:51:10Z</time>
      </trkpt>
      <trkpt lat="46.81955" lon="-1.05662">
        <ele>147</ele>
        <time>2021-12-19T09:51:11Z</time>
      </trkpt>
      <trkpt lat="46.81961" lon="-1.0566">
        <ele>147</ele>
        <time>2021-12-19T09:51:12Z</time>
      </trkpt>
      <trkpt lat="46.81974" lon="-1.05655">
        <ele>148</ele>
        <time>2021-12-19T09:51:14Z</time>
      </trkpt>
      <trkpt lat="46.81986" lon="-1.0565">
        <ele>148</ele>
        <time>2021-12-19T09:51:16Z</time>
      </trkpt>
      <trkpt lat="46.81992" lon="-1.05647">
        <ele>149</ele>
        <time>2021-12-19T09:51:17Z</time>
      </trkpt>
      <trkpt lat="46.82004" lon="-1.05641">
        <ele>149</ele>
        <time>2021-12-19T09:51:19Z</time>
      </trkpt>
      <trkpt lat="46.8201" lon="-1.05638">
        <ele>149</ele>
        <time>2021-12-19T09:51:20Z</time>
      </trkpt>
      <trkpt lat="46.82023" lon="-1.05632">
        <ele>148</ele>
        <time>2021-12-19T09:51:22Z</time>
      </trkpt>
      <trkpt lat="46.82029" lon="-1.05629">
        <ele>148</ele>
        <time>2021-12-19T09:51:23Z</time>
      </trkpt>
      <trkpt lat="46.8204" lon="-1.05623">
        <ele>148</ele>
        <time>2021-12-19T09:51:25Z</time>
      </trkpt>
      <trkpt lat="46.82053" lon="-1.05617">
        <ele>149</ele>
        <time>2021-12-19T09:51:27Z</time>
      </trkpt>
      <trkpt lat="46.82059" lon="-1.05614">
        <ele>148</ele>
        <time>2021-12-19T09:51:28Z</time>
      </trkpt>
      <trkpt lat="46.82065" lon="-1.05611">
        <ele>148</ele>
        <time>2021-12-19T09:51:29Z</time>
      </trkpt>
      <trkpt lat="46.82077" lon="-1.05605">
        <ele>149</ele>
        <time>2021-12-19T09:51:31Z</time>
      </trkpt>
      <trkpt lat="46.82083" lon="-1.05602">
        <ele>149</ele>
        <time>2021-12-19T09:51:32Z</time>
      </trkpt>
      <trkpt lat="46.82095" lon="-1.05596">
        <ele>149</ele>
        <time>2021-12-19T09:51:34Z</time>
      </trkpt>
      <trkpt lat="46.82101" lon="-1.05593">
        <ele>149</ele>
        <time>2021-12-19T09:51:35Z</time>
      </trkpt>
      <trkpt lat="46.82107" lon="-1.0559">
        <ele>150</ele>
        <time>2021-12-19T09:51:36Z</time>
      </trkpt>
      <trkpt lat="46.8212" lon="-1.05584">
        <ele>150</ele>
        <time>2021-12-19T09:51:38Z</time>
      </trkpt>
      <trkpt lat="46.82133" lon="-1.05578">
        <ele>149</ele>
        <time>2021-12-19T09:51:40Z</time>
      </trkpt>
      <trkpt lat="46.8214" lon="-1.05575">
        <ele>149</ele>
        <time>2021-12-19T09:51:41Z</time>
      </trkpt>
      <trkpt lat="46.82153" lon="-1.05569">
        <ele>149</ele>
        <time>2021-12-19T09:51:43Z</time>
      </trkpt>
      <trkpt lat="46.82159" lon="-1.05566">
        <ele>149</ele>
        <time>2021-12-19T09:51:44Z</time>
      </trkpt>
      <trkpt lat="46.82172" lon="-1.05559">
        <ele>149</ele>
        <time>2021-12-19T09:51:46Z</time>
      </trkpt>
      <trkpt lat="46.82179" lon="-1.05556">
        <ele>149</ele>
        <time>2021-12-19T09:51:47Z</time>
      </trkpt>
      <trkpt lat="46.82186" lon="-1.05553">
        <ele>149</ele>
        <time>2021-12-19T09:51:48Z</time>
      </trkpt>
      <trkpt lat="46.82192" lon="-1.05551">
        <ele>148</ele>
        <time>2021-12-19T09:51:49Z</time>
      </trkpt>
      <trkpt lat="46.82205" lon="-1.05544">
        <ele>148</ele>
        <time>2021-12-19T09:51:51Z</time>
      </trkpt>
      <trkpt lat="46.82217" lon="-1.05537">
        <ele>147</ele>
        <time>2021-12-19T09:51:53Z</time>
      </trkpt>
      <trkpt lat="46.82224" lon="-1.05534">
        <ele>146</ele>
        <time>2021-12-19T09:51:54Z</time>
      </trkpt>
      <trkpt lat="46.82238" lon="-1.05528">
        <ele>145</ele>
        <time>2021-12-19T09:51:56Z</time>
      </trkpt>
      <trkpt lat="46.82253" lon="-1.0552">
        <ele>144</ele>
        <time>2021-12-19T09:51:58Z</time>
      </trkpt>
      <trkpt lat="46.82261" lon="-1.05517">
        <ele>144</ele>
        <time>2021-12-19T09:51:59Z</time>
      </trkpt>
      <trkpt lat="46.82269" lon="-1.05513">
        <ele>144</ele>
        <time>2021-12-19T09:52:00Z</time>
      </trkpt>
      <trkpt lat="46.82276" lon="-1.0551">
        <ele>144</ele>
        <time>2021-12-19T09:52:01Z</time>
      </trkpt>
      <trkpt lat="46.82291" lon="-1.05503">
        <ele>145</ele>
        <time>2021-12-19T09:52:03Z</time>
      </trkpt>
      <trkpt lat="46.82299" lon="-1.05499">
        <ele>145</ele>
        <time>2021-12-19T09:52:04Z</time>
      </trkpt>
      <trkpt lat="46.82315" lon="-1.05491">
        <ele>145</ele>
        <time>2021-12-19T09:52:06Z</time>
      </trkpt>
      <trkpt lat="46.82331" lon="-1.05483">
        <ele>144</ele>
        <time>2021-12-19T09:52:08Z</time>
      </trkpt>
      <trkpt lat="46.82339" lon="-1.05479">
        <ele>143</ele>
        <time>2021-12-19T09:52:09Z</time>
      </trkpt>
      <trkpt lat="46.82356" lon="-1.05472">
        <ele>143</ele>
        <time>2021-12-19T09:52:11Z</time>
      </trkpt>
      <trkpt lat="46.82372" lon="-1.05463">
        <ele>142</ele>
        <time>2021-12-19T09:52:13Z</time>
      </trkpt>
      <trkpt lat="46.82389" lon="-1.05456">
        <ele>142</ele>
        <time>2021-12-19T09:52:15Z</time>
      </trkpt>
      <trkpt lat="46.82397" lon="-1.05452">
        <ele>142</ele>
        <time>2021-12-19T09:52:16Z</time>
      </trkpt>
      <trkpt lat="46.82406" lon="-1.05447">
        <ele>142</ele>
        <time>2021-12-19T09:52:17Z</time>
      </trkpt>
      <trkpt lat="46.82415" lon="-1.05443">
        <ele>142</ele>
        <time>2021-12-19T09:52:18Z</time>
      </trkpt>
      <trkpt lat="46.82433" lon="-1.05436">
        <ele>143</ele>
        <time>2021-12-19T09:52:20Z</time>
      </trkpt>
      <trkpt lat="46.82441" lon="-1.05432">
        <ele>143</ele>
        <time>2021-12-19T09:52:21Z</time>
      </trkpt>
      <trkpt lat="46.82449" lon="-1.05428">
        <ele>143</ele>
        <time>2021-12-19T09:52:22Z</time>
      </trkpt>
      <trkpt lat="46.82457" lon="-1.05424">
        <ele>143</ele>
        <time>2021-12-19T09:52:23Z</time>
      </trkpt>
      <trkpt lat="46.82464" lon="-1.05421">
        <ele>143</ele>
        <time>2021-12-19T09:52:24Z</time>
      </trkpt>
      <trkpt lat="46.8248" lon="-1.05413">
        <ele>143</ele>
        <time>2021-12-19T09:52:26Z</time>
      </trkpt>
      <trkpt lat="46.82495" lon="-1.05406">
        <ele>143</ele>
        <time>2021-12-19T09:52:28Z</time>
      </trkpt>
      <trkpt lat="46.8251" lon="-1.05398">
        <ele>143</ele>
        <time>2021-12-19T09:52:30Z</time>
      </trkpt>
      <trkpt lat="46.82524" lon="-1.05391">
        <ele>143</ele>
        <time>2021-12-19T09:52:32Z</time>
      </trkpt>
      <trkpt lat="46.82531" lon="-1.05387">
        <ele>144</ele>
        <time>2021-12-19T09:52:33Z</time>
      </trkpt>
      <trkpt lat="46.82545" lon="-1.05381">
        <ele>144</ele>
        <time>2021-12-19T09:52:35Z</time>
      </trkpt>
      <trkpt lat="46.82552" lon="-1.05379">
        <ele>144</ele>
        <time>2021-12-19T09:52:36Z</time>
      </trkpt>
      <trkpt lat="46.82559" lon="-1.05377">
        <ele>144</ele>
        <time>2021-12-19T09:52:37Z</time>
      </trkpt>
      <trkpt lat="46.82574" lon="-1.05371">
        <ele>143</ele>
        <time>2021-12-19T09:52:39Z</time>
      </trkpt>
      <trkpt lat="46.82581" lon="-1.05368">
        <ele>143</ele>
        <time>2021-12-19T09:52:40Z</time>
      </trkpt>
      <trkpt lat="46.82594" lon="-1.05361">
        <ele>144</ele>
        <time>2021-12-19T09:52:42Z</time>
      </trkpt>
      <trkpt lat="46.82601" lon="-1.05358">
        <ele>144</ele>
        <time>2021-12-19T09:52:43Z</time>
      </trkpt>
      <trkpt lat="46.82615" lon="-1.05351">
        <ele>145</ele>
        <time>2021-12-19T09:52:45Z</time>
      </trkpt>
      <trkpt lat="46.82629" lon="-1.05344">
        <ele>145</ele>
        <time>2021-12-19T09:52:47Z</time>
      </trkpt>
      <trkpt lat="46.82636" lon="-1.05341">
        <ele>145</ele>
        <time>2021-12-19T09:52:48Z</time>
      </trkpt>
      <trkpt lat="46.82649" lon="-1.05335">
        <ele>145</ele>
        <time>2021-12-19T09:52:50Z</time>
      </trkpt>
      <trkpt lat="46.82663" lon="-1.05328">
        <ele>144</ele>
        <time>2021-12-19T09:52:52Z</time>
      </trkpt>
      <trkpt lat="46.82677" lon="-1.05322">
        <ele>145</ele>
        <time>2021-12-19T09:52:54Z</time>
      </trkpt>
      <trkpt lat="46.82683" lon="-1.05318">
        <ele>145</ele>
        <time>2021-12-19T09:52:55Z</time>
      </trkpt>
      <trkpt lat="46.8269" lon="-1.05315">
        <ele>144</ele>
        <time>2021-12-19T09:52:56Z</time>
      </trkpt>
      <trkpt lat="46.82705" lon="-1.05308">
        <ele>144</ele>
        <time>2021-12-19T09:52:58Z</time>
      </trkpt>
      <trkpt lat="46.82712" lon="-1.05304">
        <ele>145</ele>
        <time>2021-12-19T09:52:59Z</time>
      </trkpt>
      <trkpt lat="46.82719" lon="-1.05301">
        <ele>145</ele>
        <time>2021-12-19T09:53:00Z</time>
      </trkpt>
      <trkpt lat="46.82734" lon="-1.05294">
        <ele>144</ele>
        <time>2021-12-19T09:53:02Z</time>
      </trkpt>
      <trkpt lat="46.82747" lon="-1.05288">
        <ele>144</ele>
        <time>2021-12-19T09:53:04Z</time>
      </trkpt>
      <trkpt lat="46.82762" lon="-1.05281">
        <ele>144</ele>
        <time>2021-12-19T09:53:06Z</time>
      </trkpt>
      <trkpt lat="46.82775" lon="-1.05274">
        <ele>144</ele>
        <time>2021-12-19T09:53:08Z</time>
      </trkpt>
      <trkpt lat="46.82782" lon="-1.0527">
        <ele>144</ele>
        <time>2021-12-19T09:53:09Z</time>
      </trkpt>
      <trkpt lat="46.8279" lon="-1.05267">
        <ele>144</ele>
        <time>2021-12-19T09:53:10Z</time>
      </trkpt>
      <trkpt lat="46.82803" lon="-1.05261">
        <ele>144</ele>
        <time>2021-12-19T09:53:12Z</time>
      </trkpt>
      <trkpt lat="46.8281" lon="-1.05257">
        <ele>144</ele>
        <time>2021-12-19T09:53:13Z</time>
      </trkpt>
      <trkpt lat="46.82817" lon="-1.05254">
        <ele>144</ele>
        <time>2021-12-19T09:53:14Z</time>
      </trkpt>
      <trkpt lat="46.82832" lon="-1.05248">
        <ele>144</ele>
        <time>2021-12-19T09:53:16Z</time>
      </trkpt>
      <trkpt lat="46.82838" lon="-1.05244">
        <ele>143</ele>
        <time>2021-12-19T09:53:17Z</time>
      </trkpt>
      <trkpt lat="46.82852" lon="-1.05236">
        <ele>143</ele>
        <time>2021-12-19T09:53:19Z</time>
      </trkpt>
      <trkpt lat="46.82859" lon="-1.05233">
        <ele>143</ele>
        <time>2021-12-19T09:53:20Z</time>
      </trkpt>
      <trkpt lat="46.82873" lon="-1.05227">
        <ele>143</ele>
        <time>2021-12-19T09:53:22Z</time>
      </trkpt>
      <trkpt lat="46.8288" lon="-1.05224">
        <ele>143</ele>
        <time>2021-12-19T09:53:23Z</time>
      </trkpt>
      <trkpt lat="46.82894" lon="-1.05219">
        <ele>142</ele>
        <time>2021-12-19T09:53:25Z</time>
      </trkpt>
      <trkpt lat="46.82907" lon="-1.05215">
        <ele>143</ele>
        <time>2021-12-19T09:53:27Z</time>
      </trkpt>
      <trkpt lat="46.82913" lon="-1.05214">
        <ele>143</ele>
        <time>2021-12-19T09:53:28Z</time>
      </trkpt>
      <trkpt lat="46.82926" lon="-1.05212">
        <ele>144</ele>
        <time>2021-12-19T09:53:30Z</time>
      </trkpt>
      <trkpt lat="46.82941" lon="-1.0521">
        <ele>144</ele>
        <time>2021-12-19T09:53:32Z</time>
      </trkpt>
      <trkpt lat="46.82955" lon="-1.05208">
        <ele>144</ele>
        <time>2021-12-19T09:53:34Z</time>
      </trkpt>
      <trkpt lat="46.82962" lon="-1.05207">
        <ele>144</ele>
        <time>2021-12-19T09:53:35Z</time>
      </trkpt>
      <trkpt lat="46.82976" lon="-1.05206">
        <ele>144</ele>
        <time>2021-12-19T09:53:37Z</time>
      </trkpt>
      <trkpt lat="46.8299" lon="-1.05204">
        <ele>145</ele>
        <time>2021-12-19T09:53:39Z</time>
      </trkpt>
      <trkpt lat="46.82996" lon="-1.05203">
        <ele>145</ele>
        <time>2021-12-19T09:53:40Z</time>
      </trkpt>
      <trkpt lat="46.83009" lon="-1.052">
        <ele>145</ele>
        <time>2021-12-19T09:53:42Z</time>
      </trkpt>
      <trkpt lat="46.83021" lon="-1.05198">
        <ele>145</ele>
        <time>2021-12-19T09:53:44Z</time>
      </trkpt>
      <trkpt lat="46.83027" lon="-1.05196">
        <ele>145</ele>
        <time>2021-12-19T09:53:45Z</time>
      </trkpt>
      <trkpt lat="46.83039" lon="-1.05193">
        <ele>146</ele>
        <time>2021-12-19T09:53:47Z</time>
      </trkpt>
      <trkpt lat="46.8305" lon="-1.0519">
        <ele>146</ele>
        <time>2021-12-19T09:53:49Z</time>
      </trkpt>
      <trkpt lat="46.83056" lon="-1.05189">
        <ele>146</ele>
        <time>2021-12-19T09:53:50Z</time>
      </trkpt>
      <trkpt lat="46.83067" lon="-1.05185">
        <ele>146</ele>
        <time>2021-12-19T09:53:52Z</time>
      </trkpt>
      <trkpt lat="46.83079" lon="-1.05182">
        <ele>147</ele>
        <time>2021-12-19T09:53:54Z</time>
      </trkpt>
      <trkpt lat="46.8309" lon="-1.05179">
        <ele>147</ele>
        <time>2021-12-19T09:53:56Z</time>
      </trkpt>
      <trkpt lat="46.83095" lon="-1.05177">
        <ele>147</ele>
        <time>2021-12-19T09:53:57Z</time>
      </trkpt>
      <trkpt lat="46.83107" lon="-1.05175">
        <ele>148</ele>
        <time>2021-12-19T09:53:59Z</time>
      </trkpt>
      <trkpt lat="46.83118" lon="-1.05172">
        <ele>148</ele>
        <time>2021-12-19T09:54:01Z</time>
      </trkpt>
      <trkpt lat="46.83129" lon="-1.05169">
        <ele>148</ele>
        <time>2021-12-19T09:54:03Z</time>
      </trkpt>
      <trkpt lat="46.8314" lon="-1.05166">
        <ele>148</ele>
        <time>2021-12-19T09:54:05Z</time>
      </trkpt>
      <trkpt lat="46.83145" lon="-1.05164">
        <ele>148</ele>
        <time>2021-12-19T09:54:06Z</time>
      </trkpt>
      <trkpt lat="46.83156" lon="-1.05161">
        <ele>148</ele>
        <time>2021-12-19T09:54:08Z</time>
      </trkpt>
      <trkpt lat="46.83167" lon="-1.05157">
        <ele>148</ele>
        <time>2021-12-19T09:54:10Z</time>
      </trkpt>
      <trkpt lat="46.83178" lon="-1.05154">
        <ele>149</ele>
        <time>2021-12-19T09:54:12Z</time>
      </trkpt>
      <trkpt lat="46.83188" lon="-1.0515">
        <ele>149</ele>
        <time>2021-12-19T09:54:14Z</time>
      </trkpt>
      <trkpt lat="46.83193" lon="-1.05148">
        <ele>149</ele>
        <time>2021-12-19T09:54:15Z</time>
      </trkpt>
      <trkpt lat="46.83204" lon="-1.05144">
        <ele>149</ele>
        <time>2021-12-19T09:54:17Z</time>
      </trkpt>
      <trkpt lat="46.83209" lon="-1.05142">
        <ele>149</ele>
        <time>2021-12-19T09:54:18Z</time>
      </trkpt>
      <trkpt lat="46.8322" lon="-1.05138">
        <ele>149</ele>
        <time>2021-12-19T09:54:20Z</time>
      </trkpt>
      <trkpt lat="46.83231" lon="-1.05134">
        <ele>150</ele>
        <time>2021-12-19T09:54:22Z</time>
      </trkpt>
      <trkpt lat="46.83241" lon="-1.0513">
        <ele>150</ele>
        <time>2021-12-19T09:54:24Z</time>
      </trkpt>
      <trkpt lat="46.83246" lon="-1.05129">
        <ele>150</ele>
        <time>2021-12-19T09:54:25Z</time>
      </trkpt>
      <trkpt lat="46.83251" lon="-1.05127">
        <ele>150</ele>
        <time>2021-12-19T09:54:26Z</time>
      </trkpt>
      <trkpt lat="46.83261" lon="-1.05124">
        <ele>151</ele>
        <time>2021-12-19T09:54:28Z</time>
      </trkpt>
      <trkpt lat="46.8327" lon="-1.05122">
        <ele>151</ele>
        <time>2021-12-19T09:54:30Z</time>
      </trkpt>
      <trkpt lat="46.83275" lon="-1.0512">
        <ele>151</ele>
        <time>2021-12-19T09:54:31Z</time>
      </trkpt>
      <trkpt lat="46.83282" lon="-1.05121">
        <ele>151</ele>
        <time>2021-12-19T09:54:33Z</time>
      </trkpt>
      <trkpt lat="46.83289" lon="-1.05128">
        <ele>151</ele>
        <time>2021-12-19T09:54:35Z</time>
      </trkpt>
      <trkpt lat="46.83291" lon="-1.05133">
        <ele>151</ele>
        <time>2021-12-19T09:54:36Z</time>
      </trkpt>
      <trkpt lat="46.83293" lon="-1.0514">
        <ele>152</ele>
        <time>2021-12-19T09:54:37Z</time>
      </trkpt>
      <trkpt lat="46.83296" lon="-1.05154">
        <ele>152</ele>
        <time>2021-12-19T09:54:39Z</time>
      </trkpt>
      <trkpt lat="46.83297" lon="-1.05162">
        <ele>152</ele>
        <time>2021-12-19T09:54:40Z</time>
      </trkpt>
      <trkpt lat="46.83299" lon="-1.0517">
        <ele>151</ele>
        <time>2021-12-19T09:54:41Z</time>
      </trkpt>
      <trkpt lat="46.83302" lon="-1.05186">
        <ele>151</ele>
        <time>2021-12-19T09:54:43Z</time>
      </trkpt>
      <trkpt lat="46.83306" lon="-1.05202">
        <ele>151</ele>
        <time>2021-12-19T09:54:45Z</time>
      </trkpt>
      <trkpt lat="46.83308" lon="-1.0521">
        <ele>151</ele>
        <time>2021-12-19T09:54:46Z</time>
      </trkpt>
      <trkpt lat="46.83311" lon="-1.05227">
        <ele>151</ele>
        <time>2021-12-19T09:54:48Z</time>
      </trkpt>
      <trkpt lat="46.83313" lon="-1.05236">
        <ele>151</ele>
        <time>2021-12-19T09:54:49Z</time>
      </trkpt>
      <trkpt lat="46.83317" lon="-1.05254">
        <ele>151</ele>
        <time>2021-12-19T09:54:51Z</time>
      </trkpt>
      <trkpt lat="46.83321" lon="-1.05274">
        <ele>151</ele>
        <time>2021-12-19T09:54:53Z</time>
      </trkpt>
      <trkpt lat="46.83325" lon="-1.05293">
        <ele>151</ele>
        <time>2021-12-19T09:54:55Z</time>
      </trkpt>
      <trkpt lat="46.83328" lon="-1.05313">
        <ele>151</ele>
        <time>2021-12-19T09:54:57Z</time>
      </trkpt>
      <trkpt lat="46.8333" lon="-1.05323">
        <ele>151</ele>
        <time>2021-12-19T09:54:58Z</time>
      </trkpt>
      <trkpt lat="46.83333" lon="-1.05343">
        <ele>151</ele>
        <time>2021-12-19T09:55:00Z</time>
      </trkpt>
      <trkpt lat="46.83335" lon="-1.05353">
        <ele>151</ele>
        <time>2021-12-19T09:55:01Z</time>
      </trkpt>
      <trkpt lat="46.83338" lon="-1.05374">
        <ele>151</ele>
        <time>2021-12-19T09:55:03Z</time>
      </trkpt>
      <trkpt lat="46.8334" lon="-1.05395">
        <ele>151</ele>
        <time>2021-12-19T09:55:05Z</time>
      </trkpt>
      <trkpt lat="46.83341" lon="-1.05406">
        <ele>151</ele>
        <time>2021-12-19T09:55:06Z</time>
      </trkpt>
      <trkpt lat="46.83342" lon="-1.05429">
        <ele>151</ele>
        <time>2021-12-19T09:55:08Z</time>
      </trkpt>
      <trkpt lat="46.83342" lon="-1.05451">
        <ele>152</ele>
        <time>2021-12-19T09:55:10Z</time>
      </trkpt>
      <trkpt lat="46.83341" lon="-1.05462">
        <ele>151</ele>
        <time>2021-12-19T09:55:11Z</time>
      </trkpt>
      <trkpt lat="46.8334" lon="-1.05485">
        <ele>151</ele>
        <time>2021-12-19T09:55:13Z</time>
      </trkpt>
      <trkpt lat="46.83338" lon="-1.05509">
        <ele>151</ele>
        <time>2021-12-19T09:55:15Z</time>
      </trkpt>
      <trkpt lat="46.83338" lon="-1.05533">
        <ele>151</ele>
        <time>2021-12-19T09:55:17Z</time>
      </trkpt>
      <trkpt lat="46.83336" lon="-1.05558">
        <ele>151</ele>
        <time>2021-12-19T09:55:19Z</time>
      </trkpt>
      <trkpt lat="46.83336" lon="-1.05571">
        <ele>151</ele>
        <time>2021-12-19T09:55:20Z</time>
      </trkpt>
      <trkpt lat="46.83335" lon="-1.05596">
        <ele>151</ele>
        <time>2021-12-19T09:55:22Z</time>
      </trkpt>
      <trkpt lat="46.83336" lon="-1.05621">
        <ele>151</ele>
        <time>2021-12-19T09:55:24Z</time>
      </trkpt>
      <trkpt lat="46.83338" lon="-1.05633">
        <ele>151</ele>
        <time>2021-12-19T09:55:25Z</time>
      </trkpt>
      <trkpt lat="46.83343" lon="-1.05657">
        <ele>151</ele>
        <time>2021-12-19T09:55:27Z</time>
      </trkpt>
      <trkpt lat="46.83346" lon="-1.05669">
        <ele>151</ele>
        <time>2021-12-19T09:55:28Z</time>
      </trkpt>
      <trkpt lat="46.83351" lon="-1.05694">
        <ele>151</ele>
        <time>2021-12-19T09:55:30Z</time>
      </trkpt>
      <trkpt lat="46.83357" lon="-1.05719">
        <ele>151</ele>
        <time>2021-12-19T09:55:32Z</time>
      </trkpt>
      <trkpt lat="46.83359" lon="-1.05731">
        <ele>151</ele>
        <time>2021-12-19T09:55:33Z</time>
      </trkpt>
      <trkpt lat="46.83365" lon="-1.05756">
        <ele>151</ele>
        <time>2021-12-19T09:55:35Z</time>
      </trkpt>
      <trkpt lat="46.83368" lon="-1.05768">
        <ele>151</ele>
        <time>2021-12-19T09:55:36Z</time>
      </trkpt>
      <trkpt lat="46.83375" lon="-1.05792">
        <ele>151</ele>
        <time>2021-12-19T09:55:38Z</time>
      </trkpt>
      <trkpt lat="46.83379" lon="-1.05804">
        <ele>151</ele>
        <time>2021-12-19T09:55:39Z</time>
      </trkpt>
      <trkpt lat="46.83383" lon="-1.05816">
        <ele>151</ele>
        <time>2021-12-19T09:55:40Z</time>
      </trkpt>
      <trkpt lat="46.83392" lon="-1.05838">
        <ele>150</ele>
        <time>2021-12-19T09:55:42Z</time>
      </trkpt>
      <trkpt lat="46.83397" lon="-1.0585">
        <ele>150</ele>
        <time>2021-12-19T09:55:43Z</time>
      </trkpt>
      <trkpt lat="46.83405" lon="-1.05873">
        <ele>151</ele>
        <time>2021-12-19T09:55:45Z</time>
      </trkpt>
      <trkpt lat="46.83409" lon="-1.05885">
        <ele>151</ele>
        <time>2021-12-19T09:55:46Z</time>
      </trkpt>
      <trkpt lat="46.83416" lon="-1.05909">
        <ele>151</ele>
        <time>2021-12-19T09:55:48Z</time>
      </trkpt>
      <trkpt lat="46.83422" lon="-1.05935">
        <ele>151</ele>
        <time>2021-12-19T09:55:50Z</time>
      </trkpt>
      <trkpt lat="46.83426" lon="-1.0596">
        <ele>150</ele>
        <time>2021-12-19T09:55:52Z</time>
      </trkpt>
      <trkpt lat="46.83428" lon="-1.05973">
        <ele>150</ele>
        <time>2021-12-19T09:55:53Z</time>
      </trkpt>
      <trkpt lat="46.83433" lon="-1.05997">
        <ele>151</ele>
        <time>2021-12-19T09:55:55Z</time>
      </trkpt>
      <trkpt lat="46.83442" lon="-1.06021">
        <ele>150</ele>
        <time>2021-12-19T09:55:57Z</time>
      </trkpt>
      <trkpt lat="46.83453" lon="-1.06042">
        <ele>150</ele>
        <time>2021-12-19T09:55:59Z</time>
      </trkpt>
      <trkpt lat="46.8346" lon="-1.06052">
        <ele>150</ele>
        <time>2021-12-19T09:56:00Z</time>
      </trkpt>
      <trkpt lat="46.83475" lon="-1.06069">
        <ele>150</ele>
        <time>2021-12-19T09:56:02Z</time>
      </trkpt>
      <trkpt lat="46.83483" lon="-1.06077">
        <ele>150</ele>
        <time>2021-12-19T09:56:03Z</time>
      </trkpt>
      <trkpt lat="46.8349" lon="-1.06084">
        <ele>150</ele>
        <time>2021-12-19T09:56:04Z</time>
      </trkpt>
      <trkpt lat="46.83505" lon="-1.061">
        <ele>150</ele>
        <time>2021-12-19T09:56:06Z</time>
      </trkpt>
      <trkpt lat="46.83512" lon="-1.06107">
        <ele>150</ele>
        <time>2021-12-19T09:56:07Z</time>
      </trkpt>
      <trkpt lat="46.83519" lon="-1.06114">
        <ele>150</ele>
        <time>2021-12-19T09:56:08Z</time>
      </trkpt>
      <trkpt lat="46.83526" lon="-1.06122">
        <ele>150</ele>
        <time>2021-12-19T09:56:09Z</time>
      </trkpt>
      <trkpt lat="46.8354" lon="-1.06136">
        <ele>150</ele>
        <time>2021-12-19T09:56:11Z</time>
      </trkpt>
      <trkpt lat="46.83548" lon="-1.06143">
        <ele>150</ele>
        <time>2021-12-19T09:56:12Z</time>
      </trkpt>
      <trkpt lat="46.83562" lon="-1.06159">
        <ele>150</ele>
        <time>2021-12-19T09:56:14Z</time>
      </trkpt>
      <trkpt lat="46.83569" lon="-1.06167">
        <ele>150</ele>
        <time>2021-12-19T09:56:15Z</time>
      </trkpt>
      <trkpt lat="46.83585" lon="-1.06182">
        <ele>150</ele>
        <time>2021-12-19T09:56:17Z</time>
      </trkpt>
      <trkpt lat="46.836" lon="-1.06197">
        <ele>150</ele>
        <time>2021-12-19T09:56:19Z</time>
      </trkpt>
      <trkpt lat="46.83615" lon="-1.06212">
        <ele>149</ele>
        <time>2021-12-19T09:56:21Z</time>
      </trkpt>
      <trkpt lat="46.8363" lon="-1.06228">
        <ele>150</ele>
        <time>2021-12-19T09:56:23Z</time>
      </trkpt>
      <trkpt lat="46.83638" lon="-1.06235">
        <ele>150</ele>
        <time>2021-12-19T09:56:24Z</time>
      </trkpt>
      <trkpt lat="46.83645" lon="-1.06243">
        <ele>150</ele>
        <time>2021-12-19T09:56:25Z</time>
      </trkpt>
      <trkpt lat="46.8366" lon="-1.06259">
        <ele>150</ele>
        <time>2021-12-19T09:56:27Z</time>
      </trkpt>
      <trkpt lat="46.83667" lon="-1.06267">
        <ele>150</ele>
        <time>2021-12-19T09:56:28Z</time>
      </trkpt>
      <trkpt lat="46.8368" lon="-1.06283">
        <ele>150</ele>
        <time>2021-12-19T09:56:30Z</time>
      </trkpt>
      <trkpt lat="46.83694" lon="-1.06297">
        <ele>150</ele>
        <time>2021-12-19T09:56:32Z</time>
      </trkpt>
      <trkpt lat="46.83701" lon="-1.06304">
        <ele>150</ele>
        <time>2021-12-19T09:56:33Z</time>
      </trkpt>
      <trkpt lat="46.83715" lon="-1.0632">
        <ele>150</ele>
        <time>2021-12-19T09:56:35Z</time>
      </trkpt>
      <trkpt lat="46.83726" lon="-1.06338">
        <ele>150</ele>
        <time>2021-12-19T09:56:37Z</time>
      </trkpt>
      <trkpt lat="46.83732" lon="-1.06347">
        <ele>150</ele>
        <time>2021-12-19T09:56:38Z</time>
      </trkpt>
      <trkpt lat="46.83741" lon="-1.06366">
        <ele>150</ele>
        <time>2021-12-19T09:56:40Z</time>
      </trkpt>
      <trkpt lat="46.8375" lon="-1.06385">
        <ele>150</ele>
        <time>2021-12-19T09:56:42Z</time>
      </trkpt>
      <trkpt lat="46.8376" lon="-1.06401">
        <ele>150</ele>
        <time>2021-12-19T09:56:44Z</time>
      </trkpt>
      <trkpt lat="46.83765" lon="-1.06409">
        <ele>150</ele>
        <time>2021-12-19T09:56:45Z</time>
      </trkpt>
      <trkpt lat="46.83775" lon="-1.06425">
        <ele>150</ele>
        <time>2021-12-19T09:56:47Z</time>
      </trkpt>
      <trkpt lat="46.83779" lon="-1.06432">
        <ele>150</ele>
        <time>2021-12-19T09:56:48Z</time>
      </trkpt>
      <trkpt lat="46.83784" lon="-1.06436">
        <ele>150</ele>
        <time>2021-12-19T09:56:49Z</time>
      </trkpt>
      <trkpt lat="46.83796" lon="-1.06434">
        <ele>150</ele>
        <time>2021-12-19T09:56:51Z</time>
      </trkpt>
      <trkpt lat="46.83801" lon="-1.06428">
        <ele>150</ele>
        <time>2021-12-19T09:56:52Z</time>
      </trkpt>
      <trkpt lat="46.83805" lon="-1.06419">
        <ele>149</ele>
        <time>2021-12-19T09:56:53Z</time>
      </trkpt>
      <trkpt lat="46.83809" lon="-1.0641">
        <ele>149</ele>
        <time>2021-12-19T09:56:54Z</time>
      </trkpt>
      <trkpt lat="46.83818" lon="-1.06392">
        <ele>149</ele>
        <time>2021-12-19T09:56:56Z</time>
      </trkpt>
      <trkpt lat="46.83827" lon="-1.06375">
        <ele>148</ele>
        <time>2021-12-19T09:56:58Z</time>
      </trkpt>
      <trkpt lat="46.83837" lon="-1.06357">
        <ele>148</ele>
        <time>2021-12-19T09:57:00Z</time>
      </trkpt>
      <trkpt lat="46.83847" lon="-1.06337">
        <ele>148</ele>
        <time>2021-12-19T09:57:02Z</time>
      </trkpt>
      <trkpt lat="46.83857" lon="-1.06317">
        <ele>148</ele>
        <time>2021-12-19T09:57:04Z</time>
      </trkpt>
      <trkpt lat="46.83868" lon="-1.06297">
        <ele>147</ele>
        <time>2021-12-19T09:57:06Z</time>
      </trkpt>
      <trkpt lat="46.8388" lon="-1.06276">
        <ele>147</ele>
        <time>2021-12-19T09:57:08Z</time>
      </trkpt>
      <trkpt lat="46.83888" lon="-1.06254">
        <ele>146</ele>
        <time>2021-12-19T09:57:10Z</time>
      </trkpt>
      <trkpt lat="46.83891" lon="-1.06242">
        <ele>146</ele>
        <time>2021-12-19T09:57:11Z</time>
      </trkpt>
      <trkpt lat="46.83895" lon="-1.06218">
        <ele>145</ele>
        <time>2021-12-19T09:57:13Z</time>
      </trkpt>
      <trkpt lat="46.83896" lon="-1.06193">
        <ele>144</ele>
        <time>2021-12-19T09:57:15Z</time>
      </trkpt>
      <trkpt lat="46.839" lon="-1.06169">
        <ele>143</ele>
        <time>2021-12-19T09:57:17Z</time>
      </trkpt>
      <trkpt lat="46.83908" lon="-1.06146">
        <ele>143</ele>
        <time>2021-12-19T09:57:19Z</time>
      </trkpt>
      <trkpt lat="46.83918" lon="-1.06125">
        <ele>143</ele>
        <time>2021-12-19T09:57:21Z</time>
      </trkpt>
      <trkpt lat="46.8393" lon="-1.06106">
        <ele>142</ele>
        <time>2021-12-19T09:57:23Z</time>
      </trkpt>
      <trkpt lat="46.83942" lon="-1.06087">
        <ele>141</ele>
        <time>2021-12-19T09:57:25Z</time>
      </trkpt>
      <trkpt lat="46.83948" lon="-1.06077">
        <ele>141</ele>
        <time>2021-12-19T09:57:26Z</time>
      </trkpt>
      <trkpt lat="46.83954" lon="-1.06066">
        <ele>140</ele>
        <time>2021-12-19T09:57:27Z</time>
      </trkpt>
      <trkpt lat="46.83961" lon="-1.06056">
        <ele>140</ele>
        <time>2021-12-19T09:57:28Z</time>
      </trkpt>
      <trkpt lat="46.83975" lon="-1.06036">
        <ele>138</ele>
        <time>2021-12-19T09:57:30Z</time>
      </trkpt>
      <trkpt lat="46.8399" lon="-1.06018">
        <ele>137</ele>
        <time>2021-12-19T09:57:32Z</time>
      </trkpt>
      <trkpt lat="46.84005" lon="-1.05999">
        <ele>137</ele>
        <time>2021-12-19T09:57:34Z</time>
      </trkpt>
      <trkpt lat="46.84012" lon="-1.05989">
        <ele>136</ele>
        <time>2021-12-19T09:57:35Z</time>
      </trkpt>
      <trkpt lat="46.84027" lon="-1.0597">
        <ele>136</ele>
        <time>2021-12-19T09:57:37Z</time>
      </trkpt>
      <trkpt lat="46.84034" lon="-1.05961">
        <ele>135</ele>
        <time>2021-12-19T09:57:38Z</time>
      </trkpt>
      <trkpt lat="46.84049" lon="-1.05941">
        <ele>135</ele>
        <time>2021-12-19T09:57:40Z</time>
      </trkpt>
      <trkpt lat="46.84056" lon="-1.05932">
        <ele>135</ele>
        <time>2021-12-19T09:57:41Z</time>
      </trkpt>
      <trkpt lat="46.84071" lon="-1.05915">
        <ele>135</ele>
        <time>2021-12-19T09:57:43Z</time>
      </trkpt>
      <trkpt lat="46.8408" lon="-1.05907">
        <ele>135</ele>
        <time>2021-12-19T09:57:44Z</time>
      </trkpt>
      <trkpt lat="46.84098" lon="-1.05894">
        <ele>135</ele>
        <time>2021-12-19T09:57:46Z</time>
      </trkpt>
      <trkpt lat="46.84107" lon="-1.05888">
        <ele>135</ele>
        <time>2021-12-19T09:57:47Z</time>
      </trkpt>
      <trkpt lat="46.84118" lon="-1.05882">
        <ele>134</ele>
        <time>2021-12-19T09:57:48Z</time>
      </trkpt>
      <trkpt lat="46.84139" lon="-1.05871">
        <ele>134</ele>
        <time>2021-12-19T09:57:50Z</time>
      </trkpt>
      <trkpt lat="46.84156" lon="-1.05856">
        <ele>134</ele>
        <time>2021-12-19T09:57:52Z</time>
      </trkpt>
      <trkpt lat="46.84169" lon="-1.05837">
        <ele>135</ele>
        <time>2021-12-19T09:57:54Z</time>
      </trkpt>
      <trkpt lat="46.84177" lon="-1.05813">
        <ele>134</ele>
        <time>2021-12-19T09:57:56Z</time>
      </trkpt>
      <trkpt lat="46.84179" lon="-1.058">
        <ele>134</ele>
        <time>2021-12-19T09:57:57Z</time>
      </trkpt>
      <trkpt lat="46.8418" lon="-1.05776">
        <ele>134</ele>
        <time>2021-12-19T09:57:59Z</time>
      </trkpt>
      <trkpt lat="46.8418" lon="-1.05765">
        <ele>134</ele>
        <time>2021-12-19T09:58:00Z</time>
      </trkpt>
      <trkpt lat="46.84181" lon="-1.05754">
        <ele>134</ele>
        <time>2021-12-19T09:58:01Z</time>
      </trkpt>
      <trkpt lat="46.84181" lon="-1.05744">
        <ele>134</ele>
        <time>2021-12-19T09:58:02Z</time>
      </trkpt>
      <trkpt lat="46.84183" lon="-1.05724">
        <ele>134</ele>
        <time>2021-12-19T09:58:04Z</time>
      </trkpt>
      <trkpt lat="46.84183" lon="-1.05704">
        <ele>134</ele>
        <time>2021-12-19T09:58:06Z</time>
      </trkpt>
      <trkpt lat="46.84184" lon="-1.05685">
        <ele>135</ele>
        <time>2021-12-19T09:58:08Z</time>
      </trkpt>
      <trkpt lat="46.84185" lon="-1.05675">
        <ele>135</ele>
        <time>2021-12-19T09:58:09Z</time>
      </trkpt>
      <trkpt lat="46.84185" lon="-1.05658">
        <ele>135</ele>
        <time>2021-12-19T09:58:11Z</time>
      </trkpt>
      <trkpt lat="46.84185" lon="-1.0565">
        <ele>136</ele>
        <time>2021-12-19T09:58:12Z</time>
      </trkpt>
      <trkpt lat="46.84186" lon="-1.05635">
        <ele>136</ele>
        <time>2021-12-19T09:58:14Z</time>
      </trkpt>
      <trkpt lat="46.84185" lon="-1.05621">
        <ele>137</ele>
        <time>2021-12-19T09:58:16Z</time>
      </trkpt>
      <trkpt lat="46.84185" lon="-1.05606">
        <ele>138</ele>
        <time>2021-12-19T09:58:18Z</time>
      </trkpt>
      <trkpt lat="46.84185" lon="-1.05599">
        <ele>138</ele>
        <time>2021-12-19T09:58:19Z</time>
      </trkpt>
      <trkpt lat="46.84185" lon="-1.05591">
        <ele>138</ele>
        <time>2021-12-19T09:58:20Z</time>
      </trkpt>
      <trkpt lat="46.84186" lon="-1.05576">
        <ele>138</ele>
        <time>2021-12-19T09:58:22Z</time>
      </trkpt>
      <trkpt lat="46.84186" lon="-1.05568">
        <ele>138</ele>
        <time>2021-12-19T09:58:23Z</time>
      </trkpt>
      <trkpt lat="46.84185" lon="-1.05559">
        <ele>139</ele>
        <time>2021-12-19T09:58:24Z</time>
      </trkpt>
      <trkpt lat="46.84185" lon="-1.05542">
        <ele>139</ele>
        <time>2021-12-19T09:58:26Z</time>
      </trkpt>
      <trkpt lat="46.84185" lon="-1.05525">
        <ele>139</ele>
        <time>2021-12-19T09:58:28Z</time>
      </trkpt>
      <trkpt lat="46.84184" lon="-1.05506">
        <ele>140</ele>
        <time>2021-12-19T09:58:30Z</time>
      </trkpt>
      <trkpt lat="46.84184" lon="-1.05497">
        <ele>140</ele>
        <time>2021-12-19T09:58:31Z</time>
      </trkpt>
      <trkpt lat="46.84185" lon="-1.05478">
        <ele>139</ele>
        <time>2021-12-19T09:58:33Z</time>
      </trkpt>
      <trkpt lat="46.84186" lon="-1.0546">
        <ele>139</ele>
        <time>2021-12-19T09:58:35Z</time>
      </trkpt>
      <trkpt lat="46.84187" lon="-1.05451">
        <ele>139</ele>
        <time>2021-12-19T09:58:36Z</time>
      </trkpt>
      <trkpt lat="46.84187" lon="-1.05442">
        <ele>139</ele>
        <time>2021-12-19T09:58:37Z</time>
      </trkpt>
      <trkpt lat="46.84187" lon="-1.05422">
        <ele>138</ele>
        <time>2021-12-19T09:58:39Z</time>
      </trkpt>
      <trkpt lat="46.84187" lon="-1.05412">
        <ele>138</ele>
        <time>2021-12-19T09:58:40Z</time>
      </trkpt>
      <trkpt lat="46.84187" lon="-1.05402">
        <ele>138</ele>
        <time>2021-12-19T09:58:41Z</time>
      </trkpt>
      <trkpt lat="46.84188" lon="-1.05391">
        <ele>138</ele>
        <time>2021-12-19T09:58:42Z</time>
      </trkpt>
      <trkpt lat="46.84188" lon="-1.05369">
        <ele>137</ele>
        <time>2021-12-19T09:58:44Z</time>
      </trkpt>
      <trkpt lat="46.84189" lon="-1.05346">
        <ele>137</ele>
        <time>2021-12-19T09:58:46Z</time>
      </trkpt>
      <trkpt lat="46.84189" lon="-1.05324">
        <ele>137</ele>
        <time>2021-12-19T09:58:48Z</time>
      </trkpt>
      <trkpt lat="46.84189" lon="-1.05303">
        <ele>138</ele>
        <time>2021-12-19T09:58:50Z</time>
      </trkpt>
      <trkpt lat="46.8419" lon="-1.05293">
        <ele>138</ele>
        <time>2021-12-19T09:58:51Z</time>
      </trkpt>
      <trkpt lat="46.8419" lon="-1.05273">
        <ele>138</ele>
        <time>2021-12-19T09:58:53Z</time>
      </trkpt>
      <trkpt lat="46.84189" lon="-1.05253">
        <ele>138</ele>
        <time>2021-12-19T09:58:55Z</time>
      </trkpt>
      <trkpt lat="46.84188" lon="-1.05243">
        <ele>139</ele>
        <time>2021-12-19T09:58:56Z</time>
      </trkpt>
      <trkpt lat="46.84189" lon="-1.05223">
        <ele>139</ele>
        <time>2021-12-19T09:58:58Z</time>
      </trkpt>
      <trkpt lat="46.84191" lon="-1.05205">
        <ele>139</ele>
        <time>2021-12-19T09:59:00Z</time>
      </trkpt>
      <trkpt lat="46.84192" lon="-1.05196">
        <ele>139</ele>
        <time>2021-12-19T09:59:01Z</time>
      </trkpt>
      <trkpt lat="46.84193" lon="-1.05186">
        <ele>140</ele>
        <time>2021-12-19T09:59:02Z</time>
      </trkpt>
      <trkpt lat="46.84196" lon="-1.05167">
        <ele>140</ele>
        <time>2021-12-19T09:59:04Z</time>
      </trkpt>
      <trkpt lat="46.84201" lon="-1.05149">
        <ele>141</ele>
        <time>2021-12-19T09:59:06Z</time>
      </trkpt>
      <trkpt lat="46.84205" lon="-1.05132">
        <ele>142</ele>
        <time>2021-12-19T09:59:08Z</time>
      </trkpt>
      <trkpt lat="46.84207" lon="-1.05124">
        <ele>142</ele>
        <time>2021-12-19T09:59:09Z</time>
      </trkpt>
      <trkpt lat="46.84211" lon="-1.05107">
        <ele>142</ele>
        <time>2021-12-19T09:59:11Z</time>
      </trkpt>
      <trkpt lat="46.84216" lon="-1.0509">
        <ele>143</ele>
        <time>2021-12-19T09:59:13Z</time>
      </trkpt>
      <trkpt lat="46.84218" lon="-1.05082">
        <ele>143</ele>
        <time>2021-12-19T09:59:14Z</time>
      </trkpt>
      <trkpt lat="46.84221" lon="-1.05066">
        <ele>144</ele>
        <time>2021-12-19T09:59:16Z</time>
      </trkpt>
      <trkpt lat="46.84225" lon="-1.0505">
        <ele>144</ele>
        <time>2021-12-19T09:59:18Z</time>
      </trkpt>
      <trkpt lat="46.84227" lon="-1.05042">
        <ele>144</ele>
        <time>2021-12-19T09:59:19Z</time>
      </trkpt>
      <trkpt lat="46.8423" lon="-1.05027">
        <ele>145</ele>
        <time>2021-12-19T09:59:21Z</time>
      </trkpt>
      <trkpt lat="46.84232" lon="-1.05011">
        <ele>145</ele>
        <time>2021-12-19T09:59:23Z</time>
      </trkpt>
      <trkpt lat="46.84234" lon="-1.04995">
        <ele>146</ele>
        <time>2021-12-19T09:59:25Z</time>
      </trkpt>
      <trkpt lat="46.84235" lon="-1.04987">
        <ele>146</ele>
        <time>2021-12-19T09:59:26Z</time>
      </trkpt>
      <trkpt lat="46.84236" lon="-1.04979">
        <ele>146</ele>
        <time>2021-12-19T09:59:27Z</time>
      </trkpt>
      <trkpt lat="46.84239" lon="-1.04965">
        <ele>146</ele>
        <time>2021-12-19T09:59:29Z</time>
      </trkpt>
      <trkpt lat="46.8424" lon="-1.04958">
        <ele>147</ele>
        <time>2021-12-19T09:59:30Z</time>
      </trkpt>
      <trkpt lat="46.84243" lon="-1.04944">
        <ele>147</ele>
        <time>2021-12-19T09:59:32Z</time>
      </trkpt>
      <trkpt lat="46.84245" lon="-1.04938">
        <ele>147</ele>
        <time>2021-12-19T09:59:33Z</time>
      </trkpt>
      <trkpt lat="46.84249" lon="-1.04924">
        <ele>148</ele>
        <time>2021-12-19T09:59:35Z</time>
      </trkpt>
      <trkpt lat="46.84253" lon="-1.04911">
        <ele>148</ele>
        <time>2021-12-19T09:59:37Z</time>
      </trkpt>
      <trkpt lat="46.84258" lon="-1.04898">
        <ele>148</ele>
        <time>2021-12-19T09:59:39Z</time>
      </trkpt>
      <trkpt lat="46.8426" lon="-1.04892">
        <ele>149</ele>
        <time>2021-12-19T09:59:40Z</time>
      </trkpt>
      <trkpt lat="46.84266" lon="-1.0488">
        <ele>149</ele>
        <time>2021-12-19T09:59:42Z</time>
      </trkpt>
      <trkpt lat="46.84269" lon="-1.04874">
        <ele>149</ele>
        <time>2021-12-19T09:59:43Z</time>
      </trkpt>
      <trkpt lat="46.84271" lon="-1.04867">
        <ele>149</ele>
        <time>2021-12-19T09:59:44Z</time>
      </trkpt>
      <trkpt lat="46.84278" lon="-1.04855">
        <ele>149</ele>
        <time>2021-12-19T09:59:46Z</time>
      </trkpt>
      <trkpt lat="46.84286" lon="-1.04843">
        <ele>150</ele>
        <time>2021-12-19T09:59:48Z</time>
      </trkpt>
      <trkpt lat="46.84293" lon="-1.04832">
        <ele>150</ele>
        <time>2021-12-19T09:59:50Z</time>
      </trkpt>
      <trkpt lat="46.843" lon="-1.04822">
        <ele>150</ele>
        <time>2021-12-19T09:59:52Z</time>
      </trkpt>
      <trkpt lat="46.84307" lon="-1.04811">
        <ele>150</ele>
        <time>2021-12-19T09:59:54Z</time>
      </trkpt>
      <trkpt lat="46.84315" lon="-1.04802">
        <ele>150</ele>
        <time>2021-12-19T09:59:56Z</time>
      </trkpt>
      <trkpt lat="46.84322" lon="-1.04793">
        <ele>151</ele>
        <time>2021-12-19T09:59:58Z</time>
      </trkpt>
      <trkpt lat="46.84326" lon="-1.04788">
        <ele>151</ele>
        <time>2021-12-19T09:59:59Z</time>
      </trkpt>
      <trkpt lat="46.8433" lon="-1.04783">
        <ele>151</ele>
        <time>2021-12-19T10:00:00Z</time>
      </trkpt>
      <trkpt lat="46.84337" lon="-1.04773">
        <ele>151</ele>
        <time>2021-12-19T10:00:02Z</time>
      </trkpt>
      <trkpt lat="46.84344" lon="-1.04763">
        <ele>152</ele>
        <time>2021-12-19T10:00:04Z</time>
      </trkpt>
      <trkpt lat="46.8435" lon="-1.04751">
        <ele>152</ele>
        <time>2021-12-19T10:00:06Z</time>
      </trkpt>
      <trkpt lat="46.84352" lon="-1.04744">
        <ele>152</ele>
        <time>2021-12-19T10:00:07Z</time>
      </trkpt>
      <trkpt lat="46.84358" lon="-1.04731">
        <ele>152</ele>
        <time>2021-12-19T10:00:09Z</time>
      </trkpt>
      <trkpt lat="46.84361" lon="-1.04724">
        <ele>152</ele>
        <time>2021-12-19T10:00:10Z</time>
      </trkpt>
      <trkpt lat="46.84365" lon="-1.04709">
        <ele>152</ele>
        <time>2021-12-19T10:00:12Z</time>
      </trkpt>
      <trkpt lat="46.84366" lon="-1.04694">
        <ele>152</ele>
        <time>2021-12-19T10:00:14Z</time>
      </trkpt>
      <trkpt lat="46.84365" lon="-1.04678">
        <ele>152</ele>
        <time>2021-12-19T10:00:16Z</time>
      </trkpt>
      <trkpt lat="46.84365" lon="-1.04661">
        <ele>152</ele>
        <time>2021-12-19T10:00:18Z</time>
      </trkpt>
      <trkpt lat="46.84363" lon="-1.04644">
        <ele>151</ele>
        <time>2021-12-19T10:00:20Z</time>
      </trkpt>
      <trkpt lat="46.84362" lon="-1.04635">
        <ele>151</ele>
        <time>2021-12-19T10:00:21Z</time>
      </trkpt>
      <trkpt lat="46.8436" lon="-1.04627">
        <ele>151</ele>
        <time>2021-12-19T10:00:22Z</time>
      </trkpt>
      <trkpt lat="46.84356" lon="-1.0461">
        <ele>151</ele>
        <time>2021-12-19T10:00:24Z</time>
      </trkpt>
      <trkpt lat="46.84351" lon="-1.04592">
        <ele>151</ele>
        <time>2021-12-19T10:00:26Z</time>
      </trkpt>
      <trkpt lat="46.84346" lon="-1.04575">
        <ele>151</ele>
        <time>2021-12-19T10:00:28Z</time>
      </trkpt>
      <trkpt lat="46.8434" lon="-1.04555">
        <ele>151</ele>
        <time>2021-12-19T10:00:30Z</time>
      </trkpt>
      <trkpt lat="46.84338" lon="-1.04546">
        <ele>151</ele>
        <time>2021-12-19T10:00:31Z</time>
      </trkpt>
      <trkpt lat="46.84335" lon="-1.04536">
        <ele>151</ele>
        <time>2021-12-19T10:00:32Z</time>
      </trkpt>
      <trkpt lat="46.84329" lon="-1.04515">
        <ele>151</ele>
        <time>2021-12-19T10:00:34Z</time>
      </trkpt>
      <trkpt lat="46.84327" lon="-1.04505">
        <ele>151</ele>
        <time>2021-12-19T10:00:35Z</time>
      </trkpt>
      <trkpt lat="46.84321" lon="-1.04483">
        <ele>152</ele>
        <time>2021-12-19T10:00:37Z</time>
      </trkpt>
      <trkpt lat="46.84319" lon="-1.04472">
        <ele>152</ele>
        <time>2021-12-19T10:00:38Z</time>
      </trkpt>
      <trkpt lat="46.84317" lon="-1.04461">
        <ele>152</ele>
        <time>2021-12-19T10:00:39Z</time>
      </trkpt>
      <trkpt lat="46.84311" lon="-1.0444">
        <ele>152</ele>
        <time>2021-12-19T10:00:41Z</time>
      </trkpt>
      <trkpt lat="46.84308" lon="-1.0443">
        <ele>152</ele>
        <time>2021-12-19T10:00:42Z</time>
      </trkpt>
      <trkpt lat="46.84306" lon="-1.0442">
        <ele>152</ele>
        <time>2021-12-19T10:00:43Z</time>
      </trkpt>
      <trkpt lat="46.84304" lon="-1.04399">
        <ele>152</ele>
        <time>2021-12-19T10:00:45Z</time>
      </trkpt>
      <trkpt lat="46.843" lon="-1.04379">
        <ele>152</ele>
        <time>2021-12-19T10:00:47Z</time>
      </trkpt>
      <trkpt lat="46.84297" lon="-1.04359">
        <ele>152</ele>
        <time>2021-12-19T10:00:49Z</time>
      </trkpt>
      <trkpt lat="46.84294" lon="-1.04339">
        <ele>152</ele>
        <time>2021-12-19T10:00:51Z</time>
      </trkpt>
      <trkpt lat="46.84292" lon="-1.04329">
        <ele>152</ele>
        <time>2021-12-19T10:00:52Z</time>
      </trkpt>
      <trkpt lat="46.8429" lon="-1.04309">
        <ele>153</ele>
        <time>2021-12-19T10:00:54Z</time>
      </trkpt>
      <trkpt lat="46.84289" lon="-1.04299">
        <ele>153</ele>
        <time>2021-12-19T10:00:55Z</time>
      </trkpt>
      <trkpt lat="46.84288" lon="-1.04289">
        <ele>153</ele>
        <time>2021-12-19T10:00:56Z</time>
      </trkpt>
      <trkpt lat="46.84285" lon="-1.04269">
        <ele>153</ele>
        <time>2021-12-19T10:00:58Z</time>
      </trkpt>
      <trkpt lat="46.84284" lon="-1.04259">
        <ele>153</ele>
        <time>2021-12-19T10:00:59Z</time>
      </trkpt>
      <trkpt lat="46.84284" lon="-1.04249">
        <ele>153</ele>
        <time>2021-12-19T10:01:00Z</time>
      </trkpt>
      <trkpt lat="46.84282" lon="-1.0423">
        <ele>154</ele>
        <time>2021-12-19T10:01:02Z</time>
      </trkpt>
      <trkpt lat="46.84282" lon="-1.04212">
        <ele>154</ele>
        <time>2021-12-19T10:01:04Z</time>
      </trkpt>
      <trkpt lat="46.84283" lon="-1.04193">
        <ele>153</ele>
        <time>2021-12-19T10:01:06Z</time>
      </trkpt>
      <trkpt lat="46.84283" lon="-1.04182">
        <ele>153</ele>
        <time>2021-12-19T10:01:07Z</time>
      </trkpt>
      <trkpt lat="46.84283" lon="-1.04161">
        <ele>153</ele>
        <time>2021-12-19T10:01:09Z</time>
      </trkpt>
      <trkpt lat="46.84285" lon="-1.0414">
        <ele>154</ele>
        <time>2021-12-19T10:01:11Z</time>
      </trkpt>
      <trkpt lat="46.84286" lon="-1.04129">
        <ele>154</ele>
        <time>2021-12-19T10:01:12Z</time>
      </trkpt>
      <trkpt lat="46.84288" lon="-1.04109">
        <ele>154</ele>
        <time>2021-12-19T10:01:14Z</time>
      </trkpt>
      <trkpt lat="46.8429" lon="-1.04099">
        <ele>154</ele>
        <time>2021-12-19T10:01:15Z</time>
      </trkpt>
      <trkpt lat="46.84292" lon="-1.04078">
        <ele>154</ele>
        <time>2021-12-19T10:01:17Z</time>
      </trkpt>
      <trkpt lat="46.84293" lon="-1.04068">
        <ele>154</ele>
        <time>2021-12-19T10:01:18Z</time>
      </trkpt>
      <trkpt lat="46.84295" lon="-1.04057">
        <ele>154</ele>
        <time>2021-12-19T10:01:19Z</time>
      </trkpt>
      <trkpt lat="46.84297" lon="-1.04036">
        <ele>154</ele>
        <time>2021-12-19T10:01:21Z</time>
      </trkpt>
      <trkpt lat="46.84298" lon="-1.04025">
        <ele>154</ele>
        <time>2021-12-19T10:01:22Z</time>
      </trkpt>
      <trkpt lat="46.84301" lon="-1.04004">
        <ele>154</ele>
        <time>2021-12-19T10:01:24Z</time>
      </trkpt>
      <trkpt lat="46.84301" lon="-1.03993">
        <ele>154</ele>
        <time>2021-12-19T10:01:25Z</time>
      </trkpt>
      <trkpt lat="46.84303" lon="-1.03971">
        <ele>154</ele>
        <time>2021-12-19T10:01:27Z</time>
      </trkpt>
      <trkpt lat="46.84305" lon="-1.0396">
        <ele>154</ele>
        <time>2021-12-19T10:01:28Z</time>
      </trkpt>
      <trkpt lat="46.84308" lon="-1.0394">
        <ele>154</ele>
        <time>2021-12-19T10:01:30Z</time>
      </trkpt>
      <trkpt lat="46.84309" lon="-1.03929">
        <ele>154</ele>
        <time>2021-12-19T10:01:31Z</time>
      </trkpt>
      <trkpt lat="46.84312" lon="-1.03907">
        <ele>154</ele>
        <time>2021-12-19T10:01:33Z</time>
      </trkpt>
      <trkpt lat="46.84315" lon="-1.03885">
        <ele>153</ele>
        <time>2021-12-19T10:01:35Z</time>
      </trkpt>
      <trkpt lat="46.84316" lon="-1.03874">
        <ele>153</ele>
        <time>2021-12-19T10:01:36Z</time>
      </trkpt>
      <trkpt lat="46.84318" lon="-1.03862">
        <ele>153</ele>
        <time>2021-12-19T10:01:37Z</time>
      </trkpt>
      <trkpt lat="46.84322" lon="-1.03841">
        <ele>153</ele>
        <time>2021-12-19T10:01:39Z</time>
      </trkpt>
      <trkpt lat="46.84323" lon="-1.0383">
        <ele>153</ele>
        <time>2021-12-19T10:01:40Z</time>
      </trkpt>
      <trkpt lat="46.84324" lon="-1.0382">
        <ele>153</ele>
        <time>2021-12-19T10:01:41Z</time>
      </trkpt>
      <trkpt lat="46.84326" lon="-1.03797">
        <ele>152</ele>
        <time>2021-12-19T10:01:43Z</time>
      </trkpt>
      <trkpt lat="46.84327" lon="-1.03786">
        <ele>152</ele>
        <time>2021-12-19T10:01:44Z</time>
      </trkpt>
      <trkpt lat="46.84329" lon="-1.03775">
        <ele>153</ele>
        <time>2021-12-19T10:01:45Z</time>
      </trkpt>
      <trkpt lat="46.84333" lon="-1.03752">
        <ele>153</ele>
        <time>2021-12-19T10:01:47Z</time>
      </trkpt>
      <trkpt lat="46.84336" lon="-1.03731">
        <ele>153</ele>
        <time>2021-12-19T10:01:49Z</time>
      </trkpt>
      <trkpt lat="46.84338" lon="-1.03721">
        <ele>153</ele>
        <time>2021-12-19T10:01:50Z</time>
      </trkpt>
      <trkpt lat="46.84341" lon="-1.037">
        <ele>153</ele>
        <time>2021-12-19T10:01:52Z</time>
      </trkpt>
      <trkpt lat="46.84345" lon="-1.03679">
        <ele>153</ele>
        <time>2021-12-19T10:01:54Z</time>
      </trkpt>
      <trkpt lat="46.8435" lon="-1.03658">
        <ele>152</ele>
        <time>2021-12-19T10:01:56Z</time>
      </trkpt>
      <trkpt lat="46.84354" lon="-1.03638">
        <ele>152</ele>
        <time>2021-12-19T10:01:58Z</time>
      </trkpt>
      <trkpt lat="46.84355" lon="-1.03628">
        <ele>152</ele>
        <time>2021-12-19T10:01:59Z</time>
      </trkpt>
      <trkpt lat="46.84357" lon="-1.03618">
        <ele>152</ele>
        <time>2021-12-19T10:02:00Z</time>
      </trkpt>
      <trkpt lat="46.8436" lon="-1.03598">
        <ele>152</ele>
        <time>2021-12-19T10:02:02Z</time>
      </trkpt>
      <trkpt lat="46.84364" lon="-1.03579">
        <ele>152</ele>
        <time>2021-12-19T10:02:04Z</time>
      </trkpt>
      <trkpt lat="46.84367" lon="-1.0357">
        <ele>152</ele>
        <time>2021-12-19T10:02:05Z</time>
      </trkpt>
      <trkpt lat="46.8437" lon="-1.03551">
        <ele>152</ele>
        <time>2021-12-19T10:02:07Z</time>
      </trkpt>
      <trkpt lat="46.84373" lon="-1.03532">
        <ele>152</ele>
        <time>2021-12-19T10:02:09Z</time>
      </trkpt>
      <trkpt lat="46.84375" lon="-1.03523">
        <ele>153</ele>
        <time>2021-12-19T10:02:10Z</time>
      </trkpt>
      <trkpt lat="46.84377" lon="-1.03515">
        <ele>153</ele>
        <time>2021-12-19T10:02:11Z</time>
      </trkpt>
      <trkpt lat="46.84381" lon="-1.03498">
        <ele>153</ele>
        <time>2021-12-19T10:02:13Z</time>
      </trkpt>
      <trkpt lat="46.84384" lon="-1.0348">
        <ele>154</ele>
        <time>2021-12-19T10:02:15Z</time>
      </trkpt>
      <trkpt lat="46.84387" lon="-1.03471">
        <ele>154</ele>
        <time>2021-12-19T10:02:16Z</time>
      </trkpt>
      <trkpt lat="46.84393" lon="-1.03453">
        <ele>154</ele>
        <time>2021-12-19T10:02:18Z</time>
      </trkpt>
      <trkpt lat="46.84396" lon="-1.03443">
        <ele>154</ele>
        <time>2021-12-19T10:02:19Z</time>
      </trkpt>
      <trkpt lat="46.84404" lon="-1.03424">
        <ele>154</ele>
        <time>2021-12-19T10:02:21Z</time>
      </trkpt>
      <trkpt lat="46.84408" lon="-1.03415">
        <ele>154</ele>
        <time>2021-12-19T10:02:22Z</time>
      </trkpt>
      <trkpt lat="46.84416" lon="-1.03396">
        <ele>154</ele>
        <time>2021-12-19T10:02:24Z</time>
      </trkpt>
      <trkpt lat="46.84419" lon="-1.03387">
        <ele>154</ele>
        <time>2021-12-19T10:02:25Z</time>
      </trkpt>
      <trkpt lat="46.84423" lon="-1.03378">
        <ele>154</ele>
        <time>2021-12-19T10:02:26Z</time>
      </trkpt>
      <trkpt lat="46.84426" lon="-1.03369">
        <ele>154</ele>
        <time>2021-12-19T10:02:27Z</time>
      </trkpt>
      <trkpt lat="46.84433" lon="-1.0335">
        <ele>154</ele>
        <time>2021-12-19T10:02:29Z</time>
      </trkpt>
      <trkpt lat="46.84436" lon="-1.03342">
        <ele>154</ele>
        <time>2021-12-19T10:02:30Z</time>
      </trkpt>
      <trkpt lat="46.84443" lon="-1.03324">
        <ele>154</ele>
        <time>2021-12-19T10:02:32Z</time>
      </trkpt>
      <trkpt lat="46.84445" lon="-1.03314">
        <ele>154</ele>
        <time>2021-12-19T10:02:33Z</time>
      </trkpt>
      <trkpt lat="46.84448" lon="-1.03305">
        <ele>154</ele>
        <time>2021-12-19T10:02:34Z</time>
      </trkpt>
      <trkpt lat="46.8445" lon="-1.03295">
        <ele>154</ele>
        <time>2021-12-19T10:02:35Z</time>
      </trkpt>
      <trkpt lat="46.84456" lon="-1.03276">
        <ele>154</ele>
        <time>2021-12-19T10:02:37Z</time>
      </trkpt>
      <trkpt lat="46.84461" lon="-1.03257">
        <ele>154</ele>
        <time>2021-12-19T10:02:39Z</time>
      </trkpt>
      <trkpt lat="46.84468" lon="-1.03239">
        <ele>154</ele>
        <time>2021-12-19T10:02:41Z</time>
      </trkpt>
      <trkpt lat="46.84475" lon="-1.03222">
        <ele>154</ele>
        <time>2021-12-19T10:02:43Z</time>
      </trkpt>
      <trkpt lat="46.84481" lon="-1.03205">
        <ele>153</ele>
        <time>2021-12-19T10:02:45Z</time>
      </trkpt>
      <trkpt lat="46.84486" lon="-1.03186">
        <ele>153</ele>
        <time>2021-12-19T10:02:47Z</time>
      </trkpt>
      <trkpt lat="46.84487" lon="-1.03177">
        <ele>153</ele>
        <time>2021-12-19T10:02:48Z</time>
      </trkpt>
      <trkpt lat="46.84487" lon="-1.03157">
        <ele>153</ele>
        <time>2021-12-19T10:02:50Z</time>
      </trkpt>
      <trkpt lat="46.84486" lon="-1.03148">
        <ele>153</ele>
        <time>2021-12-19T10:02:51Z</time>
      </trkpt>
      <trkpt lat="46.84486" lon="-1.03139">
        <ele>153</ele>
        <time>2021-12-19T10:02:52Z</time>
      </trkpt>
      <trkpt lat="46.84484" lon="-1.0312">
        <ele>153</ele>
        <time>2021-12-19T10:02:54Z</time>
      </trkpt>
      <trkpt lat="46.84482" lon="-1.03111">
        <ele>153</ele>
        <time>2021-12-19T10:02:55Z</time>
      </trkpt>
      <trkpt lat="46.84479" lon="-1.03095">
        <ele>153</ele>
        <time>2021-12-19T10:02:57Z</time>
      </trkpt>
      <trkpt lat="46.84478" lon="-1.03088">
        <ele>153</ele>
        <time>2021-12-19T10:02:59Z</time>
      </trkpt>
      <trkpt lat="46.84479" lon="-1.03089">
        <ele>154</ele>
        <time>2021-12-19T10:03:01Z</time>
      </trkpt>
      <trkpt lat="46.8448" lon="-1.03088">
        <ele>154</ele>
        <time>2021-12-19T10:03:03Z</time>
      </trkpt>
      <trkpt lat="46.8448" lon="-1.03084">
        <ele>154</ele>
        <time>2021-12-19T10:03:05Z</time>
      </trkpt>
      <trkpt lat="46.8448" lon="-1.0308">
        <ele>154</ele>
        <time>2021-12-19T10:03:07Z</time>
      </trkpt>
      <trkpt lat="46.8448" lon="-1.03078">
        <ele>154</ele>
        <time>2021-12-19T10:03:08Z</time>
      </trkpt>
      <trkpt lat="46.8448" lon="-1.03076">
        <ele>154</ele>
        <time>2021-12-19T10:03:09Z</time>
      </trkpt>
      <trkpt lat="46.8448" lon="-1.03073">
        <ele>154</ele>
        <time>2021-12-19T10:03:10Z</time>
      </trkpt>
      <trkpt lat="46.84478" lon="-1.03067">
        <ele>154</ele>
        <time>2021-12-19T10:03:12Z</time>
      </trkpt>
      <trkpt lat="46.84478" lon="-1.03063">
        <ele>154</ele>
        <time>2021-12-19T10:03:13Z</time>
      </trkpt>
      <trkpt lat="46.84477" lon="-1.03052">
        <ele>155</ele>
        <time>2021-12-19T10:03:15Z</time>
      </trkpt>
      <trkpt lat="46.84476" lon="-1.03045">
        <ele>155</ele>
        <time>2021-12-19T10:03:16Z</time>
      </trkpt>
      <trkpt lat="46.84475" lon="-1.0303">
        <ele>155</ele>
        <time>2021-12-19T10:03:18Z</time>
      </trkpt>
      <trkpt lat="46.84474" lon="-1.03014">
        <ele>156</ele>
        <time>2021-12-19T10:03:20Z</time>
      </trkpt>
      <trkpt lat="46.84474" lon="-1.02996">
        <ele>155</ele>
        <time>2021-12-19T10:03:22Z</time>
      </trkpt>
      <trkpt lat="46.84473" lon="-1.02987">
        <ele>155</ele>
        <time>2021-12-19T10:03:23Z</time>
      </trkpt>
      <trkpt lat="46.84473" lon="-1.02967">
        <ele>155</ele>
        <time>2021-12-19T10:03:25Z</time>
      </trkpt>
      <trkpt lat="46.84471" lon="-1.02947">
        <ele>155</ele>
        <time>2021-12-19T10:03:27Z</time>
      </trkpt>
      <trkpt lat="46.8447" lon="-1.02937">
        <ele>155</ele>
        <time>2021-12-19T10:03:28Z</time>
      </trkpt>
      <trkpt lat="46.84469" lon="-1.02917">
        <ele>155</ele>
        <time>2021-12-19T10:03:30Z</time>
      </trkpt>
      <trkpt lat="46.84468" lon="-1.02907">
        <ele>156</ele>
        <time>2021-12-19T10:03:31Z</time>
      </trkpt>
      <trkpt lat="46.84468" lon="-1.02887">
        <ele>156</ele>
        <time>2021-12-19T10:03:33Z</time>
      </trkpt>
      <trkpt lat="46.84468" lon="-1.02877">
        <ele>156</ele>
        <time>2021-12-19T10:03:34Z</time>
      </trkpt>
      <trkpt lat="46.8447" lon="-1.02857">
        <ele>156</ele>
        <time>2021-12-19T10:03:36Z</time>
      </trkpt>
      <trkpt lat="46.84472" lon="-1.02848">
        <ele>156</ele>
        <time>2021-12-19T10:03:37Z</time>
      </trkpt>
      <trkpt lat="46.84475" lon="-1.0283">
        <ele>156</ele>
        <time>2021-12-19T10:03:39Z</time>
      </trkpt>
      <trkpt lat="46.84479" lon="-1.02812">
        <ele>156</ele>
        <time>2021-12-19T10:03:41Z</time>
      </trkpt>
      <trkpt lat="46.84481" lon="-1.02803">
        <ele>156</ele>
        <time>2021-12-19T10:03:42Z</time>
      </trkpt>
      <trkpt lat="46.84484" lon="-1.02785">
        <ele>156</ele>
        <time>2021-12-19T10:03:44Z</time>
      </trkpt>
      <trkpt lat="46.84487" lon="-1.02768">
        <ele>156</ele>
        <time>2021-12-19T10:03:46Z</time>
      </trkpt>
      <trkpt lat="46.84489" lon="-1.02758">
        <ele>156</ele>
        <time>2021-12-19T10:03:47Z</time>
      </trkpt>
      <trkpt lat="46.8449" lon="-1.0275">
        <ele>156</ele>
        <time>2021-12-19T10:03:48Z</time>
      </trkpt>
      <trkpt lat="46.84494" lon="-1.02731">
        <ele>156</ele>
        <time>2021-12-19T10:03:50Z</time>
      </trkpt>
      <trkpt lat="46.84499" lon="-1.02713">
        <ele>156</ele>
        <time>2021-12-19T10:03:52Z</time>
      </trkpt>
      <trkpt lat="46.84502" lon="-1.02705">
        <ele>156</ele>
        <time>2021-12-19T10:03:53Z</time>
      </trkpt>
      <trkpt lat="46.84508" lon="-1.02688">
        <ele>156</ele>
        <time>2021-12-19T10:03:55Z</time>
      </trkpt>
      <trkpt lat="46.84513" lon="-1.02672">
        <ele>156</ele>
        <time>2021-12-19T10:03:57Z</time>
      </trkpt>
      <trkpt lat="46.84518" lon="-1.02655">
        <ele>157</ele>
        <time>2021-12-19T10:03:59Z</time>
      </trkpt>
      <trkpt lat="46.84523" lon="-1.02639">
        <ele>157</ele>
        <time>2021-12-19T10:04:01Z</time>
      </trkpt>
      <trkpt lat="46.84528" lon="-1.02623">
        <ele>157</ele>
        <time>2021-12-19T10:04:03Z</time>
      </trkpt>
      <trkpt lat="46.84532" lon="-1.02607">
        <ele>157</ele>
        <time>2021-12-19T10:04:05Z</time>
      </trkpt>
      <trkpt lat="46.84535" lon="-1.02598">
        <ele>157</ele>
        <time>2021-12-19T10:04:06Z</time>
      </trkpt>
      <trkpt lat="46.8454" lon="-1.02583">
        <ele>157</ele>
        <time>2021-12-19T10:04:08Z</time>
      </trkpt>
      <trkpt lat="46.84542" lon="-1.02575">
        <ele>157</ele>
        <time>2021-12-19T10:04:09Z</time>
      </trkpt>
      <trkpt lat="46.84547" lon="-1.02559">
        <ele>157</ele>
        <time>2021-12-19T10:04:11Z</time>
      </trkpt>
      <trkpt lat="46.84552" lon="-1.02542">
        <ele>158</ele>
        <time>2021-12-19T10:04:13Z</time>
      </trkpt>
      <trkpt lat="46.84556" lon="-1.02526">
        <ele>158</ele>
        <time>2021-12-19T10:04:15Z</time>
      </trkpt>
      <trkpt lat="46.84559" lon="-1.02519">
        <ele>158</ele>
        <time>2021-12-19T10:04:16Z</time>
      </trkpt>
      <trkpt lat="46.84564" lon="-1.02503">
        <ele>158</ele>
        <time>2021-12-19T10:04:18Z</time>
      </trkpt>
      <trkpt lat="46.84566" lon="-1.02494">
        <ele>158</ele>
        <time>2021-12-19T10:04:19Z</time>
      </trkpt>
      <trkpt lat="46.84569" lon="-1.02486">
        <ele>158</ele>
        <time>2021-12-19T10:04:20Z</time>
      </trkpt>
      <trkpt lat="46.84571" lon="-1.02477">
        <ele>158</ele>
        <time>2021-12-19T10:04:21Z</time>
      </trkpt>
      <trkpt lat="46.84573" lon="-1.02469">
        <ele>158</ele>
        <time>2021-12-19T10:04:22Z</time>
      </trkpt>
      <trkpt lat="46.84579" lon="-1.02452">
        <ele>158</ele>
        <time>2021-12-19T10:04:24Z</time>
      </trkpt>
      <trkpt lat="46.84581" lon="-1.02444">
        <ele>158</ele>
        <time>2021-12-19T10:04:25Z</time>
      </trkpt>
      <trkpt lat="46.84583" lon="-1.02436">
        <ele>158</ele>
        <time>2021-12-19T10:04:26Z</time>
      </trkpt>
      <trkpt lat="46.84587" lon="-1.0242">
        <ele>158</ele>
        <time>2021-12-19T10:04:28Z</time>
      </trkpt>
      <trkpt lat="46.84592" lon="-1.02404">
        <ele>158</ele>
        <time>2021-12-19T10:04:30Z</time>
      </trkpt>
      <trkpt lat="46.84594" lon="-1.02397">
        <ele>158</ele>
        <time>2021-12-19T10:04:31Z</time>
      </trkpt>
      <trkpt lat="46.84598" lon="-1.02381">
        <ele>158</ele>
        <time>2021-12-19T10:04:33Z</time>
      </trkpt>
      <trkpt lat="46.84602" lon="-1.02365">
        <ele>158</ele>
        <time>2021-12-19T10:04:35Z</time>
      </trkpt>
      <trkpt lat="46.84604" lon="-1.02357">
        <ele>158</ele>
        <time>2021-12-19T10:04:36Z</time>
      </trkpt>
      <trkpt lat="46.84606" lon="-1.0234">
        <ele>158</ele>
        <time>2021-12-19T10:04:38Z</time>
      </trkpt>
      <trkpt lat="46.84607" lon="-1.02322">
        <ele>158</ele>
        <time>2021-12-19T10:04:40Z</time>
      </trkpt>
      <trkpt lat="46.84605" lon="-1.02303">
        <ele>158</ele>
        <time>2021-12-19T10:04:42Z</time>
      </trkpt>
      <trkpt lat="46.84605" lon="-1.02294">
        <ele>157</ele>
        <time>2021-12-19T10:04:43Z</time>
      </trkpt>
      <trkpt lat="46.84603" lon="-1.02274">
        <ele>157</ele>
        <time>2021-12-19T10:04:45Z</time>
      </trkpt>
      <trkpt lat="46.84601" lon="-1.02255">
        <ele>157</ele>
        <time>2021-12-19T10:04:47Z</time>
      </trkpt>
      <trkpt lat="46.84599" lon="-1.02235">
        <ele>157</ele>
        <time>2021-12-19T10:04:49Z</time>
      </trkpt>
      <trkpt lat="46.84598" lon="-1.02225">
        <ele>157</ele>
        <time>2021-12-19T10:04:50Z</time>
      </trkpt>
      <trkpt lat="46.84597" lon="-1.02215">
        <ele>157</ele>
        <time>2021-12-19T10:04:51Z</time>
      </trkpt>
      <trkpt lat="46.84596" lon="-1.02195">
        <ele>156</ele>
        <time>2021-12-19T10:04:53Z</time>
      </trkpt>
      <trkpt lat="46.84595" lon="-1.02175">
        <ele>156</ele>
        <time>2021-12-19T10:04:55Z</time>
      </trkpt>
      <trkpt lat="46.84593" lon="-1.02154">
        <ele>155</ele>
        <time>2021-12-19T10:04:57Z</time>
      </trkpt>
      <trkpt lat="46.84591" lon="-1.02133">
        <ele>155</ele>
        <time>2021-12-19T10:04:59Z</time>
      </trkpt>
      <trkpt lat="46.8459" lon="-1.02123">
        <ele>155</ele>
        <time>2021-12-19T10:05:00Z</time>
      </trkpt>
      <trkpt lat="46.84589" lon="-1.02101">
        <ele>154</ele>
        <time>2021-12-19T10:05:02Z</time>
      </trkpt>
      <trkpt lat="46.84587" lon="-1.02079">
        <ele>154</ele>
        <time>2021-12-19T10:05:04Z</time>
      </trkpt>
      <trkpt lat="46.84585" lon="-1.02056">
        <ele>154</ele>
        <time>2021-12-19T10:05:06Z</time>
      </trkpt>
      <trkpt lat="46.84584" lon="-1.02033">
        <ele>153</ele>
        <time>2021-12-19T10:05:08Z</time>
      </trkpt>
      <trkpt lat="46.84582" lon="-1.02008">
        <ele>153</ele>
        <time>2021-12-19T10:05:10Z</time>
      </trkpt>
      <trkpt lat="46.84581" lon="-1.01996">
        <ele>152</ele>
        <time>2021-12-19T10:05:11Z</time>
      </trkpt>
      <trkpt lat="46.84578" lon="-1.01971">
        <ele>152</ele>
        <time>2021-12-19T10:05:13Z</time>
      </trkpt>
      <trkpt lat="46.84576" lon="-1.01945">
        <ele>151</ele>
        <time>2021-12-19T10:05:15Z</time>
      </trkpt>
      <trkpt lat="46.84574" lon="-1.0192">
        <ele>150</ele>
        <time>2021-12-19T10:05:17Z</time>
      </trkpt>
      <trkpt lat="46.84573" lon="-1.01907">
        <ele>150</ele>
        <time>2021-12-19T10:05:18Z</time>
      </trkpt>
      <trkpt lat="46.84571" lon="-1.01881">
        <ele>150</ele>
        <time>2021-12-19T10:05:20Z</time>
      </trkpt>
      <trkpt lat="46.84571" lon="-1.01855">
        <ele>150</ele>
        <time>2021-12-19T10:05:22Z</time>
      </trkpt>
      <trkpt lat="46.84568" lon="-1.01829">
        <ele>151</ele>
        <time>2021-12-19T10:05:24Z</time>
      </trkpt>
      <trkpt lat="46.84566" lon="-1.01817">
        <ele>151</ele>
        <time>2021-12-19T10:05:25Z</time>
      </trkpt>
      <trkpt lat="46.84563" lon="-1.01792">
        <ele>151</ele>
        <time>2021-12-19T10:05:27Z</time>
      </trkpt>
      <trkpt lat="46.84561" lon="-1.01769">
        <ele>151</ele>
        <time>2021-12-19T10:05:29Z</time>
      </trkpt>
      <trkpt lat="46.8456" lon="-1.01758">
        <ele>151</ele>
        <time>2021-12-19T10:05:30Z</time>
      </trkpt>
      <trkpt lat="46.84558" lon="-1.01738">
        <ele>152</ele>
        <time>2021-12-19T10:05:32Z</time>
      </trkpt>
      <trkpt lat="46.84557" lon="-1.01727">
        <ele>152</ele>
        <time>2021-12-19T10:05:33Z</time>
      </trkpt>
      <trkpt lat="46.84556" lon="-1.01717">
        <ele>152</ele>
        <time>2021-12-19T10:05:34Z</time>
      </trkpt>
      <trkpt lat="46.84554" lon="-1.01708">
        <ele>153</ele>
        <time>2021-12-19T10:05:35Z</time>
      </trkpt>
      <trkpt lat="46.8455" lon="-1.0169">
        <ele>153</ele>
        <time>2021-12-19T10:05:37Z</time>
      </trkpt>
      <trkpt lat="46.84545" lon="-1.01673">
        <ele>154</ele>
        <time>2021-12-19T10:05:39Z</time>
      </trkpt>
      <trkpt lat="46.84542" lon="-1.01666">
        <ele>154</ele>
        <time>2021-12-19T10:05:40Z</time>
      </trkpt>
      <trkpt lat="46.84538" lon="-1.01659">
        <ele>154</ele>
        <time>2021-12-19T10:05:41Z</time>
      </trkpt>
      <trkpt lat="46.84531" lon="-1.01644">
        <ele>154</ele>
        <time>2021-12-19T10:05:43Z</time>
      </trkpt>
      <trkpt lat="46.84527" lon="-1.01638">
        <ele>154</ele>
        <time>2021-12-19T10:05:44Z</time>
      </trkpt>
      <trkpt lat="46.84518" lon="-1.01625">
        <ele>155</ele>
        <time>2021-12-19T10:05:46Z</time>
      </trkpt>
      <trkpt lat="46.8451" lon="-1.01612">
        <ele>156</ele>
        <time>2021-12-19T10:05:48Z</time>
      </trkpt>
      <trkpt lat="46.84507" lon="-1.01605">
        <ele>156</ele>
        <time>2021-12-19T10:05:49Z</time>
      </trkpt>
      <trkpt lat="46.84504" lon="-1.01598">
        <ele>156</ele>
        <time>2021-12-19T10:05:50Z</time>
      </trkpt>
      <trkpt lat="46.845" lon="-1.01592">
        <ele>156</ele>
        <time>2021-12-19T10:05:51Z</time>
      </trkpt>
      <trkpt lat="46.84495" lon="-1.01577">
        <ele>156</ele>
        <time>2021-12-19T10:05:53Z</time>
      </trkpt>
      <trkpt lat="46.84493" lon="-1.01568">
        <ele>156</ele>
        <time>2021-12-19T10:05:54Z</time>
      </trkpt>
      <trkpt lat="46.84492" lon="-1.01551">
        <ele>156</ele>
        <time>2021-12-19T10:05:56Z</time>
      </trkpt>
      <trkpt lat="46.84493" lon="-1.01533">
        <ele>156</ele>
        <time>2021-12-19T10:05:58Z</time>
      </trkpt>
      <trkpt lat="46.84495" lon="-1.01524">
        <ele>156</ele>
        <time>2021-12-19T10:05:59Z</time>
      </trkpt>
      <trkpt lat="46.84499" lon="-1.01508">
        <ele>156</ele>
        <time>2021-12-19T10:06:01Z</time>
      </trkpt>
      <trkpt lat="46.84503" lon="-1.01502">
        <ele>156</ele>
        <time>2021-12-19T10:06:02Z</time>
      </trkpt>
      <trkpt lat="46.84507" lon="-1.01499">
        <ele>156</ele>
        <time>2021-12-19T10:06:03Z</time>
      </trkpt>
      <trkpt lat="46.84518" lon="-1.01499">
        <ele>155</ele>
        <time>2021-12-19T10:06:05Z</time>
      </trkpt>
      <trkpt lat="46.84527" lon="-1.01504">
        <ele>155</ele>
        <time>2021-12-19T10:06:07Z</time>
      </trkpt>
      <trkpt lat="46.84531" lon="-1.01505">
        <ele>155</ele>
        <time>2021-12-19T10:06:08Z</time>
      </trkpt>
      <trkpt lat="46.84539" lon="-1.015">
        <ele>155</ele>
        <time>2021-12-19T10:06:10Z</time>
      </trkpt>
      <trkpt lat="46.84543" lon="-1.01495">
        <ele>155</ele>
        <time>2021-12-19T10:06:11Z</time>
      </trkpt>
      <trkpt lat="46.84547" lon="-1.01491">
        <ele>155</ele>
        <time>2021-12-19T10:06:12Z</time>
      </trkpt>
      <trkpt lat="46.84559" lon="-1.01489">
        <ele>155</ele>
        <time>2021-12-19T10:06:14Z</time>
      </trkpt>
      <trkpt lat="46.8457" lon="-1.01494">
        <ele>155</ele>
        <time>2021-12-19T10:06:16Z</time>
      </trkpt>
      <trkpt lat="46.84576" lon="-1.01498">
        <ele>155</ele>
        <time>2021-12-19T10:06:17Z</time>
      </trkpt>
      <trkpt lat="46.84586" lon="-1.01511">
        <ele>155</ele>
        <time>2021-12-19T10:06:19Z</time>
      </trkpt>
      <trkpt lat="46.84591" lon="-1.01517">
        <ele>155</ele>
        <time>2021-12-19T10:06:20Z</time>
      </trkpt>
      <trkpt lat="46.84597" lon="-1.0152">
        <ele>155</ele>
        <time>2021-12-19T10:06:21Z</time>
      </trkpt>
      <trkpt lat="46.8461" lon="-1.01525">
        <ele>155</ele>
        <time>2021-12-19T10:06:23Z</time>
      </trkpt>
      <trkpt lat="46.84624" lon="-1.01528">
        <ele>155</ele>
        <time>2021-12-19T10:06:25Z</time>
      </trkpt>
      <trkpt lat="46.84636" lon="-1.01531">
        <ele>154</ele>
        <time>2021-12-19T10:06:27Z</time>
      </trkpt>
      <trkpt lat="46.84649" lon="-1.01534">
        <ele>154</ele>
        <time>2021-12-19T10:06:29Z</time>
      </trkpt>
      <trkpt lat="46.84655" lon="-1.01535">
        <ele>154</ele>
        <time>2021-12-19T10:06:30Z</time>
      </trkpt>
      <trkpt lat="46.84668" lon="-1.01537">
        <ele>154</ele>
        <time>2021-12-19T10:06:32Z</time>
      </trkpt>
      <trkpt lat="46.84674" lon="-1.01539">
        <ele>154</ele>
        <time>2021-12-19T10:06:33Z</time>
      </trkpt>
      <trkpt lat="46.84686" lon="-1.01541">
        <ele>154</ele>
        <time>2021-12-19T10:06:35Z</time>
      </trkpt>
      <trkpt lat="46.84698" lon="-1.01542">
        <ele>155</ele>
        <time>2021-12-19T10:06:37Z</time>
      </trkpt>
      <trkpt lat="46.8471" lon="-1.01543">
        <ele>155</ele>
        <time>2021-12-19T10:06:39Z</time>
      </trkpt>
      <trkpt lat="46.84715" lon="-1.01544">
        <ele>155</ele>
        <time>2021-12-19T10:06:40Z</time>
      </trkpt>
      <trkpt lat="46.84727" lon="-1.01545">
        <ele>155</ele>
        <time>2021-12-19T10:06:42Z</time>
      </trkpt>
      <trkpt lat="46.84739" lon="-1.01546">
        <ele>156</ele>
        <time>2021-12-19T10:06:44Z</time>
      </trkpt>
      <trkpt lat="46.84745" lon="-1.01547">
        <ele>156</ele>
        <time>2021-12-19T10:06:45Z</time>
      </trkpt>
      <trkpt lat="46.84757" lon="-1.01548">
        <ele>156</ele>
        <time>2021-12-19T10:06:47Z</time>
      </trkpt>
      <trkpt lat="46.8477" lon="-1.01548">
        <ele>156</ele>
        <time>2021-12-19T10:06:49Z</time>
      </trkpt>
      <trkpt lat="46.84777" lon="-1.01548">
        <ele>156</ele>
        <time>2021-12-19T10:06:50Z</time>
      </trkpt>
      <trkpt lat="46.84789" lon="-1.0155">
        <ele>157</ele>
        <time>2021-12-19T10:06:52Z</time>
      </trkpt>
      <trkpt lat="46.848" lon="-1.01551">
        <ele>157</ele>
        <time>2021-12-19T10:06:54Z</time>
      </trkpt>
      <trkpt lat="46.84812" lon="-1.01551">
        <ele>157</ele>
        <time>2021-12-19T10:06:56Z</time>
      </trkpt>
      <trkpt lat="46.84825" lon="-1.01552">
        <ele>158</ele>
        <time>2021-12-19T10:06:58Z</time>
      </trkpt>
      <trkpt lat="46.84831" lon="-1.01553">
        <ele>158</ele>
        <time>2021-12-19T10:06:59Z</time>
      </trkpt>
      <trkpt lat="46.84844" lon="-1.01553">
        <ele>158</ele>
        <time>2021-12-19T10:07:01Z</time>
      </trkpt>
      <trkpt lat="46.84856" lon="-1.01554">
        <ele>159</ele>
        <time>2021-12-19T10:07:03Z</time>
      </trkpt>
      <trkpt lat="46.84863" lon="-1.01555">
        <ele>159</ele>
        <time>2021-12-19T10:07:04Z</time>
      </trkpt>
      <trkpt lat="46.84869" lon="-1.01556">
        <ele>159</ele>
        <time>2021-12-19T10:07:05Z</time>
      </trkpt>
      <trkpt lat="46.84875" lon="-1.01557">
        <ele>160</ele>
        <time>2021-12-19T10:07:06Z</time>
      </trkpt>
      <trkpt lat="46.84882" lon="-1.01558">
        <ele>160</ele>
        <time>2021-12-19T10:07:07Z</time>
      </trkpt>
      <trkpt lat="46.84894" lon="-1.01561">
        <ele>161</ele>
        <time>2021-12-19T10:07:09Z</time>
      </trkpt>
      <trkpt lat="46.849" lon="-1.01562">
        <ele>161</ele>
        <time>2021-12-19T10:07:10Z</time>
      </trkpt>
      <trkpt lat="46.84907" lon="-1.01563">
        <ele>161</ele>
        <time>2021-12-19T10:07:11Z</time>
      </trkpt>
      <trkpt lat="46.84913" lon="-1.01563">
        <ele>161</ele>
        <time>2021-12-19T10:07:12Z</time>
      </trkpt>
      <trkpt lat="46.84926" lon="-1.01567">
        <ele>161</ele>
        <time>2021-12-19T10:07:14Z</time>
      </trkpt>
      <trkpt lat="46.84932" lon="-1.01568">
        <ele>161</ele>
        <time>2021-12-19T10:07:15Z</time>
      </trkpt>
      <trkpt lat="46.84938" lon="-1.0157">
        <ele>161</ele>
        <time>2021-12-19T10:07:16Z</time>
      </trkpt>
      <trkpt lat="46.84951" lon="-1.01574">
        <ele>161</ele>
        <time>2021-12-19T10:07:18Z</time>
      </trkpt>
      <trkpt lat="46.84963" lon="-1.01578">
        <ele>161</ele>
        <time>2021-12-19T10:07:20Z</time>
      </trkpt>
      <trkpt lat="46.84975" lon="-1.01584">
        <ele>161</ele>
        <time>2021-12-19T10:07:22Z</time>
      </trkpt>
      <trkpt lat="46.84981" lon="-1.01587">
        <ele>161</ele>
        <time>2021-12-19T10:07:23Z</time>
      </trkpt>
      <trkpt lat="46.84993" lon="-1.01593">
        <ele>161</ele>
        <time>2021-12-19T10:07:25Z</time>
      </trkpt>
      <trkpt lat="46.84999" lon="-1.01596">
        <ele>161</ele>
        <time>2021-12-19T10:07:26Z</time>
      </trkpt>
      <trkpt lat="46.85012" lon="-1.01603">
        <ele>160</ele>
        <time>2021-12-19T10:07:28Z</time>
      </trkpt>
      <trkpt lat="46.85017" lon="-1.01607">
        <ele>161</ele>
        <time>2021-12-19T10:07:29Z</time>
      </trkpt>
      <trkpt lat="46.85023" lon="-1.0161">
        <ele>161</ele>
        <time>2021-12-19T10:07:30Z</time>
      </trkpt>
      <trkpt lat="46.85029" lon="-1.01614">
        <ele>160</ele>
        <time>2021-12-19T10:07:31Z</time>
      </trkpt>
      <trkpt lat="46.85035" lon="-1.01619">
        <ele>161</ele>
        <time>2021-12-19T10:07:32Z</time>
      </trkpt>
      <trkpt lat="46.85047" lon="-1.01627">
        <ele>160</ele>
        <time>2021-12-19T10:07:34Z</time>
      </trkpt>
      <trkpt lat="46.85059" lon="-1.01635">
        <ele>160</ele>
        <time>2021-12-19T10:07:36Z</time>
      </trkpt>
      <trkpt lat="46.85071" lon="-1.01644">
        <ele>160</ele>
        <time>2021-12-19T10:07:38Z</time>
      </trkpt>
      <trkpt lat="46.85078" lon="-1.01649">
        <ele>159</ele>
        <time>2021-12-19T10:07:39Z</time>
      </trkpt>
      <trkpt lat="46.85084" lon="-1.01653">
        <ele>159</ele>
        <time>2021-12-19T10:07:40Z</time>
      </trkpt>
      <trkpt lat="46.85098" lon="-1.01663">
        <ele>159</ele>
        <time>2021-12-19T10:07:42Z</time>
      </trkpt>
      <trkpt lat="46.85111" lon="-1.01673">
        <ele>158</ele>
        <time>2021-12-19T10:07:44Z</time>
      </trkpt>
      <trkpt lat="46.85118" lon="-1.01678">
        <ele>158</ele>
        <time>2021-12-19T10:07:45Z</time>
      </trkpt>
      <trkpt lat="46.85125" lon="-1.01683">
        <ele>158</ele>
        <time>2021-12-19T10:07:46Z</time>
      </trkpt>
      <trkpt lat="46.8514" lon="-1.01693">
        <ele>158</ele>
        <time>2021-12-19T10:07:48Z</time>
      </trkpt>
      <trkpt lat="46.85154" lon="-1.01704">
        <ele>158</ele>
        <time>2021-12-19T10:07:50Z</time>
      </trkpt>
      <trkpt lat="46.85169" lon="-1.01714">
        <ele>157</ele>
        <time>2021-12-19T10:07:52Z</time>
      </trkpt>
      <trkpt lat="46.85177" lon="-1.01719">
        <ele>157</ele>
        <time>2021-12-19T10:07:53Z</time>
      </trkpt>
      <trkpt lat="46.85193" lon="-1.01727">
        <ele>157</ele>
        <time>2021-12-19T10:07:55Z</time>
      </trkpt>
      <trkpt lat="46.85201" lon="-1.01731">
        <ele>157</ele>
        <time>2021-12-19T10:07:56Z</time>
      </trkpt>
      <trkpt lat="46.8521" lon="-1.01735">
        <ele>157</ele>
        <time>2021-12-19T10:07:57Z</time>
      </trkpt>
      <trkpt lat="46.85218" lon="-1.01739">
        <ele>156</ele>
        <time>2021-12-19T10:07:58Z</time>
      </trkpt>
      <trkpt lat="46.85235" lon="-1.01747">
        <ele>156</ele>
        <time>2021-12-19T10:08:00Z</time>
      </trkpt>
      <trkpt lat="46.85244" lon="-1.0175">
        <ele>156</ele>
        <time>2021-12-19T10:08:01Z</time>
      </trkpt>
      <trkpt lat="46.85261" lon="-1.01755">
        <ele>155</ele>
        <time>2021-12-19T10:08:03Z</time>
      </trkpt>
      <trkpt lat="46.85279" lon="-1.01759">
        <ele>154</ele>
        <time>2021-12-19T10:08:05Z</time>
      </trkpt>
      <trkpt lat="46.85288" lon="-1.01761">
        <ele>154</ele>
        <time>2021-12-19T10:08:06Z</time>
      </trkpt>
      <trkpt lat="46.85306" lon="-1.01764">
        <ele>154</ele>
        <time>2021-12-19T10:08:08Z</time>
      </trkpt>
      <trkpt lat="46.85315" lon="-1.01765">
        <ele>153</ele>
        <time>2021-12-19T10:08:09Z</time>
      </trkpt>
      <trkpt lat="46.85333" lon="-1.01767">
        <ele>153</ele>
        <time>2021-12-19T10:08:11Z</time>
      </trkpt>
      <trkpt lat="46.85342" lon="-1.01767">
        <ele>152</ele>
        <time>2021-12-19T10:08:12Z</time>
      </trkpt>
      <trkpt lat="46.8536" lon="-1.01767">
        <ele>152</ele>
        <time>2021-12-19T10:08:14Z</time>
      </trkpt>
      <trkpt lat="46.8537" lon="-1.01766">
        <ele>152</ele>
        <time>2021-12-19T10:08:15Z</time>
      </trkpt>
      <trkpt lat="46.85388" lon="-1.01764">
        <ele>151</ele>
        <time>2021-12-19T10:08:17Z</time>
      </trkpt>
      <trkpt lat="46.85406" lon="-1.01761">
        <ele>150</ele>
        <time>2021-12-19T10:08:19Z</time>
      </trkpt>
      <trkpt lat="46.85415" lon="-1.01759">
        <ele>150</ele>
        <time>2021-12-19T10:08:20Z</time>
      </trkpt>
      <trkpt lat="46.85432" lon="-1.01755">
        <ele>149</ele>
        <time>2021-12-19T10:08:22Z</time>
      </trkpt>
      <trkpt lat="46.85449" lon="-1.01749">
        <ele>149</ele>
        <time>2021-12-19T10:08:24Z</time>
      </trkpt>
      <trkpt lat="46.85466" lon="-1.01742">
        <ele>148</ele>
        <time>2021-12-19T10:08:26Z</time>
      </trkpt>
      <trkpt lat="46.85481" lon="-1.01735">
        <ele>148</ele>
        <time>2021-12-19T10:08:28Z</time>
      </trkpt>
      <trkpt lat="46.85496" lon="-1.01728">
        <ele>148</ele>
        <time>2021-12-19T10:08:30Z</time>
      </trkpt>
      <trkpt lat="46.8551" lon="-1.01721">
        <ele>147</ele>
        <time>2021-12-19T10:08:32Z</time>
      </trkpt>
      <trkpt lat="46.85517" lon="-1.01717">
        <ele>147</ele>
        <time>2021-12-19T10:08:33Z</time>
      </trkpt>
      <trkpt lat="46.85529" lon="-1.01709">
        <ele>147</ele>
        <time>2021-12-19T10:08:35Z</time>
      </trkpt>
      <trkpt lat="46.85535" lon="-1.01705">
        <ele>148</ele>
        <time>2021-12-19T10:08:36Z</time>
      </trkpt>
      <trkpt lat="46.85546" lon="-1.01699">
        <ele>148</ele>
        <time>2021-12-19T10:08:38Z</time>
      </trkpt>
      <trkpt lat="46.85556" lon="-1.01692">
        <ele>149</ele>
        <time>2021-12-19T10:08:40Z</time>
      </trkpt>
      <trkpt lat="46.85566" lon="-1.01685">
        <ele>149</ele>
        <time>2021-12-19T10:08:42Z</time>
      </trkpt>
      <trkpt lat="46.85576" lon="-1.01679">
        <ele>150</ele>
        <time>2021-12-19T10:08:44Z</time>
      </trkpt>
      <trkpt lat="46.8558" lon="-1.01675">
        <ele>150</ele>
        <time>2021-12-19T10:08:45Z</time>
      </trkpt>
      <trkpt lat="46.8559" lon="-1.01669">
        <ele>151</ele>
        <time>2021-12-19T10:08:47Z</time>
      </trkpt>
      <trkpt lat="46.85599" lon="-1.01663">
        <ele>151</ele>
        <time>2021-12-19T10:08:49Z</time>
      </trkpt>
      <trkpt lat="46.85604" lon="-1.01661">
        <ele>151</ele>
        <time>2021-12-19T10:08:50Z</time>
      </trkpt>
      <trkpt lat="46.85609" lon="-1.01658">
        <ele>151</ele>
        <time>2021-12-19T10:08:51Z</time>
      </trkpt>
      <trkpt lat="46.85619" lon="-1.01651">
        <ele>152</ele>
        <time>2021-12-19T10:08:53Z</time>
      </trkpt>
      <trkpt lat="46.85624" lon="-1.01648">
        <ele>152</ele>
        <time>2021-12-19T10:08:54Z</time>
      </trkpt>
      <trkpt lat="46.85633" lon="-1.01642">
        <ele>151</ele>
        <time>2021-12-19T10:08:56Z</time>
      </trkpt>
      <trkpt lat="46.85643" lon="-1.01635">
        <ele>152</ele>
        <time>2021-12-19T10:08:58Z</time>
      </trkpt>
      <trkpt lat="46.85652" lon="-1.01628">
        <ele>152</ele>
        <time>2021-12-19T10:09:00Z</time>
      </trkpt>
      <trkpt lat="46.85661" lon="-1.01622">
        <ele>152</ele>
        <time>2021-12-19T10:09:02Z</time>
      </trkpt>
      <trkpt lat="46.85665" lon="-1.01618">
        <ele>152</ele>
        <time>2021-12-19T10:09:03Z</time>
      </trkpt>
      <trkpt lat="46.85674" lon="-1.0161">
        <ele>153</ele>
        <time>2021-12-19T10:09:05Z</time>
      </trkpt>
      <trkpt lat="46.85679" lon="-1.01606">
        <ele>153</ele>
        <time>2021-12-19T10:09:06Z</time>
      </trkpt>
      <trkpt lat="46.85689" lon="-1.01599">
        <ele>153</ele>
        <time>2021-12-19T10:09:08Z</time>
      </trkpt>
      <trkpt lat="46.85699" lon="-1.01592">
        <ele>153</ele>
        <time>2021-12-19T10:09:10Z</time>
      </trkpt>
      <trkpt lat="46.85709" lon="-1.01586">
        <ele>154</ele>
        <time>2021-12-19T10:09:12Z</time>
      </trkpt>
      <trkpt lat="46.85719" lon="-1.01579">
        <ele>154</ele>
        <time>2021-12-19T10:09:14Z</time>
      </trkpt>
      <trkpt lat="46.85723" lon="-1.01576">
        <ele>155</ele>
        <time>2021-12-19T10:09:15Z</time>
      </trkpt>
      <trkpt lat="46.85733" lon="-1.01569">
        <ele>155</ele>
        <time>2021-12-19T10:09:17Z</time>
      </trkpt>
      <trkpt lat="46.85736" lon="-1.01564">
        <ele>155</ele>
        <time>2021-12-19T10:09:18Z</time>
      </trkpt>
      <trkpt lat="46.85739" lon="-1.01559">
        <ele>155</ele>
        <time>2021-12-19T10:09:19Z</time>
      </trkpt>
      <trkpt lat="46.85741" lon="-1.01553">
        <ele>155</ele>
        <time>2021-12-19T10:09:20Z</time>
      </trkpt>
      <trkpt lat="46.85744" lon="-1.01539">
        <ele>155</ele>
        <time>2021-12-19T10:09:22Z</time>
      </trkpt>
      <trkpt lat="46.85746" lon="-1.01533">
        <ele>155</ele>
        <time>2021-12-19T10:09:23Z</time>
      </trkpt>
      <trkpt lat="46.8575" lon="-1.01529">
        <ele>156</ele>
        <time>2021-12-19T10:09:24Z</time>
      </trkpt>
      <trkpt lat="46.8576" lon="-1.01529">
        <ele>156</ele>
        <time>2021-12-19T10:09:26Z</time>
      </trkpt>
      <trkpt lat="46.8577" lon="-1.01532">
        <ele>156</ele>
        <time>2021-12-19T10:09:28Z</time>
      </trkpt>
      <trkpt lat="46.85776" lon="-1.01532">
        <ele>156</ele>
        <time>2021-12-19T10:09:29Z</time>
      </trkpt>
      <trkpt lat="46.85781" lon="-1.01529">
        <ele>156</ele>
        <time>2021-12-19T10:09:30Z</time>
      </trkpt>
      <trkpt lat="46.85785" lon="-1.01525">
        <ele>156</ele>
        <time>2021-12-19T10:09:31Z</time>
      </trkpt>
      <trkpt lat="46.8579" lon="-1.01521">
        <ele>156</ele>
        <time>2021-12-19T10:09:32Z</time>
      </trkpt>
      <trkpt lat="46.85799" lon="-1.01511">
        <ele>157</ele>
        <time>2021-12-19T10:09:34Z</time>
      </trkpt>
      <trkpt lat="46.85807" lon="-1.01501">
        <ele>157</ele>
        <time>2021-12-19T10:09:36Z</time>
      </trkpt>
      <trkpt lat="46.85816" lon="-1.01494">
        <ele>157</ele>
        <time>2021-12-19T10:09:38Z</time>
      </trkpt>
      <trkpt lat="46.85825" lon="-1.01486">
        <ele>157</ele>
        <time>2021-12-19T10:09:40Z</time>
      </trkpt>
      <trkpt lat="46.85829" lon="-1.01482">
        <ele>157</ele>
        <time>2021-12-19T10:09:41Z</time>
      </trkpt>
      <trkpt lat="46.85836" lon="-1.01474">
        <ele>158</ele>
        <time>2021-12-19T10:09:43Z</time>
      </trkpt>
      <trkpt lat="46.85842" lon="-1.01467">
        <ele>158</ele>
        <time>2021-12-19T10:09:45Z</time>
      </trkpt>
      <trkpt lat="46.85844" lon="-1.01462">
        <ele>158</ele>
        <time>2021-12-19T10:09:46Z</time>
      </trkpt>
      <trkpt lat="46.85847" lon="-1.01457">
        <ele>158</ele>
        <time>2021-12-19T10:09:47Z</time>
      </trkpt>
      <trkpt lat="46.85853" lon="-1.01447">
        <ele>158</ele>
        <time>2021-12-19T10:09:49Z</time>
      </trkpt>
      <trkpt lat="46.85859" lon="-1.01445">
        <ele>158</ele>
        <time>2021-12-19T10:09:50Z</time>
      </trkpt>
      <trkpt lat="46.85864" lon="-1.01444">
        <ele>158</ele>
        <time>2021-12-19T10:09:51Z</time>
      </trkpt>
      <trkpt lat="46.85875" lon="-1.01445">
        <ele>158</ele>
        <time>2021-12-19T10:09:53Z</time>
      </trkpt>
      <trkpt lat="46.85886" lon="-1.01439">
        <ele>158</ele>
        <time>2021-12-19T10:09:55Z</time>
      </trkpt>
      <trkpt lat="46.85896" lon="-1.0143">
        <ele>158</ele>
        <time>2021-12-19T10:09:57Z</time>
      </trkpt>
      <trkpt lat="46.85901" lon="-1.01425">
        <ele>158</ele>
        <time>2021-12-19T10:09:58Z</time>
      </trkpt>
      <trkpt lat="46.85911" lon="-1.01417">
        <ele>158</ele>
        <time>2021-12-19T10:10:00Z</time>
      </trkpt>
      <trkpt lat="46.85916" lon="-1.01413">
        <ele>158</ele>
        <time>2021-12-19T10:10:01Z</time>
      </trkpt>
      <trkpt lat="46.85921" lon="-1.01409">
        <ele>158</ele>
        <time>2021-12-19T10:10:02Z</time>
      </trkpt>
      <trkpt lat="46.85931" lon="-1.01402">
        <ele>159</ele>
        <time>2021-12-19T10:10:04Z</time>
      </trkpt>
      <trkpt lat="46.85936" lon="-1.01398">
        <ele>159</ele>
        <time>2021-12-19T10:10:05Z</time>
      </trkpt>
      <trkpt lat="46.8594" lon="-1.01394">
        <ele>159</ele>
        <time>2021-12-19T10:10:06Z</time>
      </trkpt>
      <trkpt lat="46.85945" lon="-1.0139">
        <ele>159</ele>
        <time>2021-12-19T10:10:07Z</time>
      </trkpt>
      <trkpt lat="46.85955" lon="-1.01382">
        <ele>159</ele>
        <time>2021-12-19T10:10:09Z</time>
      </trkpt>
      <trkpt lat="46.85964" lon="-1.01376">
        <ele>159</ele>
        <time>2021-12-19T10:10:11Z</time>
      </trkpt>
      <trkpt lat="46.85975" lon="-1.01378">
        <ele>160</ele>
        <time>2021-12-19T10:10:13Z</time>
      </trkpt>
      <trkpt lat="46.85979" lon="-1.01383">
        <ele>160</ele>
        <time>2021-12-19T10:10:14Z</time>
      </trkpt>
      <trkpt lat="46.85982" lon="-1.0139">
        <ele>160</ele>
        <time>2021-12-19T10:10:15Z</time>
      </trkpt>
      <trkpt lat="46.85988" lon="-1.01407">
        <ele>159</ele>
        <time>2021-12-19T10:10:17Z</time>
      </trkpt>
      <trkpt lat="46.85995" lon="-1.01423">
        <ele>159</ele>
        <time>2021-12-19T10:10:19Z</time>
      </trkpt>
      <trkpt lat="46.86" lon="-1.0144">
        <ele>158</ele>
        <time>2021-12-19T10:10:21Z</time>
      </trkpt>
      <trkpt lat="46.86006" lon="-1.01456">
        <ele>158</ele>
        <time>2021-12-19T10:10:23Z</time>
      </trkpt>
      <trkpt lat="46.86009" lon="-1.01464">
        <ele>158</ele>
        <time>2021-12-19T10:10:24Z</time>
      </trkpt>
      <trkpt lat="46.86015" lon="-1.0148">
        <ele>158</ele>
        <time>2021-12-19T10:10:26Z</time>
      </trkpt>
      <trkpt lat="46.86018" lon="-1.01489">
        <ele>158</ele>
        <time>2021-12-19T10:10:27Z</time>
      </trkpt>
      <trkpt lat="46.86025" lon="-1.01507">
        <ele>158</ele>
        <time>2021-12-19T10:10:29Z</time>
      </trkpt>
      <trkpt lat="46.86029" lon="-1.01516">
        <ele>158</ele>
        <time>2021-12-19T10:10:30Z</time>
      </trkpt>
      <trkpt lat="46.86037" lon="-1.01534">
        <ele>157</ele>
        <time>2021-12-19T10:10:32Z</time>
      </trkpt>
      <trkpt lat="46.86047" lon="-1.0155">
        <ele>158</ele>
        <time>2021-12-19T10:10:34Z</time>
      </trkpt>
      <trkpt lat="46.86052" lon="-1.01557">
        <ele>157</ele>
        <time>2021-12-19T10:10:35Z</time>
      </trkpt>
      <trkpt lat="46.86057" lon="-1.01565">
        <ele>157</ele>
        <time>2021-12-19T10:10:36Z</time>
      </trkpt>
      <trkpt lat="46.86067" lon="-1.0158">
        <ele>157</ele>
        <time>2021-12-19T10:10:38Z</time>
      </trkpt>
      <trkpt lat="46.86076" lon="-1.01595">
        <ele>157</ele>
        <time>2021-12-19T10:10:40Z</time>
      </trkpt>
      <trkpt lat="46.8608" lon="-1.01602">
        <ele>158</ele>
        <time>2021-12-19T10:10:41Z</time>
      </trkpt>
      <trkpt lat="46.86088" lon="-1.01616">
        <ele>158</ele>
        <time>2021-12-19T10:10:43Z</time>
      </trkpt>
      <trkpt lat="46.86096" lon="-1.01629">
        <ele>158</ele>
        <time>2021-12-19T10:10:45Z</time>
      </trkpt>
      <trkpt lat="46.86104" lon="-1.01641">
        <ele>159</ele>
        <time>2021-12-19T10:10:47Z</time>
      </trkpt>
      <trkpt lat="46.86108" lon="-1.01647">
        <ele>159</ele>
        <time>2021-12-19T10:10:48Z</time>
      </trkpt>
      <trkpt lat="46.86115" lon="-1.0166">
        <ele>159</ele>
        <time>2021-12-19T10:10:50Z</time>
      </trkpt>
      <trkpt lat="46.86123" lon="-1.01672">
        <ele>159</ele>
        <time>2021-12-19T10:10:52Z</time>
      </trkpt>
      <trkpt lat="46.86127" lon="-1.01678">
        <ele>159</ele>
        <time>2021-12-19T10:10:53Z</time>
      </trkpt>
      <trkpt lat="46.86137" lon="-1.01686">
        <ele>159</ele>
        <time>2021-12-19T10:10:55Z</time>
      </trkpt>
      <trkpt lat="46.86143" lon="-1.01684">
        <ele>159</ele>
        <time>2021-12-19T10:10:56Z</time>
      </trkpt>
      <trkpt lat="46.86148" lon="-1.0168">
        <ele>159</ele>
        <time>2021-12-19T10:10:57Z</time>
      </trkpt>
      <trkpt lat="46.86156" lon="-1.01665">
        <ele>159</ele>
        <time>2021-12-19T10:10:59Z</time>
      </trkpt>
      <trkpt lat="46.86164" lon="-1.01653">
        <ele>159</ele>
        <time>2021-12-19T10:11:01Z</time>
      </trkpt>
      <trkpt lat="46.86168" lon="-1.01647">
        <ele>159</ele>
        <time>2021-12-19T10:11:02Z</time>
      </trkpt>
      <trkpt lat="46.86176" lon="-1.01638">
        <ele>159</ele>
        <time>2021-12-19T10:11:04Z</time>
      </trkpt>
      <trkpt lat="46.8618" lon="-1.01633">
        <ele>160</ele>
        <time>2021-12-19T10:11:05Z</time>
      </trkpt>
      <trkpt lat="46.86187" lon="-1.01621">
        <ele>160</ele>
        <time>2021-12-19T10:11:07Z</time>
      </trkpt>
      <trkpt lat="46.86195" lon="-1.0161">
        <ele>161</ele>
        <time>2021-12-19T10:11:09Z</time>
      </trkpt>
      <trkpt lat="46.86199" lon="-1.01606">
        <ele>161</ele>
        <time>2021-12-19T10:11:10Z</time>
      </trkpt>
      <trkpt lat="46.86207" lon="-1.01596">
        <ele>161</ele>
        <time>2021-12-19T10:11:12Z</time>
      </trkpt>
      <trkpt lat="46.86211" lon="-1.01591">
        <ele>162</ele>
        <time>2021-12-19T10:11:13Z</time>
      </trkpt>
      <trkpt lat="46.86219" lon="-1.01579">
        <ele>161</ele>
        <time>2021-12-19T10:11:15Z</time>
      </trkpt>
      <trkpt lat="46.86224" lon="-1.01576">
        <ele>161</ele>
        <time>2021-12-19T10:11:16Z</time>
      </trkpt>
      <trkpt lat="46.86236" lon="-1.01573">
        <ele>161</ele>
        <time>2021-12-19T10:11:18Z</time>
      </trkpt>
      <trkpt lat="46.86242" lon="-1.01573">
        <ele>161</ele>
        <time>2021-12-19T10:11:19Z</time>
      </trkpt>
      <trkpt lat="46.86252" lon="-1.01577">
        <ele>162</ele>
        <time>2021-12-19T10:11:21Z</time>
      </trkpt>
      <trkpt lat="46.86257" lon="-1.01578">
        <ele>162</ele>
        <time>2021-12-19T10:11:22Z</time>
      </trkpt>
      <trkpt lat="46.86262" lon="-1.01579">
        <ele>162</ele>
        <time>2021-12-19T10:11:23Z</time>
      </trkpt>
      <trkpt lat="46.8627" lon="-1.0158">
        <ele>162</ele>
        <time>2021-12-19T10:11:25Z</time>
      </trkpt>
      <trkpt lat="46.86275" lon="-1.01579">
        <ele>163</ele>
        <time>2021-12-19T10:11:26Z</time>
      </trkpt>
      <trkpt lat="46.86283" lon="-1.01578">
        <ele>163</ele>
        <time>2021-12-19T10:11:28Z</time>
      </trkpt>
      <trkpt lat="46.86288" lon="-1.01579">
        <ele>162</ele>
        <time>2021-12-19T10:11:29Z</time>
      </trkpt>
      <trkpt lat="46.86297" lon="-1.01584">
        <ele>162</ele>
        <time>2021-12-19T10:11:31Z</time>
      </trkpt>
      <trkpt lat="46.86301" lon="-1.01588">
        <ele>163</ele>
        <time>2021-12-19T10:11:32Z</time>
      </trkpt>
      <trkpt lat="46.8631" lon="-1.01591">
        <ele>163</ele>
        <time>2021-12-19T10:11:34Z</time>
      </trkpt>
      <trkpt lat="46.8632" lon="-1.01594">
        <ele>163</ele>
        <time>2021-12-19T10:11:36Z</time>
      </trkpt>
      <trkpt lat="46.86329" lon="-1.01595">
        <ele>164</ele>
        <time>2021-12-19T10:11:38Z</time>
      </trkpt>
      <trkpt lat="46.86332" lon="-1.01593">
        <ele>165</ele>
        <time>2021-12-19T10:11:39Z</time>
      </trkpt>
      <trkpt lat="46.86339" lon="-1.01583">
        <ele>165</ele>
        <time>2021-12-19T10:11:41Z</time>
      </trkpt>
      <trkpt lat="46.86347" lon="-1.01572">
        <ele>165</ele>
        <time>2021-12-19T10:11:43Z</time>
      </trkpt>
      <trkpt lat="46.86351" lon="-1.01567">
        <ele>166</ele>
        <time>2021-12-19T10:11:44Z</time>
      </trkpt>
      <trkpt lat="46.8636" lon="-1.01559">
        <ele>166</ele>
        <time>2021-12-19T10:11:46Z</time>
      </trkpt>
      <trkpt lat="46.86369" lon="-1.01552">
        <ele>167</ele>
        <time>2021-12-19T10:11:48Z</time>
      </trkpt>
      <trkpt lat="46.86372" lon="-1.01547">
        <ele>167</ele>
        <time>2021-12-19T10:11:49Z</time>
      </trkpt>
      <trkpt lat="46.86379" lon="-1.01537">
        <ele>168</ele>
        <time>2021-12-19T10:11:51Z</time>
      </trkpt>
      <trkpt lat="46.86383" lon="-1.01533">
        <ele>168</ele>
        <time>2021-12-19T10:11:52Z</time>
      </trkpt>
      <trkpt lat="46.86386" lon="-1.01529">
        <ele>168</ele>
        <time>2021-12-19T10:11:53Z</time>
      </trkpt>
      <trkpt lat="46.86394" lon="-1.01521">
        <ele>168</ele>
        <time>2021-12-19T10:11:55Z</time>
      </trkpt>
      <trkpt lat="46.86402" lon="-1.01514">
        <ele>169</ele>
        <time>2021-12-19T10:11:57Z</time>
      </trkpt>
      <trkpt lat="46.86406" lon="-1.0151">
        <ele>169</ele>
        <time>2021-12-19T10:11:58Z</time>
      </trkpt>
      <trkpt lat="46.86414" lon="-1.01501">
        <ele>168</ele>
        <time>2021-12-19T10:12:00Z</time>
      </trkpt>
      <trkpt lat="46.86417" lon="-1.01497">
        <ele>168</ele>
        <time>2021-12-19T10:12:01Z</time>
      </trkpt>
      <trkpt lat="46.8642" lon="-1.01493">
        <ele>169</ele>
        <time>2021-12-19T10:12:02Z</time>
      </trkpt>
      <trkpt lat="46.86426" lon="-1.01486">
        <ele>169</ele>
        <time>2021-12-19T10:12:04Z</time>
      </trkpt>
      <trkpt lat="46.8643" lon="-1.01483">
        <ele>169</ele>
        <time>2021-12-19T10:12:05Z</time>
      </trkpt>
      <trkpt lat="46.86438" lon="-1.01476">
        <ele>169</ele>
        <time>2021-12-19T10:12:07Z</time>
      </trkpt>
      <trkpt lat="46.86442" lon="-1.01474">
        <ele>168</ele>
        <time>2021-12-19T10:12:08Z</time>
      </trkpt>
      <trkpt lat="46.8645" lon="-1.01469">
        <ele>168</ele>
        <time>2021-12-19T10:12:10Z</time>
      </trkpt>
      <trkpt lat="46.86459" lon="-1.01463">
        <ele>168</ele>
        <time>2021-12-19T10:12:12Z</time>
      </trkpt>
      <trkpt lat="46.86463" lon="-1.01461">
        <ele>168</ele>
        <time>2021-12-19T10:12:13Z</time>
      </trkpt>
      <trkpt lat="46.8647" lon="-1.01456">
        <ele>169</ele>
        <time>2021-12-19T10:12:15Z</time>
      </trkpt>
      <trkpt lat="46.86476" lon="-1.01451">
        <ele>168</ele>
        <time>2021-12-19T10:12:17Z</time>
      </trkpt>
      <trkpt lat="46.8648" lon="-1.01447">
        <ele>168</ele>
        <time>2021-12-19T10:12:19Z</time>
      </trkpt>
      <trkpt lat="46.86481" lon="-1.01446">
        <ele>168</ele>
        <time>2021-12-19T10:12:20Z</time>
      </trkpt>
      <trkpt lat="46.86483" lon="-1.01443">
        <ele>168</ele>
        <time>2021-12-19T10:12:22Z</time>
      </trkpt>
      <trkpt lat="46.86487" lon="-1.01441">
        <ele>167</ele>
        <time>2021-12-19T10:12:24Z</time>
      </trkpt>
      <trkpt lat="46.86491" lon="-1.01438">
        <ele>168</ele>
        <time>2021-12-19T10:12:26Z</time>
      </trkpt>
      <trkpt lat="46.86492" lon="-1.01435">
        <ele>167</ele>
        <time>2021-12-19T10:12:28Z</time>
      </trkpt>
      <trkpt lat="46.86493" lon="-1.01435">
        <ele>166</ele>
        <time>2021-12-19T10:12:29Z</time>
      </trkpt>
      <trkpt lat="46.86493" lon="-1.01434">
        <ele>165</ele>
        <time>2021-12-19T10:12:31Z</time>
      </trkpt>
      <trkpt lat="46.86493" lon="-1.01434">
        <ele>165</ele>
        <time>2021-12-19T10:12:32Z</time>
      </trkpt>
      <trkpt lat="46.86493" lon="-1.01434">
        <ele>165</ele>
        <time>2021-12-19T10:12:34Z</time>
      </trkpt>
      <trkpt lat="46.86493" lon="-1.01434">
        <ele>165</ele>
        <time>2021-12-19T10:12:36Z</time>
      </trkpt>
      <trkpt lat="46.86493" lon="-1.01434">
        <ele>165</ele>
        <time>2021-12-19T10:12:37Z</time>
      </trkpt>
    </trkseg>
  </trk>
</gpx>